<?xml version='1.0' encoding='UTF-8'?><gpx version="1.1" creator="JPX - https://github.com/jenetics/jpx" xmlns="http://www.topografix.com/GPX/1/1"><trk><trkseg><trkpt lat="45.6751167" lon="12.3355917"><ele>12.0</ele><time>2026-04-02T14:35:30.749Z</time></trkpt><trkpt lat="45.6751717" lon="12.3357567"><ele>12.0</ele><time>2026-04-02T14:35:33.986Z</time></trkpt><trkpt lat="45.6752483" lon="12.3358467"><ele>12.0</ele><time>2026-04-02T14:35:34.986Z</time></trkpt><trkpt lat="45.6754067" lon="12.335875"><ele>12.0</ele><time>2026-04-02T14:36:09.986Z</time></trkpt><trkpt lat="45.6755517" lon="12.3361733"><ele>12.0</ele><time>2026-04-02T14:36:13.986Z</time></trkpt><trkpt lat="45.67561" lon="12.3362733"><ele>12.0</ele><time>2026-04-02T14:36:14.986Z</time></trkpt><trkpt lat="45.6756817" lon="12.3363933"><ele>12.0</ele><time>2026-04-02T14:36:15.986Z</time></trkpt><trkpt lat="45.6757483" lon="12.3364967"><ele>12.0</ele><time>2026-04-02T14:36:16.985Z</time></trkpt><trkpt lat="45.6758267" lon="12.336605"><ele>12.0</ele><time>2026-04-02T14:36:17.986Z</time></trkpt><trkpt lat="45.6758933" lon="12.3367167"><ele>12.0</ele><time>2026-04-02T14:36:18.986Z</time></trkpt><trkpt lat="45.6759217" lon="12.3368367"><ele>12.0</ele><time>2026-04-02T14:36:19.986Z</time></trkpt><trkpt lat="45.6759283" lon="12.3369617"><ele>12.0</ele><time>2026-04-02T14:36:20.985Z</time></trkpt><trkpt lat="45.675915" lon="12.3370767"><ele>12.0</ele><time>2026-04-02T14:36:21.986Z</time></trkpt><trkpt lat="45.6758917" lon="12.3371917"><ele>12.0</ele><time>2026-04-02T14:36:22.986Z</time></trkpt><trkpt lat="45.6758583" lon="12.3373367"><ele>12.0</ele><time>2026-04-02T14:36:23.986Z</time></trkpt><trkpt lat="45.6758467" lon="12.3374767"><ele>12.0</ele><time>2026-04-02T14:36:24.986Z</time></trkpt><trkpt lat="45.67584" lon="12.337595"><ele>12.0</ele><time>2026-04-02T14:36:25.986Z</time></trkpt><trkpt lat="45.6758933" lon="12.33772"><ele>12.0</ele><time>2026-04-02T14:36:26.986Z</time></trkpt><trkpt lat="45.6759583" lon="12.3378267"><ele>12.0</ele><time>2026-04-02T14:36:27.986Z</time></trkpt><trkpt lat="45.6760383" lon="12.3378983"><ele>12.0</ele><time>2026-04-02T14:36:28.986Z</time></trkpt><trkpt lat="45.6761283" lon="12.3379383"><ele>12.0</ele><time>2026-04-02T14:36:29.985Z</time></trkpt><trkpt lat="45.67625" lon="12.33792"><ele>12.0</ele><time>2026-04-02T14:36:30.985Z</time></trkpt><trkpt lat="45.676355" lon="12.337925"><ele>12.0</ele><time>2026-04-02T14:36:31.986Z</time></trkpt><trkpt lat="45.67657" lon="12.3379433"><ele>12.0</ele><time>2026-04-02T14:36:33.986Z</time></trkpt><trkpt lat="45.67665" lon="12.338045"><ele>12.0</ele><time>2026-04-02T14:36:34.986Z</time></trkpt><trkpt lat="45.676735" lon="12.3381567"><ele>12.0</ele><time>2026-04-02T14:36:35.986Z</time></trkpt><trkpt lat="45.67683" lon="12.3382817"><ele>12.0</ele><time>2026-04-02T14:36:36.986Z</time></trkpt><trkpt lat="45.67693" lon="12.33844"><ele>12.0</ele><time>2026-04-02T14:36:37.986Z</time></trkpt><trkpt lat="45.6770317" lon="12.3386083"><ele>12.0</ele><time>2026-04-02T14:36:38.985Z</time></trkpt><trkpt lat="45.677125" lon="12.3387583"><ele>12.0</ele><time>2026-04-02T14:36:39.985Z</time></trkpt><trkpt lat="45.6772283" lon="12.338935"><ele>12.0</ele><time>2026-04-02T14:36:40.985Z</time></trkpt><trkpt lat="45.6773383" lon="12.339105"><ele>11.666666666666666</ele><time>2026-04-02T14:36:41.986Z</time></trkpt><trkpt lat="45.67746" lon="12.3392883"><ele>11.333333333333332</ele><time>2026-04-02T14:36:42.986Z</time></trkpt><trkpt lat="45.677585" lon="12.33948"><ele>11.0</ele><time>2026-04-02T14:36:43.986Z</time></trkpt><trkpt lat="45.6777067" lon="12.3396667"><ele>11.5</ele><time>2026-04-02T14:36:44.986Z</time></trkpt><trkpt lat="45.6778133" lon="12.339825"><ele>12.0</ele><time>2026-04-02T14:36:45.986Z</time></trkpt><trkpt lat="45.6779217" lon="12.33997"><ele>12.5</ele><time>2026-04-02T14:36:46.985Z</time></trkpt><trkpt lat="45.67802" lon="12.3401083"><ele>13.0</ele><time>2026-04-02T14:36:47.986Z</time></trkpt><trkpt lat="45.6781033" lon="12.340245"><ele>13.0</ele><time>2026-04-02T14:36:48.986Z</time></trkpt><trkpt lat="45.67819" lon="12.34037"><ele>13.0</ele><time>2026-04-02T14:36:49.986Z</time></trkpt><trkpt lat="45.678265" lon="12.3404783"><ele>13.0</ele><time>2026-04-02T14:36:50.986Z</time></trkpt><trkpt lat="45.678325" lon="12.3405733"><ele>13.0</ele><time>2026-04-02T14:36:51.985Z</time></trkpt><trkpt lat="45.6783733" lon="12.3406333"><ele>13.0</ele><time>2026-04-02T14:36:52.986Z</time></trkpt><trkpt lat="45.6785117" lon="12.3406733"><ele>13.0</ele><time>2026-04-02T14:36:58.986Z</time></trkpt><trkpt lat="45.6785883" lon="12.3405467"><ele>13.0</ele><time>2026-04-02T14:37:00.986Z</time></trkpt><trkpt lat="45.6786367" lon="12.3404567"><ele>13.0</ele><time>2026-04-02T14:37:01.986Z</time></trkpt><trkpt lat="45.6786983" lon="12.3403817"><ele>13.0</ele><time>2026-04-02T14:37:02.986Z</time></trkpt><trkpt lat="45.678775" lon="12.3402883"><ele>13.0</ele><time>2026-04-02T14:37:03.986Z</time></trkpt><trkpt lat="45.678875" lon="12.34017"><ele>13.0</ele><time>2026-04-02T14:37:04.986Z</time></trkpt><trkpt lat="45.6789983" lon="12.3400233"><ele>13.0</ele><time>2026-04-02T14:37:05.986Z</time></trkpt><trkpt lat="45.6791567" lon="12.3398417"><ele>13.0</ele><time>2026-04-02T14:37:06.986Z</time></trkpt><trkpt lat="45.6793217" lon="12.3396583"><ele>11.666666666666666</ele><time>2026-04-02T14:37:07.986Z</time></trkpt><trkpt lat="45.6794917" lon="12.33947"><ele>10.333333333333332</ele><time>2026-04-02T14:37:08.986Z</time></trkpt><trkpt lat="45.67965" lon="12.339275"><ele>9.0</ele><time>2026-04-02T14:37:09.985Z</time></trkpt><trkpt lat="45.67981" lon="12.3390933"><ele>9.0</ele><time>2026-04-02T14:37:10.985Z</time></trkpt><trkpt lat="45.679995" lon="12.3388933"><ele>9.0</ele><time>2026-04-02T14:37:11.985Z</time></trkpt><trkpt lat="45.6801817" lon="12.3386667"><ele>10.0</ele><time>2026-04-02T14:37:12.984Z</time></trkpt><trkpt lat="45.6803483" lon="12.3384683"><ele>11.0</ele><time>2026-04-02T14:37:13.984Z</time></trkpt><trkpt lat="45.6806383" lon="12.3381667"><ele>11.0</ele><time>2026-04-02T14:37:15.985Z</time></trkpt><trkpt lat="45.6807467" lon="12.3380533"><ele>11.0</ele><time>2026-04-02T14:37:16.985Z</time></trkpt><trkpt lat="45.6808517" lon="12.3379483"><ele>11.0</ele><time>2026-04-02T14:37:17.985Z</time></trkpt><trkpt lat="45.680935" lon="12.33787"><ele>11.0</ele><time>2026-04-02T14:37:18.985Z</time></trkpt><trkpt lat="45.6810017" lon="12.3379117"><ele>11.0</ele><time>2026-04-02T14:37:20.984Z</time></trkpt><trkpt lat="45.6810233" lon="12.3380117"><ele>11.0</ele><time>2026-04-02T14:37:21.985Z</time></trkpt><trkpt lat="45.6810367" lon="12.338205"><ele>11.0</ele><time>2026-04-02T14:37:22.985Z</time></trkpt><trkpt lat="45.6810567" lon="12.3384217"><ele>11.0</ele><time>2026-04-02T14:37:23.985Z</time></trkpt><trkpt lat="45.6810817" lon="12.3387133"><ele>11.333333333333332</ele><time>2026-04-02T14:37:24.985Z</time></trkpt><trkpt lat="45.68114" lon="12.3389917"><ele>11.666666666666666</ele><time>2026-04-02T14:37:25.985Z</time></trkpt><trkpt lat="45.681225" lon="12.3392917"><ele>12.0</ele><time>2026-04-02T14:37:26.985Z</time></trkpt><trkpt lat="45.681315" lon="12.339575"><ele>11.666666666666666</ele><time>2026-04-02T14:37:27.985Z</time></trkpt><trkpt lat="45.6813983" lon="12.33985"><ele>11.333333333333332</ele><time>2026-04-02T14:37:28.985Z</time></trkpt><trkpt lat="45.6814867" lon="12.3401067"><ele>11.0</ele><time>2026-04-02T14:37:29.985Z</time></trkpt><trkpt lat="45.6815767" lon="12.34036"><ele>11.0</ele><time>2026-04-02T14:37:30.985Z</time></trkpt><trkpt lat="45.68166" lon="12.340615"><ele>11.0</ele><time>2026-04-02T14:37:31.985Z</time></trkpt><trkpt lat="45.6817667" lon="12.3408783"><ele>11.0</ele><time>2026-04-02T14:37:32.985Z</time></trkpt><trkpt lat="45.6818617" lon="12.34114"><ele>10.5</ele><time>2026-04-02T14:37:33.985Z</time></trkpt><trkpt lat="45.681945" lon="12.341385"><ele>10.0</ele><time>2026-04-02T14:37:34.985Z</time></trkpt><trkpt lat="45.682075" lon="12.3418367"><ele>10.0</ele><time>2026-04-02T14:37:36.985Z</time></trkpt><trkpt lat="45.6821083" lon="12.3420767"><ele>10.0</ele><time>2026-04-02T14:37:37.985Z</time></trkpt><trkpt lat="45.682125" lon="12.3423217"><ele>10.0</ele><time>2026-04-02T14:37:38.985Z</time></trkpt><trkpt lat="45.6821533" lon="12.342555"><ele>10.0</ele><time>2026-04-02T14:37:39.984Z</time></trkpt><trkpt lat="45.6821333" lon="12.3427517"><ele>10.0</ele><time>2026-04-02T14:37:40.985Z</time></trkpt><trkpt lat="45.6821783" lon="12.3429467"><ele>10.0</ele><time>2026-04-02T14:37:41.985Z</time></trkpt><trkpt lat="45.6822033" lon="12.3431233"><ele>10.0</ele><time>2026-04-02T14:37:42.985Z</time></trkpt><trkpt lat="45.6822317" lon="12.3432783"><ele>10.4</ele><time>2026-04-02T14:37:43.984Z</time></trkpt><trkpt lat="45.68224" lon="12.343415"><ele>10.8</ele><time>2026-04-02T14:37:44.985Z</time></trkpt><trkpt lat="45.682255" lon="12.3435267"><ele>11.2</ele><time>2026-04-02T14:37:45.985Z</time></trkpt><trkpt lat="45.6822717" lon="12.3436217"><ele>11.6</ele><time>2026-04-02T14:37:46.985Z</time></trkpt><trkpt lat="45.6823417" lon="12.34373"><ele>12.0</ele><time>2026-04-02T14:37:48.985Z</time></trkpt><trkpt lat="45.682445" lon="12.34373"><ele>12.0</ele><time>2026-04-02T14:37:50.985Z</time></trkpt><trkpt lat="45.682535" lon="12.3436817"><ele>12.0</ele><time>2026-04-02T14:37:51.984Z</time></trkpt><trkpt lat="45.6826517" lon="12.3436167"><ele>12.0</ele><time>2026-04-02T14:37:52.985Z</time></trkpt><trkpt lat="45.6827917" lon="12.34352"><ele>12.0</ele><time>2026-04-02T14:37:53.985Z</time></trkpt><trkpt lat="45.6829617" lon="12.3434083"><ele>12.0</ele><time>2026-04-02T14:37:54.985Z</time></trkpt><trkpt lat="45.6831483" lon="12.3432867"><ele>12.0</ele><time>2026-04-02T14:37:55.985Z</time></trkpt><trkpt lat="45.6834783" lon="12.3430883"><ele>12.0</ele><time>2026-04-02T14:37:57.985Z</time></trkpt><trkpt lat="45.6836417" lon="12.3430033"><ele>12.0</ele><time>2026-04-02T14:37:58.985Z</time></trkpt><trkpt lat="45.683795" lon="12.3429333"><ele>12.0</ele><time>2026-04-02T14:37:59.985Z</time></trkpt><trkpt lat="45.6839317" lon="12.3428833"><ele>12.0</ele><time>2026-04-02T14:38:00.985Z</time></trkpt><trkpt lat="45.6840717" lon="12.3428317"><ele>12.0</ele><time>2026-04-02T14:38:01.985Z</time></trkpt><trkpt lat="45.6842017" lon="12.34276"><ele>12.0</ele><time>2026-04-02T14:38:02.985Z</time></trkpt><trkpt lat="45.6843483" lon="12.342685"><ele>12.0</ele><time>2026-04-02T14:38:03.985Z</time></trkpt><trkpt lat="45.6844983" lon="12.3425983"><ele>12.666666666666668</ele><time>2026-04-02T14:38:04.985Z</time></trkpt><trkpt lat="45.6846417" lon="12.3425267"><ele>13.333333333333334</ele><time>2026-04-02T14:38:05.985Z</time></trkpt><trkpt lat="45.68479" lon="12.3424583"><ele>14.0</ele><time>2026-04-02T14:38:06.984Z</time></trkpt><trkpt lat="45.6849333" lon="12.3424017"><ele>14.0</ele><time>2026-04-02T14:38:07.984Z</time></trkpt><trkpt lat="45.68506" lon="12.3423767"><ele>14.0</ele><time>2026-04-02T14:38:08.985Z</time></trkpt><trkpt lat="45.68519" lon="12.3423583"><ele>14.0</ele><time>2026-04-02T14:38:09.985Z</time></trkpt><trkpt lat="45.6853133" lon="12.3423383"><ele>14.0</ele><time>2026-04-02T14:38:10.985Z</time></trkpt><trkpt lat="45.68546" lon="12.3423167"><ele>14.25</ele><time>2026-04-02T14:38:11.985Z</time></trkpt><trkpt lat="45.6855933" lon="12.342265"><ele>14.5</ele><time>2026-04-02T14:38:12.985Z</time></trkpt><trkpt lat="45.68572" lon="12.3421917"><ele>14.75</ele><time>2026-04-02T14:38:13.985Z</time></trkpt><trkpt lat="45.6858483" lon="12.3421333"><ele>15.0</ele><time>2026-04-02T14:38:14.985Z</time></trkpt><trkpt lat="45.685975" lon="12.34208"><ele>15.0</ele><time>2026-04-02T14:38:15.985Z</time></trkpt><trkpt lat="45.6861017" lon="12.3420233"><ele>15.0</ele><time>2026-04-02T14:38:16.985Z</time></trkpt><trkpt lat="45.686345" lon="12.3419067"><ele>15.0</ele><time>2026-04-02T14:38:18.984Z</time></trkpt><trkpt lat="45.68647" lon="12.3418417"><ele>15.0</ele><time>2026-04-02T14:38:19.985Z</time></trkpt><trkpt lat="45.6865933" lon="12.3418033"><ele>15.0</ele><time>2026-04-02T14:38:20.985Z</time></trkpt><trkpt lat="45.6867183" lon="12.3417767"><ele>15.0</ele><time>2026-04-02T14:38:21.985Z</time></trkpt><trkpt lat="45.6868517" lon="12.3417817"><ele>15.0</ele><time>2026-04-02T14:38:22.985Z</time></trkpt><trkpt lat="45.6869933" lon="12.3418067"><ele>14.25</ele><time>2026-04-02T14:38:23.984Z</time></trkpt><trkpt lat="45.6871233" lon="12.3418783"><ele>13.5</ele><time>2026-04-02T14:38:24.984Z</time></trkpt><trkpt lat="45.687245" lon="12.3419783"><ele>12.75</ele><time>2026-04-02T14:38:25.985Z</time></trkpt><trkpt lat="45.68738" lon="12.342075"><ele>12.0</ele><time>2026-04-02T14:38:26.985Z</time></trkpt><trkpt lat="45.687485" lon="12.342185"><ele>12.25</ele><time>2026-04-02T14:38:27.984Z</time></trkpt><trkpt lat="45.6875983" lon="12.34232"><ele>12.5</ele><time>2026-04-02T14:38:28.985Z</time></trkpt><trkpt lat="45.6877067" lon="12.3424633"><ele>12.75</ele><time>2026-04-02T14:38:29.985Z</time></trkpt><trkpt lat="45.687815" lon="12.3425867"><ele>13.0</ele><time>2026-04-02T14:38:30.985Z</time></trkpt><trkpt lat="45.6879483" lon="12.3427183"><ele>13.0</ele><time>2026-04-02T14:38:31.985Z</time></trkpt><trkpt lat="45.6880767" lon="12.3428383"><ele>13.0</ele><time>2026-04-02T14:38:32.984Z</time></trkpt><trkpt lat="45.6881683" lon="12.34292"><ele>13.0</ele><time>2026-04-02T14:38:33.985Z</time></trkpt><trkpt lat="45.6882617" lon="12.3429867"><ele>13.0</ele><time>2026-04-02T14:38:34.985Z</time></trkpt><trkpt lat="45.68838" lon="12.343025"><ele>13.0</ele><time>2026-04-02T14:38:35.985Z</time></trkpt><trkpt lat="45.6884967" lon="12.3430083"><ele>13.0</ele><time>2026-04-02T14:38:36.985Z</time></trkpt><trkpt lat="45.6886117" lon="12.34297"><ele>13.0</ele><time>2026-04-02T14:38:37.985Z</time></trkpt><trkpt lat="45.68882" lon="12.34277"><ele>13.25</ele><time>2026-04-02T14:38:39.985Z</time></trkpt><trkpt lat="45.6889217" lon="12.3426917"><ele>13.5</ele><time>2026-04-02T14:38:40.985Z</time></trkpt><trkpt lat="45.689045" lon="12.3426183"><ele>13.75</ele><time>2026-04-02T14:38:41.985Z</time></trkpt><trkpt lat="45.68917" lon="12.3425717"><ele>14.0</ele><time>2026-04-02T14:38:42.984Z</time></trkpt><trkpt lat="45.6892717" lon="12.342545"><ele>14.0</ele><time>2026-04-02T14:38:43.985Z</time></trkpt><trkpt lat="45.689405" lon="12.342535"><ele>14.0</ele><time>2026-04-02T14:38:44.985Z</time></trkpt><trkpt lat="45.6896" lon="12.3425117"><ele>14.0</ele><time>2026-04-02T14:38:45.985Z</time></trkpt><trkpt lat="45.6897183" lon="12.3424733"><ele>14.0</ele><time>2026-04-02T14:38:46.985Z</time></trkpt><trkpt lat="45.6898383" lon="12.3424367"><ele>14.0</ele><time>2026-04-02T14:38:47.985Z</time></trkpt><trkpt lat="45.68998" lon="12.3424"><ele>14.0</ele><time>2026-04-02T14:38:48.985Z</time></trkpt><trkpt lat="45.6901217" lon="12.3423667"><ele>14.0</ele><time>2026-04-02T14:38:49.984Z</time></trkpt><trkpt lat="45.6902717" lon="12.34236"><ele>14.0</ele><time>2026-04-02T14:38:50.985Z</time></trkpt><trkpt lat="45.69042" lon="12.3423533"><ele>14.0</ele><time>2026-04-02T14:38:51.985Z</time></trkpt><trkpt lat="45.69057" lon="12.3423317"><ele>14.0</ele><time>2026-04-02T14:38:52.985Z</time></trkpt><trkpt lat="45.690715" lon="12.3423067"><ele>14.0</ele><time>2026-04-02T14:38:53.985Z</time></trkpt><trkpt lat="45.6908683" lon="12.3422733"><ele>14.0</ele><time>2026-04-02T14:38:54.985Z</time></trkpt><trkpt lat="45.6910117" lon="12.342245"><ele>14.0</ele><time>2026-04-02T14:38:55.985Z</time></trkpt><trkpt lat="45.6911483" lon="12.342215"><ele>14.0</ele><time>2026-04-02T14:38:56.985Z</time></trkpt><trkpt lat="45.6912917" lon="12.3422267"><ele>14.0</ele><time>2026-04-02T14:38:57.985Z</time></trkpt><trkpt lat="45.691425" lon="12.3422733"><ele>14.5</ele><time>2026-04-02T14:38:58.985Z</time></trkpt><trkpt lat="45.6917867" lon="12.34245"><ele>15.0</ele><time>2026-04-02T14:39:00.984Z</time></trkpt><trkpt lat="45.6919267" lon="12.342515"><ele>14.333333333333332</ele><time>2026-04-02T14:39:01.985Z</time></trkpt><trkpt lat="45.6920717" lon="12.3425967"><ele>13.666666666666666</ele><time>2026-04-02T14:39:02.985Z</time></trkpt><trkpt lat="45.69222" lon="12.3426717"><ele>13.0</ele><time>2026-04-02T14:39:03.985Z</time></trkpt><trkpt lat="45.6923583" lon="12.3427283"><ele>13.0</ele><time>2026-04-02T14:39:04.985Z</time></trkpt><trkpt lat="45.6925083" lon="12.3427817"><ele>13.0</ele><time>2026-04-02T14:39:05.985Z</time></trkpt><trkpt lat="45.6926633" lon="12.342825"><ele>13.0</ele><time>2026-04-02T14:39:06.985Z</time></trkpt><trkpt lat="45.6928117" lon="12.3428683"><ele>13.333333333333332</ele><time>2026-04-02T14:39:07.985Z</time></trkpt><trkpt lat="45.6929667" lon="12.3429"><ele>13.666666666666668</ele><time>2026-04-02T14:39:08.985Z</time></trkpt><trkpt lat="45.6931317" lon="12.3429317"><ele>14.0</ele><time>2026-04-02T14:39:09.985Z</time></trkpt><trkpt lat="45.6932917" lon="12.3429633"><ele>14.0</ele><time>2026-04-02T14:39:10.985Z</time></trkpt><trkpt lat="45.6934533" lon="12.3430017"><ele>14.0</ele><time>2026-04-02T14:39:11.984Z</time></trkpt><trkpt lat="45.6935983" lon="12.343035"><ele>14.0</ele><time>2026-04-02T14:39:12.985Z</time></trkpt><trkpt lat="45.69374" lon="12.3430633"><ele>14.0</ele><time>2026-04-02T14:39:13.984Z</time></trkpt><trkpt lat="45.6938817" lon="12.3430767"><ele>14.0</ele><time>2026-04-02T14:39:14.985Z</time></trkpt><trkpt lat="45.694015" lon="12.3430933"><ele>14.0</ele><time>2026-04-02T14:39:15.985Z</time></trkpt><trkpt lat="45.6941583" lon="12.3431033"><ele>14.0</ele><time>2026-04-02T14:39:16.985Z</time></trkpt><trkpt lat="45.694315" lon="12.3431283"><ele>14.0</ele><time>2026-04-02T14:39:17.985Z</time></trkpt><trkpt lat="45.69447" lon="12.3431567"><ele>14.0</ele><time>2026-04-02T14:39:18.984Z</time></trkpt><trkpt lat="45.6946167" lon="12.34316"><ele>14.0</ele><time>2026-04-02T14:39:19.985Z</time></trkpt><trkpt lat="45.6948667" lon="12.343125"><ele>14.0</ele><time>2026-04-02T14:39:21.984Z</time></trkpt><trkpt lat="45.694995" lon="12.34312"><ele>14.0</ele><time>2026-04-02T14:39:22.985Z</time></trkpt><trkpt lat="45.6951367" lon="12.34315"><ele>14.0</ele><time>2026-04-02T14:39:23.985Z</time></trkpt><trkpt lat="45.6953017" lon="12.34319"><ele>14.0</ele><time>2026-04-02T14:39:24.984Z</time></trkpt><trkpt lat="45.6954683" lon="12.3432217"><ele>13.666666666666668</ele><time>2026-04-02T14:39:25.985Z</time></trkpt><trkpt lat="45.6956333" lon="12.3432283"><ele>13.333333333333332</ele><time>2026-04-02T14:39:26.985Z</time></trkpt><trkpt lat="45.6958" lon="12.3432833"><ele>13.0</ele><time>2026-04-02T14:39:27.984Z</time></trkpt><trkpt lat="45.6959367" lon="12.34332"><ele>13.0</ele><time>2026-04-02T14:39:28.985Z</time></trkpt><trkpt lat="45.696075" lon="12.3433667"><ele>13.0</ele><time>2026-04-02T14:39:29.985Z</time></trkpt><trkpt lat="45.6962133" lon="12.3433883"><ele>13.0</ele><time>2026-04-02T14:39:30.984Z</time></trkpt><trkpt lat="45.6963467" lon="12.3434133"><ele>13.0</ele><time>2026-04-02T14:39:31.985Z</time></trkpt><trkpt lat="45.69649" lon="12.3434317"><ele>13.333333333333332</ele><time>2026-04-02T14:39:32.985Z</time></trkpt><trkpt lat="45.69664" lon="12.343425"><ele>13.666666666666668</ele><time>2026-04-02T14:39:33.985Z</time></trkpt><trkpt lat="45.69679" lon="12.3434183"><ele>14.0</ele><time>2026-04-02T14:39:34.985Z</time></trkpt><trkpt lat="45.69695" lon="12.3434167"><ele>14.0</ele><time>2026-04-02T14:39:35.985Z</time></trkpt><trkpt lat="45.6971183" lon="12.3434217"><ele>14.0</ele><time>2026-04-02T14:39:36.985Z</time></trkpt><trkpt lat="45.6972917" lon="12.3434367"><ele>14.0</ele><time>2026-04-02T14:39:37.985Z</time></trkpt><trkpt lat="45.6974717" lon="12.343455"><ele>14.0</ele><time>2026-04-02T14:39:38.985Z</time></trkpt><trkpt lat="45.697655" lon="12.343485"><ele>14.0</ele><time>2026-04-02T14:39:39.985Z</time></trkpt><trkpt lat="45.69784" lon="12.343515"><ele>14.0</ele><time>2026-04-02T14:39:40.985Z</time></trkpt><trkpt lat="45.6982183" lon="12.3436033"><ele>14.0</ele><time>2026-04-02T14:39:42.985Z</time></trkpt><trkpt lat="45.6983883" lon="12.34364"><ele>14.0</ele><time>2026-04-02T14:39:43.985Z</time></trkpt><trkpt lat="45.6985317" lon="12.3436683"><ele>14.0</ele><time>2026-04-02T14:39:44.985Z</time></trkpt><trkpt lat="45.6986717" lon="12.3437017"><ele>14.666666666666668</ele><time>2026-04-02T14:39:45.985Z</time></trkpt><trkpt lat="45.6988267" lon="12.343755"><ele>15.333333333333332</ele><time>2026-04-02T14:39:46.984Z</time></trkpt><trkpt lat="45.69899" lon="12.3437867"><ele>16.0</ele><time>2026-04-02T14:39:47.985Z</time></trkpt><trkpt lat="45.6991533" lon="12.3438017"><ele>16.0</ele><time>2026-04-02T14:39:48.985Z</time></trkpt><trkpt lat="45.69933" lon="12.3438217"><ele>16.0</ele><time>2026-04-02T14:39:49.985Z</time></trkpt><trkpt lat="45.6994933" lon="12.3438033"><ele>16.0</ele><time>2026-04-02T14:39:50.985Z</time></trkpt><trkpt lat="45.6996483" lon="12.3437767"><ele>15.75</ele><time>2026-04-02T14:39:51.985Z</time></trkpt><trkpt lat="45.6997967" lon="12.3437467"><ele>15.5</ele><time>2026-04-02T14:39:52.985Z</time></trkpt><trkpt lat="45.6999417" lon="12.3437133"><ele>15.25</ele><time>2026-04-02T14:39:53.985Z</time></trkpt><trkpt lat="45.7000833" lon="12.34368"><ele>15.0</ele><time>2026-04-02T14:39:54.985Z</time></trkpt><trkpt lat="45.7002233" lon="12.343655"><ele>15.0</ele><time>2026-04-02T14:39:55.985Z</time></trkpt><trkpt lat="45.700365" lon="12.3436217"><ele>15.0</ele><time>2026-04-02T14:39:56.985Z</time></trkpt><trkpt lat="45.7005083" lon="12.3435717"><ele>15.0</ele><time>2026-04-02T14:39:57.985Z</time></trkpt><trkpt lat="45.70064" lon="12.34355"><ele>15.0</ele><time>2026-04-02T14:39:58.984Z</time></trkpt><trkpt lat="45.70079" lon="12.34353"><ele>15.0</ele><time>2026-04-02T14:39:59.985Z</time></trkpt><trkpt lat="45.7009517" lon="12.343505"><ele>15.0</ele><time>2026-04-02T14:40:00.985Z</time></trkpt><trkpt lat="45.7011417" lon="12.3434717"><ele>15.0</ele><time>2026-04-02T14:40:01.985Z</time></trkpt><trkpt lat="45.701485" lon="12.3434333"><ele>15.0</ele><time>2026-04-02T14:40:03.985Z</time></trkpt><trkpt lat="45.701635" lon="12.34341"><ele>15.0</ele><time>2026-04-02T14:40:04.985Z</time></trkpt><trkpt lat="45.7017833" lon="12.343395"><ele>15.0</ele><time>2026-04-02T14:40:05.985Z</time></trkpt><trkpt lat="45.7019167" lon="12.3433833"><ele>15.0</ele><time>2026-04-02T14:40:06.985Z</time></trkpt><trkpt lat="45.7020467" lon="12.3433733"><ele>15.0</ele><time>2026-04-02T14:40:07.984Z</time></trkpt><trkpt lat="45.702175" lon="12.3433833"><ele>15.0</ele><time>2026-04-02T14:40:08.985Z</time></trkpt><trkpt lat="45.70231" lon="12.3433683"><ele>15.0</ele><time>2026-04-02T14:40:09.985Z</time></trkpt><trkpt lat="45.7024317" lon="12.343355"><ele>15.0</ele><time>2026-04-02T14:40:10.985Z</time></trkpt><trkpt lat="45.7025517" lon="12.3433717"><ele>15.0</ele><time>2026-04-02T14:40:11.985Z</time></trkpt><trkpt lat="45.7026867" lon="12.34341"><ele>15.0</ele><time>2026-04-02T14:40:12.985Z</time></trkpt><trkpt lat="45.7028217" lon="12.343435"><ele>15.0</ele><time>2026-04-02T14:40:13.985Z</time></trkpt><trkpt lat="45.70296" lon="12.34348"><ele>15.0</ele><time>2026-04-02T14:40:14.985Z</time></trkpt><trkpt lat="45.7030983" lon="12.343545"><ele>15.0</ele><time>2026-04-02T14:40:15.985Z</time></trkpt><trkpt lat="45.7032283" lon="12.34359"><ele>15.0</ele><time>2026-04-02T14:40:16.984Z</time></trkpt><trkpt lat="45.7033717" lon="12.34365"><ele>15.0</ele><time>2026-04-02T14:40:17.985Z</time></trkpt><trkpt lat="45.7035167" lon="12.3436967"><ele>15.0</ele><time>2026-04-02T14:40:18.985Z</time></trkpt><trkpt lat="45.7036583" lon="12.3437417"><ele>15.0</ele><time>2026-04-02T14:40:19.985Z</time></trkpt><trkpt lat="45.703805" lon="12.3437633"><ele>15.0</ele><time>2026-04-02T14:40:20.985Z</time></trkpt><trkpt lat="45.7039583" lon="12.3437583"><ele>15.0</ele><time>2026-04-02T14:40:21.984Z</time></trkpt><trkpt lat="45.7041083" lon="12.34373"><ele>15.0</ele><time>2026-04-02T14:40:22.985Z</time></trkpt><trkpt lat="45.7043983" lon="12.3436367"><ele>15.0</ele><time>2026-04-02T14:40:24.985Z</time></trkpt><trkpt lat="45.7045367" lon="12.34358"><ele>15.0</ele><time>2026-04-02T14:40:25.985Z</time></trkpt><trkpt lat="45.7046767" lon="12.3435267"><ele>15.0</ele><time>2026-04-02T14:40:26.985Z</time></trkpt><trkpt lat="45.704815" lon="12.3434867"><ele>15.0</ele><time>2026-04-02T14:40:27.985Z</time></trkpt><trkpt lat="45.7049567" lon="12.3434683"><ele>15.0</ele><time>2026-04-02T14:40:28.985Z</time></trkpt><trkpt lat="45.7050933" lon="12.3434583"><ele>15.0</ele><time>2026-04-02T14:40:29.984Z</time></trkpt><trkpt lat="45.7052317" lon="12.34347"><ele>15.0</ele><time>2026-04-02T14:40:30.984Z</time></trkpt><trkpt lat="45.7053617" lon="12.343495"><ele>15.0</ele><time>2026-04-02T14:40:31.985Z</time></trkpt><trkpt lat="45.7054367" lon="12.3435033"><ele>15.0</ele><time>2026-04-02T14:40:32.985Z</time></trkpt><trkpt lat="45.7055683" lon="12.34353"><ele>15.0</ele><time>2026-04-02T14:40:33.985Z</time></trkpt><trkpt lat="45.7056783" lon="12.3435117"><ele>15.0</ele><time>2026-04-02T14:40:34.985Z</time></trkpt><trkpt lat="45.7057933" lon="12.3435017"><ele>15.0</ele><time>2026-04-02T14:40:35.984Z</time></trkpt><trkpt lat="45.7058867" lon="12.3434867"><ele>15.0</ele><time>2026-04-02T14:40:36.985Z</time></trkpt><trkpt lat="45.7059683" lon="12.3434683"><ele>15.0</ele><time>2026-04-02T14:40:37.984Z</time></trkpt><trkpt lat="45.70605" lon="12.3434533"><ele>15.0</ele><time>2026-04-02T14:40:38.985Z</time></trkpt><trkpt lat="45.7061267" lon="12.3434367"><ele>15.0</ele><time>2026-04-02T14:40:39.985Z</time></trkpt><trkpt lat="45.7061983" lon="12.3434117"><ele>15.0</ele><time>2026-04-02T14:40:40.985Z</time></trkpt><trkpt lat="45.70627" lon="12.3433867"><ele>15.0</ele><time>2026-04-02T14:40:41.985Z</time></trkpt><trkpt lat="45.7063333" lon="12.34337"><ele>15.0</ele><time>2026-04-02T14:40:42.985Z</time></trkpt><trkpt lat="45.7064133" lon="12.3434433"><ele>15.0</ele><time>2026-04-02T14:40:44.983Z</time></trkpt><trkpt lat="45.7064833" lon="12.3436133"><ele>15.0</ele><time>2026-04-02T14:40:46.984Z</time></trkpt><trkpt lat="45.7064967" lon="12.3437133"><ele>15.0</ele><time>2026-04-02T14:40:47.984Z</time></trkpt><trkpt lat="45.7065017" lon="12.34384"><ele>15.0</ele><time>2026-04-02T14:40:48.984Z</time></trkpt><trkpt lat="45.7064883" lon="12.34399"><ele>15.0</ele><time>2026-04-02T14:40:49.984Z</time></trkpt><trkpt lat="45.7064417" lon="12.3441767"><ele>15.0</ele><time>2026-04-02T14:40:50.983Z</time></trkpt><trkpt lat="45.706425" lon="12.3443583"><ele>15.0</ele><time>2026-04-02T14:40:51.984Z</time></trkpt><trkpt lat="45.7064283" lon="12.3445417"><ele>15.0</ele><time>2026-04-02T14:40:52.983Z</time></trkpt><trkpt lat="45.7064067" lon="12.344705"><ele>15.0</ele><time>2026-04-02T14:40:53.983Z</time></trkpt><trkpt lat="45.7063833" lon="12.3448833"><ele>15.0</ele><time>2026-04-02T14:40:54.984Z</time></trkpt><trkpt lat="45.7063733" lon="12.3450683"><ele>15.0</ele><time>2026-04-02T14:40:55.984Z</time></trkpt><trkpt lat="45.7063683" lon="12.3452633"><ele>15.0</ele><time>2026-04-02T14:40:56.984Z</time></trkpt><trkpt lat="45.7063567" lon="12.3454733"><ele>15.0</ele><time>2026-04-02T14:40:57.984Z</time></trkpt><trkpt lat="45.7063367" lon="12.3456833"><ele>15.0</ele><time>2026-04-02T14:40:58.984Z</time></trkpt><trkpt lat="45.7063183" lon="12.345875"><ele>15.25</ele><time>2026-04-02T14:40:59.984Z</time></trkpt><trkpt lat="45.7062933" lon="12.346055"><ele>15.5</ele><time>2026-04-02T14:41:00.983Z</time></trkpt><trkpt lat="45.7062733" lon="12.3462183"><ele>15.75</ele><time>2026-04-02T14:41:01.984Z</time></trkpt><trkpt lat="45.7062633" lon="12.346375"><ele>16.0</ele><time>2026-04-02T14:41:02.984Z</time></trkpt><trkpt lat="45.706245" lon="12.346515"><ele>16.0</ele><time>2026-04-02T14:41:03.984Z</time></trkpt><trkpt lat="45.7062133" lon="12.3466617"><ele>16.0</ele><time>2026-04-02T14:41:04.984Z</time></trkpt><trkpt lat="45.7061783" lon="12.3467833"><ele>16.0</ele><time>2026-04-02T14:41:05.984Z</time></trkpt><trkpt lat="45.706125" lon="12.3470033"><ele>16.0</ele><time>2026-04-02T14:41:07.983Z</time></trkpt><trkpt lat="45.7061067" lon="12.3470967"><ele>16.0</ele><time>2026-04-02T14:41:08.984Z</time></trkpt><trkpt lat="45.7061317" lon="12.3472683"><ele>16.0</ele><time>2026-04-02T14:41:10.983Z</time></trkpt><trkpt lat="45.70617" lon="12.347345"><ele>16.0</ele><time>2026-04-02T14:41:11.983Z</time></trkpt><trkpt lat="45.7062383" lon="12.34742"><ele>16.0</ele><time>2026-04-02T14:41:12.984Z</time></trkpt><trkpt lat="45.7063367" lon="12.347495"><ele>16.0</ele><time>2026-04-02T14:41:13.984Z</time></trkpt><trkpt lat="45.7064733" lon="12.3475983"><ele>16.0</ele><time>2026-04-02T14:41:14.984Z</time></trkpt><trkpt lat="45.7065833" lon="12.3476967"><ele>16.0</ele><time>2026-04-02T14:41:15.984Z</time></trkpt><trkpt lat="45.706695" lon="12.3478033"><ele>16.0</ele><time>2026-04-02T14:41:16.984Z</time></trkpt><trkpt lat="45.7067883" lon="12.3478517"><ele>16.0</ele><time>2026-04-02T14:41:17.984Z</time></trkpt><trkpt lat="45.7069083" lon="12.3478883"><ele>16.0</ele><time>2026-04-02T14:41:18.984Z</time></trkpt><trkpt lat="45.70704" lon="12.3478767"><ele>16.0</ele><time>2026-04-02T14:41:19.983Z</time></trkpt><trkpt lat="45.70718" lon="12.3478467"><ele>16.0</ele><time>2026-04-02T14:41:20.983Z</time></trkpt><trkpt lat="45.7073283" lon="12.347765"><ele>16.0</ele><time>2026-04-02T14:41:21.984Z</time></trkpt><trkpt lat="45.7074883" lon="12.3476383"><ele>16.0</ele><time>2026-04-02T14:41:22.983Z</time></trkpt><trkpt lat="45.7076617" lon="12.3474933"><ele>16.0</ele><time>2026-04-02T14:41:23.984Z</time></trkpt><trkpt lat="45.7078383" lon="12.34736"><ele>16.0</ele><time>2026-04-02T14:41:24.983Z</time></trkpt><trkpt lat="45.7080133" lon="12.3472333"><ele>16.0</ele><time>2026-04-02T14:41:25.983Z</time></trkpt><trkpt lat="45.70821" lon="12.3471467"><ele>16.0</ele><time>2026-04-02T14:41:26.984Z</time></trkpt><trkpt lat="45.7085817" lon="12.3470233"><ele>16.333333333333332</ele><time>2026-04-02T14:41:28.984Z</time></trkpt><trkpt lat="45.7087783" lon="12.347005"><ele>16.666666666666668</ele><time>2026-04-02T14:41:29.984Z</time></trkpt><trkpt lat="45.7089767" lon="12.3469967"><ele>17.0</ele><time>2026-04-02T14:41:30.984Z</time></trkpt><trkpt lat="45.7091633" lon="12.3470083"><ele>17.0</ele><time>2026-04-02T14:41:31.984Z</time></trkpt><trkpt lat="45.7093467" lon="12.3470067"><ele>17.0</ele><time>2026-04-02T14:41:32.984Z</time></trkpt><trkpt lat="45.7095333" lon="12.3469883"><ele>17.0</ele><time>2026-04-02T14:41:33.984Z</time></trkpt><trkpt lat="45.70971" lon="12.34695"><ele>17.0</ele><time>2026-04-02T14:41:34.984Z</time></trkpt><trkpt lat="45.70991" lon="12.3468717"><ele>17.0</ele><time>2026-04-02T14:41:35.983Z</time></trkpt><trkpt lat="45.7101167" lon="12.34673"><ele>17.0</ele><time>2026-04-02T14:41:36.984Z</time></trkpt><trkpt lat="45.7103183" lon="12.3465983"><ele>17.333333333333336</ele><time>2026-04-02T14:41:37.984Z</time></trkpt><trkpt lat="45.710505" lon="12.3464917"><ele>17.666666666666668</ele><time>2026-04-02T14:41:38.984Z</time></trkpt><trkpt lat="45.7106817" lon="12.34638"><ele>18.0</ele><time>2026-04-02T14:41:39.984Z</time></trkpt><trkpt lat="45.71085" lon="12.3462817"><ele>18.0</ele><time>2026-04-02T14:41:40.984Z</time></trkpt><trkpt lat="45.7109967" lon="12.3461617"><ele>18.0</ele><time>2026-04-02T14:41:41.984Z</time></trkpt><trkpt lat="45.7111467" lon="12.34604"><ele>18.0</ele><time>2026-04-02T14:41:42.984Z</time></trkpt><trkpt lat="45.7112967" lon="12.34595"><ele>18.0</ele><time>2026-04-02T14:41:43.984Z</time></trkpt><trkpt lat="45.7114567" lon="12.34586"><ele>18.0</ele><time>2026-04-02T14:41:44.984Z</time></trkpt><trkpt lat="45.711625" lon="12.34577"><ele>18.0</ele><time>2026-04-02T14:41:45.984Z</time></trkpt><trkpt lat="45.7117867" lon="12.345675"><ele>18.5</ele><time>2026-04-02T14:41:46.984Z</time></trkpt><trkpt lat="45.7119383" lon="12.34558"><ele>19.0</ele><time>2026-04-02T14:41:47.984Z</time></trkpt><trkpt lat="45.712235" lon="12.3453917"><ele>19.0</ele><time>2026-04-02T14:41:49.984Z</time></trkpt><trkpt lat="45.7123783" lon="12.3453433"><ele>19.0</ele><time>2026-04-02T14:41:50.984Z</time></trkpt><trkpt lat="45.7125217" lon="12.3453183"><ele>19.0</ele><time>2026-04-02T14:41:51.984Z</time></trkpt><trkpt lat="45.7126683" lon="12.3453183"><ele>19.0</ele><time>2026-04-02T14:41:52.984Z</time></trkpt><trkpt lat="45.7128083" lon="12.3454467"><ele>19.0</ele><time>2026-04-02T14:41:53.983Z</time></trkpt><trkpt lat="45.7129433" lon="12.34551"><ele>19.0</ele><time>2026-04-02T14:41:54.984Z</time></trkpt><trkpt lat="45.7130733" lon="12.34563"><ele>19.0</ele><time>2026-04-02T14:41:55.984Z</time></trkpt><trkpt lat="45.7132" lon="12.34583"><ele>19.0</ele><time>2026-04-02T14:41:56.984Z</time></trkpt><trkpt lat="45.7133" lon="12.3459683"><ele>19.0</ele><time>2026-04-02T14:41:57.984Z</time></trkpt><trkpt lat="45.713435" lon="12.3460317"><ele>19.0</ele><time>2026-04-02T14:41:58.983Z</time></trkpt><trkpt lat="45.7135683" lon="12.3460717"><ele>19.0</ele><time>2026-04-02T14:41:59.984Z</time></trkpt><trkpt lat="45.7137033" lon="12.3460917"><ele>19.0</ele><time>2026-04-02T14:42:00.983Z</time></trkpt><trkpt lat="45.7138367" lon="12.3460767"><ele>19.0</ele><time>2026-04-02T14:42:01.984Z</time></trkpt><trkpt lat="45.7139733" lon="12.3460117"><ele>19.0</ele><time>2026-04-02T14:42:02.983Z</time></trkpt><trkpt lat="45.7140917" lon="12.3459117"><ele>19.0</ele><time>2026-04-02T14:42:03.984Z</time></trkpt><trkpt lat="45.714225" lon="12.3457633"><ele>19.0</ele><time>2026-04-02T14:42:04.984Z</time></trkpt><trkpt lat="45.7143467" lon="12.34562"><ele>19.0</ele><time>2026-04-02T14:42:05.984Z</time></trkpt><trkpt lat="45.71446" lon="12.3454567"><ele>19.0</ele><time>2026-04-02T14:42:06.984Z</time></trkpt><trkpt lat="45.7145667" lon="12.3452983"><ele>19.0</ele><time>2026-04-02T14:42:07.983Z</time></trkpt><trkpt lat="45.7146683" lon="12.3451433"><ele>19.0</ele><time>2026-04-02T14:42:08.984Z</time></trkpt><trkpt lat="45.7148817" lon="12.344835"><ele>18.333333333333332</ele><time>2026-04-02T14:42:10.984Z</time></trkpt><trkpt lat="45.715" lon="12.34465"><ele>17.666666666666668</ele><time>2026-04-02T14:42:11.984Z</time></trkpt><trkpt lat="45.7151317" lon="12.344435"><ele>17.0</ele><time>2026-04-02T14:42:12.983Z</time></trkpt><trkpt lat="45.7152833" lon="12.344215"><ele>16.5</ele><time>2026-04-02T14:42:13.983Z</time></trkpt><trkpt lat="45.71545" lon="12.3439883"><ele>16.0</ele><time>2026-04-02T14:42:14.983Z</time></trkpt><trkpt lat="45.7156083" lon="12.3437533"><ele>17.0</ele><time>2026-04-02T14:42:15.984Z</time></trkpt><trkpt lat="45.7157617" lon="12.3435267"><ele>18.0</ele><time>2026-04-02T14:42:16.984Z</time></trkpt><trkpt lat="45.7159167" lon="12.3433183"><ele>19.0</ele><time>2026-04-02T14:42:17.983Z</time></trkpt><trkpt lat="45.7160667" lon="12.3431283"><ele>19.333333333333332</ele><time>2026-04-02T14:42:18.984Z</time></trkpt><trkpt lat="45.71622" lon="12.3429433"><ele>19.666666666666668</ele><time>2026-04-02T14:42:19.984Z</time></trkpt><trkpt lat="45.7163817" lon="12.34276"><ele>20.0</ele><time>2026-04-02T14:42:20.984Z</time></trkpt><trkpt lat="45.71651" lon="12.342495"><ele>20.0</ele><time>2026-04-02T14:42:21.984Z</time></trkpt><trkpt lat="45.7166583" lon="12.34234"><ele>20.0</ele><time>2026-04-02T14:42:22.984Z</time></trkpt><trkpt lat="45.716805" lon="12.3421917"><ele>20.0</ele><time>2026-04-02T14:42:23.984Z</time></trkpt><trkpt lat="45.7169267" lon="12.3420417"><ele>20.0</ele><time>2026-04-02T14:42:24.984Z</time></trkpt><trkpt lat="45.717085" lon="12.3419267"><ele>20.0</ele><time>2026-04-02T14:42:25.984Z</time></trkpt><trkpt lat="45.7172517" lon="12.34183"><ele>20.0</ele><time>2026-04-02T14:42:26.984Z</time></trkpt><trkpt lat="45.7174" lon="12.3417533"><ele>20.0</ele><time>2026-04-02T14:42:27.984Z</time></trkpt><trkpt lat="45.7175433" lon="12.3416717"><ele>20.0</ele><time>2026-04-02T14:42:28.984Z</time></trkpt><trkpt lat="45.7176733" lon="12.34161"><ele>20.0</ele><time>2026-04-02T14:42:29.984Z</time></trkpt><trkpt lat="45.717935" lon="12.3414783"><ele>20.0</ele><time>2026-04-02T14:42:31.983Z</time></trkpt><trkpt lat="45.7180683" lon="12.3414233"><ele>20.0</ele><time>2026-04-02T14:42:32.984Z</time></trkpt><trkpt lat="45.7182067" lon="12.341375"><ele>20.0</ele><time>2026-04-02T14:42:33.983Z</time></trkpt><trkpt lat="45.7183533" lon="12.3413367"><ele>20.0</ele><time>2026-04-02T14:42:34.984Z</time></trkpt><trkpt lat="45.7185217" lon="12.3413433"><ele>19.333333333333336</ele><time>2026-04-02T14:42:35.984Z</time></trkpt><trkpt lat="45.7186883" lon="12.3413333"><ele>18.666666666666668</ele><time>2026-04-02T14:42:36.984Z</time></trkpt><trkpt lat="45.7189667" lon="12.3413367"><ele>18.0</ele><time>2026-04-02T14:42:37.984Z</time></trkpt><trkpt lat="45.719155" lon="12.3412867"><ele>18.0</ele><time>2026-04-02T14:42:38.984Z</time></trkpt><trkpt lat="45.7193617" lon="12.3412467"><ele>18.0</ele><time>2026-04-02T14:42:39.984Z</time></trkpt><trkpt lat="45.71955" lon="12.3412233"><ele>18.0</ele><time>2026-04-02T14:42:40.984Z</time></trkpt><trkpt lat="45.71974" lon="12.3411983"><ele>18.666666666666668</ele><time>2026-04-02T14:42:41.984Z</time></trkpt><trkpt lat="45.7199167" lon="12.3411717"><ele>19.333333333333336</ele><time>2026-04-02T14:42:42.984Z</time></trkpt><trkpt lat="45.7200933" lon="12.3411883"><ele>20.0</ele><time>2026-04-02T14:42:43.983Z</time></trkpt><trkpt lat="45.7202517" lon="12.3411617"><ele>20.333333333333336</ele><time>2026-04-02T14:42:44.983Z</time></trkpt><trkpt lat="45.7204067" lon="12.3411183"><ele>20.666666666666668</ele><time>2026-04-02T14:42:45.983Z</time></trkpt><trkpt lat="45.7205683" lon="12.3410683"><ele>21.0</ele><time>2026-04-02T14:42:46.984Z</time></trkpt><trkpt lat="45.7207383" lon="12.3410383"><ele>21.0</ele><time>2026-04-02T14:42:47.984Z</time></trkpt><trkpt lat="45.7209033" lon="12.3410067"><ele>21.0</ele><time>2026-04-02T14:42:48.984Z</time></trkpt><trkpt lat="45.7210917" lon="12.3409467"><ele>21.0</ele><time>2026-04-02T14:42:49.984Z</time></trkpt><trkpt lat="45.7212917" lon="12.340865"><ele>21.5</ele><time>2026-04-02T14:42:50.983Z</time></trkpt><trkpt lat="45.7217133" lon="12.3407133"><ele>22.0</ele><time>2026-04-02T14:42:52.984Z</time></trkpt><trkpt lat="45.72189" lon="12.34064"><ele>22.0</ele><time>2026-04-02T14:42:53.984Z</time></trkpt><trkpt lat="45.722045" lon="12.340565"><ele>22.0</ele><time>2026-04-02T14:42:54.984Z</time></trkpt><trkpt lat="45.7221683" lon="12.34051"><ele>22.0</ele><time>2026-04-02T14:42:55.984Z</time></trkpt><trkpt lat="45.7222767" lon="12.340455"><ele>22.0</ele><time>2026-04-02T14:42:56.984Z</time></trkpt><trkpt lat="45.7224017" lon="12.3404533"><ele>22.0</ele><time>2026-04-02T14:42:58.984Z</time></trkpt><trkpt lat="45.722495" lon="12.340485"><ele>22.0</ele><time>2026-04-02T14:42:59.984Z</time></trkpt><trkpt lat="45.7225333" lon="12.3406417"><ele>22.0</ele><time>2026-04-02T14:43:01.983Z</time></trkpt><trkpt lat="45.7225583" lon="12.3407433"><ele>22.0</ele><time>2026-04-02T14:43:02.983Z</time></trkpt><trkpt lat="45.7225917" lon="12.3408267"><ele>22.0</ele><time>2026-04-02T14:43:03.984Z</time></trkpt><trkpt lat="45.7226117" lon="12.34099"><ele>22.0</ele><time>2026-04-02T14:43:04.984Z</time></trkpt><trkpt lat="45.72264" lon="12.3411483"><ele>22.0</ele><time>2026-04-02T14:43:05.983Z</time></trkpt><trkpt lat="45.7226733" lon="12.3413067"><ele>22.0</ele><time>2026-04-02T14:43:06.984Z</time></trkpt><trkpt lat="45.72272" lon="12.341495"><ele>22.0</ele><time>2026-04-02T14:43:07.984Z</time></trkpt><trkpt lat="45.7227667" lon="12.34169"><ele>22.0</ele><time>2026-04-02T14:43:08.984Z</time></trkpt><trkpt lat="45.7228167" lon="12.3418817"><ele>22.0</ele><time>2026-04-02T14:43:09.983Z</time></trkpt><trkpt lat="45.72287" lon="12.3421033"><ele>22.0</ele><time>2026-04-02T14:43:10.984Z</time></trkpt><trkpt lat="45.722925" lon="12.3422983"><ele>22.0</ele><time>2026-04-02T14:43:11.984Z</time></trkpt><trkpt lat="45.723005" lon="12.3427017"><ele>22.0</ele><time>2026-04-02T14:43:13.983Z</time></trkpt><trkpt lat="45.7230567" lon="12.342915"><ele>21.666666666666664</ele><time>2026-04-02T14:43:14.984Z</time></trkpt><trkpt lat="45.72311" lon="12.34311"><ele>21.333333333333332</ele><time>2026-04-02T14:43:15.984Z</time></trkpt><trkpt lat="45.7231667" lon="12.3433167"><ele>21.0</ele><time>2026-04-02T14:43:16.984Z</time></trkpt><trkpt lat="45.72322" lon="12.34353"><ele>21.0</ele><time>2026-04-02T14:43:17.984Z</time></trkpt><trkpt lat="45.72324" lon="12.343755"><ele>21.0</ele><time>2026-04-02T14:43:18.984Z</time></trkpt><trkpt lat="45.723295" lon="12.344"><ele>21.0</ele><time>2026-04-02T14:43:19.984Z</time></trkpt><trkpt lat="45.7233333" lon="12.3442433"><ele>21.0</ele><time>2026-04-02T14:43:20.984Z</time></trkpt><trkpt lat="45.723395" lon="12.3444933"><ele>21.0</ele><time>2026-04-02T14:43:21.984Z</time></trkpt><trkpt lat="45.7234767" lon="12.3447367"><ele>21.0</ele><time>2026-04-02T14:43:22.983Z</time></trkpt><trkpt lat="45.723545" lon="12.3449867"><ele>21.0</ele><time>2026-04-02T14:43:23.984Z</time></trkpt><trkpt lat="45.72363" lon="12.3452433"><ele>21.0</ele><time>2026-04-02T14:43:24.984Z</time></trkpt><trkpt lat="45.723725" lon="12.3455183"><ele>21.0</ele><time>2026-04-02T14:43:25.983Z</time></trkpt><trkpt lat="45.723825" lon="12.34579"><ele>21.0</ele><time>2026-04-02T14:43:26.984Z</time></trkpt><trkpt lat="45.7239383" lon="12.3460817"><ele>21.0</ele><time>2026-04-02T14:43:27.984Z</time></trkpt><trkpt lat="45.72403" lon="12.3463617"><ele>21.0</ele><time>2026-04-02T14:43:28.984Z</time></trkpt><trkpt lat="45.724125" lon="12.34663"><ele>21.0</ele><time>2026-04-02T14:43:29.984Z</time></trkpt><trkpt lat="45.7242033" lon="12.34687"><ele>21.0</ele><time>2026-04-02T14:43:30.984Z</time></trkpt><trkpt lat="45.7242817" lon="12.347105"><ele>21.0</ele><time>2026-04-02T14:43:31.983Z</time></trkpt><trkpt lat="45.7243867" lon="12.347345"><ele>19.5</ele><time>2026-04-02T14:43:32.983Z</time></trkpt><trkpt lat="45.7245783" lon="12.347815"><ele>18.0</ele><time>2026-04-02T14:43:34.984Z</time></trkpt><trkpt lat="45.724665" lon="12.3480467"><ele>18.0</ele><time>2026-04-02T14:43:35.983Z</time></trkpt><trkpt lat="45.7247367" lon="12.34828"><ele>18.0</ele><time>2026-04-02T14:43:36.984Z</time></trkpt><trkpt lat="45.7247917" lon="12.348485"><ele>18.0</ele><time>2026-04-02T14:43:37.984Z</time></trkpt><trkpt lat="45.7248567" lon="12.348685"><ele>18.333333333333332</ele><time>2026-04-02T14:43:38.983Z</time></trkpt><trkpt lat="45.72494" lon="12.3488817"><ele>18.666666666666664</ele><time>2026-04-02T14:43:39.984Z</time></trkpt><trkpt lat="45.725045" lon="12.349075"><ele>19.0</ele><time>2026-04-02T14:43:40.983Z</time></trkpt><trkpt lat="45.7251633" lon="12.3492617"><ele>19.0</ele><time>2026-04-02T14:43:41.984Z</time></trkpt><trkpt lat="45.725295" lon="12.3494517"><ele>19.0</ele><time>2026-04-02T14:43:42.984Z</time></trkpt><trkpt lat="45.7254283" lon="12.34965"><ele>19.0</ele><time>2026-04-02T14:43:43.984Z</time></trkpt><trkpt lat="45.7255567" lon="12.3498483"><ele>19.333333333333332</ele><time>2026-04-02T14:43:44.983Z</time></trkpt><trkpt lat="45.7256983" lon="12.3500717"><ele>19.666666666666668</ele><time>2026-04-02T14:43:45.984Z</time></trkpt><trkpt lat="45.725815" lon="12.350265"><ele>20.0</ele><time>2026-04-02T14:43:46.984Z</time></trkpt><trkpt lat="45.725915" lon="12.350465"><ele>20.0</ele><time>2026-04-02T14:43:47.983Z</time></trkpt><trkpt lat="45.72601" lon="12.3506733"><ele>20.0</ele><time>2026-04-02T14:43:48.984Z</time></trkpt><trkpt lat="45.726025" lon="12.3509017"><ele>20.0</ele><time>2026-04-02T14:43:49.984Z</time></trkpt><trkpt lat="45.7261017" lon="12.3511317"><ele>19.333333333333336</ele><time>2026-04-02T14:43:50.984Z</time></trkpt><trkpt lat="45.7261767" lon="12.3513633"><ele>18.666666666666668</ele><time>2026-04-02T14:43:51.984Z</time></trkpt><trkpt lat="45.726295" lon="12.3515867"><ele>18.0</ele><time>2026-04-02T14:43:52.984Z</time></trkpt><trkpt lat="45.7263633" lon="12.3518017"><ele>18.0</ele><time>2026-04-02T14:43:53.984Z</time></trkpt><trkpt lat="45.7264383" lon="12.352235"><ele>18.0</ele><time>2026-04-02T14:43:55.984Z</time></trkpt><trkpt lat="45.7264567" lon="12.3524717"><ele>18.0</ele><time>2026-04-02T14:43:56.984Z</time></trkpt><trkpt lat="45.7264867" lon="12.352705"><ele>18.0</ele><time>2026-04-02T14:43:57.984Z</time></trkpt><trkpt lat="45.7264733" lon="12.3529517"><ele>18.0</ele><time>2026-04-02T14:43:58.984Z</time></trkpt><trkpt lat="45.7264817" lon="12.3532083"><ele>18.333333333333332</ele><time>2026-04-02T14:43:59.984Z</time></trkpt><trkpt lat="45.72649" lon="12.3534717"><ele>18.666666666666664</ele><time>2026-04-02T14:44:00.984Z</time></trkpt><trkpt lat="45.7265067" lon="12.3537183"><ele>19.0</ele><time>2026-04-02T14:44:01.983Z</time></trkpt><trkpt lat="45.726525" lon="12.353955"><ele>20.0</ele><time>2026-04-02T14:44:02.984Z</time></trkpt><trkpt lat="45.7265433" lon="12.3541817"><ele>21.0</ele><time>2026-04-02T14:44:03.983Z</time></trkpt><trkpt lat="45.7265717" lon="12.3543967"><ele>22.0</ele><time>2026-04-02T14:44:04.984Z</time></trkpt><trkpt lat="45.726595" lon="12.3546"><ele>21.666666666666664</ele><time>2026-04-02T14:44:05.984Z</time></trkpt><trkpt lat="45.7266467" lon="12.3548"><ele>21.333333333333332</ele><time>2026-04-02T14:44:06.984Z</time></trkpt><trkpt lat="45.72671" lon="12.3550033"><ele>21.0</ele><time>2026-04-02T14:44:07.984Z</time></trkpt><trkpt lat="45.7268017" lon="12.3552367"><ele>21.0</ele><time>2026-04-02T14:44:08.984Z</time></trkpt><trkpt lat="45.7269017" lon="12.3554867"><ele>21.0</ele><time>2026-04-02T14:44:09.984Z</time></trkpt><trkpt lat="45.726965" lon="12.35568"><ele>21.0</ele><time>2026-04-02T14:44:10.983Z</time></trkpt><trkpt lat="45.7270717" lon="12.355915"><ele>20.666666666666668</ele><time>2026-04-02T14:44:11.984Z</time></trkpt><trkpt lat="45.7271767" lon="12.356125"><ele>20.333333333333336</ele><time>2026-04-02T14:44:12.983Z</time></trkpt><trkpt lat="45.72725" lon="12.3563483"><ele>20.0</ele><time>2026-04-02T14:44:13.984Z</time></trkpt><trkpt lat="45.7273567" lon="12.3565717"><ele>20.0</ele><time>2026-04-02T14:44:14.983Z</time></trkpt><trkpt lat="45.7275133" lon="12.3570267"><ele>20.0</ele><time>2026-04-02T14:44:16.983Z</time></trkpt><trkpt lat="45.727585" lon="12.357275"><ele>19.666666666666668</ele><time>2026-04-02T14:44:17.983Z</time></trkpt><trkpt lat="45.7276167" lon="12.357515"><ele>19.333333333333332</ele><time>2026-04-02T14:44:18.982Z</time></trkpt><trkpt lat="45.7276233" lon="12.357765"><ele>19.0</ele><time>2026-04-02T14:44:19.983Z</time></trkpt><trkpt lat="45.7276483" lon="12.3580267"><ele>18.666666666666664</ele><time>2026-04-02T14:44:20.983Z</time></trkpt><trkpt lat="45.72762" lon="12.358275"><ele>18.333333333333332</ele><time>2026-04-02T14:44:21.983Z</time></trkpt><trkpt lat="45.7275883" lon="12.35852"><ele>18.0</ele><time>2026-04-02T14:44:22.983Z</time></trkpt><trkpt lat="45.72758" lon="12.3587733"><ele>18.333333333333332</ele><time>2026-04-02T14:44:23.983Z</time></trkpt><trkpt lat="45.7275783" lon="12.3590217"><ele>18.666666666666664</ele><time>2026-04-02T14:44:24.983Z</time></trkpt><trkpt lat="45.7275517" lon="12.3592417"><ele>19.0</ele><time>2026-04-02T14:44:25.983Z</time></trkpt><trkpt lat="45.72754" lon="12.359455"><ele>19.0</ele><time>2026-04-02T14:44:26.983Z</time></trkpt><trkpt lat="45.7275433" lon="12.3596867"><ele>19.0</ele><time>2026-04-02T14:44:27.983Z</time></trkpt><trkpt lat="45.727565" lon="12.359925"><ele>19.0</ele><time>2026-04-02T14:44:28.983Z</time></trkpt><trkpt lat="45.7275983" lon="12.3601583"><ele>18.666666666666664</ele><time>2026-04-02T14:44:29.983Z</time></trkpt><trkpt lat="45.72764" lon="12.3604017"><ele>18.333333333333332</ele><time>2026-04-02T14:44:30.983Z</time></trkpt><trkpt lat="45.72767" lon="12.3606333"><ele>18.0</ele><time>2026-04-02T14:44:31.983Z</time></trkpt><trkpt lat="45.7277133" lon="12.3608967"><ele>18.0</ele><time>2026-04-02T14:44:32.983Z</time></trkpt><trkpt lat="45.7277433" lon="12.361135"><ele>18.0</ele><time>2026-04-02T14:44:33.983Z</time></trkpt><trkpt lat="45.7278117" lon="12.36138"><ele>18.0</ele><time>2026-04-02T14:44:34.983Z</time></trkpt><trkpt lat="45.72788" lon="12.3615933"><ele>17.5</ele><time>2026-04-02T14:44:35.983Z</time></trkpt><trkpt lat="45.72803" lon="12.3620183"><ele>17.0</ele><time>2026-04-02T14:44:37.982Z</time></trkpt><trkpt lat="45.7281167" lon="12.3622167"><ele>17.0</ele><time>2026-04-02T14:44:38.983Z</time></trkpt><trkpt lat="45.7282183" lon="12.3624067"><ele>17.0</ele><time>2026-04-02T14:44:39.982Z</time></trkpt><trkpt lat="45.7283317" lon="12.3625617"><ele>17.0</ele><time>2026-04-02T14:44:40.983Z</time></trkpt><trkpt lat="45.728455" lon="12.36274"><ele>16.666666666666668</ele><time>2026-04-02T14:44:41.982Z</time></trkpt><trkpt lat="45.7285783" lon="12.3628983"><ele>16.333333333333332</ele><time>2026-04-02T14:44:42.983Z</time></trkpt><trkpt lat="45.728715" lon="12.36306"><ele>16.0</ele><time>2026-04-02T14:44:43.982Z</time></trkpt><trkpt lat="45.7288367" lon="12.3632283"><ele>17.333333333333332</ele><time>2026-04-02T14:44:44.982Z</time></trkpt><trkpt lat="45.72896" lon="12.3633983"><ele>18.666666666666668</ele><time>2026-04-02T14:44:45.983Z</time></trkpt><trkpt lat="45.7290983" lon="12.3635733"><ele>20.0</ele><time>2026-04-02T14:44:46.983Z</time></trkpt><trkpt lat="45.7292383" lon="12.3637433"><ele>20.0</ele><time>2026-04-02T14:44:47.983Z</time></trkpt><trkpt lat="45.72942" lon="12.3639117"><ele>20.0</ele><time>2026-04-02T14:44:48.983Z</time></trkpt><trkpt lat="45.7295517" lon="12.3640833"><ele>20.0</ele><time>2026-04-02T14:44:49.983Z</time></trkpt><trkpt lat="45.7296567" lon="12.3642567"><ele>20.0</ele><time>2026-04-02T14:44:50.983Z</time></trkpt><trkpt lat="45.7297783" lon="12.364435"><ele>20.0</ele><time>2026-04-02T14:44:51.983Z</time></trkpt><trkpt lat="45.729885" lon="12.3646033"><ele>20.0</ele><time>2026-04-02T14:44:52.983Z</time></trkpt><trkpt lat="45.7299883" lon="12.364785"><ele>19.666666666666668</ele><time>2026-04-02T14:44:53.983Z</time></trkpt><trkpt lat="45.730105" lon="12.3649617"><ele>19.333333333333332</ele><time>2026-04-02T14:44:54.982Z</time></trkpt><trkpt lat="45.7302233" lon="12.36516"><ele>19.0</ele><time>2026-04-02T14:44:55.983Z</time></trkpt><trkpt lat="45.7303567" lon="12.3653417"><ele>18.5</ele><time>2026-04-02T14:44:56.982Z</time></trkpt><trkpt lat="45.7306333" lon="12.3656667"><ele>18.0</ele><time>2026-04-02T14:44:58.983Z</time></trkpt><trkpt lat="45.73079" lon="12.3658583"><ele>18.0</ele><time>2026-04-02T14:44:59.983Z</time></trkpt><trkpt lat="45.7309333" lon="12.36603"><ele>18.0</ele><time>2026-04-02T14:45:00.982Z</time></trkpt><trkpt lat="45.7310817" lon="12.3661983"><ele>18.0</ele><time>2026-04-02T14:45:01.983Z</time></trkpt><trkpt lat="45.7312233" lon="12.3663567"><ele>18.0</ele><time>2026-04-02T14:45:02.983Z</time></trkpt><trkpt lat="45.7313617" lon="12.36652"><ele>18.0</ele><time>2026-04-02T14:45:03.983Z</time></trkpt><trkpt lat="45.7314917" lon="12.3666767"><ele>18.0</ele><time>2026-04-02T14:45:04.982Z</time></trkpt><trkpt lat="45.7316217" lon="12.3668317"><ele>18.0</ele><time>2026-04-02T14:45:05.983Z</time></trkpt><trkpt lat="45.7317533" lon="12.3669933"><ele>18.0</ele><time>2026-04-02T14:45:06.983Z</time></trkpt><trkpt lat="45.7318833" lon="12.36715"><ele>18.0</ele><time>2026-04-02T14:45:07.983Z</time></trkpt><trkpt lat="45.732005" lon="12.3672933"><ele>18.333333333333332</ele><time>2026-04-02T14:45:08.983Z</time></trkpt><trkpt lat="45.732145" lon="12.3674483"><ele>18.666666666666664</ele><time>2026-04-02T14:45:09.983Z</time></trkpt><trkpt lat="45.7322617" lon="12.3675783"><ele>19.0</ele><time>2026-04-02T14:45:10.983Z</time></trkpt><trkpt lat="45.732375" lon="12.367715"><ele>19.0</ele><time>2026-04-02T14:45:11.983Z</time></trkpt><trkpt lat="45.7324583" lon="12.3678167"><ele>19.0</ele><time>2026-04-02T14:45:12.983Z</time></trkpt><trkpt lat="45.7325667" lon="12.36792"><ele>19.0</ele><time>2026-04-02T14:45:13.982Z</time></trkpt><trkpt lat="45.7326767" lon="12.3680367"><ele>19.0</ele><time>2026-04-02T14:45:14.982Z</time></trkpt><trkpt lat="45.7328133" lon="12.3681633"><ele>18.666666666666664</ele><time>2026-04-02T14:45:15.982Z</time></trkpt><trkpt lat="45.7329583" lon="12.3683117"><ele>18.333333333333332</ele><time>2026-04-02T14:45:16.983Z</time></trkpt><trkpt lat="45.7330817" lon="12.3684683"><ele>18.0</ele><time>2026-04-02T14:45:17.983Z</time></trkpt><trkpt lat="45.73327" lon="12.368755"><ele>18.0</ele><time>2026-04-02T14:45:19.982Z</time></trkpt><trkpt lat="45.7333817" lon="12.3688867"><ele>18.0</ele><time>2026-04-02T14:45:20.983Z</time></trkpt><trkpt lat="45.7335" lon="12.3690267"><ele>18.0</ele><time>2026-04-02T14:45:21.983Z</time></trkpt><trkpt lat="45.73363" lon="12.36917"><ele>18.0</ele><time>2026-04-02T14:45:22.982Z</time></trkpt><trkpt lat="45.7337617" lon="12.369305"><ele>18.0</ele><time>2026-04-02T14:45:23.982Z</time></trkpt><trkpt lat="45.733885" lon="12.36945"><ele>18.0</ele><time>2026-04-02T14:45:24.983Z</time></trkpt><trkpt lat="45.7339967" lon="12.3695883"><ele>18.25</ele><time>2026-04-02T14:45:25.983Z</time></trkpt><trkpt lat="45.7341" lon="12.3697033"><ele>18.5</ele><time>2026-04-02T14:45:26.983Z</time></trkpt><trkpt lat="45.7341967" lon="12.369825"><ele>18.75</ele><time>2026-04-02T14:45:27.983Z</time></trkpt><trkpt lat="45.7343" lon="12.369945"><ele>19.0</ele><time>2026-04-02T14:45:28.983Z</time></trkpt><trkpt lat="45.7343967" lon="12.370065"><ele>19.0</ele><time>2026-04-02T14:45:29.983Z</time></trkpt><trkpt lat="45.73449" lon="12.3701867"><ele>19.0</ele><time>2026-04-02T14:45:30.983Z</time></trkpt><trkpt lat="45.734595" lon="12.3703133"><ele>19.0</ele><time>2026-04-02T14:45:31.982Z</time></trkpt><trkpt lat="45.7346983" lon="12.3704517"><ele>19.0</ele><time>2026-04-02T14:45:32.983Z</time></trkpt><trkpt lat="45.73482" lon="12.3705783"><ele>19.0</ele><time>2026-04-02T14:45:33.983Z</time></trkpt><trkpt lat="45.7349233" lon="12.370715"><ele>19.0</ele><time>2026-04-02T14:45:34.983Z</time></trkpt><trkpt lat="45.7350267" lon="12.3708367"><ele>19.0</ele><time>2026-04-02T14:45:35.983Z</time></trkpt><trkpt lat="45.7351267" lon="12.3709717"><ele>19.0</ele><time>2026-04-02T14:45:36.983Z</time></trkpt><trkpt lat="45.7352283" lon="12.371105"><ele>19.0</ele><time>2026-04-02T14:45:37.983Z</time></trkpt><trkpt lat="45.7353167" lon="12.3712283"><ele>19.0</ele><time>2026-04-02T14:45:38.983Z</time></trkpt><trkpt lat="45.7355083" lon="12.3714383"><ele>19.0</ele><time>2026-04-02T14:45:40.983Z</time></trkpt><trkpt lat="45.7355767" lon="12.37151"><ele>19.0</ele><time>2026-04-02T14:45:41.983Z</time></trkpt><trkpt lat="45.73562" lon="12.3715883"><ele>19.0</ele><time>2026-04-02T14:45:42.983Z</time></trkpt><trkpt lat="45.735675" lon="12.371645"><ele>19.0</ele><time>2026-04-02T14:45:43.983Z</time></trkpt><trkpt lat="45.7357483" lon="12.37171"><ele>19.0</ele><time>2026-04-02T14:45:44.983Z</time></trkpt><trkpt lat="45.7358117" lon="12.37177"><ele>19.0</ele><time>2026-04-02T14:45:45.983Z</time></trkpt><trkpt lat="45.7358667" lon="12.3718383"><ele>19.0</ele><time>2026-04-02T14:45:46.983Z</time></trkpt><trkpt lat="45.7359083" lon="12.37193"><ele>19.0</ele><time>2026-04-02T14:45:47.983Z</time></trkpt><trkpt lat="45.7359433" lon="12.3720433"><ele>19.0</ele><time>2026-04-02T14:45:48.983Z</time></trkpt><trkpt lat="45.7360033" lon="12.3721517"><ele>19.0</ele><time>2026-04-02T14:45:49.983Z</time></trkpt><trkpt lat="45.7360467" lon="12.3722217"><ele>19.0</ele><time>2026-04-02T14:45:50.983Z</time></trkpt><trkpt lat="45.7360983" lon="12.37228"><ele>19.0</ele><time>2026-04-02T14:45:51.983Z</time></trkpt><trkpt lat="45.7361733" lon="12.37231"><ele>19.0</ele><time>2026-04-02T14:45:52.983Z</time></trkpt><trkpt lat="45.7362983" lon="12.3723017"><ele>19.0</ele><time>2026-04-02T14:45:54.983Z</time></trkpt><trkpt lat="45.7363917" lon="12.372255"><ele>19.25</ele><time>2026-04-02T14:45:55.983Z</time></trkpt><trkpt lat="45.73649" lon="12.37216"><ele>19.5</ele><time>2026-04-02T14:45:56.983Z</time></trkpt><trkpt lat="45.7365917" lon="12.3720417"><ele>19.75</ele><time>2026-04-02T14:45:57.983Z</time></trkpt><trkpt lat="45.7367" lon="12.3719017"><ele>20.0</ele><time>2026-04-02T14:45:58.982Z</time></trkpt><trkpt lat="45.7368383" lon="12.371745"><ele>20.5</ele><time>2026-04-02T14:45:59.983Z</time></trkpt><trkpt lat="45.7371233" lon="12.371425"><ele>21.0</ele><time>2026-04-02T14:46:01.983Z</time></trkpt><trkpt lat="45.7372633" lon="12.37128"><ele>21.0</ele><time>2026-04-02T14:46:02.982Z</time></trkpt><trkpt lat="45.7373983" lon="12.3711317"><ele>21.0</ele><time>2026-04-02T14:46:03.982Z</time></trkpt><trkpt lat="45.7375467" lon="12.3709667"><ele>21.0</ele><time>2026-04-02T14:46:04.982Z</time></trkpt><trkpt lat="45.737695" lon="12.3707833"><ele>21.0</ele><time>2026-04-02T14:46:05.983Z</time></trkpt><trkpt lat="45.7378417" lon="12.37061"><ele>21.0</ele><time>2026-04-02T14:46:06.983Z</time></trkpt><trkpt lat="45.7379867" lon="12.37045"><ele>21.0</ele><time>2026-04-02T14:46:07.983Z</time></trkpt><trkpt lat="45.7381267" lon="12.370305"><ele>21.0</ele><time>2026-04-02T14:46:08.983Z</time></trkpt><trkpt lat="45.7382517" lon="12.3701583"><ele>21.0</ele><time>2026-04-02T14:46:09.983Z</time></trkpt><trkpt lat="45.7383683" lon="12.3700233"><ele>21.0</ele><time>2026-04-02T14:46:10.982Z</time></trkpt><trkpt lat="45.7384733" lon="12.369905"><ele>21.0</ele><time>2026-04-02T14:46:11.983Z</time></trkpt><trkpt lat="45.73857" lon="12.3698133"><ele>20.8</ele><time>2026-04-02T14:46:12.983Z</time></trkpt><trkpt lat="45.7386717" lon="12.369735"><ele>20.6</ele><time>2026-04-02T14:46:13.983Z</time></trkpt><trkpt lat="45.73877" lon="12.3696783"><ele>20.4</ele><time>2026-04-02T14:46:14.983Z</time></trkpt><trkpt lat="45.7388683" lon="12.36963"><ele>20.2</ele><time>2026-04-02T14:46:15.983Z</time></trkpt><trkpt lat="45.73896" lon="12.3696583"><ele>20.0</ele><time>2026-04-02T14:46:16.983Z</time></trkpt><trkpt lat="45.7390633" lon="12.3697333"><ele>20.0</ele><time>2026-04-02T14:46:17.983Z</time></trkpt><trkpt lat="45.7391917" lon="12.36981"><ele>20.0</ele><time>2026-04-02T14:46:18.983Z</time></trkpt><trkpt lat="45.7393317" lon="12.3698733"><ele>20.0</ele><time>2026-04-02T14:46:19.983Z</time></trkpt><trkpt lat="45.739475" lon="12.3699133"><ele>20.0</ele><time>2026-04-02T14:46:20.983Z</time></trkpt><trkpt lat="45.739775" lon="12.3699717"><ele>20.0</ele><time>2026-04-02T14:46:22.982Z</time></trkpt><trkpt lat="45.739915" lon="12.36998"><ele>20.0</ele><time>2026-04-02T14:46:23.983Z</time></trkpt><trkpt lat="45.740065" lon="12.3700017"><ele>20.0</ele><time>2026-04-02T14:46:24.983Z</time></trkpt><trkpt lat="45.7402233" lon="12.3700233"><ele>20.0</ele><time>2026-04-02T14:46:25.983Z</time></trkpt><trkpt lat="45.740375" lon="12.3700533"><ele>20.0</ele><time>2026-04-02T14:46:26.983Z</time></trkpt><trkpt lat="45.7405233" lon="12.3700967"><ele>20.0</ele><time>2026-04-02T14:46:27.982Z</time></trkpt><trkpt lat="45.7406617" lon="12.37018"><ele>20.0</ele><time>2026-04-02T14:46:28.983Z</time></trkpt><trkpt lat="45.7408083" lon="12.3702717"><ele>20.0</ele><time>2026-04-02T14:46:29.983Z</time></trkpt><trkpt lat="45.74095" lon="12.370395"><ele>20.0</ele><time>2026-04-02T14:46:30.982Z</time></trkpt><trkpt lat="45.7411017" lon="12.370585"><ele>20.0</ele><time>2026-04-02T14:46:31.983Z</time></trkpt><trkpt lat="45.741265" lon="12.370765"><ele>20.0</ele><time>2026-04-02T14:46:32.983Z</time></trkpt><trkpt lat="45.741425" lon="12.3709317"><ele>20.0</ele><time>2026-04-02T14:46:33.983Z</time></trkpt><trkpt lat="45.7415817" lon="12.371095"><ele>20.0</ele><time>2026-04-02T14:46:34.983Z</time></trkpt><trkpt lat="45.7417333" lon="12.37125"><ele>20.0</ele><time>2026-04-02T14:46:35.982Z</time></trkpt><trkpt lat="45.7418933" lon="12.371405"><ele>20.0</ele><time>2026-04-02T14:46:36.983Z</time></trkpt><trkpt lat="45.7420317" lon="12.3715433"><ele>20.0</ele><time>2026-04-02T14:46:37.983Z</time></trkpt><trkpt lat="45.7421633" lon="12.3716683"><ele>20.0</ele><time>2026-04-02T14:46:38.983Z</time></trkpt><trkpt lat="45.74229" lon="12.3717767"><ele>20.0</ele><time>2026-04-02T14:46:39.983Z</time></trkpt><trkpt lat="45.742405" lon="12.3718767"><ele>20.0</ele><time>2026-04-02T14:46:40.982Z</time></trkpt><trkpt lat="45.7425217" lon="12.37198"><ele>19.666666666666668</ele><time>2026-04-02T14:46:41.983Z</time></trkpt><trkpt lat="45.7427467" lon="12.3721533"><ele>19.333333333333332</ele><time>2026-04-02T14:46:43.983Z</time></trkpt><trkpt lat="45.742855" lon="12.37223"><ele>19.0</ele><time>2026-04-02T14:46:44.983Z</time></trkpt><trkpt lat="45.74297" lon="12.3722967"><ele>18.75</ele><time>2026-04-02T14:46:45.983Z</time></trkpt><trkpt lat="45.7431317" lon="12.3723683"><ele>18.5</ele><time>2026-04-02T14:46:46.982Z</time></trkpt><trkpt lat="45.74326" lon="12.3724117"><ele>18.25</ele><time>2026-04-02T14:46:47.983Z</time></trkpt><trkpt lat="45.7433883" lon="12.3724333"><ele>18.0</ele><time>2026-04-02T14:46:48.983Z</time></trkpt><trkpt lat="45.7435317" lon="12.37244"><ele>18.25</ele><time>2026-04-02T14:46:49.983Z</time></trkpt><trkpt lat="45.74367" lon="12.3724467"><ele>18.5</ele><time>2026-04-02T14:46:50.983Z</time></trkpt><trkpt lat="45.7438133" lon="12.3724583"><ele>18.75</ele><time>2026-04-02T14:46:51.983Z</time></trkpt><trkpt lat="45.743955" lon="12.372475"><ele>19.0</ele><time>2026-04-02T14:46:52.983Z</time></trkpt><trkpt lat="45.7441017" lon="12.3725167"><ele>19.0</ele><time>2026-04-02T14:46:53.983Z</time></trkpt><trkpt lat="45.7442567" lon="12.3725367"><ele>19.0</ele><time>2026-04-02T14:46:54.983Z</time></trkpt><trkpt lat="45.7444167" lon="12.3725817"><ele>19.0</ele><time>2026-04-02T14:46:55.983Z</time></trkpt><trkpt lat="45.7445733" lon="12.37264"><ele>19.333333333333332</ele><time>2026-04-02T14:46:56.983Z</time></trkpt><trkpt lat="45.7447417" lon="12.3727033"><ele>19.666666666666668</ele><time>2026-04-02T14:46:57.983Z</time></trkpt><trkpt lat="45.7449183" lon="12.3727683"><ele>20.0</ele><time>2026-04-02T14:46:58.982Z</time></trkpt><trkpt lat="45.74509" lon="12.3727867"><ele>20.333333333333336</ele><time>2026-04-02T14:46:59.983Z</time></trkpt><trkpt lat="45.7452483" lon="12.3728467"><ele>20.666666666666668</ele><time>2026-04-02T14:47:00.983Z</time></trkpt><trkpt lat="45.7454067" lon="12.3729067"><ele>21.0</ele><time>2026-04-02T14:47:01.982Z</time></trkpt><trkpt lat="45.74556" lon="12.3729683"><ele>20.0</ele><time>2026-04-02T14:47:02.983Z</time></trkpt><trkpt lat="45.7458567" lon="12.3730783"><ele>19.0</ele><time>2026-04-02T14:47:04.983Z</time></trkpt><trkpt lat="45.7459867" lon="12.3731533"><ele>18.0</ele><time>2026-04-02T14:47:05.983Z</time></trkpt><trkpt lat="45.7461317" lon="12.3732483"><ele>18.0</ele><time>2026-04-02T14:47:06.983Z</time></trkpt><trkpt lat="45.7462767" lon="12.3733533"><ele>18.0</ele><time>2026-04-02T14:47:07.983Z</time></trkpt><trkpt lat="45.7464067" lon="12.3734517"><ele>18.0</ele><time>2026-04-02T14:47:08.983Z</time></trkpt><trkpt lat="45.7465217" lon="12.3735367"><ele>18.0</ele><time>2026-04-02T14:47:09.983Z</time></trkpt><trkpt lat="45.7466817" lon="12.3736917"><ele>18.0</ele><time>2026-04-02T14:47:10.983Z</time></trkpt><trkpt lat="45.74675" lon="12.3737917"><ele>18.0</ele><time>2026-04-02T14:47:11.983Z</time></trkpt><trkpt lat="45.7468133" lon="12.3738767"><ele>18.0</ele><time>2026-04-02T14:47:12.982Z</time></trkpt><trkpt lat="45.7468817" lon="12.3739683"><ele>18.0</ele><time>2026-04-02T14:47:13.983Z</time></trkpt><trkpt lat="45.7469433" lon="12.3740617"><ele>18.0</ele><time>2026-04-02T14:47:14.983Z</time></trkpt><trkpt lat="45.7469983" lon="12.374145"><ele>18.0</ele><time>2026-04-02T14:47:15.982Z</time></trkpt><trkpt lat="45.7470417" lon="12.3742217"><ele>18.4</ele><time>2026-04-02T14:47:16.982Z</time></trkpt><trkpt lat="45.74707" lon="12.3743033"><ele>18.8</ele><time>2026-04-02T14:47:18.982Z</time></trkpt><trkpt lat="45.7471017" lon="12.3743867"><ele>19.2</ele><time>2026-04-02T14:48:46.982Z</time></trkpt><trkpt lat="45.7472583" lon="12.374525"><ele>19.6</ele><time>2026-04-02T14:48:49.982Z</time></trkpt><trkpt lat="45.747335" lon="12.3745817"><ele>20.0</ele><time>2026-04-02T14:48:50.982Z</time></trkpt><trkpt lat="45.7474467" lon="12.3746633"><ele>20.0</ele><time>2026-04-02T14:48:51.982Z</time></trkpt><trkpt lat="45.74755" lon="12.374745"><ele>20.0</ele><time>2026-04-02T14:48:52.981Z</time></trkpt><trkpt lat="45.74768" lon="12.3748333"><ele>20.0</ele><time>2026-04-02T14:48:53.982Z</time></trkpt><trkpt lat="45.747825" lon="12.37492"><ele>20.0</ele><time>2026-04-02T14:48:54.981Z</time></trkpt><trkpt lat="45.74799" lon="12.3750017"><ele>20.0</ele><time>2026-04-02T14:48:55.982Z</time></trkpt><trkpt lat="45.7481633" lon="12.3750833"><ele>20.0</ele><time>2026-04-02T14:48:56.982Z</time></trkpt><trkpt lat="45.7483383" lon="12.375155"><ele>20.0</ele><time>2026-04-02T14:48:57.982Z</time></trkpt><trkpt lat="45.7485417" lon="12.3752633"><ele>20.333333333333336</ele><time>2026-04-02T14:48:58.981Z</time></trkpt><trkpt lat="45.7487267" lon="12.3753517"><ele>20.666666666666668</ele><time>2026-04-02T14:48:59.981Z</time></trkpt><trkpt lat="45.748905" lon="12.3754383"><ele>21.0</ele><time>2026-04-02T14:49:00.981Z</time></trkpt><trkpt lat="45.7490833" lon="12.37552"><ele>21.0</ele><time>2026-04-02T14:49:01.982Z</time></trkpt><trkpt lat="45.7492583" lon="12.3755983"><ele>21.0</ele><time>2026-04-02T14:49:02.982Z</time></trkpt><trkpt lat="45.7494267" lon="12.3756783"><ele>21.0</ele><time>2026-04-02T14:49:03.982Z</time></trkpt><trkpt lat="45.74961" lon="12.3757633"><ele>21.333333333333332</ele><time>2026-04-02T14:49:04.982Z</time></trkpt><trkpt lat="45.74978" lon="12.375855"><ele>21.666666666666664</ele><time>2026-04-02T14:49:05.982Z</time></trkpt><trkpt lat="45.74994" lon="12.375955"><ele>22.0</ele><time>2026-04-02T14:49:06.981Z</time></trkpt><trkpt lat="45.7500667" lon="12.3760233"><ele>23.0</ele><time>2026-04-02T14:49:07.982Z</time></trkpt><trkpt lat="45.7503283" lon="12.3761333"><ele>24.0</ele><time>2026-04-02T14:49:09.982Z</time></trkpt><trkpt lat="45.7504517" lon="12.3761833"><ele>25.0</ele><time>2026-04-02T14:49:10.982Z</time></trkpt><trkpt lat="45.75058" lon="12.3762367"><ele>25.000000000000004</ele><time>2026-04-02T14:49:11.982Z</time></trkpt><trkpt lat="45.75068" lon="12.376305"><ele>25.0</ele><time>2026-04-02T14:49:12.982Z</time></trkpt><trkpt lat="45.7507467" lon="12.3763767"><ele>25.0</ele><time>2026-04-02T14:49:13.982Z</time></trkpt><trkpt lat="45.7508267" lon="12.37643"><ele>25.0</ele><time>2026-04-02T14:49:14.982Z</time></trkpt><trkpt lat="45.7508983" lon="12.3764617"><ele>25.000000000000004</ele><time>2026-04-02T14:49:15.982Z</time></trkpt><trkpt lat="45.7509767" lon="12.3764833"><ele>25.0</ele><time>2026-04-02T14:49:16.981Z</time></trkpt><trkpt lat="45.75105" lon="12.3764717"><ele>24.500000000000004</ele><time>2026-04-02T14:49:18.982Z</time></trkpt><trkpt lat="45.7511133" lon="12.3764317"><ele>24.0</ele><time>2026-04-02T14:49:20.981Z</time></trkpt><trkpt lat="45.75119" lon="12.3764033"><ele>23.5</ele><time>2026-04-02T14:49:22.982Z</time></trkpt><trkpt lat="45.751265" lon="12.376355"><ele>23.0</ele><time>2026-04-02T14:49:24.982Z</time></trkpt><trkpt lat="45.7513567" lon="12.3763167"><ele>22.5</ele><time>2026-04-02T14:49:26.982Z</time></trkpt><trkpt lat="45.7514183" lon="12.3762833"><ele>22.0</ele><time>2026-04-02T14:49:27.982Z</time></trkpt><trkpt lat="45.7514833" lon="12.37623"><ele>22.0</ele><time>2026-04-02T14:49:28.982Z</time></trkpt><trkpt lat="45.751625" lon="12.3761"><ele>22.0</ele><time>2026-04-02T14:49:30.982Z</time></trkpt><trkpt lat="45.751695" lon="12.3760017"><ele>22.0</ele><time>2026-04-02T14:49:31.982Z</time></trkpt><trkpt lat="45.7517717" lon="12.37589"><ele>22.0</ele><time>2026-04-02T14:49:32.982Z</time></trkpt><trkpt lat="45.7518333" lon="12.3757533"><ele>21.6</ele><time>2026-04-02T14:49:33.982Z</time></trkpt><trkpt lat="45.751895" lon="12.375645"><ele>21.200000000000003</ele><time>2026-04-02T14:49:34.982Z</time></trkpt><trkpt lat="45.7519667" lon="12.3755267"><ele>20.8</ele><time>2026-04-02T14:49:35.982Z</time></trkpt><trkpt lat="45.7520517" lon="12.3754167"><ele>20.4</ele><time>2026-04-02T14:49:36.982Z</time></trkpt><trkpt lat="45.7521267" lon="12.3753083"><ele>20.0</ele><time>2026-04-02T14:49:37.982Z</time></trkpt><trkpt lat="45.752215" lon="12.37518"><ele>20.0</ele><time>2026-04-02T14:49:38.982Z</time></trkpt><trkpt lat="45.7522817" lon="12.37505"><ele>20.0</ele><time>2026-04-02T14:49:39.982Z</time></trkpt><trkpt lat="45.752365" lon="12.3749183"><ele>20.0</ele><time>2026-04-02T14:49:40.982Z</time></trkpt><trkpt lat="45.752435" lon="12.37478"><ele>20.0</ele><time>2026-04-02T14:49:41.982Z</time></trkpt><trkpt lat="45.75249" lon="12.37462"><ele>20.25</ele><time>2026-04-02T14:49:42.982Z</time></trkpt><trkpt lat="45.75254" lon="12.3744567"><ele>20.5</ele><time>2026-04-02T14:49:43.982Z</time></trkpt><trkpt lat="45.752585" lon="12.3742717"><ele>20.75</ele><time>2026-04-02T14:49:44.982Z</time></trkpt><trkpt lat="45.7526433" lon="12.3740767"><ele>21.0</ele><time>2026-04-02T14:49:45.982Z</time></trkpt><trkpt lat="45.7526983" lon="12.37387"><ele>22.0</ele><time>2026-04-02T14:49:46.982Z</time></trkpt><trkpt lat="45.7527867" lon="12.3736517"><ele>23.0</ele><time>2026-04-02T14:49:47.982Z</time></trkpt><trkpt lat="45.7528767" lon="12.3734367"><ele>24.0</ele><time>2026-04-02T14:49:48.982Z</time></trkpt><trkpt lat="45.75295" lon="12.37323"><ele>24.5</ele><time>2026-04-02T14:49:49.982Z</time></trkpt><trkpt lat="45.7530933" lon="12.3728433"><ele>25.0</ele><time>2026-04-02T14:49:51.982Z</time></trkpt><trkpt lat="45.7531933" lon="12.3726467"><ele>25.0</ele><time>2026-04-02T14:49:52.982Z</time></trkpt><trkpt lat="45.7532683" lon="12.3724617"><ele>25.0</ele><time>2026-04-02T14:49:53.982Z</time></trkpt><trkpt lat="45.7533367" lon="12.3722567"><ele>25.0</ele><time>2026-04-02T14:49:54.982Z</time></trkpt><trkpt lat="45.7534133" lon="12.372015"><ele>24.333333333333336</ele><time>2026-04-02T14:49:55.981Z</time></trkpt><trkpt lat="45.7534983" lon="12.3717783"><ele>23.666666666666668</ele><time>2026-04-02T14:49:56.981Z</time></trkpt><trkpt lat="45.7535733" lon="12.371525"><ele>23.0</ele><time>2026-04-02T14:49:57.982Z</time></trkpt><trkpt lat="45.7536567" lon="12.371295"><ele>21.5</ele><time>2026-04-02T14:49:58.982Z</time></trkpt><trkpt lat="45.7537367" lon="12.37109"><ele>20.0</ele><time>2026-04-02T14:49:59.981Z</time></trkpt><trkpt lat="45.7538033" lon="12.3709133"><ele>18.5</ele><time>2026-04-02T14:50:00.982Z</time></trkpt><trkpt lat="45.7538717" lon="12.37073"><ele>17.0</ele><time>2026-04-02T14:50:01.982Z</time></trkpt><trkpt lat="45.753945" lon="12.3705483"><ele>17.0</ele><time>2026-04-02T14:50:02.982Z</time></trkpt><trkpt lat="45.7540183" lon="12.370355"><ele>17.0</ele><time>2026-04-02T14:50:03.982Z</time></trkpt><trkpt lat="45.75409" lon="12.3701617"><ele>17.0</ele><time>2026-04-02T14:50:04.982Z</time></trkpt><trkpt lat="45.7541617" lon="12.3699867"><ele>17.0</ele><time>2026-04-02T14:50:05.982Z</time></trkpt><trkpt lat="45.7542233" lon="12.3698217"><ele>17.2</ele><time>2026-04-02T14:50:06.982Z</time></trkpt><trkpt lat="45.754285" lon="12.3696567"><ele>17.4</ele><time>2026-04-02T14:50:07.982Z</time></trkpt><trkpt lat="45.7543233" lon="12.369505"><ele>17.6</ele><time>2026-04-02T14:50:08.982Z</time></trkpt><trkpt lat="45.754335" lon="12.369375"><ele>17.8</ele><time>2026-04-02T14:50:09.982Z</time></trkpt><trkpt lat="45.75433" lon="12.369265"><ele>18.0</ele><time>2026-04-02T14:50:10.981Z</time></trkpt><trkpt lat="45.7542267" lon="12.3691533"><ele>18.0</ele><time>2026-04-02T14:50:12.982Z</time></trkpt><trkpt lat="45.7542067" lon="12.369"><ele>18.0</ele><time>2026-04-02T14:50:14.982Z</time></trkpt><trkpt lat="45.7541967" lon="12.3688467"><ele>18.0</ele><time>2026-04-02T14:50:16.982Z</time></trkpt><trkpt lat="45.75421" lon="12.368755"><ele>18.0</ele><time>2026-04-02T14:50:17.982Z</time></trkpt><trkpt lat="45.7542317" lon="12.3685867"><ele>18.0</ele><time>2026-04-02T14:50:19.982Z</time></trkpt><trkpt lat="45.7542183" lon="12.3684367"><ele>18.333333333333332</ele><time>2026-04-02T14:50:21.981Z</time></trkpt><trkpt lat="45.75421" lon="12.3683467"><ele>18.666666666666668</ele><time>2026-04-02T14:50:22.982Z</time></trkpt><trkpt lat="45.7541733" lon="12.36817"><ele>19.0</ele><time>2026-04-02T14:50:24.982Z</time></trkpt><trkpt lat="45.754165" lon="12.3680733"><ele>19.333333333333336</ele><time>2026-04-02T14:50:25.982Z</time></trkpt><trkpt lat="45.754155" lon="12.3679717"><ele>19.666666666666668</ele><time>2026-04-02T14:50:26.982Z</time></trkpt><trkpt lat="45.7541467" lon="12.3678433"><ele>20.0</ele><time>2026-04-02T14:50:27.981Z</time></trkpt><trkpt lat="45.7541417" lon="12.367715"><ele>20.0</ele><time>2026-04-02T14:50:28.982Z</time></trkpt><trkpt lat="45.75415" lon="12.3675483"><ele>20.0</ele><time>2026-04-02T14:50:29.982Z</time></trkpt><trkpt lat="45.7541633" lon="12.3673683"><ele>20.0</ele><time>2026-04-02T14:50:30.982Z</time></trkpt><trkpt lat="45.7541833" lon="12.3672083"><ele>20.0</ele><time>2026-04-02T14:50:31.982Z</time></trkpt><trkpt lat="45.7542367" lon="12.3668783"><ele>19.75</ele><time>2026-04-02T14:50:33.982Z</time></trkpt><trkpt lat="45.7542783" lon="12.366705"><ele>19.5</ele><time>2026-04-02T14:50:34.982Z</time></trkpt><trkpt lat="45.7543317" lon="12.3665317"><ele>19.25</ele><time>2026-04-02T14:50:35.982Z</time></trkpt><trkpt lat="45.754395" lon="12.3663667"><ele>19.0</ele><time>2026-04-02T14:50:36.982Z</time></trkpt><trkpt lat="45.7544817" lon="12.3661833"><ele>19.0</ele><time>2026-04-02T14:50:37.982Z</time></trkpt><trkpt lat="45.754575" lon="12.3660033"><ele>19.0</ele><time>2026-04-02T14:50:38.981Z</time></trkpt><trkpt lat="45.75466" lon="12.3658333"><ele>19.0</ele><time>2026-04-02T14:50:39.981Z</time></trkpt><trkpt lat="45.7547433" lon="12.3656883"><ele>19.0</ele><time>2026-04-02T14:50:40.982Z</time></trkpt><trkpt lat="45.7548167" lon="12.3655417"><ele>20.2</ele><time>2026-04-02T14:50:41.981Z</time></trkpt><trkpt lat="45.7548717" lon="12.36542"><ele>21.4</ele><time>2026-04-02T14:50:42.982Z</time></trkpt><trkpt lat="45.7549117" lon="12.365295"><ele>22.6</ele><time>2026-04-02T14:50:43.982Z</time></trkpt><trkpt lat="45.7548617" lon="12.36509"><ele>23.8</ele><time>2026-04-02T14:50:45.982Z</time></trkpt><trkpt lat="45.7547967" lon="12.3649917"><ele>25.0</ele><time>2026-04-02T14:50:46.982Z</time></trkpt><trkpt lat="45.7547233" lon="12.3648583"><ele>25.0</ele><time>2026-04-02T14:50:47.981Z</time></trkpt><trkpt lat="45.7546517" lon="12.3647017"><ele>25.0</ele><time>2026-04-02T14:50:48.982Z</time></trkpt><trkpt lat="45.7545817" lon="12.364505"><ele>25.0</ele><time>2026-04-02T14:50:49.982Z</time></trkpt><trkpt lat="45.7545183" lon="12.3642817"><ele>25.0</ele><time>2026-04-02T14:50:50.982Z</time></trkpt><trkpt lat="45.75445" lon="12.3640317"><ele>25.0</ele><time>2026-04-02T14:50:51.982Z</time></trkpt><trkpt lat="45.7543933" lon="12.36378"><ele>25.0</ele><time>2026-04-02T14:50:52.981Z</time></trkpt><trkpt lat="45.754315" lon="12.3632517"><ele>24.333333333333336</ele><time>2026-04-02T14:50:54.981Z</time></trkpt><trkpt lat="45.75427" lon="12.363"><ele>23.666666666666668</ele><time>2026-04-02T14:50:55.982Z</time></trkpt><trkpt lat="45.75423" lon="12.362755"><ele>23.0</ele><time>2026-04-02T14:50:56.982Z</time></trkpt><trkpt lat="45.7541883" lon="12.362505"><ele>23.0</ele><time>2026-04-02T14:50:57.982Z</time></trkpt><trkpt lat="45.7541583" lon="12.3622733"><ele>23.0</ele><time>2026-04-02T14:50:58.982Z</time></trkpt><trkpt lat="45.7541267" lon="12.3620217"><ele>23.0</ele><time>2026-04-02T14:50:59.981Z</time></trkpt><trkpt lat="45.75411" lon="12.3617783"><ele>23.0</ele><time>2026-04-02T14:51:00.981Z</time></trkpt><trkpt lat="45.7541167" lon="12.3615483"><ele>23.0</ele><time>2026-04-02T14:51:01.981Z</time></trkpt><trkpt lat="45.754105" lon="12.3613117"><ele>23.0</ele><time>2026-04-02T14:51:02.982Z</time></trkpt><trkpt lat="45.7540717" lon="12.3610783"><ele>23.0</ele><time>2026-04-02T14:51:03.982Z</time></trkpt><trkpt lat="45.7540483" lon="12.3608533"><ele>23.0</ele><time>2026-04-02T14:51:04.982Z</time></trkpt><trkpt lat="45.75402" lon="12.3606733"><ele>23.0</ele><time>2026-04-02T14:51:05.982Z</time></trkpt><trkpt lat="45.7539867" lon="12.3604533"><ele>23.0</ele><time>2026-04-02T14:51:06.982Z</time></trkpt><trkpt lat="45.753965" lon="12.3602333"><ele>23.0</ele><time>2026-04-02T14:51:07.981Z</time></trkpt><trkpt lat="45.753895" lon="12.36003"><ele>23.0</ele><time>2026-04-02T14:51:08.982Z</time></trkpt><trkpt lat="45.7538667" lon="12.3598317"><ele>23.0</ele><time>2026-04-02T14:51:09.982Z</time></trkpt><trkpt lat="45.753885" lon="12.359635"><ele>23.0</ele><time>2026-04-02T14:51:10.981Z</time></trkpt><trkpt lat="45.7539033" lon="12.3594167"><ele>23.0</ele><time>2026-04-02T14:51:11.982Z</time></trkpt><trkpt lat="45.7539733" lon="12.3592217"><ele>23.0</ele><time>2026-04-02T14:51:12.982Z</time></trkpt><trkpt lat="45.7540183" lon="12.3590483"><ele>23.0</ele><time>2026-04-02T14:51:13.982Z</time></trkpt><trkpt lat="45.7541067" lon="12.35875"><ele>23.25</ele><time>2026-04-02T14:51:15.981Z</time></trkpt><trkpt lat="45.75416" lon="12.3585883"><ele>23.5</ele><time>2026-04-02T14:51:16.981Z</time></trkpt><trkpt lat="45.7542333" lon="12.3583883"><ele>23.75</ele><time>2026-04-02T14:51:17.982Z</time></trkpt><trkpt lat="45.7542867" lon="12.35823"><ele>24.0</ele><time>2026-04-02T14:51:18.982Z</time></trkpt><trkpt lat="45.7543717" lon="12.358085"><ele>24.0</ele><time>2026-04-02T14:51:19.981Z</time></trkpt><trkpt lat="45.7544733" lon="12.3579483"><ele>24.0</ele><time>2026-04-02T14:51:20.981Z</time></trkpt><trkpt lat="45.754565" lon="12.3578083"><ele>24.0</ele><time>2026-04-02T14:51:21.98Z</time></trkpt><trkpt lat="45.7546467" lon="12.357665"><ele>24.0</ele><time>2026-04-02T14:51:22.981Z</time></trkpt><trkpt lat="45.75472" lon="12.3575267"><ele>24.0</ele><time>2026-04-02T14:51:23.981Z</time></trkpt><trkpt lat="45.7548133" lon="12.35731"><ele>24.0</ele><time>2026-04-02T14:51:24.981Z</time></trkpt><trkpt lat="45.7548867" lon="12.3571"><ele>24.0</ele><time>2026-04-02T14:51:25.981Z</time></trkpt><trkpt lat="45.75496" lon="12.3568667"><ele>24.333333333333336</ele><time>2026-04-02T14:51:26.981Z</time></trkpt><trkpt lat="45.75504" lon="12.3566417"><ele>24.666666666666668</ele><time>2026-04-02T14:51:27.981Z</time></trkpt><trkpt lat="45.75511" lon="12.3564567"><ele>25.0</ele><time>2026-04-02T14:51:28.98Z</time></trkpt><trkpt lat="45.7551933" lon="12.3562667"><ele>24.666666666666668</ele><time>2026-04-02T14:51:29.981Z</time></trkpt><trkpt lat="45.7552867" lon="12.3560867"><ele>24.333333333333336</ele><time>2026-04-02T14:51:30.981Z</time></trkpt><trkpt lat="45.7553967" lon="12.3558983"><ele>24.0</ele><time>2026-04-02T14:51:31.981Z</time></trkpt><trkpt lat="45.755515" lon="12.3556967"><ele>24.666666666666664</ele><time>2026-04-02T14:51:32.981Z</time></trkpt><trkpt lat="45.7556" lon="12.3554883"><ele>25.333333333333332</ele><time>2026-04-02T14:51:33.981Z</time></trkpt><trkpt lat="45.7556883" lon="12.355255"><ele>26.0</ele><time>2026-04-02T14:51:34.981Z</time></trkpt><trkpt lat="45.7559167" lon="12.3548183"><ele>27.0</ele><time>2026-04-02T14:51:36.98Z</time></trkpt><trkpt lat="45.7560367" lon="12.3546367"><ele>28.0</ele><time>2026-04-02T14:51:37.981Z</time></trkpt><trkpt lat="45.7561567" lon="12.3544583"><ele>29.0</ele><time>2026-04-02T14:51:38.981Z</time></trkpt><trkpt lat="45.7562517" lon="12.3543167"><ele>29.0</ele><time>2026-04-02T14:51:39.981Z</time></trkpt><trkpt lat="45.7563683" lon="12.3541717"><ele>29.0</ele><time>2026-04-02T14:51:40.981Z</time></trkpt><trkpt lat="45.7565017" lon="12.3540217"><ele>29.0</ele><time>2026-04-02T14:51:41.98Z</time></trkpt><trkpt lat="45.756635" lon="12.35388"><ele>28.333333333333332</ele><time>2026-04-02T14:51:42.981Z</time></trkpt><trkpt lat="45.7567733" lon="12.35373"><ele>27.666666666666664</ele><time>2026-04-02T14:51:43.981Z</time></trkpt><trkpt lat="45.7569233" lon="12.3535767"><ele>27.0</ele><time>2026-04-02T14:51:44.98Z</time></trkpt><trkpt lat="45.757065" lon="12.3534133"><ele>27.0</ele><time>2026-04-02T14:51:45.98Z</time></trkpt><trkpt lat="45.7572117" lon="12.3532433"><ele>27.0</ele><time>2026-04-02T14:51:46.981Z</time></trkpt><trkpt lat="45.757375" lon="12.35307"><ele>27.0</ele><time>2026-04-02T14:51:47.981Z</time></trkpt><trkpt lat="45.757535" lon="12.3528917"><ele>26.333333333333336</ele><time>2026-04-02T14:51:48.981Z</time></trkpt><trkpt lat="45.7577033" lon="12.3526883"><ele>25.666666666666668</ele><time>2026-04-02T14:51:49.98Z</time></trkpt><trkpt lat="45.757865" lon="12.3524933"><ele>25.0</ele><time>2026-04-02T14:51:50.981Z</time></trkpt><trkpt lat="45.7580417" lon="12.3522867"><ele>25.333333333333336</ele><time>2026-04-02T14:51:51.981Z</time></trkpt><trkpt lat="45.75822" lon="12.3521217"><ele>25.666666666666664</ele><time>2026-04-02T14:51:52.981Z</time></trkpt><trkpt lat="45.7583983" lon="12.351955"><ele>26.0</ele><time>2026-04-02T14:51:53.981Z</time></trkpt><trkpt lat="45.7585817" lon="12.3517967"><ele>27.5</ele><time>2026-04-02T14:51:54.98Z</time></trkpt><trkpt lat="45.7587633" lon="12.3516417"><ele>29.0</ele><time>2026-04-02T14:51:55.981Z</time></trkpt><trkpt lat="45.75911" lon="12.3513583"><ele>29.0</ele><time>2026-04-02T14:51:57.981Z</time></trkpt><trkpt lat="45.759265" lon="12.3512267"><ele>29.0</ele><time>2026-04-02T14:51:58.981Z</time></trkpt><trkpt lat="45.759395" lon="12.3511133"><ele>29.0</ele><time>2026-04-02T14:51:59.981Z</time></trkpt><trkpt lat="45.75951" lon="12.3510117"><ele>29.0</ele><time>2026-04-02T14:52:00.981Z</time></trkpt><trkpt lat="45.759615" lon="12.3509083"><ele>29.0</ele><time>2026-04-02T14:52:01.981Z</time></trkpt><trkpt lat="45.7597267" lon="12.35079"><ele>29.0</ele><time>2026-04-02T14:52:02.98Z</time></trkpt><trkpt lat="45.7598317" lon="12.3506567"><ele>29.0</ele><time>2026-04-02T14:52:03.981Z</time></trkpt><trkpt lat="45.75992" lon="12.3504967"><ele>28.666666666666664</ele><time>2026-04-02T14:52:04.981Z</time></trkpt><trkpt lat="45.75999" lon="12.3503067"><ele>28.333333333333336</ele><time>2026-04-02T14:52:05.98Z</time></trkpt><trkpt lat="45.7600383" lon="12.35007"><ele>28.0</ele><time>2026-04-02T14:52:06.981Z</time></trkpt><trkpt lat="45.7600783" lon="12.3498433"><ele>28.0</ele><time>2026-04-02T14:52:07.981Z</time></trkpt><trkpt lat="45.7601217" lon="12.349595"><ele>28.0</ele><time>2026-04-02T14:52:08.981Z</time></trkpt><trkpt lat="45.7601667" lon="12.3493217"><ele>28.0</ele><time>2026-04-02T14:52:09.981Z</time></trkpt><trkpt lat="45.760215" lon="12.3490667"><ele>28.333333333333336</ele><time>2026-04-02T14:52:10.981Z</time></trkpt><trkpt lat="45.7602633" lon="12.3488133"><ele>28.666666666666664</ele><time>2026-04-02T14:52:11.981Z</time></trkpt><trkpt lat="45.7603" lon="12.3485533"><ele>29.0</ele><time>2026-04-02T14:52:12.981Z</time></trkpt><trkpt lat="45.7603333" lon="12.348315"><ele>29.0</ele><time>2026-04-02T14:52:13.981Z</time></trkpt><trkpt lat="45.76038" lon="12.3480967"><ele>29.0</ele><time>2026-04-02T14:52:14.981Z</time></trkpt><trkpt lat="45.7604383" lon="12.347885"><ele>29.0</ele><time>2026-04-02T14:52:15.981Z</time></trkpt><trkpt lat="45.7605133" lon="12.3476883"><ele>28.5</ele><time>2026-04-02T14:52:16.981Z</time></trkpt><trkpt lat="45.7606583" lon="12.3472533"><ele>28.0</ele><time>2026-04-02T14:52:18.981Z</time></trkpt><trkpt lat="45.760745" lon="12.3470733"><ele>28.0</ele><time>2026-04-02T14:52:19.981Z</time></trkpt><trkpt lat="45.76085" lon="12.346925"><ele>28.0</ele><time>2026-04-02T14:52:20.98Z</time></trkpt><trkpt lat="45.76099" lon="12.3468867"><ele>28.0</ele><time>2026-04-02T14:52:21.981Z</time></trkpt><trkpt lat="45.7611167" lon="12.34678"><ele>28.0</ele><time>2026-04-02T14:52:22.981Z</time></trkpt><trkpt lat="45.7612983" lon="12.3467383"><ele>28.666666666666668</ele><time>2026-04-02T14:52:23.981Z</time></trkpt><trkpt lat="45.7614167" lon="12.34665"><ele>29.333333333333336</ele><time>2026-04-02T14:52:24.98Z</time></trkpt><trkpt lat="45.7615767" lon="12.3464833"><ele>30.0</ele><time>2026-04-02T14:52:26.981Z</time></trkpt><trkpt lat="45.7617" lon="12.34637"><ele>30.0</ele><time>2026-04-02T14:52:27.981Z</time></trkpt><trkpt lat="45.7618233" lon="12.346235"><ele>30.0</ele><time>2026-04-02T14:52:28.981Z</time></trkpt><trkpt lat="45.76195" lon="12.3460867"><ele>30.0</ele><time>2026-04-02T14:52:29.98Z</time></trkpt><trkpt lat="45.7620783" lon="12.3459233"><ele>30.0</ele><time>2026-04-02T14:52:30.981Z</time></trkpt><trkpt lat="45.7621867" lon="12.34577"><ele>30.0</ele><time>2026-04-02T14:52:31.981Z</time></trkpt><trkpt lat="45.7623083" lon="12.3456367"><ele>30.0</ele><time>2026-04-02T14:52:32.981Z</time></trkpt><trkpt lat="45.76243" lon="12.3455"><ele>30.0</ele><time>2026-04-02T14:52:33.981Z</time></trkpt><trkpt lat="45.7625567" lon="12.3453733"><ele>30.0</ele><time>2026-04-02T14:52:34.981Z</time></trkpt><trkpt lat="45.7626633" lon="12.34526"><ele>30.0</ele><time>2026-04-02T14:52:35.981Z</time></trkpt><trkpt lat="45.762775" lon="12.3451617"><ele>30.0</ele><time>2026-04-02T14:52:36.981Z</time></trkpt><trkpt lat="45.7628483" lon="12.34509"><ele>30.2</ele><time>2026-04-02T14:52:37.981Z</time></trkpt><trkpt lat="45.7629817" lon="12.3449483"><ele>30.4</ele><time>2026-04-02T14:52:39.981Z</time></trkpt><trkpt lat="45.7629133" lon="12.3448617"><ele>30.6</ele><time>2026-04-02T14:52:43.98Z</time></trkpt><trkpt lat="45.7629033" lon="12.3447083"><ele>30.8</ele><time>2026-04-02T14:52:45.981Z</time></trkpt><trkpt lat="45.7629217" lon="12.3446033"><ele>31.0</ele><time>2026-04-02T14:52:46.981Z</time></trkpt><trkpt lat="45.7629533" lon="12.3444533"><ele>31.0</ele><time>2026-04-02T14:52:47.981Z</time></trkpt><trkpt lat="45.763005" lon="12.3442833"><ele>31.0</ele><time>2026-04-02T14:52:48.98Z</time></trkpt><trkpt lat="45.763075" lon="12.3441117"><ele>31.0</ele><time>2026-04-02T14:52:49.981Z</time></trkpt><trkpt lat="45.76313" lon="12.3439367"><ele>31.0</ele><time>2026-04-02T14:52:50.981Z</time></trkpt><trkpt lat="45.7631667" lon="12.343765"><ele>30.75</ele><time>2026-04-02T14:52:51.981Z</time></trkpt><trkpt lat="45.7631983" lon="12.34358"><ele>30.5</ele><time>2026-04-02T14:52:52.981Z</time></trkpt><trkpt lat="45.763215" lon="12.3433883"><ele>30.25</ele><time>2026-04-02T14:52:53.98Z</time></trkpt><trkpt lat="45.76323" lon="12.343225"><ele>30.0</ele><time>2026-04-02T14:52:54.981Z</time></trkpt><trkpt lat="45.7632217" lon="12.3430683"><ele>29.75</ele><time>2026-04-02T14:52:55.981Z</time></trkpt><trkpt lat="45.7632083" lon="12.3429033"><ele>29.5</ele><time>2026-04-02T14:52:56.981Z</time></trkpt><trkpt lat="45.7632183" lon="12.34274"><ele>29.25</ele><time>2026-04-02T14:52:57.981Z</time></trkpt><trkpt lat="45.7632367" lon="12.3425667"><ele>29.0</ele><time>2026-04-02T14:52:58.98Z</time></trkpt><trkpt lat="45.7633083" lon="12.3421967"><ele>29.0</ele><time>2026-04-02T14:53:00.98Z</time></trkpt><trkpt lat="45.76337" lon="12.34199"><ele>29.0</ele><time>2026-04-02T14:53:01.981Z</time></trkpt><trkpt lat="45.7634417" lon="12.341795"><ele>29.0</ele><time>2026-04-02T14:53:02.981Z</time></trkpt><trkpt lat="45.763535" lon="12.3416067"><ele>28.666666666666664</ele><time>2026-04-02T14:53:03.981Z</time></trkpt><trkpt lat="45.7636517" lon="12.34141"><ele>28.333333333333336</ele><time>2026-04-02T14:53:04.981Z</time></trkpt><trkpt lat="45.763755" lon="12.3412433"><ele>28.0</ele><time>2026-04-02T14:53:05.981Z</time></trkpt><trkpt lat="45.76385" lon="12.34108"><ele>28.0</ele><time>2026-04-02T14:53:06.98Z</time></trkpt><trkpt lat="45.76397" lon="12.3409317"><ele>28.0</ele><time>2026-04-02T14:53:07.981Z</time></trkpt><trkpt lat="45.76408" lon="12.340825"><ele>28.0</ele><time>2026-04-02T14:53:08.981Z</time></trkpt><trkpt lat="45.76415" lon="12.3407"><ele>28.0</ele><time>2026-04-02T14:53:09.98Z</time></trkpt><trkpt lat="45.7642033" lon="12.3405633"><ele>28.0</ele><time>2026-04-02T14:53:10.981Z</time></trkpt><trkpt lat="45.7642767" lon="12.3404033"><ele>28.0</ele><time>2026-04-02T14:53:11.981Z</time></trkpt><trkpt lat="45.7643033" lon="12.340235"><ele>28.0</ele><time>2026-04-02T14:53:12.981Z</time></trkpt><trkpt lat="45.7643383" lon="12.340015"><ele>28.0</ele><time>2026-04-02T14:53:13.981Z</time></trkpt><trkpt lat="45.7643683" lon="12.339805"><ele>28.25</ele><time>2026-04-02T14:53:14.981Z</time></trkpt><trkpt lat="45.764405" lon="12.3395617"><ele>28.5</ele><time>2026-04-02T14:53:15.981Z</time></trkpt><trkpt lat="45.764425" lon="12.33937"><ele>28.75</ele><time>2026-04-02T14:53:16.98Z</time></trkpt><trkpt lat="45.7644533" lon="12.3391917"><ele>29.0</ele><time>2026-04-02T14:53:17.981Z</time></trkpt><trkpt lat="45.76445" lon="12.3390283"><ele>29.25</ele><time>2026-04-02T14:53:18.981Z</time></trkpt><trkpt lat="45.76443" lon="12.3388467"><ele>29.5</ele><time>2026-04-02T14:53:19.981Z</time></trkpt><trkpt lat="45.76438" lon="12.3385317"><ele>29.75</ele><time>2026-04-02T14:53:21.981Z</time></trkpt><trkpt lat="45.7643533" lon="12.33843"><ele>30.0</ele><time>2026-04-02T14:53:22.981Z</time></trkpt><trkpt lat="45.7642733" lon="12.338365"><ele>30.0</ele><time>2026-04-02T14:53:23.981Z</time></trkpt><trkpt lat="45.7642583" lon="12.3382717"><ele>30.0</ele><time>2026-04-02T14:53:24.98Z</time></trkpt><trkpt lat="45.7642683" lon="12.3381783"><ele>30.0</ele><time>2026-04-02T14:53:25.981Z</time></trkpt><trkpt lat="45.7643183" lon="12.337985"><ele>30.0</ele><time>2026-04-02T14:53:27.981Z</time></trkpt><trkpt lat="45.764385" lon="12.3378633"><ele>30.0</ele><time>2026-04-02T14:53:28.981Z</time></trkpt><trkpt lat="45.7644817" lon="12.3376983"><ele>30.666666666666664</ele><time>2026-04-02T14:53:29.981Z</time></trkpt><trkpt lat="45.7645983" lon="12.337505"><ele>31.333333333333332</ele><time>2026-04-02T14:53:30.981Z</time></trkpt><trkpt lat="45.7647483" lon="12.3372683"><ele>32.0</ele><time>2026-04-02T14:53:31.981Z</time></trkpt><trkpt lat="45.7648717" lon="12.33706"><ele>32.33333333333333</ele><time>2026-04-02T14:53:32.98Z</time></trkpt><trkpt lat="45.7649983" lon="12.3368333"><ele>32.666666666666664</ele><time>2026-04-02T14:53:33.981Z</time></trkpt><trkpt lat="45.7651117" lon="12.336615"><ele>33.0</ele><time>2026-04-02T14:53:34.981Z</time></trkpt><trkpt lat="45.7652183" lon="12.3364133"><ele>32.75</ele><time>2026-04-02T14:53:35.981Z</time></trkpt><trkpt lat="45.765305" lon="12.3362317"><ele>32.5</ele><time>2026-04-02T14:53:36.981Z</time></trkpt><trkpt lat="45.7653717" lon="12.3360633"><ele>32.25</ele><time>2026-04-02T14:53:37.981Z</time></trkpt><trkpt lat="45.765425" lon="12.3358967"><ele>32.0</ele><time>2026-04-02T14:53:38.981Z</time></trkpt><trkpt lat="45.7654783" lon="12.3357417"><ele>32.0</ele><time>2026-04-02T14:53:39.981Z</time></trkpt><trkpt lat="45.765535" lon="12.33561"><ele>32.0</ele><time>2026-04-02T14:53:40.98Z</time></trkpt><trkpt lat="45.76568" lon="12.3353467"><ele>32.0</ele><time>2026-04-02T14:53:42.981Z</time></trkpt><trkpt lat="45.7657617" lon="12.3352433"><ele>31.25</ele><time>2026-04-02T14:53:43.981Z</time></trkpt><trkpt lat="45.7658517" lon="12.3351417"><ele>30.5</ele><time>2026-04-02T14:53:44.981Z</time></trkpt><trkpt lat="45.76594" lon="12.33502"><ele>29.75</ele><time>2026-04-02T14:53:45.981Z</time></trkpt><trkpt lat="45.766035" lon="12.3348667"><ele>29.0</ele><time>2026-04-02T14:53:46.981Z</time></trkpt><trkpt lat="45.7661167" lon="12.3347267"><ele>29.0</ele><time>2026-04-02T14:53:47.981Z</time></trkpt><trkpt lat="45.7661917" lon="12.3346"><ele>29.0</ele><time>2026-04-02T14:53:48.98Z</time></trkpt><trkpt lat="45.7662617" lon="12.334465"><ele>29.0</ele><time>2026-04-02T14:53:49.981Z</time></trkpt><trkpt lat="45.7663217" lon="12.3343183"><ele>29.0</ele><time>2026-04-02T14:53:50.981Z</time></trkpt><trkpt lat="45.766395" lon="12.3341733"><ele>29.0</ele><time>2026-04-02T14:53:51.981Z</time></trkpt><trkpt lat="45.7664683" lon="12.3340433"><ele>29.0</ele><time>2026-04-02T14:53:52.981Z</time></trkpt><trkpt lat="45.766535" lon="12.3339217"><ele>29.0</ele><time>2026-04-02T14:53:53.98Z</time></trkpt><trkpt lat="45.766595" lon="12.3338067"><ele>29.0</ele><time>2026-04-02T14:53:54.981Z</time></trkpt><trkpt lat="45.7666583" lon="12.3336817"><ele>29.0</ele><time>2026-04-02T14:53:55.981Z</time></trkpt><trkpt lat="45.76672" lon="12.3335883"><ele>29.0</ele><time>2026-04-02T14:53:56.981Z</time></trkpt><trkpt lat="45.7668367" lon="12.3335267"><ele>29.0</ele><time>2026-04-02T14:53:57.981Z</time></trkpt><trkpt lat="45.76689" lon="12.3334183"><ele>29.0</ele><time>2026-04-02T14:53:58.981Z</time></trkpt><trkpt lat="45.7669433" lon="12.3332983"><ele>29.0</ele><time>2026-04-02T14:53:59.981Z</time></trkpt><trkpt lat="45.7669917" lon="12.3331717"><ele>29.0</ele><time>2026-04-02T14:54:00.981Z</time></trkpt><trkpt lat="45.767025" lon="12.33303"><ele>29.0</ele><time>2026-04-02T14:54:01.981Z</time></trkpt><trkpt lat="45.7670633" lon="12.33271"><ele>29.0</ele><time>2026-04-02T14:54:03.981Z</time></trkpt><trkpt lat="45.7670583" lon="12.332515"><ele>29.0</ele><time>2026-04-02T14:54:04.981Z</time></trkpt><trkpt lat="45.7670533" lon="12.332295"><ele>29.0</ele><time>2026-04-02T14:54:05.981Z</time></trkpt><trkpt lat="45.7670567" lon="12.3320733"><ele>29.0</ele><time>2026-04-02T14:54:06.981Z</time></trkpt><trkpt lat="45.7670683" lon="12.331845"><ele>29.0</ele><time>2026-04-02T14:54:07.98Z</time></trkpt><trkpt lat="45.76708" lon="12.3316217"><ele>29.0</ele><time>2026-04-02T14:54:08.981Z</time></trkpt><trkpt lat="45.7670883" lon="12.3314"><ele>29.0</ele><time>2026-04-02T14:54:09.981Z</time></trkpt><trkpt lat="45.767085" lon="12.331195"><ele>29.0</ele><time>2026-04-02T14:54:10.981Z</time></trkpt><trkpt lat="45.7670917" lon="12.331005"><ele>29.0</ele><time>2026-04-02T14:54:11.981Z</time></trkpt><trkpt lat="45.7670967" lon="12.3308283"><ele>28.999999999999996</ele><time>2026-04-02T14:54:12.981Z</time></trkpt><trkpt lat="45.7671" lon="12.330675"><ele>29.0</ele><time>2026-04-02T14:54:13.981Z</time></trkpt><trkpt lat="45.7671033" lon="12.3305467"><ele>29.0</ele><time>2026-04-02T14:54:14.981Z</time></trkpt><trkpt lat="45.7671067" lon="12.3304217"><ele>29.0</ele><time>2026-04-02T14:54:15.981Z</time></trkpt><trkpt lat="45.7671167" lon="12.3303117"><ele>28.999999999999996</ele><time>2026-04-02T14:54:16.981Z</time></trkpt><trkpt lat="45.7671117" lon="12.3302217"><ele>29.0</ele><time>2026-04-02T14:54:17.981Z</time></trkpt><trkpt lat="45.7671083" lon="12.3300733"><ele>29.0</ele><time>2026-04-02T14:54:19.981Z</time></trkpt><trkpt lat="45.7671167" lon="12.3299083"><ele>29.0</ele><time>2026-04-02T14:54:21.98Z</time></trkpt><trkpt lat="45.76713" lon="12.329815"><ele>29.0</ele><time>2026-04-02T14:54:22.981Z</time></trkpt><trkpt lat="45.7671283" lon="12.3296067"><ele>29.0</ele><time>2026-04-02T14:54:24.981Z</time></trkpt><trkpt lat="45.767085" lon="12.32951"><ele>29.0</ele><time>2026-04-02T14:54:25.981Z</time></trkpt><trkpt lat="45.7670133" lon="12.32943"><ele>29.499999999999996</ele><time>2026-04-02T14:54:26.981Z</time></trkpt><trkpt lat="45.766935" lon="12.3293833"><ele>30.0</ele><time>2026-04-02T14:54:27.98Z</time></trkpt><trkpt lat="45.766845" lon="12.3293517"><ele>30.5</ele><time>2026-04-02T14:54:28.981Z</time></trkpt><trkpt lat="45.7667867" lon="12.329315"><ele>31.0</ele><time>2026-04-02T14:54:29.981Z</time></trkpt><trkpt lat="45.7667117" lon="12.3292167"><ele>31.499999999999996</ele><time>2026-04-02T14:54:31.981Z</time></trkpt><trkpt lat="45.7667117" lon="12.3291117"><ele>32.0</ele><time>2026-04-02T14:54:33.981Z</time></trkpt><trkpt lat="45.7667433" lon="12.32901"><ele>32.5</ele><time>2026-04-02T14:54:34.981Z</time></trkpt><trkpt lat="45.7667983" lon="12.32887"><ele>33.0</ele><time>2026-04-02T14:54:35.98Z</time></trkpt><trkpt lat="45.7668617" lon="12.32872"><ele>33.5</ele><time>2026-04-02T14:54:36.981Z</time></trkpt><trkpt lat="45.7669467" lon="12.3285467"><ele>34.0</ele><time>2026-04-02T14:54:37.98Z</time></trkpt><trkpt lat="45.767035" lon="12.3283483"><ele>34.0</ele><time>2026-04-02T14:54:38.981Z</time></trkpt><trkpt lat="45.767105" lon="12.3281683"><ele>34.0</ele><time>2026-04-02T14:54:39.98Z</time></trkpt><trkpt lat="45.7671717" lon="12.327995"><ele>34.0</ele><time>2026-04-02T14:54:40.98Z</time></trkpt><trkpt lat="45.7672483" lon="12.327815"><ele>34.0</ele><time>2026-04-02T14:54:41.98Z</time></trkpt><trkpt lat="45.76734" lon="12.32759"><ele>34.0</ele><time>2026-04-02T14:54:42.981Z</time></trkpt><trkpt lat="45.7674333" lon="12.3274117"><ele>34.0</ele><time>2026-04-02T14:54:43.981Z</time></trkpt><trkpt lat="45.7676017" lon="12.3270417"><ele>34.0</ele><time>2026-04-02T14:54:45.981Z</time></trkpt><trkpt lat="45.7676867" lon="12.3268667"><ele>34.0</ele><time>2026-04-02T14:54:46.98Z</time></trkpt><trkpt lat="45.7677567" lon="12.32671"><ele>34.0</ele><time>2026-04-02T14:54:47.981Z</time></trkpt><trkpt lat="45.7678217" lon="12.3265617"><ele>34.0</ele><time>2026-04-02T14:54:48.981Z</time></trkpt><trkpt lat="45.7678933" lon="12.3264283"><ele>33.75</ele><time>2026-04-02T14:54:49.981Z</time></trkpt><trkpt lat="45.7679467" lon="12.3262767"><ele>33.5</ele><time>2026-04-02T14:54:50.981Z</time></trkpt><trkpt lat="45.7679883" lon="12.3261167"><ele>33.25</ele><time>2026-04-02T14:54:51.981Z</time></trkpt><trkpt lat="45.768015" lon="12.32595"><ele>33.0</ele><time>2026-04-02T14:54:52.981Z</time></trkpt><trkpt lat="45.7680417" lon="12.325785"><ele>33.0</ele><time>2026-04-02T14:54:53.98Z</time></trkpt><trkpt lat="45.7680583" lon="12.3256033"><ele>33.0</ele><time>2026-04-02T14:54:54.979Z</time></trkpt><trkpt lat="45.76808" lon="12.3254383"><ele>33.0</ele><time>2026-04-02T14:54:55.98Z</time></trkpt><trkpt lat="45.7680867" lon="12.3252867"><ele>33.0</ele><time>2026-04-02T14:54:56.98Z</time></trkpt><trkpt lat="45.768095" lon="12.32516"><ele>33.0</ele><time>2026-04-02T14:54:57.98Z</time></trkpt><trkpt lat="45.7681033" lon="12.32505"><ele>33.199999999999996</ele><time>2026-04-02T14:54:58.98Z</time></trkpt><trkpt lat="45.7681017" lon="12.3249567"><ele>33.4</ele><time>2026-04-02T14:54:59.979Z</time></trkpt><trkpt lat="45.7680967" lon="12.324855"><ele>33.599999999999994</ele><time>2026-04-02T14:55:01.979Z</time></trkpt><trkpt lat="45.7680617" lon="12.3247683"><ele>33.8</ele><time>2026-04-02T14:55:05.98Z</time></trkpt><trkpt lat="45.7680367" lon="12.32449"><ele>34.0</ele><time>2026-04-02T14:55:09.98Z</time></trkpt><trkpt lat="45.7680333" lon="12.3243483"><ele>34.4</ele><time>2026-04-02T14:55:10.98Z</time></trkpt><trkpt lat="45.76803" lon="12.3241467"><ele>34.8</ele><time>2026-04-02T14:55:11.98Z</time></trkpt><trkpt lat="45.7680433" lon="12.3239917"><ele>35.2</ele><time>2026-04-02T14:55:12.98Z</time></trkpt><trkpt lat="45.7680583" lon="12.3238533"><ele>35.6</ele><time>2026-04-02T14:55:13.98Z</time></trkpt><trkpt lat="45.7680533" lon="12.3237333"><ele>36.0</ele><time>2026-04-02T14:55:14.98Z</time></trkpt><trkpt lat="45.76804" lon="12.3236067"><ele>36.166666666666664</ele><time>2026-04-02T14:55:15.98Z</time></trkpt><trkpt lat="45.7680433" lon="12.32351"><ele>36.333333333333336</ele><time>2026-04-02T14:55:16.98Z</time></trkpt><trkpt lat="45.7680567" lon="12.323365"><ele>36.5</ele><time>2026-04-02T14:55:18.98Z</time></trkpt><trkpt lat="45.7680833" lon="12.3232067"><ele>36.66666666666667</ele><time>2026-04-02T14:55:20.98Z</time></trkpt><trkpt lat="45.7681367" lon="12.3231533"><ele>36.833333333333336</ele><time>2026-04-02T14:55:21.98Z</time></trkpt><trkpt lat="45.7682267" lon="12.3231117"><ele>37.0</ele><time>2026-04-02T14:55:22.98Z</time></trkpt><trkpt lat="45.7683083" lon="12.32312"><ele>37.2</ele><time>2026-04-02T14:55:23.98Z</time></trkpt><trkpt lat="45.7683933" lon="12.32305"><ele>37.400000000000006</ele><time>2026-04-02T14:55:25.979Z</time></trkpt><trkpt lat="45.76845" lon="12.323"><ele>37.599999999999994</ele><time>2026-04-02T14:55:26.979Z</time></trkpt><trkpt lat="45.7685017" lon="12.3227517"><ele>37.8</ele><time>2026-04-02T14:55:29.98Z</time></trkpt><trkpt lat="45.7685117" lon="12.32264"><ele>38.0</ele><time>2026-04-02T14:55:30.98Z</time></trkpt><trkpt lat="45.7685267" lon="12.322485"><ele>37.5</ele><time>2026-04-02T14:55:31.98Z</time></trkpt><trkpt lat="45.7685483" lon="12.3223433"><ele>37.0</ele><time>2026-04-02T14:55:32.98Z</time></trkpt><trkpt lat="45.7686117" lon="12.3221167"><ele>36.5</ele><time>2026-04-02T14:55:33.98Z</time></trkpt><trkpt lat="45.7686533" lon="12.321955"><ele>36.0</ele><time>2026-04-02T14:55:34.98Z</time></trkpt><trkpt lat="45.7686917" lon="12.32182"><ele>35.833333333333336</ele><time>2026-04-02T14:55:35.98Z</time></trkpt><trkpt lat="45.768715" lon="12.3216967"><ele>35.666666666666664</ele><time>2026-04-02T14:55:36.98Z</time></trkpt><trkpt lat="45.7687283" lon="12.3215683"><ele>35.5</ele><time>2026-04-02T14:55:37.98Z</time></trkpt><trkpt lat="45.7687183" lon="12.3214617"><ele>35.33333333333333</ele><time>2026-04-02T14:55:38.98Z</time></trkpt><trkpt lat="45.7686967" lon="12.3213517"><ele>35.166666666666664</ele><time>2026-04-02T14:55:39.98Z</time></trkpt><trkpt lat="45.7686467" lon="12.3212417"><ele>35.0</ele><time>2026-04-02T14:55:40.98Z</time></trkpt><trkpt lat="45.76859" lon="12.3211517"><ele>35.4</ele><time>2026-04-02T14:55:41.98Z</time></trkpt><trkpt lat="45.76858" lon="12.3210233"><ele>35.8</ele><time>2026-04-02T14:55:43.98Z</time></trkpt><trkpt lat="45.7686067" lon="12.3208467"><ele>36.2</ele><time>2026-04-02T14:55:45.98Z</time></trkpt><trkpt lat="45.7686367" lon="12.3207267"><ele>36.6</ele><time>2026-04-02T14:55:46.98Z</time></trkpt><trkpt lat="45.7686967" lon="12.3206133"><ele>37.0</ele><time>2026-04-02T14:55:47.979Z</time></trkpt><trkpt lat="45.7687883" lon="12.3204183"><ele>37.0</ele><time>2026-04-02T14:55:49.98Z</time></trkpt><trkpt lat="45.7688217" lon="12.3202967"><ele>37.0</ele><time>2026-04-02T14:55:50.979Z</time></trkpt><trkpt lat="45.768855" lon="12.3201983"><ele>37.0</ele><time>2026-04-02T14:55:51.98Z</time></trkpt><trkpt lat="45.7688867" lon="12.320115"><ele>37.0</ele><time>2026-04-02T14:55:52.98Z</time></trkpt><trkpt lat="45.76897" lon="12.3199867"><ele>37.0</ele><time>2026-04-02T14:55:54.98Z</time></trkpt><trkpt lat="45.7690317" lon="12.31987"><ele>37.0</ele><time>2026-04-02T14:55:56.98Z</time></trkpt><trkpt lat="45.7690917" lon="12.3197767"><ele>37.0</ele><time>2026-04-02T14:55:58.98Z</time></trkpt><trkpt lat="45.76913" lon="12.31967"><ele>37.0</ele><time>2026-04-02T14:56:00.98Z</time></trkpt><trkpt lat="45.769165" lon="12.319535"><ele>37.0</ele><time>2026-04-02T14:56:02.98Z</time></trkpt><trkpt lat="45.7692183" lon="12.3193833"><ele>37.0</ele><time>2026-04-02T14:56:04.98Z</time></trkpt><trkpt lat="45.769255" lon="12.3193017"><ele>37.0</ele><time>2026-04-02T14:56:05.98Z</time></trkpt><trkpt lat="45.7692833" lon="12.319165"><ele>37.0</ele><time>2026-04-02T14:56:07.98Z</time></trkpt><trkpt lat="45.769285" lon="12.319035"><ele>37.0</ele><time>2026-04-02T14:56:09.98Z</time></trkpt><trkpt lat="45.769345" lon="12.3187583"><ele>37.0</ele><time>2026-04-02T14:56:13.98Z</time></trkpt><trkpt lat="45.7694" lon="12.3186667"><ele>37.16666666666667</ele><time>2026-04-02T14:56:15.979Z</time></trkpt><trkpt lat="45.7694433" lon="12.3186"><ele>37.333333333333336</ele><time>2026-04-02T14:56:17.98Z</time></trkpt><trkpt lat="45.7694933" lon="12.3185117"><ele>37.5</ele><time>2026-04-02T14:56:19.98Z</time></trkpt><trkpt lat="45.769545" lon="12.31841"><ele>37.666666666666664</ele><time>2026-04-02T14:56:22.98Z</time></trkpt><trkpt lat="45.769585" lon="12.3182667"><ele>37.83333333333333</ele><time>2026-04-02T14:56:24.979Z</time></trkpt><trkpt lat="45.76962" lon="12.31818"><ele>38.0</ele><time>2026-04-02T14:56:25.98Z</time></trkpt><trkpt lat="45.7696517" lon="12.3180867"><ele>38.199999999999996</ele><time>2026-04-02T14:56:26.98Z</time></trkpt><trkpt lat="45.7696883" lon="12.3179983"><ele>38.4</ele><time>2026-04-02T14:56:27.98Z</time></trkpt><trkpt lat="45.7697267" lon="12.3178983"><ele>38.599999999999994</ele><time>2026-04-02T14:56:28.98Z</time></trkpt><trkpt lat="45.7697717" lon="12.317795"><ele>38.8</ele><time>2026-04-02T14:56:29.98Z</time></trkpt><trkpt lat="45.76981" lon="12.3177117"><ele>39.0</ele><time>2026-04-02T14:56:30.98Z</time></trkpt><trkpt lat="45.7699267" lon="12.3174783"><ele>39.0</ele><time>2026-04-02T14:56:33.98Z</time></trkpt><trkpt lat="45.7699683" lon="12.3174"><ele>39.0</ele><time>2026-04-02T14:56:34.98Z</time></trkpt><trkpt lat="45.77001" lon="12.3173183"><ele>39.0</ele><time>2026-04-02T14:56:35.98Z</time></trkpt><trkpt lat="45.7700733" lon="12.3171967"><ele>39.0</ele><time>2026-04-02T14:56:37.979Z</time></trkpt><trkpt lat="45.7701383" lon="12.3171267"><ele>39.0</ele><time>2026-04-02T14:56:39.98Z</time></trkpt><trkpt lat="45.770175" lon="12.3170483"><ele>39.0</ele><time>2026-04-02T14:56:41.98Z</time></trkpt><trkpt lat="45.7702267" lon="12.3169233"><ele>38.666666666666664</ele><time>2026-04-02T14:56:43.98Z</time></trkpt><trkpt lat="45.7702717" lon="12.316845"><ele>38.333333333333336</ele><time>2026-04-02T14:56:44.98Z</time></trkpt><trkpt lat="45.770305" lon="12.3167533"><ele>38.0</ele><time>2026-04-02T14:56:45.98Z</time></trkpt><trkpt lat="45.7703333" lon="12.3166533"><ele>37.66666666666667</ele><time>2026-04-02T14:56:46.98Z</time></trkpt><trkpt lat="45.7703633" lon="12.3165667"><ele>37.333333333333336</ele><time>2026-04-02T14:56:47.979Z</time></trkpt><trkpt lat="45.7704283" lon="12.3164633"><ele>37.0</ele><time>2026-04-02T14:56:49.98Z</time></trkpt><trkpt lat="45.770505" lon="12.316345"><ele>37.0</ele><time>2026-04-02T14:56:51.98Z</time></trkpt><trkpt lat="45.7706433" lon="12.3160883"><ele>37.0</ele><time>2026-04-02T14:56:54.98Z</time></trkpt><trkpt lat="45.7707" lon="12.3159883"><ele>37.0</ele><time>2026-04-02T14:56:55.98Z</time></trkpt><trkpt lat="45.770785" lon="12.3158617"><ele>37.0</ele><time>2026-04-02T14:56:56.98Z</time></trkpt><trkpt lat="45.7708617" lon="12.3157283"><ele>37.0</ele><time>2026-04-02T14:56:57.98Z</time></trkpt><trkpt lat="45.7709367" lon="12.3156083"><ele>37.0</ele><time>2026-04-02T14:56:58.98Z</time></trkpt><trkpt lat="45.7710083" lon="12.315525"><ele>37.0</ele><time>2026-04-02T14:56:59.98Z</time></trkpt><trkpt lat="45.77108" lon="12.31547"><ele>37.0</ele><time>2026-04-02T14:57:00.98Z</time></trkpt><trkpt lat="45.7711583" lon="12.3154333"><ele>37.0</ele><time>2026-04-02T14:57:01.98Z</time></trkpt><trkpt lat="45.7712267" lon="12.3154167"><ele>37.0</ele><time>2026-04-02T14:57:02.98Z</time></trkpt><trkpt lat="45.771295" lon="12.3153783"><ele>37.66666666666667</ele><time>2026-04-02T14:57:03.98Z</time></trkpt><trkpt lat="45.7713583" lon="12.3153367"><ele>38.333333333333336</ele><time>2026-04-02T14:57:04.98Z</time></trkpt><trkpt lat="45.77142" lon="12.3152883"><ele>39.0</ele><time>2026-04-02T14:57:05.98Z</time></trkpt><trkpt lat="45.7714833" lon="12.3152417"><ele>39.666666666666664</ele><time>2026-04-02T14:57:06.98Z</time></trkpt><trkpt lat="45.7715867" lon="12.3151483"><ele>40.33333333333333</ele><time>2026-04-02T14:57:08.979Z</time></trkpt><trkpt lat="45.7716417" lon="12.3151017"><ele>41.0</ele><time>2026-04-02T14:57:09.979Z</time></trkpt><trkpt lat="45.7717317" lon="12.3150317"><ele>41.0</ele><time>2026-04-02T14:57:11.98Z</time></trkpt><trkpt lat="45.7717883" lon="12.314895"><ele>41.0</ele><time>2026-04-02T14:57:13.979Z</time></trkpt><trkpt lat="45.77188" lon="12.3147217"><ele>41.0</ele><time>2026-04-02T14:57:15.98Z</time></trkpt><trkpt lat="45.7719183" lon="12.31464"><ele>41.0</ele><time>2026-04-02T14:57:16.98Z</time></trkpt><trkpt lat="45.77197" lon="12.31456"><ele>41.0</ele><time>2026-04-02T14:57:18.98Z</time></trkpt><trkpt lat="45.7720333" lon="12.3145083"><ele>40.75</ele><time>2026-04-02T14:59:15.979Z</time></trkpt><trkpt lat="45.7722183" lon="12.314385"><ele>40.5</ele><time>2026-04-02T14:59:18.979Z</time></trkpt><trkpt lat="45.7723233" lon="12.3143133"><ele>40.25</ele><time>2026-04-02T14:59:19.979Z</time></trkpt><trkpt lat="45.7724367" lon="12.314235"><ele>40.0</ele><time>2026-04-02T14:59:20.978Z</time></trkpt><trkpt lat="45.7725317" lon="12.3141733"><ele>40.0</ele><time>2026-04-02T14:59:21.979Z</time></trkpt><trkpt lat="45.772625" lon="12.3140983"><ele>40.0</ele><time>2026-04-02T14:59:22.979Z</time></trkpt><trkpt lat="45.7726967" lon="12.314025"><ele>40.0</ele><time>2026-04-02T14:59:23.979Z</time></trkpt><trkpt lat="45.7727717" lon="12.3139233"><ele>40.0</ele><time>2026-04-02T14:59:24.979Z</time></trkpt><trkpt lat="45.7728417" lon="12.313795"><ele>40.0</ele><time>2026-04-02T14:59:25.979Z</time></trkpt><trkpt lat="45.772915" lon="12.31368"><ele>40.0</ele><time>2026-04-02T14:59:26.979Z</time></trkpt><trkpt lat="45.772995" lon="12.31357"><ele>40.0</ele><time>2026-04-02T14:59:27.979Z</time></trkpt><trkpt lat="45.7730867" lon="12.3134717"><ele>40.0</ele><time>2026-04-02T14:59:28.979Z</time></trkpt><trkpt lat="45.7731933" lon="12.3133667"><ele>40.0</ele><time>2026-04-02T14:59:29.979Z</time></trkpt><trkpt lat="45.773305" lon="12.3132583"><ele>40.0</ele><time>2026-04-02T14:59:30.979Z</time></trkpt><trkpt lat="45.77345" lon="12.31315"><ele>40.0</ele><time>2026-04-02T14:59:31.978Z</time></trkpt><trkpt lat="45.7736283" lon="12.31307"><ele>40.0</ele><time>2026-04-02T14:59:32.978Z</time></trkpt><trkpt lat="45.7737833" lon="12.312995"><ele>40.0</ele><time>2026-04-02T14:59:33.979Z</time></trkpt><trkpt lat="45.7739367" lon="12.3129283"><ele>40.0</ele><time>2026-04-02T14:59:34.978Z</time></trkpt><trkpt lat="45.7740767" lon="12.31287"><ele>40.0</ele><time>2026-04-02T14:59:35.979Z</time></trkpt><trkpt lat="45.7741833" lon="12.3128167"><ele>40.0</ele><time>2026-04-02T14:59:36.979Z</time></trkpt><trkpt lat="45.7743333" lon="12.31275"><ele>40.0</ele><time>2026-04-02T14:59:38.979Z</time></trkpt><trkpt lat="45.7744217" lon="12.3126083"><ele>40.0</ele><time>2026-04-02T14:59:40.978Z</time></trkpt><trkpt lat="45.77445" lon="12.3124867"><ele>40.0</ele><time>2026-04-02T14:59:41.979Z</time></trkpt><trkpt lat="45.7744717" lon="12.3123633"><ele>40.0</ele><time>2026-04-02T14:59:42.979Z</time></trkpt><trkpt lat="45.7744817" lon="12.312225"><ele>40.0</ele><time>2026-04-02T14:59:43.979Z</time></trkpt><trkpt lat="45.7744733" lon="12.312085"><ele>40.4</ele><time>2026-04-02T14:59:44.979Z</time></trkpt><trkpt lat="45.7744483" lon="12.3119433"><ele>40.8</ele><time>2026-04-02T14:59:45.979Z</time></trkpt><trkpt lat="45.774435" lon="12.3118383"><ele>41.2</ele><time>2026-04-02T14:59:46.979Z</time></trkpt><trkpt lat="45.7744283" lon="12.3117467"><ele>41.6</ele><time>2026-04-02T14:59:47.979Z</time></trkpt><trkpt lat="45.7744433" lon="12.3115617"><ele>42.0</ele><time>2026-04-02T14:59:49.978Z</time></trkpt><trkpt lat="45.7744967" lon="12.311455"><ele>42.0</ele><time>2026-04-02T14:59:50.979Z</time></trkpt><trkpt lat="45.7745583" lon="12.3113467"><ele>42.0</ele><time>2026-04-02T14:59:51.979Z</time></trkpt><trkpt lat="45.77461" lon="12.31126"><ele>42.0</ele><time>2026-04-02T14:59:52.979Z</time></trkpt><trkpt lat="45.774665" lon="12.311155"><ele>42.0</ele><time>2026-04-02T14:59:53.979Z</time></trkpt><trkpt lat="45.77473" lon="12.3110567"><ele>42.0</ele><time>2026-04-02T14:59:54.979Z</time></trkpt><trkpt lat="45.7747883" lon="12.31097"><ele>42.0</ele><time>2026-04-02T14:59:55.979Z</time></trkpt><trkpt lat="45.77486" lon="12.3108933"><ele>42.0</ele><time>2026-04-02T14:59:56.979Z</time></trkpt><trkpt lat="45.77493" lon="12.3108283"><ele>42.0</ele><time>2026-04-02T14:59:57.979Z</time></trkpt><trkpt lat="45.77508" lon="12.3106617"><ele>42.0</ele><time>2026-04-02T14:59:59.979Z</time></trkpt><trkpt lat="45.7751533" lon="12.3105567"><ele>42.0</ele><time>2026-04-02T15:00:00.979Z</time></trkpt><trkpt lat="45.775215" lon="12.3104533"><ele>41.833333333333336</ele><time>2026-04-02T15:00:01.979Z</time></trkpt><trkpt lat="45.7752633" lon="12.3103633"><ele>41.666666666666664</ele><time>2026-04-02T15:00:02.979Z</time></trkpt><trkpt lat="45.7753" lon="12.3102567"><ele>41.5</ele><time>2026-04-02T15:00:03.979Z</time></trkpt><trkpt lat="45.77534" lon="12.3101567"><ele>41.33333333333333</ele><time>2026-04-02T15:00:04.979Z</time></trkpt><trkpt lat="45.77536" lon="12.3100533"><ele>41.166666666666664</ele><time>2026-04-02T15:00:05.979Z</time></trkpt><trkpt lat="45.7753783" lon="12.30996"><ele>41.0</ele><time>2026-04-02T15:00:06.979Z</time></trkpt><trkpt lat="45.77539" lon="12.30986"><ele>41.166666666666664</ele><time>2026-04-02T15:00:07.978Z</time></trkpt><trkpt lat="45.77538" lon="12.3097283"><ele>41.33333333333333</ele><time>2026-04-02T15:00:08.978Z</time></trkpt><trkpt lat="45.7753367" lon="12.309595"><ele>41.5</ele><time>2026-04-02T15:00:09.979Z</time></trkpt><trkpt lat="45.7753033" lon="12.3094833"><ele>41.666666666666664</ele><time>2026-04-02T15:00:10.979Z</time></trkpt><trkpt lat="45.7752933" lon="12.3093817"><ele>41.833333333333336</ele><time>2026-04-02T15:00:11.979Z</time></trkpt><trkpt lat="45.775295" lon="12.3092883"><ele>42.0</ele><time>2026-04-02T15:00:12.979Z</time></trkpt><trkpt lat="45.775305" lon="12.3091917"><ele>42.0</ele><time>2026-04-02T15:00:13.979Z</time></trkpt><trkpt lat="45.7753383" lon="12.309105"><ele>42.0</ele><time>2026-04-02T15:00:14.978Z</time></trkpt><trkpt lat="45.7753483" lon="12.3089717"><ele>42.0</ele><time>2026-04-02T15:00:15.979Z</time></trkpt><trkpt lat="45.7753867" lon="12.3088883"><ele>42.0</ele><time>2026-04-02T15:00:16.979Z</time></trkpt><trkpt lat="45.7754233" lon="12.3088133"><ele>42.0</ele><time>2026-04-02T15:00:17.978Z</time></trkpt><trkpt lat="45.7755317" lon="12.30871"><ele>42.0</ele><time>2026-04-02T15:00:19.979Z</time></trkpt><trkpt lat="45.775685" lon="12.3086733"><ele>42.0</ele><time>2026-04-02T15:00:21.979Z</time></trkpt><trkpt lat="45.77576" lon="12.3086417"><ele>42.0</ele><time>2026-04-02T15:00:22.979Z</time></trkpt><trkpt lat="45.7758333" lon="12.30862"><ele>42.0</ele><time>2026-04-02T15:00:23.979Z</time></trkpt><trkpt lat="45.7758967" lon="12.3086067"><ele>42.0</ele><time>2026-04-02T15:00:24.978Z</time></trkpt><trkpt lat="45.77597" lon="12.3085833"><ele>42.0</ele><time>2026-04-02T15:00:25.979Z</time></trkpt><trkpt lat="45.7760367" lon="12.3085617"><ele>42.0</ele><time>2026-04-02T15:00:26.979Z</time></trkpt><trkpt lat="45.7761583" lon="12.3085383"><ele>42.166666666666664</ele><time>2026-04-02T15:00:28.979Z</time></trkpt><trkpt lat="45.776255" lon="12.30855"><ele>42.333333333333336</ele><time>2026-04-02T15:00:30.979Z</time></trkpt><trkpt lat="45.77635" lon="12.3085583"><ele>42.5</ele><time>2026-04-02T15:00:32.979Z</time></trkpt><trkpt lat="45.7764583" lon="12.3085467"><ele>42.66666666666667</ele><time>2026-04-02T15:00:34.979Z</time></trkpt><trkpt lat="45.7765217" lon="12.308555"><ele>42.833333333333336</ele><time>2026-04-02T15:00:35.979Z</time></trkpt><trkpt lat="45.7765967" lon="12.30856"><ele>43.0</ele><time>2026-04-02T15:00:36.979Z</time></trkpt><trkpt lat="45.7766817" lon="12.3085733"><ele>43.0</ele><time>2026-04-02T15:00:37.979Z</time></trkpt><trkpt lat="45.7767583" lon="12.30859"><ele>43.0</ele><time>2026-04-02T15:00:38.979Z</time></trkpt><trkpt lat="45.7768417" lon="12.3086133"><ele>43.0</ele><time>2026-04-02T15:00:39.979Z</time></trkpt><trkpt lat="45.7769667" lon="12.308665"><ele>43.0</ele><time>2026-04-02T15:00:41.978Z</time></trkpt><trkpt lat="45.7771033" lon="12.3086933"><ele>43.0</ele><time>2026-04-02T15:00:43.979Z</time></trkpt><trkpt lat="45.7771767" lon="12.308695"><ele>42.8</ele><time>2026-04-02T15:00:44.979Z</time></trkpt><trkpt lat="45.7772583" lon="12.3086867"><ele>42.599999999999994</ele><time>2026-04-02T15:00:45.979Z</time></trkpt><trkpt lat="45.7773733" lon="12.3086783"><ele>42.400000000000006</ele><time>2026-04-02T15:00:46.978Z</time></trkpt><trkpt lat="45.7774717" lon="12.3086617"><ele>42.2</ele><time>2026-04-02T15:00:47.979Z</time></trkpt><trkpt lat="45.7775583" lon="12.30865"><ele>42.0</ele><time>2026-04-02T15:00:48.978Z</time></trkpt><trkpt lat="45.777655" lon="12.308595"><ele>42.25</ele><time>2026-04-02T15:00:49.979Z</time></trkpt><trkpt lat="45.7777467" lon="12.308515"><ele>42.5</ele><time>2026-04-02T15:00:50.979Z</time></trkpt><trkpt lat="45.7778283" lon="12.3084317"><ele>42.75</ele><time>2026-04-02T15:00:51.979Z</time></trkpt><trkpt lat="45.7779267" lon="12.3083283"><ele>43.0</ele><time>2026-04-02T15:00:52.979Z</time></trkpt><trkpt lat="45.778025" lon="12.3081967"><ele>43.333333333333336</ele><time>2026-04-02T15:00:53.979Z</time></trkpt><trkpt lat="45.7781417" lon="12.30802"><ele>43.666666666666664</ele><time>2026-04-02T15:00:54.979Z</time></trkpt><trkpt lat="45.778305" lon="12.3077333"><ele>44.0</ele><time>2026-04-02T15:00:55.979Z</time></trkpt><trkpt lat="45.778435" lon="12.3075517"><ele>44.25</ele><time>2026-04-02T15:00:56.978Z</time></trkpt><trkpt lat="45.7785583" lon="12.3074117"><ele>44.5</ele><time>2026-04-02T15:00:57.979Z</time></trkpt><trkpt lat="45.778655" lon="12.3072933"><ele>44.75</ele><time>2026-04-02T15:00:58.979Z</time></trkpt><trkpt lat="45.7787567" lon="12.3071833"><ele>45.0</ele><time>2026-04-02T15:00:59.979Z</time></trkpt><trkpt lat="45.778845" lon="12.307095"><ele>45.0</ele><time>2026-04-02T15:01:00.979Z</time></trkpt><trkpt lat="45.7789467" lon="12.3070283"><ele>45.0</ele><time>2026-04-02T15:01:01.979Z</time></trkpt><trkpt lat="45.7790567" lon="12.3069683"><ele>45.0</ele><time>2026-04-02T15:01:02.978Z</time></trkpt><trkpt lat="45.779295" lon="12.3069133"><ele>44.5</ele><time>2026-04-02T15:01:04.979Z</time></trkpt><trkpt lat="45.7794267" lon="12.3069"><ele>44.0</ele><time>2026-04-02T15:01:05.979Z</time></trkpt><trkpt lat="45.7795633" lon="12.3069183"><ele>43.5</ele><time>2026-04-02T15:01:06.979Z</time></trkpt><trkpt lat="45.7796917" lon="12.3069533"><ele>43.0</ele><time>2026-04-02T15:01:07.979Z</time></trkpt><trkpt lat="45.779805" lon="12.3069833"><ele>43.0</ele><time>2026-04-02T15:01:08.979Z</time></trkpt><trkpt lat="45.7799033" lon="12.3070117"><ele>43.0</ele><time>2026-04-02T15:01:09.978Z</time></trkpt><trkpt lat="45.7799883" lon="12.3070333"><ele>43.0</ele><time>2026-04-02T15:01:10.979Z</time></trkpt><trkpt lat="45.7800517" lon="12.3070433"><ele>43.0</ele><time>2026-04-02T15:01:11.979Z</time></trkpt><trkpt lat="45.7801367" lon="12.30713"><ele>43.0</ele><time>2026-04-02T15:01:13.979Z</time></trkpt><trkpt lat="45.7800383" lon="12.3070983"><ele>43.0</ele><time>2026-04-02T15:01:23.979Z</time></trkpt><trkpt lat="45.7798833" lon="12.30707"><ele>43.0</ele><time>2026-04-02T15:01:25.979Z</time></trkpt><trkpt lat="45.779805" lon="12.3070367"><ele>43.0</ele><time>2026-04-02T15:01:26.979Z</time></trkpt><trkpt lat="45.7797167" lon="12.3070067"><ele>43.0</ele><time>2026-04-02T15:01:27.979Z</time></trkpt><trkpt lat="45.779635" lon="12.3069817"><ele>43.0</ele><time>2026-04-02T15:01:28.979Z</time></trkpt><trkpt lat="45.7795683" lon="12.306965"><ele>43.0</ele><time>2026-04-02T15:01:29.979Z</time></trkpt><trkpt lat="45.7794733" lon="12.3069083"><ele>43.0</ele><time>2026-04-02T15:01:31.979Z</time></trkpt><trkpt lat="45.7794433" lon="12.3068133"><ele>43.0</ele><time>2026-04-02T15:01:33.979Z</time></trkpt><trkpt lat="45.779445" lon="12.30669"><ele>43.0</ele><time>2026-04-02T15:01:36.979Z</time></trkpt><trkpt lat="45.7795417" lon="12.3066267"><ele>43.0</ele><time>2026-04-02T15:01:38.979Z</time></trkpt><trkpt lat="45.7796333" lon="12.3065333"><ele>43.0</ele><time>2026-04-02T15:01:40.979Z</time></trkpt><trkpt lat="45.7797033" lon="12.30647"><ele>43.0</ele><time>2026-04-02T15:01:41.979Z</time></trkpt><trkpt lat="45.7797717" lon="12.30638"><ele>43.0</ele><time>2026-04-02T15:01:42.979Z</time></trkpt><trkpt lat="45.7798267" lon="12.3062467"><ele>43.0</ele><time>2026-04-02T15:01:43.978Z</time></trkpt><trkpt lat="45.77987" lon="12.3061183"><ele>43.0</ele><time>2026-04-02T15:01:44.979Z</time></trkpt><trkpt lat="45.77999" lon="12.3058233"><ele>42.8</ele><time>2026-04-02T15:01:46.979Z</time></trkpt><trkpt lat="45.7800533" lon="12.3056717"><ele>42.599999999999994</ele><time>2026-04-02T15:01:47.979Z</time></trkpt><trkpt lat="45.7801233" lon="12.3055367"><ele>42.400000000000006</ele><time>2026-04-02T15:01:48.979Z</time></trkpt><trkpt lat="45.7801917" lon="12.3054383"><ele>42.2</ele><time>2026-04-02T15:01:49.979Z</time></trkpt><trkpt lat="45.7802683" lon="12.30536"><ele>42.0</ele><time>2026-04-02T15:01:50.979Z</time></trkpt><trkpt lat="45.7803467" lon="12.305315"><ele>42.0</ele><time>2026-04-02T15:01:51.979Z</time></trkpt><trkpt lat="45.7804383" lon="12.3052483"><ele>42.0</ele><time>2026-04-02T15:01:52.979Z</time></trkpt><trkpt lat="45.78055" lon="12.305195"><ele>42.0</ele><time>2026-04-02T15:01:53.978Z</time></trkpt><trkpt lat="45.7806583" lon="12.3051283"><ele>42.0</ele><time>2026-04-02T15:01:54.978Z</time></trkpt><trkpt lat="45.7807933" lon="12.3050833"><ele>42.0</ele><time>2026-04-02T15:01:55.978Z</time></trkpt><trkpt lat="45.7809333" lon="12.30502"><ele>42.0</ele><time>2026-04-02T15:01:56.977Z</time></trkpt><trkpt lat="45.7810817" lon="12.3049317"><ele>42.0</ele><time>2026-04-02T15:01:57.978Z</time></trkpt><trkpt lat="45.7812067" lon="12.3048567"><ele>42.0</ele><time>2026-04-02T15:01:58.978Z</time></trkpt><trkpt lat="45.7813333" lon="12.30479"><ele>42.5</ele><time>2026-04-02T15:01:59.977Z</time></trkpt><trkpt lat="45.78144" lon="12.3047233"><ele>43.0</ele><time>2026-04-02T15:02:00.978Z</time></trkpt><trkpt lat="45.7815317" lon="12.30467"><ele>43.5</ele><time>2026-04-02T15:02:01.977Z</time></trkpt><trkpt lat="45.7816517" lon="12.3045933"><ele>44.0</ele><time>2026-04-02T15:02:02.977Z</time></trkpt><trkpt lat="45.7817717" lon="12.3045083"><ele>44.2</ele><time>2026-04-02T15:02:03.978Z</time></trkpt><trkpt lat="45.78186" lon="12.3044283"><ele>44.400000000000006</ele><time>2026-04-02T15:02:04.978Z</time></trkpt><trkpt lat="45.781905" lon="12.304345"><ele>44.6</ele><time>2026-04-02T15:02:05.977Z</time></trkpt><trkpt lat="45.78194" lon="12.3041"><ele>44.8</ele><time>2026-04-02T15:02:07.978Z</time></trkpt><trkpt lat="45.7819383" lon="12.3039817"><ele>45.0</ele><time>2026-04-02T15:02:08.978Z</time></trkpt><trkpt lat="45.7819617" lon="12.3038783"><ele>45.333333333333336</ele><time>2026-04-02T15:02:09.977Z</time></trkpt><trkpt lat="45.7819983" lon="12.3037733"><ele>45.666666666666664</ele><time>2026-04-02T15:02:10.978Z</time></trkpt><trkpt lat="45.7820567" lon="12.3036717"><ele>46.0</ele><time>2026-04-02T15:02:11.977Z</time></trkpt><trkpt lat="45.782135" lon="12.3036"><ele>46.33333333333333</ele><time>2026-04-02T15:02:12.977Z</time></trkpt><trkpt lat="45.7822133" lon="12.3035183"><ele>46.666666666666664</ele><time>2026-04-02T15:02:13.978Z</time></trkpt><trkpt lat="45.7822567" lon="12.3034183"><ele>47.0</ele><time>2026-04-02T15:02:14.978Z</time></trkpt><trkpt lat="45.7823117" lon="12.3033083"><ele>47.0</ele><time>2026-04-02T15:02:15.978Z</time></trkpt><trkpt lat="45.7823483" lon="12.3031667"><ele>47.0</ele><time>2026-04-02T15:02:16.978Z</time></trkpt><trkpt lat="45.7824017" lon="12.303045"><ele>47.0</ele><time>2026-04-02T15:02:17.978Z</time></trkpt><trkpt lat="45.7824667" lon="12.302905"><ele>47.0</ele><time>2026-04-02T15:02:18.978Z</time></trkpt><trkpt lat="45.7825383" lon="12.302775"><ele>47.0</ele><time>2026-04-02T15:02:19.978Z</time></trkpt><trkpt lat="45.7826167" lon="12.30266"><ele>46.6</ele><time>2026-04-02T15:02:20.978Z</time></trkpt><trkpt lat="45.782695" lon="12.3025467"><ele>46.2</ele><time>2026-04-02T15:02:21.977Z</time></trkpt><trkpt lat="45.782765" lon="12.3024033"><ele>45.8</ele><time>2026-04-02T15:02:22.977Z</time></trkpt><trkpt lat="45.7828267" lon="12.30227"><ele>45.4</ele><time>2026-04-02T15:02:23.977Z</time></trkpt><trkpt lat="45.7828867" lon="12.3021517"><ele>45.0</ele><time>2026-04-02T15:02:24.978Z</time></trkpt><trkpt lat="45.782945" lon="12.302045"><ele>45.0</ele><time>2026-04-02T15:02:25.978Z</time></trkpt><trkpt lat="45.783025" lon="12.3019567"><ele>45.0</ele><time>2026-04-02T15:02:26.978Z</time></trkpt><trkpt lat="45.78325" lon="12.30171"><ele>45.0</ele><time>2026-04-02T15:02:28.978Z</time></trkpt><trkpt lat="45.7833283" lon="12.3016133"><ele>45.0</ele><time>2026-04-02T15:02:29.978Z</time></trkpt><trkpt lat="45.78341" lon="12.30153"><ele>45.0</ele><time>2026-04-02T15:02:30.978Z</time></trkpt><trkpt lat="45.7834617" lon="12.3014633"><ele>45.0</ele><time>2026-04-02T15:02:31.978Z</time></trkpt><trkpt lat="45.7835367" lon="12.301345"><ele>45.0</ele><time>2026-04-02T15:02:33.978Z</time></trkpt><trkpt lat="45.7835533" lon="12.3012167"><ele>45.0</ele><time>2026-04-02T15:02:35.978Z</time></trkpt><trkpt lat="45.7835583" lon="12.301085"><ele>45.4</ele><time>2026-04-02T15:02:37.978Z</time></trkpt><trkpt lat="45.783625" lon="12.3009833"><ele>45.8</ele><time>2026-04-02T15:02:39.977Z</time></trkpt><trkpt lat="45.7837133" lon="12.30093"><ele>46.2</ele><time>2026-04-02T15:02:40.978Z</time></trkpt><trkpt lat="45.7837983" lon="12.300865"><ele>46.6</ele><time>2026-04-02T15:02:41.978Z</time></trkpt><trkpt lat="45.7838883" lon="12.300765"><ele>47.0</ele><time>2026-04-02T15:02:42.978Z</time></trkpt><trkpt lat="45.7840083" lon="12.30062"><ele>46.666666666666664</ele><time>2026-04-02T15:02:43.977Z</time></trkpt><trkpt lat="45.7841567" lon="12.3004167"><ele>46.333333333333336</ele><time>2026-04-02T15:02:44.978Z</time></trkpt><trkpt lat="45.784295" lon="12.3002233"><ele>46.0</ele><time>2026-04-02T15:02:45.978Z</time></trkpt><trkpt lat="45.7844683" lon="12.2999917"><ele>45.5</ele><time>2026-04-02T15:02:46.978Z</time></trkpt><trkpt lat="45.7845983" lon="12.2998083"><ele>45.0</ele><time>2026-04-02T15:02:47.978Z</time></trkpt><trkpt lat="45.78482" lon="12.2994683"><ele>44.666666666666664</ele><time>2026-04-02T15:02:49.978Z</time></trkpt><trkpt lat="45.784935" lon="12.2993017"><ele>44.33333333333333</ele><time>2026-04-02T15:02:50.978Z</time></trkpt><trkpt lat="45.7850583" lon="12.2991133"><ele>44.0</ele><time>2026-04-02T15:02:51.978Z</time></trkpt><trkpt lat="45.7851833" lon="12.2989217"><ele>44.666666666666664</ele><time>2026-04-02T15:02:52.978Z</time></trkpt><trkpt lat="45.7853017" lon="12.2987317"><ele>45.333333333333336</ele><time>2026-04-02T15:02:53.978Z</time></trkpt><trkpt lat="45.785415" lon="12.2985317"><ele>46.0</ele><time>2026-04-02T15:02:54.977Z</time></trkpt><trkpt lat="45.7855183" lon="12.2983433"><ele>46.0</ele><time>2026-04-02T15:02:55.977Z</time></trkpt><trkpt lat="45.7855883" lon="12.2981733"><ele>46.0</ele><time>2026-04-02T15:02:56.978Z</time></trkpt><trkpt lat="45.7856817" lon="12.298005"><ele>46.0</ele><time>2026-04-02T15:02:57.978Z</time></trkpt><trkpt lat="45.785785" lon="12.2978217"><ele>46.0</ele><time>2026-04-02T15:02:58.978Z</time></trkpt><trkpt lat="45.7858783" lon="12.2976433"><ele>46.0</ele><time>2026-04-02T15:02:59.978Z</time></trkpt><trkpt lat="45.7859733" lon="12.2974667"><ele>46.0</ele><time>2026-04-02T15:03:00.978Z</time></trkpt><trkpt lat="45.7860733" lon="12.2972817"><ele>45.75</ele><time>2026-04-02T15:03:01.977Z</time></trkpt><trkpt lat="45.78618" lon="12.29708"><ele>45.5</ele><time>2026-04-02T15:03:02.978Z</time></trkpt><trkpt lat="45.7862533" lon="12.2969233"><ele>45.25</ele><time>2026-04-02T15:03:03.978Z</time></trkpt><trkpt lat="45.7863283" lon="12.296765"><ele>45.0</ele><time>2026-04-02T15:03:04.978Z</time></trkpt><trkpt lat="45.7864017" lon="12.2966067"><ele>45.0</ele><time>2026-04-02T15:03:05.978Z</time></trkpt><trkpt lat="45.7864667" lon="12.2964583"><ele>45.0</ele><time>2026-04-02T15:03:06.978Z</time></trkpt><trkpt lat="45.7865117" lon="12.2963217"><ele>45.0</ele><time>2026-04-02T15:03:07.978Z</time></trkpt><trkpt lat="45.7865517" lon="12.2961983"><ele>45.0</ele><time>2026-04-02T15:03:08.978Z</time></trkpt><trkpt lat="45.7865983" lon="12.2959783"><ele>45.0</ele><time>2026-04-02T15:03:10.978Z</time></trkpt><trkpt lat="45.7866083" lon="12.295875"><ele>45.0</ele><time>2026-04-02T15:03:11.978Z</time></trkpt><trkpt lat="45.7866067" lon="12.295765"><ele>45.0</ele><time>2026-04-02T15:03:12.978Z</time></trkpt><trkpt lat="45.7865917" lon="12.295645"><ele>45.0</ele><time>2026-04-02T15:03:13.978Z</time></trkpt><trkpt lat="45.7865633" lon="12.2955267"><ele>45.0</ele><time>2026-04-02T15:03:14.978Z</time></trkpt><trkpt lat="45.7865267" lon="12.295405"><ele>45.0</ele><time>2026-04-02T15:03:15.978Z</time></trkpt><trkpt lat="45.7864767" lon="12.2952783"><ele>45.0</ele><time>2026-04-02T15:03:16.978Z</time></trkpt><trkpt lat="45.7864167" lon="12.2951283"><ele>45.0</ele><time>2026-04-02T15:03:17.978Z</time></trkpt><trkpt lat="45.78637" lon="12.2949683"><ele>45.0</ele><time>2026-04-02T15:03:18.978Z</time></trkpt><trkpt lat="45.78632" lon="12.294795"><ele>45.0</ele><time>2026-04-02T15:03:19.978Z</time></trkpt><trkpt lat="45.78627" lon="12.294615"><ele>45.333333333333336</ele><time>2026-04-02T15:03:20.978Z</time></trkpt><trkpt lat="45.7861983" lon="12.294425"><ele>45.66666666666667</ele><time>2026-04-02T15:03:21.978Z</time></trkpt><trkpt lat="45.7861367" lon="12.2942183"><ele>46.0</ele><time>2026-04-02T15:03:22.978Z</time></trkpt><trkpt lat="45.7860683" lon="12.2940167"><ele>46.5</ele><time>2026-04-02T15:03:23.978Z</time></trkpt><trkpt lat="45.7860033" lon="12.2938183"><ele>47.0</ele><time>2026-04-02T15:03:24.978Z</time></trkpt><trkpt lat="45.7859483" lon="12.2936383"><ele>47.5</ele><time>2026-04-02T15:03:25.978Z</time></trkpt><trkpt lat="45.7858933" lon="12.2934767"><ele>48.0</ele><time>2026-04-02T15:03:26.978Z</time></trkpt><trkpt lat="45.7858483" lon="12.2933317"><ele>48.0</ele><time>2026-04-02T15:03:27.978Z</time></trkpt><trkpt lat="45.78581" lon="12.2931917"><ele>48.0</ele><time>2026-04-02T15:03:28.977Z</time></trkpt><trkpt lat="45.785775" lon="12.293075"><ele>48.0</ele><time>2026-04-02T15:03:29.978Z</time></trkpt><trkpt lat="45.7856917" lon="12.2929067"><ele>48.0</ele><time>2026-04-02T15:03:32.978Z</time></trkpt><trkpt lat="45.7857717" lon="12.2928783"><ele>48.0</ele><time>2026-04-02T15:03:37.978Z</time></trkpt><trkpt lat="45.785855" lon="12.2928783"><ele>47.833333333333336</ele><time>2026-04-02T15:03:39.977Z</time></trkpt><trkpt lat="45.78592" lon="12.2928817"><ele>47.666666666666664</ele><time>2026-04-02T15:03:40.978Z</time></trkpt><trkpt lat="45.7859917" lon="12.2928867"><ele>47.5</ele><time>2026-04-02T15:03:41.978Z</time></trkpt><trkpt lat="45.78609" lon="12.2928717"><ele>47.33333333333333</ele><time>2026-04-02T15:03:42.978Z</time></trkpt><trkpt lat="45.7861883" lon="12.2928467"><ele>47.166666666666664</ele><time>2026-04-02T15:03:43.978Z</time></trkpt><trkpt lat="45.78629" lon="12.2928167"><ele>47.0</ele><time>2026-04-02T15:03:44.978Z</time></trkpt><trkpt lat="45.78639" lon="12.2927883"><ele>47.0</ele><time>2026-04-02T15:03:45.977Z</time></trkpt><trkpt lat="45.7864833" lon="12.2927467"><ele>47.0</ele><time>2026-04-02T15:03:46.977Z</time></trkpt><trkpt lat="45.7865733" lon="12.2926967"><ele>47.0</ele><time>2026-04-02T15:03:47.978Z</time></trkpt><trkpt lat="45.7866633" lon="12.29264"><ele>47.0</ele><time>2026-04-02T15:03:48.978Z</time></trkpt><trkpt lat="45.7867617" lon="12.2925833"><ele>47.0</ele><time>2026-04-02T15:03:49.978Z</time></trkpt><trkpt lat="45.7868617" lon="12.2925167"><ele>47.666666666666664</ele><time>2026-04-02T15:03:50.978Z</time></trkpt><trkpt lat="45.78707" lon="12.29238"><ele>48.33333333333333</ele><time>2026-04-02T15:03:52.978Z</time></trkpt><trkpt lat="45.7871683" lon="12.2923017"><ele>49.0</ele><time>2026-04-02T15:03:53.978Z</time></trkpt><trkpt lat="45.787265" lon="12.2922167"><ele>49.400000000000006</ele><time>2026-04-02T15:03:54.977Z</time></trkpt><trkpt lat="45.7873483" lon="12.29212"><ele>49.8</ele><time>2026-04-02T15:03:55.978Z</time></trkpt><trkpt lat="45.7874267" lon="12.29203"><ele>50.2</ele><time>2026-04-02T15:03:56.978Z</time></trkpt><trkpt lat="45.7875" lon="12.2919483"><ele>50.599999999999994</ele><time>2026-04-02T15:03:57.978Z</time></trkpt><trkpt lat="45.787565" lon="12.2918733"><ele>51.0</ele><time>2026-04-02T15:03:58.977Z</time></trkpt><trkpt lat="45.7876267" lon="12.29181"><ele>50.333333333333336</ele><time>2026-04-02T15:03:59.977Z</time></trkpt><trkpt lat="45.78768" lon="12.2917583"><ele>49.666666666666664</ele><time>2026-04-02T15:04:00.978Z</time></trkpt><trkpt lat="45.7877467" lon="12.2917983"><ele>49.0</ele><time>2026-04-02T15:04:03.978Z</time></trkpt><trkpt lat="45.7878" lon="12.2918917"><ele>48.33333333333333</ele><time>2026-04-02T15:04:05.978Z</time></trkpt><trkpt lat="45.787865" lon="12.2919333"><ele>47.666666666666664</ele><time>2026-04-02T15:04:07.978Z</time></trkpt><trkpt lat="45.7879417" lon="12.2918933"><ele>47.0</ele><time>2026-04-02T15:04:11.978Z</time></trkpt><trkpt lat="45.7880283" lon="12.2916733"><ele>47.0</ele><time>2026-04-02T15:04:16.978Z</time></trkpt><trkpt lat="45.788055" lon="12.2915167"><ele>47.0</ele><time>2026-04-02T15:04:17.977Z</time></trkpt><trkpt lat="45.788105" lon="12.2911517"><ele>47.0</ele><time>2026-04-02T15:04:18.978Z</time></trkpt><trkpt lat="45.7882083" lon="12.2907283"><ele>47.2</ele><time>2026-04-02T15:04:19.978Z</time></trkpt><trkpt lat="45.78824" lon="12.2905817"><ele>47.400000000000006</ele><time>2026-04-02T15:04:20.978Z</time></trkpt><trkpt lat="45.7882933" lon="12.2904"><ele>47.599999999999994</ele><time>2026-04-02T15:04:21.978Z</time></trkpt><trkpt lat="45.7883167" lon="12.290275"><ele>47.8</ele><time>2026-04-02T15:04:22.977Z</time></trkpt><trkpt lat="45.788335" lon="12.2901633"><ele>48.0</ele><time>2026-04-02T15:04:23.978Z</time></trkpt><trkpt lat="45.7883433" lon="12.2900667"><ele>48.0</ele><time>2026-04-02T15:04:24.978Z</time></trkpt><trkpt lat="45.788345" lon="12.2899717"><ele>48.0</ele><time>2026-04-02T15:04:25.977Z</time></trkpt><trkpt lat="45.7883767" lon="12.2898933"><ele>48.0</ele><time>2026-04-02T15:04:27.978Z</time></trkpt><trkpt lat="45.7884117" lon="12.2898067"><ele>48.0</ele><time>2026-04-02T15:04:31.977Z</time></trkpt><trkpt lat="45.7884633" lon="12.28963"><ele>48.0</ele><time>2026-04-02T15:04:33.978Z</time></trkpt><trkpt lat="45.7884933" lon="12.2893983"><ele>47.8</ele><time>2026-04-02T15:04:35.978Z</time></trkpt><trkpt lat="45.7885383" lon="12.28925"><ele>47.599999999999994</ele><time>2026-04-02T15:04:36.978Z</time></trkpt><trkpt lat="45.788595" lon="12.289105"><ele>47.400000000000006</ele><time>2026-04-02T15:04:37.977Z</time></trkpt><trkpt lat="45.7886417" lon="12.289"><ele>47.2</ele><time>2026-04-02T15:04:38.978Z</time></trkpt><trkpt lat="45.788675" lon="12.2888767"><ele>47.0</ele><time>2026-04-02T15:04:39.978Z</time></trkpt><trkpt lat="45.7887083" lon="12.28874"><ele>47.33333333333333</ele><time>2026-04-02T15:04:40.978Z</time></trkpt><trkpt lat="45.7887417" lon="12.2886283"><ele>47.666666666666664</ele><time>2026-04-02T15:04:41.978Z</time></trkpt><trkpt lat="45.7887717" lon="12.2885317"><ele>48.0</ele><time>2026-04-02T15:04:42.978Z</time></trkpt><trkpt lat="45.7887983" lon="12.288445"><ele>48.33333333333333</ele><time>2026-04-02T15:04:43.978Z</time></trkpt><trkpt lat="45.7888467" lon="12.2883133"><ele>48.666666666666664</ele><time>2026-04-02T15:04:45.978Z</time></trkpt><trkpt lat="45.788865" lon="12.288225"><ele>49.0</ele><time>2026-04-02T15:04:47.977Z</time></trkpt><trkpt lat="45.7888783" lon="12.2881267"><ele>49.25</ele><time>2026-04-02T15:04:50.978Z</time></trkpt><trkpt lat="45.7888417" lon="12.2880517"><ele>49.5</ele><time>2026-04-02T15:04:53.978Z</time></trkpt><trkpt lat="45.7887933" lon="12.28796"><ele>49.75</ele><time>2026-04-02T15:04:55.978Z</time></trkpt><trkpt lat="45.7887233" lon="12.2876483"><ele>50.0</ele><time>2026-04-02T15:04:59.977Z</time></trkpt><trkpt lat="45.7886767" lon="12.2875067"><ele>50.0</ele><time>2026-04-02T15:05:01.978Z</time></trkpt><trkpt lat="45.7886233" lon="12.287425"><ele>50.0</ele><time>2026-04-02T15:05:03.978Z</time></trkpt><trkpt lat="45.7885433" lon="12.28733"><ele>50.0</ele><time>2026-04-02T15:05:05.978Z</time></trkpt><trkpt lat="45.7885" lon="12.2872067"><ele>50.0</ele><time>2026-04-02T15:05:07.977Z</time></trkpt><trkpt lat="45.7884967" lon="12.2870283"><ele>50.0</ele><time>2026-04-02T15:05:09.978Z</time></trkpt><trkpt lat="45.78852" lon="12.2869233"><ele>50.333333333333336</ele><time>2026-04-02T15:05:10.978Z</time></trkpt><trkpt lat="45.7885417" lon="12.2868383"><ele>50.66666666666667</ele><time>2026-04-02T15:05:11.978Z</time></trkpt><trkpt lat="45.7885667" lon="12.286755"><ele>51.0</ele><time>2026-04-02T15:05:12.977Z</time></trkpt><trkpt lat="45.7885933" lon="12.2866583"><ele>51.33333333333333</ele><time>2026-04-02T15:05:13.978Z</time></trkpt><trkpt lat="45.7886183" lon="12.2865433"><ele>51.666666666666664</ele><time>2026-04-02T15:05:14.978Z</time></trkpt><trkpt lat="45.788645" lon="12.2864033"><ele>52.0</ele><time>2026-04-02T15:05:15.978Z</time></trkpt><trkpt lat="45.7886633" lon="12.2862767"><ele>52.25</ele><time>2026-04-02T15:05:16.977Z</time></trkpt><trkpt lat="45.7887167" lon="12.2860233"><ele>52.5</ele><time>2026-04-02T15:05:18.978Z</time></trkpt><trkpt lat="45.7887517" lon="12.28589"><ele>52.75</ele><time>2026-04-02T15:05:19.977Z</time></trkpt><trkpt lat="45.7887783" lon="12.2857567"><ele>53.0</ele><time>2026-04-02T15:05:20.978Z</time></trkpt><trkpt lat="45.78881" lon="12.2856317"><ele>52.599999999999994</ele><time>2026-04-02T15:05:21.977Z</time></trkpt><trkpt lat="45.788855" lon="12.2855283"><ele>52.199999999999996</ele><time>2026-04-02T15:05:22.977Z</time></trkpt><trkpt lat="45.7888983" lon="12.2854117"><ele>51.8</ele><time>2026-04-02T15:05:23.977Z</time></trkpt><trkpt lat="45.7889633" lon="12.2853033"><ele>51.4</ele><time>2026-04-02T15:05:24.977Z</time></trkpt><trkpt lat="45.789035" lon="12.2851967"><ele>51.0</ele><time>2026-04-02T15:05:25.977Z</time></trkpt><trkpt lat="45.789125" lon="12.28509"><ele>51.0</ele><time>2026-04-02T15:05:26.977Z</time></trkpt><trkpt lat="45.7892133" lon="12.2849867"><ele>51.0</ele><time>2026-04-02T15:05:27.976Z</time></trkpt><trkpt lat="45.7892933" lon="12.2848833"><ele>51.0</ele><time>2026-04-02T15:05:28.977Z</time></trkpt><trkpt lat="45.789355" lon="12.284755"><ele>51.0</ele><time>2026-04-02T15:05:29.976Z</time></trkpt><trkpt lat="45.7894117" lon="12.284615"><ele>51.0</ele><time>2026-04-02T15:05:30.976Z</time></trkpt><trkpt lat="45.7894717" lon="12.2844467"><ele>51.0</ele><time>2026-04-02T15:05:31.977Z</time></trkpt><trkpt lat="45.7895267" lon="12.2842567"><ele>51.0</ele><time>2026-04-02T15:05:32.977Z</time></trkpt><trkpt lat="45.78958" lon="12.28405"><ele>51.0</ele><time>2026-04-02T15:05:33.977Z</time></trkpt><trkpt lat="45.789625" lon="12.283805"><ele>51.33333333333333</ele><time>2026-04-02T15:05:34.977Z</time></trkpt><trkpt lat="45.7896683" lon="12.2835633"><ele>51.666666666666664</ele><time>2026-04-02T15:05:35.977Z</time></trkpt><trkpt lat="45.7897117" lon="12.2833267"><ele>52.0</ele><time>2026-04-02T15:05:36.977Z</time></trkpt><trkpt lat="45.7897433" lon="12.28312"><ele>52.5</ele><time>2026-04-02T15:05:37.977Z</time></trkpt><trkpt lat="45.7898383" lon="12.2826783"><ele>53.0</ele><time>2026-04-02T15:05:39.977Z</time></trkpt><trkpt lat="45.7898883" lon="12.2824533"><ele>51.66666666666667</ele><time>2026-04-02T15:05:40.977Z</time></trkpt><trkpt lat="45.7899483" lon="12.2822183"><ele>50.33333333333333</ele><time>2026-04-02T15:05:41.977Z</time></trkpt><trkpt lat="45.7900083" lon="12.2819983"><ele>49.0</ele><time>2026-04-02T15:05:42.977Z</time></trkpt><trkpt lat="45.79007" lon="12.281775"><ele>49.0</ele><time>2026-04-02T15:05:43.977Z</time></trkpt><trkpt lat="45.7901317" lon="12.28155"><ele>49.0</ele><time>2026-04-02T15:05:44.977Z</time></trkpt><trkpt lat="45.7901983" lon="12.2813217"><ele>49.0</ele><time>2026-04-02T15:05:45.976Z</time></trkpt><trkpt lat="45.79027" lon="12.281095"><ele>50.0</ele><time>2026-04-02T15:05:46.977Z</time></trkpt><trkpt lat="45.7903367" lon="12.2808833"><ele>51.0</ele><time>2026-04-02T15:05:47.977Z</time></trkpt><trkpt lat="45.7904033" lon="12.2806783"><ele>52.0</ele><time>2026-04-02T15:05:48.976Z</time></trkpt><trkpt lat="45.790465" lon="12.2804917"><ele>52.0</ele><time>2026-04-02T15:05:49.977Z</time></trkpt><trkpt lat="45.790515" lon="12.2803083"><ele>52.0</ele><time>2026-04-02T15:05:50.977Z</time></trkpt><trkpt lat="45.790525" lon="12.2801"><ele>52.0</ele><time>2026-04-02T15:05:51.977Z</time></trkpt><trkpt lat="45.790535" lon="12.2799333"><ele>52.0</ele><time>2026-04-02T15:05:52.977Z</time></trkpt><trkpt lat="45.7905583" lon="12.2797983"><ele>51.5</ele><time>2026-04-02T15:05:53.977Z</time></trkpt><trkpt lat="45.790585" lon="12.2796383"><ele>51.0</ele><time>2026-04-02T15:05:55.977Z</time></trkpt><trkpt lat="45.7906083" lon="12.2795133"><ele>50.5</ele><time>2026-04-02T15:05:57.977Z</time></trkpt><trkpt lat="45.7906417" lon="12.27936"><ele>50.0</ele><time>2026-04-02T15:05:59.977Z</time></trkpt><trkpt lat="45.7906367" lon="12.2791583"><ele>50.0</ele><time>2026-04-02T15:06:03.976Z</time></trkpt><trkpt lat="45.790545" lon="12.2790917"><ele>50.0</ele><time>2026-04-02T15:06:05.976Z</time></trkpt><trkpt lat="45.7904667" lon="12.2790067"><ele>50.0</ele><time>2026-04-02T15:06:07.976Z</time></trkpt><trkpt lat="45.7904233" lon="12.2788833"><ele>50.0</ele><time>2026-04-02T15:06:09.977Z</time></trkpt><trkpt lat="45.7904517" lon="12.2786933"><ele>50.0</ele><time>2026-04-02T15:06:11.977Z</time></trkpt><trkpt lat="45.7904883" lon="12.2785917"><ele>50.00000000000001</ele><time>2026-04-02T15:06:12.977Z</time></trkpt><trkpt lat="45.790525" lon="12.2784783"><ele>50.0</ele><time>2026-04-02T15:06:13.977Z</time></trkpt><trkpt lat="45.7905633" lon="12.2783583"><ele>50.0</ele><time>2026-04-02T15:06:14.977Z</time></trkpt><trkpt lat="45.7906067" lon="12.27828"><ele>50.0</ele><time>2026-04-02T15:06:15.976Z</time></trkpt><trkpt lat="45.79065" lon="12.2781817"><ele>50.00000000000001</ele><time>2026-04-02T15:06:16.977Z</time></trkpt><trkpt lat="45.7906783" lon="12.2780983"><ele>50.0</ele><time>2026-04-02T15:06:17.977Z</time></trkpt><trkpt lat="45.79074" lon="12.277945"><ele>50.0</ele><time>2026-04-02T15:06:19.977Z</time></trkpt><trkpt lat="45.790775" lon="12.27785"><ele>50.0</ele><time>2026-04-02T15:06:20.977Z</time></trkpt><trkpt lat="45.7908983" lon="12.277655"><ele>50.0</ele><time>2026-04-02T15:06:23.977Z</time></trkpt><trkpt lat="45.7910033" lon="12.2776483"><ele>50.0</ele><time>2026-04-02T15:06:25.977Z</time></trkpt><trkpt lat="45.7911083" lon="12.2775717"><ele>50.2</ele><time>2026-04-02T15:06:27.976Z</time></trkpt><trkpt lat="45.7912033" lon="12.2774633"><ele>50.4</ele><time>2026-04-02T15:06:29.977Z</time></trkpt><trkpt lat="45.7912467" lon="12.2773867"><ele>50.599999999999994</ele><time>2026-04-02T15:06:30.977Z</time></trkpt><trkpt lat="45.7912867" lon="12.2772517"><ele>50.8</ele><time>2026-04-02T15:06:31.976Z</time></trkpt><trkpt lat="45.791335" lon="12.2771433"><ele>51.0</ele><time>2026-04-02T15:06:32.977Z</time></trkpt><trkpt lat="45.7913883" lon="12.2770283"><ele>51.199999999999996</ele><time>2026-04-02T15:06:33.977Z</time></trkpt><trkpt lat="45.791435" lon="12.2768833"><ele>51.4</ele><time>2026-04-02T15:06:34.977Z</time></trkpt><trkpt lat="45.7914717" lon="12.276745"><ele>51.6</ele><time>2026-04-02T15:06:35.977Z</time></trkpt><trkpt lat="45.791495" lon="12.2766367"><ele>51.8</ele><time>2026-04-02T15:06:36.977Z</time></trkpt><trkpt lat="45.79151" lon="12.2765483"><ele>52.0</ele><time>2026-04-02T15:06:37.977Z</time></trkpt><trkpt lat="45.791545" lon="12.2764133"><ele>52.2</ele><time>2026-04-02T15:06:39.977Z</time></trkpt><trkpt lat="45.7915467" lon="12.2762567"><ele>52.400000000000006</ele><time>2026-04-02T15:06:41.977Z</time></trkpt><trkpt lat="45.791595" lon="12.2760533"><ele>52.599999999999994</ele><time>2026-04-02T15:06:43.976Z</time></trkpt><trkpt lat="45.79163" lon="12.27596"><ele>52.8</ele><time>2026-04-02T15:06:44.977Z</time></trkpt><trkpt lat="45.7916833" lon="12.27583"><ele>53.0</ele><time>2026-04-02T15:06:45.977Z</time></trkpt><trkpt lat="45.791735" lon="12.2756883"><ele>53.0</ele><time>2026-04-02T15:06:46.977Z</time></trkpt><trkpt lat="45.7917683" lon="12.2755467"><ele>53.0</ele><time>2026-04-02T15:06:47.977Z</time></trkpt><trkpt lat="45.7918133" lon="12.2753717"><ele>53.0</ele><time>2026-04-02T15:06:48.977Z</time></trkpt><trkpt lat="45.7918617" lon="12.27522"><ele>53.0</ele><time>2026-04-02T15:06:49.976Z</time></trkpt><trkpt lat="45.7919167" lon="12.275105"><ele>53.0</ele><time>2026-04-02T15:06:50.976Z</time></trkpt><trkpt lat="45.7919783" lon="12.2750233"><ele>53.0</ele><time>2026-04-02T15:06:51.976Z</time></trkpt><trkpt lat="45.792045" lon="12.27487"><ele>53.0</ele><time>2026-04-02T15:06:53.976Z</time></trkpt><trkpt lat="45.7920667" lon="12.2747817"><ele>53.0</ele><time>2026-04-02T15:06:54.976Z</time></trkpt><trkpt lat="45.79209" lon="12.27467"><ele>53.0</ele><time>2026-04-02T15:06:55.976Z</time></trkpt><trkpt lat="45.79214" lon="12.2745217"><ele>53.0</ele><time>2026-04-02T15:06:56.977Z</time></trkpt><trkpt lat="45.792195" lon="12.27436"><ele>53.0</ele><time>2026-04-02T15:06:57.976Z</time></trkpt><trkpt lat="45.7922417" lon="12.2741917"><ele>53.0</ele><time>2026-04-02T15:06:58.977Z</time></trkpt><trkpt lat="45.7922833" lon="12.2740183"><ele>53.0</ele><time>2026-04-02T15:06:59.977Z</time></trkpt><trkpt lat="45.7923417" lon="12.2738533"><ele>53.0</ele><time>2026-04-02T15:07:00.977Z</time></trkpt><trkpt lat="45.792385" lon="12.2737033"><ele>53.25</ele><time>2026-04-02T15:07:01.976Z</time></trkpt><trkpt lat="45.7924283" lon="12.27357"><ele>53.5</ele><time>2026-04-02T15:07:02.977Z</time></trkpt><trkpt lat="45.7925233" lon="12.2733017"><ele>53.75</ele><time>2026-04-02T15:07:04.977Z</time></trkpt><trkpt lat="45.7925667" lon="12.27318"><ele>54.0</ele><time>2026-04-02T15:07:05.977Z</time></trkpt><trkpt lat="45.7925983" lon="12.27306"><ele>54.0</ele><time>2026-04-02T15:07:06.977Z</time></trkpt><trkpt lat="45.7926233" lon="12.2729317"><ele>54.00000000000001</ele><time>2026-04-02T15:07:07.977Z</time></trkpt><trkpt lat="45.7926483" lon="12.2727883"><ele>54.00000000000001</ele><time>2026-04-02T15:07:08.977Z</time></trkpt><trkpt lat="45.79269" lon="12.2726283"><ele>54.0</ele><time>2026-04-02T15:07:09.977Z</time></trkpt><trkpt lat="45.7927333" lon="12.272465"><ele>54.0</ele><time>2026-04-02T15:07:10.977Z</time></trkpt><trkpt lat="45.79273" lon="12.2722467"><ele>53.33333333333333</ele><time>2026-04-02T15:07:11.977Z</time></trkpt><trkpt lat="45.792775" lon="12.2720467"><ele>52.666666666666664</ele><time>2026-04-02T15:07:12.976Z</time></trkpt><trkpt lat="45.7928133" lon="12.2718267"><ele>52.0</ele><time>2026-04-02T15:07:13.977Z</time></trkpt><trkpt lat="45.7928683" lon="12.2716117"><ele>52.0</ele><time>2026-04-02T15:07:14.976Z</time></trkpt><trkpt lat="45.792925" lon="12.271405"><ele>52.0</ele><time>2026-04-02T15:07:15.977Z</time></trkpt><trkpt lat="45.7929467" lon="12.2712333"><ele>52.0</ele><time>2026-04-02T15:07:16.977Z</time></trkpt><trkpt lat="45.79299" lon="12.271065"><ele>52.0</ele><time>2026-04-02T15:07:17.977Z</time></trkpt><trkpt lat="45.793025" lon="12.270905"><ele>52.0</ele><time>2026-04-02T15:07:18.977Z</time></trkpt><trkpt lat="45.7930817" lon="12.2707967"><ele>52.0</ele><time>2026-04-02T15:07:19.977Z</time></trkpt><trkpt lat="45.7931233" lon="12.2706633"><ele>52.0</ele><time>2026-04-02T15:07:20.977Z</time></trkpt><trkpt lat="45.7931767" lon="12.2705233"><ele>52.0</ele><time>2026-04-02T15:07:21.977Z</time></trkpt><trkpt lat="45.79324" lon="12.2703733"><ele>52.0</ele><time>2026-04-02T15:07:22.977Z</time></trkpt><trkpt lat="45.7933117" lon="12.2702"><ele>53.0</ele><time>2026-04-02T15:07:23.977Z</time></trkpt><trkpt lat="45.7933783" lon="12.2698817"><ele>54.0</ele><time>2026-04-02T15:07:25.977Z</time></trkpt><trkpt lat="45.79346" lon="12.269755"><ele>55.0</ele><time>2026-04-02T15:07:26.977Z</time></trkpt><trkpt lat="45.7935083" lon="12.2696183"><ele>55.2</ele><time>2026-04-02T15:07:27.977Z</time></trkpt><trkpt lat="45.7935533" lon="12.269485"><ele>55.4</ele><time>2026-04-02T15:07:28.977Z</time></trkpt><trkpt lat="45.7935883" lon="12.26934"><ele>55.599999999999994</ele><time>2026-04-02T15:07:29.977Z</time></trkpt><trkpt lat="45.7936183" lon="12.2691983"><ele>55.8</ele><time>2026-04-02T15:07:30.977Z</time></trkpt><trkpt lat="45.7936367" lon="12.2690517"><ele>56.0</ele><time>2026-04-02T15:07:31.977Z</time></trkpt><trkpt lat="45.7936717" lon="12.2689"><ele>56.75</ele><time>2026-04-02T15:07:32.977Z</time></trkpt><trkpt lat="45.7937117" lon="12.2687533"><ele>57.5</ele><time>2026-04-02T15:07:33.977Z</time></trkpt><trkpt lat="45.7937567" lon="12.2686067"><ele>58.25</ele><time>2026-04-02T15:07:34.977Z</time></trkpt><trkpt lat="45.7937983" lon="12.268455"><ele>59.0</ele><time>2026-04-02T15:07:35.977Z</time></trkpt><trkpt lat="45.7938317" lon="12.2682883"><ele>59.0</ele><time>2026-04-02T15:07:36.977Z</time></trkpt><trkpt lat="45.7938683" lon="12.268135"><ele>59.00000000000001</ele><time>2026-04-02T15:07:37.977Z</time></trkpt><trkpt lat="45.7939033" lon="12.2679833"><ele>59.00000000000001</ele><time>2026-04-02T15:07:38.977Z</time></trkpt><trkpt lat="45.7939367" lon="12.26784"><ele>59.0</ele><time>2026-04-02T15:07:39.976Z</time></trkpt><trkpt lat="45.7939567" lon="12.2676983"><ele>59.0</ele><time>2026-04-02T15:07:40.977Z</time></trkpt><trkpt lat="45.7939583" lon="12.26757"><ele>59.0</ele><time>2026-04-02T15:07:41.977Z</time></trkpt><trkpt lat="45.7939483" lon="12.267445"><ele>59.0</ele><time>2026-04-02T15:07:42.977Z</time></trkpt><trkpt lat="45.7939367" lon="12.26734"><ele>59.0</ele><time>2026-04-02T15:07:43.977Z</time></trkpt><trkpt lat="45.79392" lon="12.2672167"><ele>59.0</ele><time>2026-04-02T15:07:44.977Z</time></trkpt><trkpt lat="45.7939833" lon="12.2669367"><ele>58.25</ele><time>2026-04-02T15:07:46.977Z</time></trkpt><trkpt lat="45.7940283" lon="12.266765"><ele>57.5</ele><time>2026-04-02T15:07:47.977Z</time></trkpt><trkpt lat="45.7940733" lon="12.2665967"><ele>56.75</ele><time>2026-04-02T15:07:48.977Z</time></trkpt><trkpt lat="45.7941217" lon="12.266415"><ele>56.0</ele><time>2026-04-02T15:07:49.977Z</time></trkpt><trkpt lat="45.794155" lon="12.2662217"><ele>56.0</ele><time>2026-04-02T15:07:50.977Z</time></trkpt><trkpt lat="45.79419" lon="12.2660183"><ele>56.0</ele><time>2026-04-02T15:07:51.977Z</time></trkpt><trkpt lat="45.79423" lon="12.2658067"><ele>56.0</ele><time>2026-04-02T15:07:52.977Z</time></trkpt><trkpt lat="45.7942617" lon="12.26559"><ele>56.0</ele><time>2026-04-02T15:07:53.977Z</time></trkpt><trkpt lat="45.794285" lon="12.265355"><ele>56.0</ele><time>2026-04-02T15:07:54.976Z</time></trkpt><trkpt lat="45.794305" lon="12.2651467"><ele>56.0</ele><time>2026-04-02T15:07:55.976Z</time></trkpt><trkpt lat="45.79433" lon="12.2649483"><ele>56.4</ele><time>2026-04-02T15:07:56.977Z</time></trkpt><trkpt lat="45.794355" lon="12.2647733"><ele>56.8</ele><time>2026-04-02T15:07:57.977Z</time></trkpt><trkpt lat="45.7943933" lon="12.2646083"><ele>57.199999999999996</ele><time>2026-04-02T15:07:58.976Z</time></trkpt><trkpt lat="45.7944383" lon="12.264485"><ele>57.599999999999994</ele><time>2026-04-02T15:07:59.977Z</time></trkpt><trkpt lat="45.7944817" lon="12.2643633"><ele>58.0</ele><time>2026-04-02T15:08:00.977Z</time></trkpt><trkpt lat="45.794535" lon="12.2642267"><ele>58.0</ele><time>2026-04-02T15:08:01.976Z</time></trkpt><trkpt lat="45.7945983" lon="12.2640933"><ele>58.0</ele><time>2026-04-02T15:08:02.977Z</time></trkpt><trkpt lat="45.7946667" lon="12.2639483"><ele>58.0</ele><time>2026-04-02T15:08:03.977Z</time></trkpt><trkpt lat="45.7947317" lon="12.2638017"><ele>58.0</ele><time>2026-04-02T15:08:04.977Z</time></trkpt><trkpt lat="45.79479" lon="12.2636617"><ele>58.0</ele><time>2026-04-02T15:08:05.977Z</time></trkpt><trkpt lat="45.7948833" lon="12.2633983"><ele>58.0</ele><time>2026-04-02T15:08:07.977Z</time></trkpt><trkpt lat="45.794925" lon="12.26325"><ele>58.0</ele><time>2026-04-02T15:08:08.977Z</time></trkpt><trkpt lat="45.7949967" lon="12.263085"><ele>58.0</ele><time>2026-04-02T15:08:09.977Z</time></trkpt><trkpt lat="45.795085" lon="12.262915"><ele>58.0</ele><time>2026-04-02T15:08:10.977Z</time></trkpt><trkpt lat="45.7951833" lon="12.26275"><ele>58.0</ele><time>2026-04-02T15:08:11.977Z</time></trkpt><trkpt lat="45.7952917" lon="12.2625917"><ele>58.75</ele><time>2026-04-02T15:08:12.977Z</time></trkpt><trkpt lat="45.7954033" lon="12.2624383"><ele>59.5</ele><time>2026-04-02T15:08:13.977Z</time></trkpt><trkpt lat="45.7955133" lon="12.2622967"><ele>60.25</ele><time>2026-04-02T15:08:14.977Z</time></trkpt><trkpt lat="45.795615" lon="12.26216"><ele>61.0</ele><time>2026-04-02T15:08:15.976Z</time></trkpt><trkpt lat="45.7957117" lon="12.26202"><ele>61.0</ele><time>2026-04-02T15:08:16.977Z</time></trkpt><trkpt lat="45.7958067" lon="12.261865"><ele>61.0</ele><time>2026-04-02T15:08:17.976Z</time></trkpt><trkpt lat="45.7959167" lon="12.261715"><ele>61.0</ele><time>2026-04-02T15:08:18.977Z</time></trkpt><trkpt lat="45.79604" lon="12.261565"><ele>60.33333333333333</ele><time>2026-04-02T15:08:19.977Z</time></trkpt><trkpt lat="45.796165" lon="12.2613983"><ele>59.66666666666667</ele><time>2026-04-02T15:08:20.977Z</time></trkpt><trkpt lat="45.7962883" lon="12.2612083"><ele>59.0</ele><time>2026-04-02T15:08:21.977Z</time></trkpt><trkpt lat="45.7964" lon="12.2610367"><ele>59.0</ele><time>2026-04-02T15:08:22.977Z</time></trkpt><trkpt lat="45.7964967" lon="12.2608717"><ele>59.0</ele><time>2026-04-02T15:08:23.976Z</time></trkpt><trkpt lat="45.7966183" lon="12.260685"><ele>59.0</ele><time>2026-04-02T15:08:24.977Z</time></trkpt><trkpt lat="45.7967333" lon="12.2605117"><ele>59.0</ele><time>2026-04-02T15:08:25.977Z</time></trkpt><trkpt lat="45.7968517" lon="12.2603333"><ele>59.0</ele><time>2026-04-02T15:08:26.977Z</time></trkpt><trkpt lat="45.797095" lon="12.259995"><ele>59.0</ele><time>2026-04-02T15:08:28.977Z</time></trkpt><trkpt lat="45.79719" lon="12.25987"><ele>59.0</ele><time>2026-04-02T15:08:29.977Z</time></trkpt><trkpt lat="45.7972867" lon="12.259735"><ele>59.0</ele><time>2026-04-02T15:08:30.977Z</time></trkpt><trkpt lat="45.79736" lon="12.2596117"><ele>59.0</ele><time>2026-04-02T15:08:31.976Z</time></trkpt><trkpt lat="45.79743" lon="12.259495"><ele>58.833333333333336</ele><time>2026-04-02T15:08:32.977Z</time></trkpt><trkpt lat="45.7974917" lon="12.2593983"><ele>58.66666666666667</ele><time>2026-04-02T15:08:33.976Z</time></trkpt><trkpt lat="45.797545" lon="12.2593233"><ele>58.5</ele><time>2026-04-02T15:08:34.977Z</time></trkpt><trkpt lat="45.7975983" lon="12.25926"><ele>58.33333333333333</ele><time>2026-04-02T15:08:35.976Z</time></trkpt><trkpt lat="45.7976517" lon="12.25919"><ele>58.166666666666664</ele><time>2026-04-02T15:08:36.976Z</time></trkpt><trkpt lat="45.7977133" lon="12.2591017"><ele>58.0</ele><time>2026-04-02T15:08:37.977Z</time></trkpt><trkpt lat="45.7977883" lon="12.2590083"><ele>57.5</ele><time>2026-04-02T15:08:38.977Z</time></trkpt><trkpt lat="45.79788" lon="12.2588883"><ele>57.0</ele><time>2026-04-02T15:08:39.977Z</time></trkpt><trkpt lat="45.7979833" lon="12.2587483"><ele>56.5</ele><time>2026-04-02T15:08:40.976Z</time></trkpt><trkpt lat="45.79807" lon="12.258635"><ele>56.0</ele><time>2026-04-02T15:08:41.977Z</time></trkpt><trkpt lat="45.798195" lon="12.25851"><ele>56.0</ele><time>2026-04-02T15:08:42.977Z</time></trkpt><trkpt lat="45.7983417" lon="12.258335"><ele>56.0</ele><time>2026-04-02T15:08:43.977Z</time></trkpt><trkpt lat="45.79851" lon="12.25812"><ele>56.0</ele><time>2026-04-02T15:08:44.977Z</time></trkpt><trkpt lat="45.7986567" lon="12.2579067"><ele>56.333333333333336</ele><time>2026-04-02T15:08:45.977Z</time></trkpt><trkpt lat="45.7987983" lon="12.2576717"><ele>56.66666666666667</ele><time>2026-04-02T15:08:46.977Z</time></trkpt><trkpt lat="45.7989617" lon="12.257465"><ele>57.0</ele><time>2026-04-02T15:08:47.977Z</time></trkpt><trkpt lat="45.7992683" lon="12.25702"><ele>58.5</ele><time>2026-04-02T15:08:49.977Z</time></trkpt><trkpt lat="45.7994333" lon="12.256785"><ele>60.0</ele><time>2026-04-02T15:08:50.977Z</time></trkpt><trkpt lat="45.79961" lon="12.2565667"><ele>60.0</ele><time>2026-04-02T15:08:51.977Z</time></trkpt><trkpt lat="45.7997667" lon="12.25634"><ele>60.0</ele><time>2026-04-02T15:08:52.976Z</time></trkpt><trkpt lat="45.7999167" lon="12.2561133"><ele>60.0</ele><time>2026-04-02T15:08:53.976Z</time></trkpt><trkpt lat="45.8000667" lon="12.2559017"><ele>60.0</ele><time>2026-04-02T15:08:54.976Z</time></trkpt><trkpt lat="45.800215" lon="12.25569"><ele>60.0</ele><time>2026-04-02T15:08:55.975Z</time></trkpt><trkpt lat="45.800375" lon="12.2554733"><ele>60.0</ele><time>2026-04-02T15:08:56.976Z</time></trkpt><trkpt lat="45.800535" lon="12.255265"><ele>59.66666666666667</ele><time>2026-04-02T15:08:57.976Z</time></trkpt><trkpt lat="45.800695" lon="12.25505"><ele>59.333333333333336</ele><time>2026-04-02T15:08:58.976Z</time></trkpt><trkpt lat="45.800835" lon="12.25482"><ele>59.0</ele><time>2026-04-02T15:08:59.975Z</time></trkpt><trkpt lat="45.800995" lon="12.2545967"><ele>59.66666666666667</ele><time>2026-04-02T15:09:00.976Z</time></trkpt><trkpt lat="45.801185" lon="12.25437"><ele>60.33333333333333</ele><time>2026-04-02T15:09:01.976Z</time></trkpt><trkpt lat="45.8013133" lon="12.2541867"><ele>61.0</ele><time>2026-04-02T15:09:02.976Z</time></trkpt><trkpt lat="45.80142" lon="12.2540133"><ele>61.0</ele><time>2026-04-02T15:09:03.976Z</time></trkpt><trkpt lat="45.8015133" lon="12.2538567"><ele>61.0</ele><time>2026-04-02T15:09:04.976Z</time></trkpt><trkpt lat="45.8016117" lon="12.253695"><ele>61.0</ele><time>2026-04-02T15:09:05.976Z</time></trkpt><trkpt lat="45.8017083" lon="12.253535"><ele>61.0</ele><time>2026-04-02T15:09:06.975Z</time></trkpt><trkpt lat="45.8018067" lon="12.2533833"><ele>61.33333333333333</ele><time>2026-04-02T15:09:07.976Z</time></trkpt><trkpt lat="45.8019" lon="12.25323"><ele>61.66666666666667</ele><time>2026-04-02T15:09:08.975Z</time></trkpt><trkpt lat="45.80206" lon="12.252975"><ele>62.0</ele><time>2026-04-02T15:09:10.976Z</time></trkpt><trkpt lat="45.8021183" lon="12.252855"><ele>62.333333333333336</ele><time>2026-04-02T15:09:11.975Z</time></trkpt><trkpt lat="45.8021667" lon="12.252745"><ele>62.66666666666667</ele><time>2026-04-02T15:09:12.976Z</time></trkpt><trkpt lat="45.8022283" lon="12.2526383"><ele>63.0</ele><time>2026-04-02T15:09:13.975Z</time></trkpt><trkpt lat="45.8022817" lon="12.2525617"><ele>63.33333333333333</ele><time>2026-04-02T15:09:14.976Z</time></trkpt><trkpt lat="45.8023433" lon="12.2525083"><ele>63.666666666666664</ele><time>2026-04-02T15:09:15.976Z</time></trkpt><trkpt lat="45.8024083" lon="12.2525233"><ele>64.0</ele><time>2026-04-02T15:09:16.976Z</time></trkpt><trkpt lat="45.8025083" lon="12.2524767"><ele>63.5</ele><time>2026-04-02T15:09:17.976Z</time></trkpt><trkpt lat="45.802665" lon="12.252475"><ele>63.0</ele><time>2026-04-02T15:09:18.976Z</time></trkpt><trkpt lat="45.8027983" lon="12.2524367"><ele>62.5</ele><time>2026-04-02T15:09:19.976Z</time></trkpt><trkpt lat="45.8029267" lon="12.2523917"><ele>62.0</ele><time>2026-04-02T15:09:20.976Z</time></trkpt><trkpt lat="45.80307" lon="12.2523667"><ele>62.0</ele><time>2026-04-02T15:09:21.976Z</time></trkpt><trkpt lat="45.8031633" lon="12.2523617"><ele>62.0</ele><time>2026-04-02T15:09:22.976Z</time></trkpt><trkpt lat="45.8032617" lon="12.2523567"><ele>62.0</ele><time>2026-04-02T15:09:23.976Z</time></trkpt><trkpt lat="45.80335" lon="12.2523867"><ele>62.0</ele><time>2026-04-02T15:09:24.976Z</time></trkpt><trkpt lat="45.8034383" lon="12.2524767"><ele>62.0</ele><time>2026-04-02T15:09:25.976Z</time></trkpt><trkpt lat="45.8035317" lon="12.2527117"><ele>61.66666666666667</ele><time>2026-04-02T15:09:26.976Z</time></trkpt><trkpt lat="45.80365" lon="12.2529117"><ele>61.33333333333333</ele><time>2026-04-02T15:09:27.975Z</time></trkpt><trkpt lat="45.803785" lon="12.2531233"><ele>61.0</ele><time>2026-04-02T15:09:28.976Z</time></trkpt><trkpt lat="45.8039683" lon="12.2533683"><ele>59.5</ele><time>2026-04-02T15:09:29.976Z</time></trkpt><trkpt lat="45.8042933" lon="12.2538033"><ele>58.0</ele><time>2026-04-02T15:09:31.975Z</time></trkpt><trkpt lat="45.8044383" lon="12.2539817"><ele>58.0</ele><time>2026-04-02T15:09:32.976Z</time></trkpt><trkpt lat="45.8045683" lon="12.2541383"><ele>58.0</ele><time>2026-04-02T15:09:33.975Z</time></trkpt><trkpt lat="45.8046667" lon="12.25427"><ele>58.0</ele><time>2026-04-02T15:09:34.975Z</time></trkpt><trkpt lat="45.804785" lon="12.2544333"><ele>58.0</ele><time>2026-04-02T15:09:35.976Z</time></trkpt><trkpt lat="45.8048917" lon="12.25464"><ele>58.0</ele><time>2026-04-02T15:09:36.976Z</time></trkpt><trkpt lat="45.8049567" lon="12.254845"><ele>58.0</ele><time>2026-04-02T15:09:37.975Z</time></trkpt><trkpt lat="45.8050383" lon="12.2550633"><ele>58.33333333333333</ele><time>2026-04-02T15:09:38.976Z</time></trkpt><trkpt lat="45.805125" lon="12.255305"><ele>58.66666666666667</ele><time>2026-04-02T15:09:39.976Z</time></trkpt><trkpt lat="45.8052167" lon="12.2555333"><ele>59.0</ele><time>2026-04-02T15:09:40.975Z</time></trkpt><trkpt lat="45.80529" lon="12.2557433"><ele>59.333333333333336</ele><time>2026-04-02T15:09:41.976Z</time></trkpt><trkpt lat="45.805375" lon="12.2559233"><ele>59.66666666666667</ele><time>2026-04-02T15:09:42.976Z</time></trkpt><trkpt lat="45.8054867" lon="12.256085"><ele>60.0</ele><time>2026-04-02T15:09:43.976Z</time></trkpt><trkpt lat="45.8056217" lon="12.2562083"><ele>60.0</ele><time>2026-04-02T15:09:44.976Z</time></trkpt><trkpt lat="45.80578" lon="12.256295"><ele>60.0</ele><time>2026-04-02T15:09:45.976Z</time></trkpt><trkpt lat="45.8059467" lon="12.2563633"><ele>60.0</ele><time>2026-04-02T15:09:46.976Z</time></trkpt><trkpt lat="45.8060783" lon="12.2564233"><ele>60.25</ele><time>2026-04-02T15:09:47.976Z</time></trkpt><trkpt lat="45.806195" lon="12.2564867"><ele>60.5</ele><time>2026-04-02T15:09:48.976Z</time></trkpt><trkpt lat="45.8063117" lon="12.2565683"><ele>60.75</ele><time>2026-04-02T15:09:49.975Z</time></trkpt><trkpt lat="45.806415" lon="12.2566667"><ele>61.0</ele><time>2026-04-02T15:09:50.976Z</time></trkpt><trkpt lat="45.8065867" lon="12.2568567"><ele>60.99999999999999</ele><time>2026-04-02T15:09:52.976Z</time></trkpt><trkpt lat="45.80665" lon="12.2569167"><ele>61.0</ele><time>2026-04-02T15:09:53.976Z</time></trkpt><trkpt lat="45.8067183" lon="12.25694"><ele>61.0</ele><time>2026-04-02T15:09:54.976Z</time></trkpt><trkpt lat="45.8068" lon="12.2569283"><ele>61.0</ele><time>2026-04-02T15:09:55.976Z</time></trkpt><trkpt lat="45.8068917" lon="12.25689"><ele>60.99999999999999</ele><time>2026-04-02T15:09:56.976Z</time></trkpt><trkpt lat="45.8069883" lon="12.2568417"><ele>61.0</ele><time>2026-04-02T15:09:57.976Z</time></trkpt><trkpt lat="45.8070983" lon="12.2567533"><ele>61.0</ele><time>2026-04-02T15:09:58.976Z</time></trkpt><trkpt lat="45.8072283" lon="12.2566433"><ele>61.0</ele><time>2026-04-02T15:09:59.976Z</time></trkpt><trkpt lat="45.807375" lon="12.256515"><ele>61.0</ele><time>2026-04-02T15:10:00.976Z</time></trkpt><trkpt lat="45.8075467" lon="12.25636"><ele>61.5</ele><time>2026-04-02T15:10:01.976Z</time></trkpt><trkpt lat="45.8077517" lon="12.256195"><ele>62.0</ele><time>2026-04-02T15:10:02.975Z</time></trkpt><trkpt lat="45.8079667" lon="12.2560633"><ele>62.0</ele><time>2026-04-02T15:10:03.976Z</time></trkpt><trkpt lat="45.8081767" lon="12.255925"><ele>62.0</ele><time>2026-04-02T15:10:04.976Z</time></trkpt><trkpt lat="45.8083933" lon="12.2557983"><ele>62.333333333333336</ele><time>2026-04-02T15:10:05.976Z</time></trkpt><trkpt lat="45.8085883" lon="12.2556633"><ele>62.66666666666667</ele><time>2026-04-02T15:10:06.976Z</time></trkpt><trkpt lat="45.80877" lon="12.2555383"><ele>63.0</ele><time>2026-04-02T15:10:07.976Z</time></trkpt><trkpt lat="45.8089517" lon="12.2554283"><ele>63.0</ele><time>2026-04-02T15:10:08.975Z</time></trkpt><trkpt lat="45.8091233" lon="12.2553317"><ele>63.0</ele><time>2026-04-02T15:10:09.976Z</time></trkpt><trkpt lat="45.8092733" lon="12.2552233"><ele>63.0</ele><time>2026-04-02T15:10:10.976Z</time></trkpt><trkpt lat="45.8094383" lon="12.25512"><ele>64.0</ele><time>2026-04-02T15:10:11.976Z</time></trkpt><trkpt lat="45.8097367" lon="12.25492"><ele>65.0</ele><time>2026-04-02T15:10:13.976Z</time></trkpt><trkpt lat="45.8098933" lon="12.2548383"><ele>64.66666666666667</ele><time>2026-04-02T15:10:14.976Z</time></trkpt><trkpt lat="45.8100467" lon="12.2547383"><ele>64.33333333333333</ele><time>2026-04-02T15:10:15.976Z</time></trkpt><trkpt lat="45.8102033" lon="12.2546467"><ele>64.0</ele><time>2026-04-02T15:10:16.975Z</time></trkpt><trkpt lat="45.81035" lon="12.2545583"><ele>64.0</ele><time>2026-04-02T15:10:17.976Z</time></trkpt><trkpt lat="45.8104783" lon="12.2544767"><ele>64.0</ele><time>2026-04-02T15:10:18.976Z</time></trkpt><trkpt lat="45.81061" lon="12.2543933"><ele>64.0</ele><time>2026-04-02T15:10:19.976Z</time></trkpt><trkpt lat="45.810745" lon="12.2543133"><ele>64.0</ele><time>2026-04-02T15:10:20.976Z</time></trkpt><trkpt lat="45.8108817" lon="12.2542317"><ele>64.0</ele><time>2026-04-02T15:10:21.976Z</time></trkpt><trkpt lat="45.811015" lon="12.2541533"><ele>64.0</ele><time>2026-04-02T15:10:22.976Z</time></trkpt><trkpt lat="45.8111567" lon="12.2540717"><ele>64.0</ele><time>2026-04-02T15:10:23.976Z</time></trkpt><trkpt lat="45.81129" lon="12.25399"><ele>64.0</ele><time>2026-04-02T15:10:24.975Z</time></trkpt><trkpt lat="45.811415" lon="12.2538967"><ele>64.0</ele><time>2026-04-02T15:10:25.975Z</time></trkpt><trkpt lat="45.8115483" lon="12.25381"><ele>64.0</ele><time>2026-04-02T15:10:26.976Z</time></trkpt><trkpt lat="45.8116717" lon="12.2537317"><ele>64.0</ele><time>2026-04-02T15:10:27.976Z</time></trkpt><trkpt lat="45.8117883" lon="12.25366"><ele>64.0</ele><time>2026-04-02T15:10:28.976Z</time></trkpt><trkpt lat="45.8118783" lon="12.2535983"><ele>64.0</ele><time>2026-04-02T15:10:29.976Z</time></trkpt><trkpt lat="45.81196" lon="12.253545"><ele>64.0</ele><time>2026-04-02T15:10:30.975Z</time></trkpt><trkpt lat="45.8120283" lon="12.2535"><ele>64.0</ele><time>2026-04-02T15:10:31.976Z</time></trkpt><trkpt lat="45.8120933" lon="12.2534683"><ele>64.0</ele><time>2026-04-02T15:10:32.976Z</time></trkpt><trkpt lat="45.81231" lon="12.2534033"><ele>64.0</ele><time>2026-04-02T15:10:36.976Z</time></trkpt><trkpt lat="45.8124217" lon="12.2533767"><ele>64.0</ele><time>2026-04-02T15:10:38.976Z</time></trkpt><trkpt lat="45.8124883" lon="12.2533467"><ele>64.0</ele><time>2026-04-02T15:10:39.976Z</time></trkpt><trkpt lat="45.8125567" lon="12.2533167"><ele>64.0</ele><time>2026-04-02T15:10:40.976Z</time></trkpt><trkpt lat="45.8126233" lon="12.2532783"><ele>64.0</ele><time>2026-04-02T15:10:41.976Z</time></trkpt><trkpt lat="45.8127483" lon="12.2532233"><ele>63.666666666666664</ele><time>2026-04-02T15:10:43.976Z</time></trkpt><trkpt lat="45.812805" lon="12.25317"><ele>63.33333333333333</ele><time>2026-04-02T15:10:44.976Z</time></trkpt><trkpt lat="45.81286" lon="12.2531083"><ele>63.0</ele><time>2026-04-02T15:10:45.976Z</time></trkpt><trkpt lat="45.81292" lon="12.252955"><ele>62.66666666666667</ele><time>2026-04-02T15:10:47.976Z</time></trkpt><trkpt lat="45.8129617" lon="12.252875"><ele>62.333333333333336</ele><time>2026-04-02T15:10:48.976Z</time></trkpt><trkpt lat="45.8130033" lon="12.252775"><ele>62.0</ele><time>2026-04-02T15:10:49.976Z</time></trkpt><trkpt lat="45.8130533" lon="12.252665"><ele>62.0</ele><time>2026-04-02T15:10:50.976Z</time></trkpt><trkpt lat="45.8131133" lon="12.2525433"><ele>62.0</ele><time>2026-04-02T15:10:51.975Z</time></trkpt><trkpt lat="45.8131817" lon="12.2524067"><ele>62.0</ele><time>2026-04-02T15:10:52.976Z</time></trkpt><trkpt lat="45.81325" lon="12.2522567"><ele>62.0</ele><time>2026-04-02T15:10:53.976Z</time></trkpt><trkpt lat="45.81338" lon="12.25198"><ele>62.333333333333336</ele><time>2026-04-02T15:10:55.976Z</time></trkpt><trkpt lat="45.81343" lon="12.2518833"><ele>62.66666666666667</ele><time>2026-04-02T15:10:56.976Z</time></trkpt><trkpt lat="45.8134783" lon="12.2518183"><ele>63.0</ele><time>2026-04-02T15:10:57.976Z</time></trkpt><trkpt lat="45.8135683" lon="12.2517433"><ele>63.33333333333333</ele><time>2026-04-02T15:10:59.976Z</time></trkpt><trkpt lat="45.8136467" lon="12.2516883"><ele>63.666666666666664</ele><time>2026-04-02T15:11:01.976Z</time></trkpt><trkpt lat="45.8137" lon="12.2516367"><ele>64.0</ele><time>2026-04-02T15:11:02.975Z</time></trkpt><trkpt lat="45.8137467" lon="12.251555"><ele>64.25</ele><time>2026-04-02T15:11:03.976Z</time></trkpt><trkpt lat="45.81382" lon="12.2514483"><ele>64.5</ele><time>2026-04-02T15:11:04.976Z</time></trkpt><trkpt lat="45.8138983" lon="12.2513067"><ele>64.75</ele><time>2026-04-02T15:11:05.976Z</time></trkpt><trkpt lat="45.8139783" lon="12.2511367"><ele>65.0</ele><time>2026-04-02T15:11:06.976Z</time></trkpt><trkpt lat="45.8141067" lon="12.2508583"><ele>65.0</ele><time>2026-04-02T15:11:07.976Z</time></trkpt><trkpt lat="45.8142083" lon="12.2506533"><ele>65.0</ele><time>2026-04-02T15:11:08.976Z</time></trkpt><trkpt lat="45.81432" lon="12.2504367"><ele>65.0</ele><time>2026-04-02T15:11:09.976Z</time></trkpt><trkpt lat="45.8144367" lon="12.2501983"><ele>65.33333333333334</ele><time>2026-04-02T15:11:10.976Z</time></trkpt><trkpt lat="45.8145633" lon="12.2499333"><ele>65.66666666666667</ele><time>2026-04-02T15:11:11.976Z</time></trkpt><trkpt lat="45.81469" lon="12.2496933"><ele>66.0</ele><time>2026-04-02T15:11:12.976Z</time></trkpt><trkpt lat="45.8148167" lon="12.2494917"><ele>66.0</ele><time>2026-04-02T15:11:13.975Z</time></trkpt><trkpt lat="45.8148983" lon="12.2493167"><ele>66.0</ele><time>2026-04-02T15:11:14.976Z</time></trkpt><trkpt lat="45.8150383" lon="12.2490067"><ele>66.0</ele><time>2026-04-02T15:11:16.976Z</time></trkpt><trkpt lat="45.8151033" lon="12.2488967"><ele>65.5</ele><time>2026-04-02T15:11:17.976Z</time></trkpt><trkpt lat="45.81515" lon="12.2488"><ele>65.0</ele><time>2026-04-02T15:11:18.975Z</time></trkpt><trkpt lat="45.8151833" lon="12.2487"><ele>64.5</ele><time>2026-04-02T15:11:19.976Z</time></trkpt><trkpt lat="45.8152317" lon="12.2485683"><ele>64.0</ele><time>2026-04-02T15:11:21.976Z</time></trkpt><trkpt lat="45.8151833" lon="12.2484383"><ele>63.5</ele><time>2026-04-02T15:11:23.976Z</time></trkpt><trkpt lat="45.8151233" lon="12.2484"><ele>63.0</ele><time>2026-04-02T15:11:24.976Z</time></trkpt><trkpt lat="45.8150283" lon="12.24836"><ele>64.4</ele><time>2026-04-02T15:11:26.975Z</time></trkpt><trkpt lat="45.8149683" lon="12.24839"><ele>65.8</ele><time>2026-04-02T15:11:30.975Z</time></trkpt><trkpt lat="45.8149383" lon="12.2484767"><ele>67.2</ele><time>2026-04-02T15:11:36.976Z</time></trkpt><trkpt lat="45.8147467" lon="12.2483817"><ele>68.6</ele><time>2026-04-02T15:11:42.976Z</time></trkpt><trkpt lat="45.8146633" lon="12.2483167"><ele>70.0</ele><time>2026-04-02T15:11:44.976Z</time></trkpt><trkpt lat="45.8146067" lon="12.2482517"><ele>70.0</ele><time>2026-04-02T15:11:46.976Z</time></trkpt><trkpt lat="45.8146433" lon="12.2481733"><ele>70.0</ele><time>2026-04-02T15:11:53.976Z</time></trkpt><trkpt lat="45.8147217" lon="12.2482017"><ele>70.0</ele><time>2026-04-02T15:11:55.976Z</time></trkpt><trkpt lat="45.8148117" lon="12.2482817"><ele>70.0</ele><time>2026-04-02T15:11:57.976Z</time></trkpt><trkpt lat="45.8149683" lon="12.2484533"><ele>70.0</ele><time>2026-04-02T15:11:59.976Z</time></trkpt><trkpt lat="45.8151083" lon="12.2485767"><ele>70.0</ele><time>2026-04-02T15:12:00.976Z</time></trkpt><trkpt lat="45.8152467" lon="12.2487033"><ele>70.0</ele><time>2026-04-02T15:12:01.976Z</time></trkpt><trkpt lat="45.8153783" lon="12.2488283"><ele>68.25</ele><time>2026-04-02T15:12:02.976Z</time></trkpt><trkpt lat="45.8154933" lon="12.248945"><ele>66.5</ele><time>2026-04-02T15:12:03.976Z</time></trkpt><trkpt lat="45.8155983" lon="12.24905"><ele>64.75</ele><time>2026-04-02T15:12:04.976Z</time></trkpt><trkpt lat="45.8157033" lon="12.2491717"><ele>63.0</ele><time>2026-04-02T15:12:05.976Z</time></trkpt><trkpt lat="45.81583" lon="12.2492983"><ele>62.33333333333333</ele><time>2026-04-02T15:12:06.976Z</time></trkpt><trkpt lat="45.81596" lon="12.2494217"><ele>61.666666666666664</ele><time>2026-04-02T15:12:07.976Z</time></trkpt><trkpt lat="45.816115" lon="12.249555"><ele>61.0</ele><time>2026-04-02T15:12:08.976Z</time></trkpt><trkpt lat="45.81626" lon="12.2496783"><ele>61.0</ele><time>2026-04-02T15:12:09.976Z</time></trkpt><trkpt lat="45.8164067" lon="12.2498117"><ele>61.0</ele><time>2026-04-02T15:12:10.976Z</time></trkpt><trkpt lat="45.8165617" lon="12.249945"><ele>61.0</ele><time>2026-04-02T15:12:11.976Z</time></trkpt><trkpt lat="45.8167033" lon="12.2500683"><ele>61.666666666666664</ele><time>2026-04-02T15:12:12.976Z</time></trkpt><trkpt lat="45.81684" lon="12.2501833"><ele>62.33333333333333</ele><time>2026-04-02T15:12:13.976Z</time></trkpt><trkpt lat="45.8169683" lon="12.2503017"><ele>63.0</ele><time>2026-04-02T15:12:14.976Z</time></trkpt><trkpt lat="45.8171233" lon="12.2504283"><ele>63.0</ele><time>2026-04-02T15:12:15.975Z</time></trkpt><trkpt lat="45.81727" lon="12.25056"><ele>63.0</ele><time>2026-04-02T15:12:16.976Z</time></trkpt><trkpt lat="45.8174317" lon="12.25069"><ele>63.0</ele><time>2026-04-02T15:12:17.976Z</time></trkpt><trkpt lat="45.8175883" lon="12.2508283"><ele>64.0</ele><time>2026-04-02T15:12:18.976Z</time></trkpt><trkpt lat="45.8178817" lon="12.25109"><ele>65.0</ele><time>2026-04-02T15:12:20.976Z</time></trkpt><trkpt lat="45.81802" lon="12.2512233"><ele>65.0</ele><time>2026-04-02T15:12:21.975Z</time></trkpt><trkpt lat="45.8181483" lon="12.2513217"><ele>65.0</ele><time>2026-04-02T15:12:22.976Z</time></trkpt><trkpt lat="45.8182717" lon="12.2514117"><ele>65.0</ele><time>2026-04-02T15:12:23.976Z</time></trkpt><trkpt lat="45.818385" lon="12.2515067"><ele>65.0</ele><time>2026-04-02T15:12:24.976Z</time></trkpt><trkpt lat="45.8184867" lon="12.251595"><ele>65.4</ele><time>2026-04-02T15:12:25.976Z</time></trkpt><trkpt lat="45.81859" lon="12.251675"><ele>65.8</ele><time>2026-04-02T15:12:26.975Z</time></trkpt><trkpt lat="45.8186717" lon="12.2517433"><ele>66.2</ele><time>2026-04-02T15:12:27.975Z</time></trkpt><trkpt lat="45.81876" lon="12.251815"><ele>66.6</ele><time>2026-04-02T15:12:28.975Z</time></trkpt><trkpt lat="45.8188433" lon="12.2518917"><ele>67.0</ele><time>2026-04-02T15:12:29.975Z</time></trkpt><trkpt lat="45.8189283" lon="12.2519583"><ele>67.0</ele><time>2026-04-02T15:12:30.975Z</time></trkpt><trkpt lat="45.81901" lon="12.2520433"><ele>67.0</ele><time>2026-04-02T15:12:31.975Z</time></trkpt><trkpt lat="45.8190983" lon="12.2521483"><ele>67.0</ele><time>2026-04-02T15:12:32.975Z</time></trkpt><trkpt lat="45.8191933" lon="12.25226"><ele>67.0</ele><time>2026-04-02T15:12:33.975Z</time></trkpt><trkpt lat="45.8192867" lon="12.2523683"><ele>67.0</ele><time>2026-04-02T15:12:34.975Z</time></trkpt><trkpt lat="45.8193933" lon="12.2524567"><ele>67.0</ele><time>2026-04-02T15:12:35.975Z</time></trkpt><trkpt lat="45.8194933" lon="12.2525467"><ele>67.0</ele><time>2026-04-02T15:12:36.975Z</time></trkpt><trkpt lat="45.8195567" lon="12.2526167"><ele>67.0</ele><time>2026-04-02T15:12:37.975Z</time></trkpt><trkpt lat="45.8196433" lon="12.2526933"><ele>67.0</ele><time>2026-04-02T15:12:38.974Z</time></trkpt><trkpt lat="45.8196933" lon="12.2527483"><ele>67.0</ele><time>2026-04-02T15:12:39.975Z</time></trkpt><trkpt lat="45.819825" lon="12.2528617"><ele>67.0</ele><time>2026-04-02T15:12:41.975Z</time></trkpt><trkpt lat="45.8199367" lon="12.2529467"><ele>67.0</ele><time>2026-04-02T15:12:43.975Z</time></trkpt><trkpt lat="45.8200033" lon="12.2529817"><ele>67.0</ele><time>2026-04-02T15:12:44.975Z</time></trkpt><trkpt lat="45.8200683" lon="12.253"><ele>67.0</ele><time>2026-04-02T15:12:45.975Z</time></trkpt><trkpt lat="45.8201333" lon="12.25301"><ele>67.0</ele><time>2026-04-02T15:12:46.975Z</time></trkpt><trkpt lat="45.8202367" lon="12.2529817"><ele>67.0</ele><time>2026-04-02T15:12:48.974Z</time></trkpt><trkpt lat="45.8202917" lon="12.2528133"><ele>67.0</ele><time>2026-04-02T15:12:50.975Z</time></trkpt><trkpt lat="45.82029" lon="12.2526933"><ele>67.0</ele><time>2026-04-02T15:12:51.975Z</time></trkpt><trkpt lat="45.8202733" lon="12.2525383"><ele>67.0</ele><time>2026-04-02T15:12:52.974Z</time></trkpt><trkpt lat="45.820275" lon="12.2523583"><ele>67.0</ele><time>2026-04-02T15:12:53.975Z</time></trkpt><trkpt lat="45.8202583" lon="12.2521617"><ele>67.0</ele><time>2026-04-02T15:12:54.974Z</time></trkpt><trkpt lat="45.8202533" lon="12.2519483"><ele>67.0</ele><time>2026-04-02T15:12:55.975Z</time></trkpt><trkpt lat="45.8202583" lon="12.2517383"><ele>67.0</ele><time>2026-04-02T15:12:56.975Z</time></trkpt><trkpt lat="45.820265" lon="12.2515267"><ele>67.25</ele><time>2026-04-02T15:12:57.975Z</time></trkpt><trkpt lat="45.8202733" lon="12.2513417"><ele>67.5</ele><time>2026-04-02T15:12:58.975Z</time></trkpt><trkpt lat="45.8203" lon="12.2511783"><ele>67.75</ele><time>2026-04-02T15:12:59.975Z</time></trkpt><trkpt lat="45.8203333" lon="12.2510367"><ele>68.0</ele><time>2026-04-02T15:13:00.975Z</time></trkpt><trkpt lat="45.8204283" lon="12.2507833"><ele>68.0</ele><time>2026-04-02T15:13:02.975Z</time></trkpt><trkpt lat="45.8204833" lon="12.2506617"><ele>68.0</ele><time>2026-04-02T15:13:03.975Z</time></trkpt><trkpt lat="45.8205517" lon="12.2505367"><ele>68.0</ele><time>2026-04-02T15:13:04.975Z</time></trkpt><trkpt lat="45.82062" lon="12.250405"><ele>68.0</ele><time>2026-04-02T15:13:05.975Z</time></trkpt><trkpt lat="45.8206833" lon="12.2502783"><ele>68.0</ele><time>2026-04-02T15:13:06.975Z</time></trkpt><trkpt lat="45.82075" lon="12.2501467"><ele>68.0</ele><time>2026-04-02T15:13:07.975Z</time></trkpt><trkpt lat="45.8208283" lon="12.2500083"><ele>68.0</ele><time>2026-04-02T15:13:08.975Z</time></trkpt><trkpt lat="45.8209183" lon="12.2498733"><ele>68.0</ele><time>2026-04-02T15:13:09.975Z</time></trkpt><trkpt lat="45.8209783" lon="12.249735"><ele>68.0</ele><time>2026-04-02T15:13:10.975Z</time></trkpt><trkpt lat="45.8210433" lon="12.2496033"><ele>68.0</ele><time>2026-04-02T15:13:11.975Z</time></trkpt><trkpt lat="45.8211017" lon="12.24949"><ele>68.0</ele><time>2026-04-02T15:13:12.974Z</time></trkpt><trkpt lat="45.8211617" lon="12.2493767"><ele>68.0</ele><time>2026-04-02T15:13:13.975Z</time></trkpt><trkpt lat="45.82123" lon="12.2492617"><ele>68.0</ele><time>2026-04-02T15:13:14.974Z</time></trkpt><trkpt lat="45.8212917" lon="12.2491617"><ele>68.0</ele><time>2026-04-02T15:13:15.975Z</time></trkpt><trkpt lat="45.8213533" lon="12.249055"><ele>67.5</ele><time>2026-04-02T15:13:16.975Z</time></trkpt><trkpt lat="45.8214167" lon="12.2489383"><ele>67.0</ele><time>2026-04-02T15:13:17.975Z</time></trkpt><trkpt lat="45.8214783" lon="12.2488133"><ele>66.5</ele><time>2026-04-02T15:13:18.975Z</time></trkpt><trkpt lat="45.8215483" lon="12.2486783"><ele>66.0</ele><time>2026-04-02T15:13:19.975Z</time></trkpt><trkpt lat="45.8216283" lon="12.2485433"><ele>66.0</ele><time>2026-04-02T15:13:20.975Z</time></trkpt><trkpt lat="45.8217083" lon="12.2483833"><ele>66.0</ele><time>2026-04-02T15:13:21.975Z</time></trkpt><trkpt lat="45.8218633" lon="12.2481017"><ele>66.0</ele><time>2026-04-02T15:13:23.975Z</time></trkpt><trkpt lat="45.8219467" lon="12.2479733"><ele>66.25</ele><time>2026-04-02T15:13:24.975Z</time></trkpt><trkpt lat="45.8220233" lon="12.2478333"><ele>66.5</ele><time>2026-04-02T15:13:25.975Z</time></trkpt><trkpt lat="45.8220983" lon="12.2476967"><ele>66.75</ele><time>2026-04-02T15:13:26.974Z</time></trkpt><trkpt lat="45.8221783" lon="12.24757"><ele>67.0</ele><time>2026-04-02T15:13:27.975Z</time></trkpt><trkpt lat="45.8222417" lon="12.247445"><ele>67.0</ele><time>2026-04-02T15:13:28.975Z</time></trkpt><trkpt lat="45.8223083" lon="12.24732"><ele>67.0</ele><time>2026-04-02T15:13:29.975Z</time></trkpt><trkpt lat="45.8223733" lon="12.2471933"><ele>67.0</ele><time>2026-04-02T15:13:30.975Z</time></trkpt><trkpt lat="45.8224433" lon="12.2470633"><ele>67.0</ele><time>2026-04-02T15:13:31.975Z</time></trkpt><trkpt lat="45.8225117" lon="12.2469417"><ele>67.0</ele><time>2026-04-02T15:13:32.975Z</time></trkpt><trkpt lat="45.8225933" lon="12.24682"><ele>67.5</ele><time>2026-04-02T15:13:33.975Z</time></trkpt><trkpt lat="45.8226733" lon="12.2466883"><ele>68.0</ele><time>2026-04-02T15:13:34.974Z</time></trkpt><trkpt lat="45.82276" lon="12.2465333"><ele>68.5</ele><time>2026-04-02T15:13:35.975Z</time></trkpt><trkpt lat="45.8228283" lon="12.246365"><ele>69.0</ele><time>2026-04-02T15:13:36.975Z</time></trkpt><trkpt lat="45.822905" lon="12.246185"><ele>69.0</ele><time>2026-04-02T15:13:37.975Z</time></trkpt><trkpt lat="45.822975" lon="12.2460133"><ele>69.0</ele><time>2026-04-02T15:13:38.974Z</time></trkpt><trkpt lat="45.8230267" lon="12.245855"><ele>69.0</ele><time>2026-04-02T15:13:39.975Z</time></trkpt><trkpt lat="45.8231233" lon="12.24576"><ele>69.0</ele><time>2026-04-02T15:13:40.975Z</time></trkpt><trkpt lat="45.8231767" lon="12.2456633"><ele>68.8</ele><time>2026-04-02T15:13:41.975Z</time></trkpt><trkpt lat="45.8232183" lon="12.24557"><ele>68.60000000000001</ele><time>2026-04-02T15:13:42.974Z</time></trkpt><trkpt lat="45.823295" lon="12.2453233"><ele>68.4</ele><time>2026-04-02T15:13:45.975Z</time></trkpt><trkpt lat="45.8233017" lon="12.2451833"><ele>68.2</ele><time>2026-04-02T15:13:47.975Z</time></trkpt><trkpt lat="45.82325" lon="12.245085"><ele>68.0</ele><time>2026-04-02T15:13:50.974Z</time></trkpt><trkpt lat="45.823155" lon="12.245115"><ele>68.0</ele><time>2026-04-02T15:13:52.974Z</time></trkpt><trkpt lat="45.8230817" lon="12.245205"><ele>68.0</ele><time>2026-04-02T15:13:54.975Z</time></trkpt><trkpt lat="45.82304" lon="12.2452733"><ele>68.0</ele><time>2026-04-02T15:13:55.975Z</time></trkpt><trkpt lat="45.8229483" lon="12.2453483"><ele>68.0</ele><time>2026-04-02T15:13:57.975Z</time></trkpt><trkpt lat="45.8228883" lon="12.2454233"><ele>68.0</ele><time>2026-04-02T15:13:58.974Z</time></trkpt><trkpt lat="45.8228267" lon="12.2454967"><ele>68.0</ele><time>2026-04-02T15:13:59.975Z</time></trkpt><trkpt lat="45.822745" lon="12.2456"><ele>68.25</ele><time>2026-04-02T15:14:00.974Z</time></trkpt><trkpt lat="45.82265" lon="12.2457133"><ele>68.5</ele><time>2026-04-02T15:14:01.975Z</time></trkpt><trkpt lat="45.822545" lon="12.2458467"><ele>68.75</ele><time>2026-04-02T15:14:02.974Z</time></trkpt><trkpt lat="45.8224317" lon="12.245965"><ele>69.0</ele><time>2026-04-02T15:14:03.975Z</time></trkpt><trkpt lat="45.8221633" lon="12.2461667"><ele>69.0</ele><time>2026-04-02T15:14:05.975Z</time></trkpt><trkpt lat="45.8220117" lon="12.24625"><ele>69.0</ele><time>2026-04-02T15:14:06.975Z</time></trkpt><trkpt lat="45.8218717" lon="12.2463267"><ele>69.0</ele><time>2026-04-02T15:14:07.975Z</time></trkpt><trkpt lat="45.8217433" lon="12.2464217"><ele>68.25</ele><time>2026-04-02T15:14:08.974Z</time></trkpt><trkpt lat="45.8216267" lon="12.2465367"><ele>67.5</ele><time>2026-04-02T15:14:09.975Z</time></trkpt><trkpt lat="45.8215233" lon="12.2466283"><ele>66.75</ele><time>2026-04-02T15:14:10.974Z</time></trkpt><trkpt lat="45.8214283" lon="12.2467133"><ele>66.0</ele><time>2026-04-02T15:14:11.975Z</time></trkpt><trkpt lat="45.8213233" lon="12.2468067"><ele>66.0</ele><time>2026-04-02T15:14:12.975Z</time></trkpt><trkpt lat="45.8212067" lon="12.2468867"><ele>66.0</ele><time>2026-04-02T15:14:13.975Z</time></trkpt><trkpt lat="45.821095" lon="12.246945"><ele>66.0</ele><time>2026-04-02T15:14:14.975Z</time></trkpt><trkpt lat="45.8209767" lon="12.2469883"><ele>66.0</ele><time>2026-04-02T15:14:15.975Z</time></trkpt><trkpt lat="45.8208767" lon="12.2470283"><ele>66.0</ele><time>2026-04-02T15:14:16.975Z</time></trkpt><trkpt lat="45.820775" lon="12.24709"><ele>66.0</ele><time>2026-04-02T15:14:17.975Z</time></trkpt><trkpt lat="45.8206617" lon="12.247165"><ele>66.0</ele><time>2026-04-02T15:14:18.975Z</time></trkpt><trkpt lat="45.82056" lon="12.24726"><ele>66.0</ele><time>2026-04-02T15:14:19.975Z</time></trkpt><trkpt lat="45.8204417" lon="12.24737"><ele>66.0</ele><time>2026-04-02T15:14:20.975Z</time></trkpt><trkpt lat="45.820325" lon="12.2474467"><ele>66.0</ele><time>2026-04-02T15:14:21.975Z</time></trkpt><trkpt lat="45.820205" lon="12.2475433"><ele>66.0</ele><time>2026-04-02T15:14:22.974Z</time></trkpt><trkpt lat="45.8200817" lon="12.2476433"><ele>66.0</ele><time>2026-04-02T15:14:23.975Z</time></trkpt><trkpt lat="45.81997" lon="12.2477267"><ele>66.33333333333333</ele><time>2026-04-02T15:14:24.975Z</time></trkpt><trkpt lat="45.819755" lon="12.247945"><ele>66.66666666666666</ele><time>2026-04-02T15:14:26.975Z</time></trkpt><trkpt lat="45.81968" lon="12.2480583"><ele>67.0</ele><time>2026-04-02T15:14:27.975Z</time></trkpt><trkpt lat="45.8195667" lon="12.2482267"><ele>67.0</ele><time>2026-04-02T15:14:29.975Z</time></trkpt><trkpt lat="45.8195083" lon="12.24836"><ele>67.0</ele><time>2026-04-02T15:14:30.975Z</time></trkpt><trkpt lat="45.8194517" lon="12.24854"><ele>67.0</ele><time>2026-04-02T15:14:31.975Z</time></trkpt><trkpt lat="45.8194" lon="12.2487117"><ele>67.0</ele><time>2026-04-02T15:14:32.974Z</time></trkpt><trkpt lat="45.8193433" lon="12.2488783"><ele>67.0</ele><time>2026-04-02T15:14:33.975Z</time></trkpt><trkpt lat="45.8192883" lon="12.24904"><ele>67.0</ele><time>2026-04-02T15:14:34.975Z</time></trkpt><trkpt lat="45.8192217" lon="12.2491817"><ele>67.0</ele><time>2026-04-02T15:14:35.975Z</time></trkpt><trkpt lat="45.819165" lon="12.2492883"><ele>67.0</ele><time>2026-04-02T15:14:36.975Z</time></trkpt><trkpt lat="45.8190883" lon="12.2494017"><ele>67.0</ele><time>2026-04-02T15:14:37.975Z</time></trkpt><trkpt lat="45.8189767" lon="12.2495383"><ele>67.0</ele><time>2026-04-02T15:14:38.974Z</time></trkpt><trkpt lat="45.81887" lon="12.249675"><ele>67.0</ele><time>2026-04-02T15:14:39.975Z</time></trkpt><trkpt lat="45.818765" lon="12.24984"><ele>67.0</ele><time>2026-04-02T15:14:40.975Z</time></trkpt><trkpt lat="45.8186617" lon="12.2500183"><ele>67.0</ele><time>2026-04-02T15:14:41.975Z</time></trkpt><trkpt lat="45.8185567" lon="12.25018"><ele>67.0</ele><time>2026-04-02T15:14:42.975Z</time></trkpt><trkpt lat="45.8184567" lon="12.2503317"><ele>67.0</ele><time>2026-04-02T15:14:43.975Z</time></trkpt><trkpt lat="45.8183633" lon="12.2504717"><ele>67.0</ele><time>2026-04-02T15:14:44.975Z</time></trkpt><trkpt lat="45.8182733" lon="12.2506"><ele>66.6</ele><time>2026-04-02T15:14:45.975Z</time></trkpt><trkpt lat="45.8181317" lon="12.2508033"><ele>66.2</ele><time>2026-04-02T15:14:47.975Z</time></trkpt><trkpt lat="45.8180817" lon="12.2508833"><ele>65.8</ele><time>2026-04-02T15:14:48.975Z</time></trkpt><trkpt lat="45.818035" lon="12.2509583"><ele>65.4</ele><time>2026-04-02T15:14:49.974Z</time></trkpt><trkpt lat="45.81798" lon="12.251045"><ele>65.0</ele><time>2026-04-02T15:14:51.974Z</time></trkpt><trkpt lat="45.8179283" lon="12.2511617"><ele>65.0</ele><time>2026-04-02T15:14:53.975Z</time></trkpt><trkpt lat="45.8178667" lon="12.2512617"><ele>65.0</ele><time>2026-04-02T15:14:55.975Z</time></trkpt><trkpt lat="45.8178033" lon="12.2513117"><ele>65.0</ele><time>2026-04-02T15:14:57.975Z</time></trkpt><trkpt lat="45.8177317" lon="12.2512517"><ele>65.0</ele><time>2026-04-02T15:14:59.975Z</time></trkpt><trkpt lat="45.8176983" lon="12.2511733"><ele>65.0</ele><time>2026-04-02T15:15:00.975Z</time></trkpt><trkpt lat="45.8176317" lon="12.25112"><ele>65.0</ele><time>2026-04-02T15:15:01.974Z</time></trkpt><trkpt lat="45.8175667" lon="12.251085"><ele>64.5</ele><time>2026-04-02T15:15:02.974Z</time></trkpt><trkpt lat="45.8174967" lon="12.2510633"><ele>64.0</ele><time>2026-04-02T15:15:03.975Z</time></trkpt><trkpt lat="45.8174083" lon="12.2510717"><ele>63.5</ele><time>2026-04-02T15:15:05.974Z</time></trkpt><trkpt lat="45.81733" lon="12.2511183"><ele>63.0</ele><time>2026-04-02T15:15:07.975Z</time></trkpt><trkpt lat="45.8172117" lon="12.2513983"><ele>63.0</ele><time>2026-04-02T15:15:10.975Z</time></trkpt><trkpt lat="45.8171633" lon="12.2515267"><ele>63.0</ele><time>2026-04-02T15:15:11.975Z</time></trkpt><trkpt lat="45.817095" lon="12.2516833"><ele>63.0</ele><time>2026-04-02T15:15:12.975Z</time></trkpt><trkpt lat="45.8170433" lon="12.251845"><ele>63.0</ele><time>2026-04-02T15:15:13.975Z</time></trkpt><trkpt lat="45.8169983" lon="12.2520067"><ele>63.0</ele><time>2026-04-02T15:15:14.975Z</time></trkpt><trkpt lat="45.8169767" lon="12.2521567"><ele>63.0</ele><time>2026-04-02T15:15:15.975Z</time></trkpt><trkpt lat="45.8169633" lon="12.2522933"><ele>63.0</ele><time>2026-04-02T15:15:16.975Z</time></trkpt><trkpt lat="45.8169617" lon="12.2524383"><ele>63.0</ele><time>2026-04-02T15:15:17.975Z</time></trkpt><trkpt lat="45.816965" lon="12.2525767"><ele>63.0</ele><time>2026-04-02T15:15:18.975Z</time></trkpt><trkpt lat="45.81698" lon="12.25268"><ele>63.0</ele><time>2026-04-02T15:15:19.975Z</time></trkpt><trkpt lat="45.8170033" lon="12.252775"><ele>63.0</ele><time>2026-04-02T15:15:20.975Z</time></trkpt><trkpt lat="45.817025" lon="12.2528633"><ele>63.0</ele><time>2026-04-02T15:15:21.975Z</time></trkpt><trkpt lat="45.81707" lon="12.253015"><ele>63.0</ele><time>2026-04-02T15:15:23.974Z</time></trkpt><trkpt lat="45.817105" lon="12.253145"><ele>63.0</ele><time>2026-04-02T15:15:25.974Z</time></trkpt><trkpt lat="45.8171517" lon="12.2532833"><ele>63.75</ele><time>2026-04-02T15:15:27.975Z</time></trkpt><trkpt lat="45.8172133" lon="12.25344"><ele>64.5</ele><time>2026-04-02T15:15:29.975Z</time></trkpt><trkpt lat="45.8172833" lon="12.2536483"><ele>65.25</ele><time>2026-04-02T15:15:31.974Z</time></trkpt><trkpt lat="45.8173083" lon="12.2537583"><ele>66.0</ele><time>2026-04-02T15:15:32.975Z</time></trkpt><trkpt lat="45.81732" lon="12.2538767"><ele>66.0</ele><time>2026-04-02T15:15:33.974Z</time></trkpt><trkpt lat="45.817315" lon="12.2539767"><ele>66.0</ele><time>2026-04-02T15:15:34.975Z</time></trkpt><trkpt lat="45.8172983" lon="12.2541"><ele>66.0</ele><time>2026-04-02T15:15:35.975Z</time></trkpt><trkpt lat="45.8172733" lon="12.2542433"><ele>66.0</ele><time>2026-04-02T15:15:36.975Z</time></trkpt><trkpt lat="45.817245" lon="12.2544233"><ele>66.0</ele><time>2026-04-02T15:15:37.975Z</time></trkpt><trkpt lat="45.81721" lon="12.2545817"><ele>66.0</ele><time>2026-04-02T15:15:38.974Z</time></trkpt><trkpt lat="45.8171733" lon="12.2547283"><ele>66.0</ele><time>2026-04-02T15:15:39.975Z</time></trkpt><trkpt lat="45.81712" lon="12.254865"><ele>66.0</ele><time>2026-04-02T15:15:40.975Z</time></trkpt><trkpt lat="45.8170317" lon="12.255005"><ele>66.0</ele><time>2026-04-02T15:15:41.974Z</time></trkpt><trkpt lat="45.8169267" lon="12.2551167"><ele>66.0</ele><time>2026-04-02T15:15:42.974Z</time></trkpt><trkpt lat="45.8168383" lon="12.2552167"><ele>66.0</ele><time>2026-04-02T15:15:43.975Z</time></trkpt><trkpt lat="45.81676" lon="12.2553133"><ele>66.0</ele><time>2026-04-02T15:15:44.975Z</time></trkpt><trkpt lat="45.8166817" lon="12.2554217"><ele>66.0</ele><time>2026-04-02T15:15:45.974Z</time></trkpt><trkpt lat="45.8166167" lon="12.2555117"><ele>66.0</ele><time>2026-04-02T15:15:46.975Z</time></trkpt><trkpt lat="45.8165283" lon="12.2556133"><ele>65.25</ele><time>2026-04-02T15:15:47.974Z</time></trkpt><trkpt lat="45.8164517" lon="12.2557317"><ele>64.5</ele><time>2026-04-02T15:15:48.975Z</time></trkpt><trkpt lat="45.8163733" lon="12.255845"><ele>63.75</ele><time>2026-04-02T15:15:49.975Z</time></trkpt><trkpt lat="45.8162833" lon="12.2559467"><ele>63.0</ele><time>2026-04-02T15:15:50.975Z</time></trkpt><trkpt lat="45.81607" lon="12.25611"><ele>63.0</ele><time>2026-04-02T15:15:52.975Z</time></trkpt><trkpt lat="45.8159483" lon="12.25618"><ele>63.0</ele><time>2026-04-02T15:15:53.975Z</time></trkpt><trkpt lat="45.8158317" lon="12.2562617"><ele>63.0</ele><time>2026-04-02T15:15:54.975Z</time></trkpt><trkpt lat="45.8157183" lon="12.25635"><ele>63.0</ele><time>2026-04-02T15:15:55.974Z</time></trkpt><trkpt lat="45.8156167" lon="12.2564467"><ele>62.8</ele><time>2026-04-02T15:15:56.974Z</time></trkpt><trkpt lat="45.8155183" lon="12.2565417"><ele>62.599999999999994</ele><time>2026-04-02T15:15:57.975Z</time></trkpt><trkpt lat="45.8154267" lon="12.2566033"><ele>62.400000000000006</ele><time>2026-04-02T15:15:58.975Z</time></trkpt><trkpt lat="45.8153283" lon="12.2566483"><ele>62.2</ele><time>2026-04-02T15:15:59.975Z</time></trkpt><trkpt lat="45.8152317" lon="12.2566367"><ele>62.0</ele><time>2026-04-02T15:16:00.975Z</time></trkpt><trkpt lat="45.8151283" lon="12.2565983"><ele>61.8</ele><time>2026-04-02T15:16:01.975Z</time></trkpt><trkpt lat="45.8150283" lon="12.2565667"><ele>61.6</ele><time>2026-04-02T15:16:02.975Z</time></trkpt><trkpt lat="45.8149233" lon="12.2565317"><ele>61.39999999999999</ele><time>2026-04-02T15:16:03.973Z</time></trkpt><trkpt lat="45.814825" lon="12.2565033"><ele>61.199999999999996</ele><time>2026-04-02T15:16:04.973Z</time></trkpt><trkpt lat="45.81473" lon="12.256495"><ele>61.0</ele><time>2026-04-02T15:16:05.973Z</time></trkpt><trkpt lat="45.8146333" lon="12.2565217"><ele>61.0</ele><time>2026-04-02T15:16:06.974Z</time></trkpt><trkpt lat="45.814535" lon="12.2565583"><ele>60.99999999999999</ele><time>2026-04-02T15:16:07.974Z</time></trkpt><trkpt lat="45.8144233" lon="12.256605"><ele>60.99999999999999</ele><time>2026-04-02T15:16:08.974Z</time></trkpt><trkpt lat="45.814315" lon="12.25665"><ele>61.0</ele><time>2026-04-02T15:16:09.974Z</time></trkpt><trkpt lat="45.814225" lon="12.2567"><ele>61.0</ele><time>2026-04-02T15:16:10.974Z</time></trkpt><trkpt lat="45.8141317" lon="12.25674"><ele>60.599999999999994</ele><time>2026-04-02T15:16:11.973Z</time></trkpt><trkpt lat="45.8139733" lon="12.2568467"><ele>60.199999999999996</ele><time>2026-04-02T15:16:13.973Z</time></trkpt><trkpt lat="45.8138933" lon="12.2569117"><ele>59.800000000000004</ele><time>2026-04-02T15:16:14.974Z</time></trkpt><trkpt lat="45.8138083" lon="12.25697"><ele>59.400000000000006</ele><time>2026-04-02T15:16:15.974Z</time></trkpt><trkpt lat="45.8137267" lon="12.2570183"><ele>59.0</ele><time>2026-04-02T15:16:16.974Z</time></trkpt><trkpt lat="45.8136617" lon="12.257075"><ele>59.00000000000001</ele><time>2026-04-02T15:16:17.974Z</time></trkpt><trkpt lat="45.8136" lon="12.25714"><ele>59.0</ele><time>2026-04-02T15:16:18.974Z</time></trkpt><trkpt lat="45.8135433" lon="12.2572"><ele>59.0</ele><time>2026-04-02T15:16:19.974Z</time></trkpt><trkpt lat="45.8134883" lon="12.257255"><ele>59.0</ele><time>2026-04-02T15:16:20.974Z</time></trkpt><trkpt lat="45.8134233" lon="12.2573317"><ele>59.00000000000001</ele><time>2026-04-02T15:16:21.974Z</time></trkpt><trkpt lat="45.81334" lon="12.2574133"><ele>59.0</ele><time>2026-04-02T15:16:22.974Z</time></trkpt><trkpt lat="45.8132517" lon="12.2574833"><ele>59.400000000000006</ele><time>2026-04-02T15:16:23.973Z</time></trkpt><trkpt lat="45.8131517" lon="12.2575867"><ele>59.800000000000004</ele><time>2026-04-02T15:16:24.974Z</time></trkpt><trkpt lat="45.8130617" lon="12.2576767"><ele>60.199999999999996</ele><time>2026-04-02T15:16:25.974Z</time></trkpt><trkpt lat="45.8129833" lon="12.2577533"><ele>60.599999999999994</ele><time>2026-04-02T15:16:26.974Z</time></trkpt><trkpt lat="45.8129167" lon="12.2578283"><ele>61.0</ele><time>2026-04-02T15:16:27.974Z</time></trkpt><trkpt lat="45.8128467" lon="12.257905"><ele>61.0</ele><time>2026-04-02T15:16:28.974Z</time></trkpt><trkpt lat="45.8127817" lon="12.25798"><ele>60.99999999999999</ele><time>2026-04-02T15:16:29.974Z</time></trkpt><trkpt lat="45.8127267" lon="12.2580533"><ele>60.99999999999999</ele><time>2026-04-02T15:16:30.974Z</time></trkpt><trkpt lat="45.81267" lon="12.25812"><ele>61.0</ele><time>2026-04-02T15:16:31.974Z</time></trkpt><trkpt lat="45.8125883" lon="12.2582033"><ele>61.0</ele><time>2026-04-02T15:16:33.974Z</time></trkpt><trkpt lat="45.812465" lon="12.25838"><ele>61.0</ele><time>2026-04-02T15:16:38.973Z</time></trkpt><trkpt lat="45.8123617" lon="12.2584367"><ele>60.99999999999999</ele><time>2026-04-02T15:16:40.974Z</time></trkpt><trkpt lat="45.8122867" lon="12.2585367"><ele>60.99999999999999</ele><time>2026-04-02T15:16:42.974Z</time></trkpt><trkpt lat="45.8121883" lon="12.2585783"><ele>61.0</ele><time>2026-04-02T15:16:45.974Z</time></trkpt><trkpt lat="45.8121017" lon="12.2585817"><ele>61.0</ele><time>2026-04-02T15:16:47.974Z</time></trkpt><trkpt lat="45.8120317" lon="12.2585983"><ele>61.0</ele><time>2026-04-02T15:16:49.974Z</time></trkpt><trkpt lat="45.811945" lon="12.2586933"><ele>60.99999999999999</ele><time>2026-04-02T15:16:51.974Z</time></trkpt><trkpt lat="45.811895" lon="12.2587767"><ele>60.99999999999999</ele><time>2026-04-02T15:16:52.974Z</time></trkpt><trkpt lat="45.811845" lon="12.2588467"><ele>61.0</ele><time>2026-04-02T15:16:53.973Z</time></trkpt><trkpt lat="45.8117883" lon="12.258915"><ele>61.0</ele><time>2026-04-02T15:16:54.974Z</time></trkpt><trkpt lat="45.81166" lon="12.2589983"><ele>60.8</ele><time>2026-04-02T15:16:56.974Z</time></trkpt><trkpt lat="45.81154" lon="12.2590483"><ele>60.599999999999994</ele><time>2026-04-02T15:16:58.974Z</time></trkpt><trkpt lat="45.811435" lon="12.2590917"><ele>60.4</ele><time>2026-04-02T15:17:00.974Z</time></trkpt><trkpt lat="45.811345" lon="12.2591533"><ele>60.2</ele><time>2026-04-02T15:17:02.973Z</time></trkpt><trkpt lat="45.811285" lon="12.2591833"><ele>60.0</ele><time>2026-04-02T15:17:03.974Z</time></trkpt><trkpt lat="45.8112033" lon="12.2592133"><ele>60.0</ele><time>2026-04-02T15:17:04.974Z</time></trkpt><trkpt lat="45.8111167" lon="12.2592367"><ele>60.0</ele><time>2026-04-02T15:17:05.974Z</time></trkpt><trkpt lat="45.8110433" lon="12.259255"><ele>60.0</ele><time>2026-04-02T15:17:06.974Z</time></trkpt><trkpt lat="45.8109483" lon="12.25929"><ele>60.0</ele><time>2026-04-02T15:17:08.973Z</time></trkpt><trkpt lat="45.81087" lon="12.2593833"><ele>60.0</ele><time>2026-04-02T15:17:10.974Z</time></trkpt><trkpt lat="45.8107933" lon="12.25952"><ele>60.0</ele><time>2026-04-02T15:17:12.974Z</time></trkpt><trkpt lat="45.810745" lon="12.2595833"><ele>60.0</ele><time>2026-04-02T15:17:13.974Z</time></trkpt><trkpt lat="45.8106833" lon="12.259625"><ele>60.0</ele><time>2026-04-02T15:17:14.974Z</time></trkpt><trkpt lat="45.8105717" lon="12.2596933"><ele>60.0</ele><time>2026-04-02T15:17:16.974Z</time></trkpt><trkpt lat="45.8103783" lon="12.2597933"><ele>60.0</ele><time>2026-04-02T15:17:20.974Z</time></trkpt><trkpt lat="45.8102783" lon="12.2599083"><ele>60.0</ele><time>2026-04-02T15:17:22.973Z</time></trkpt><trkpt lat="45.8101883" lon="12.2600183"><ele>60.0</ele><time>2026-04-02T15:17:24.974Z</time></trkpt><trkpt lat="45.8101067" lon="12.260145"><ele>60.0</ele><time>2026-04-02T15:17:26.974Z</time></trkpt><trkpt lat="45.8100267" lon="12.2602267"><ele>60.0</ele><time>2026-04-02T15:17:28.973Z</time></trkpt><trkpt lat="45.8099367" lon="12.2602667"><ele>60.0</ele><time>2026-04-02T15:17:30.974Z</time></trkpt><trkpt lat="45.8098167" lon="12.2603483"><ele>60.0</ele><time>2026-04-02T15:17:32.974Z</time></trkpt><trkpt lat="45.8097417" lon="12.2603983"><ele>60.0</ele><time>2026-04-02T15:17:33.974Z</time></trkpt><trkpt lat="45.8096517" lon="12.26044"><ele>60.0</ele><time>2026-04-02T15:17:34.974Z</time></trkpt><trkpt lat="45.80955" lon="12.26048"><ele>60.0</ele><time>2026-04-02T15:17:35.974Z</time></trkpt><trkpt lat="45.8094583" lon="12.26052"><ele>60.0</ele><time>2026-04-02T15:17:36.974Z</time></trkpt><trkpt lat="45.80938" lon="12.2605617"><ele>60.0</ele><time>2026-04-02T15:17:37.973Z</time></trkpt><trkpt lat="45.809235" lon="12.26066"><ele>60.0</ele><time>2026-04-02T15:17:39.974Z</time></trkpt><trkpt lat="45.8091533" lon="12.2607517"><ele>60.0</ele><time>2026-04-02T15:17:40.974Z</time></trkpt><trkpt lat="45.8090667" lon="12.2608483"><ele>59.5</ele><time>2026-04-02T15:17:41.974Z</time></trkpt><trkpt lat="45.8089767" lon="12.2609417"><ele>59.0</ele><time>2026-04-02T15:17:42.973Z</time></trkpt><trkpt lat="45.8088367" lon="12.261145"><ele>58.5</ele><time>2026-04-02T15:17:43.973Z</time></trkpt><trkpt lat="45.808725" lon="12.261255"><ele>58.0</ele><time>2026-04-02T15:17:44.973Z</time></trkpt><trkpt lat="45.80862" lon="12.2613733"><ele>58.0</ele><time>2026-04-02T15:17:45.974Z</time></trkpt><trkpt lat="45.8085183" lon="12.2615017"><ele>58.0</ele><time>2026-04-02T15:17:46.974Z</time></trkpt><trkpt lat="45.8084267" lon="12.2616467"><ele>58.0</ele><time>2026-04-02T15:17:47.974Z</time></trkpt><trkpt lat="45.8083383" lon="12.26181"><ele>58.0</ele><time>2026-04-02T15:17:48.974Z</time></trkpt><trkpt lat="45.8082467" lon="12.2619533"><ele>58.0</ele><time>2026-04-02T15:17:49.974Z</time></trkpt><trkpt lat="45.8081733" lon="12.2620817"><ele>58.0</ele><time>2026-04-02T15:17:50.973Z</time></trkpt><trkpt lat="45.8080933" lon="12.2622083"><ele>58.0</ele><time>2026-04-02T15:17:51.974Z</time></trkpt><trkpt lat="45.8080333" lon="12.26232"><ele>58.0</ele><time>2026-04-02T15:17:52.974Z</time></trkpt><trkpt lat="45.8079767" lon="12.26244"><ele>58.0</ele><time>2026-04-02T15:17:53.974Z</time></trkpt><trkpt lat="45.80793" lon="12.2625883"><ele>58.0</ele><time>2026-04-02T15:17:54.974Z</time></trkpt><trkpt lat="45.8078917" lon="12.2627567"><ele>58.0</ele><time>2026-04-02T15:17:55.974Z</time></trkpt><trkpt lat="45.807845" lon="12.2629167"><ele>58.0</ele><time>2026-04-02T15:17:56.974Z</time></trkpt><trkpt lat="45.807795" lon="12.2631183"><ele>58.0</ele><time>2026-04-02T15:17:57.973Z</time></trkpt><trkpt lat="45.8077417" lon="12.2633133"><ele>58.33333333333333</ele><time>2026-04-02T15:17:58.974Z</time></trkpt><trkpt lat="45.80761" lon="12.2636683"><ele>58.66666666666667</ele><time>2026-04-02T15:18:00.974Z</time></trkpt><trkpt lat="45.8075417" lon="12.2638283"><ele>59.0</ele><time>2026-04-02T15:18:01.974Z</time></trkpt><trkpt lat="45.8074683" lon="12.263995"><ele>59.25</ele><time>2026-04-02T15:18:02.974Z</time></trkpt><trkpt lat="45.80737" lon="12.2641367"><ele>59.5</ele><time>2026-04-02T15:18:03.974Z</time></trkpt><trkpt lat="45.8072917" lon="12.2642517"><ele>59.75</ele><time>2026-04-02T15:18:04.974Z</time></trkpt><trkpt lat="45.80721" lon="12.2643383"><ele>60.0</ele><time>2026-04-02T15:18:05.974Z</time></trkpt><trkpt lat="45.8071183" lon="12.264415"><ele>60.0</ele><time>2026-04-02T15:18:06.974Z</time></trkpt><trkpt lat="45.807005" lon="12.2644683"><ele>60.0</ele><time>2026-04-02T15:18:07.973Z</time></trkpt><trkpt lat="45.8068983" lon="12.264505"><ele>60.0</ele><time>2026-04-02T15:18:08.974Z</time></trkpt><trkpt lat="45.8068" lon="12.264565"><ele>60.0</ele><time>2026-04-02T15:18:09.974Z</time></trkpt><trkpt lat="45.8067033" lon="12.264635"><ele>60.0</ele><time>2026-04-02T15:18:10.974Z</time></trkpt><trkpt lat="45.8066067" lon="12.264725"><ele>59.75</ele><time>2026-04-02T15:18:11.974Z</time></trkpt><trkpt lat="45.8065083" lon="12.2648533"><ele>59.5</ele><time>2026-04-02T15:18:12.974Z</time></trkpt><trkpt lat="45.8064083" lon="12.2650017"><ele>59.25</ele><time>2026-04-02T15:18:13.974Z</time></trkpt><trkpt lat="45.80632" lon="12.2651883"><ele>59.0</ele><time>2026-04-02T15:18:14.974Z</time></trkpt><trkpt lat="45.8062233" lon="12.2653867"><ele>59.0</ele><time>2026-04-02T15:18:15.974Z</time></trkpt><trkpt lat="45.8061283" lon="12.2655767"><ele>59.0</ele><time>2026-04-02T15:18:16.974Z</time></trkpt><trkpt lat="45.8060267" lon="12.2657383"><ele>59.0</ele><time>2026-04-02T15:18:17.974Z</time></trkpt><trkpt lat="45.8059317" lon="12.2659017"><ele>58.66666666666667</ele><time>2026-04-02T15:18:18.974Z</time></trkpt><trkpt lat="45.8058417" lon="12.266045"><ele>58.33333333333333</ele><time>2026-04-02T15:18:19.974Z</time></trkpt><trkpt lat="45.8056883" lon="12.26635"><ele>58.0</ele><time>2026-04-02T15:18:21.974Z</time></trkpt><trkpt lat="45.8056167" lon="12.2665033"><ele>58.0</ele><time>2026-04-02T15:18:22.974Z</time></trkpt><trkpt lat="45.80554" lon="12.2666683"><ele>58.0</ele><time>2026-04-02T15:18:23.973Z</time></trkpt><trkpt lat="45.8054567" lon="12.266845"><ele>58.0</ele><time>2026-04-02T15:18:24.974Z</time></trkpt><trkpt lat="45.805375" lon="12.2670233"><ele>58.0</ele><time>2026-04-02T15:18:25.974Z</time></trkpt><trkpt lat="45.805285" lon="12.26721"><ele>57.33333333333333</ele><time>2026-04-02T15:18:26.974Z</time></trkpt><trkpt lat="45.8051917" lon="12.267395"><ele>56.66666666666667</ele><time>2026-04-02T15:18:27.973Z</time></trkpt><trkpt lat="45.8050817" lon="12.26757"><ele>56.0</ele><time>2026-04-02T15:18:28.974Z</time></trkpt><trkpt lat="45.804985" lon="12.2677333"><ele>55.8</ele><time>2026-04-02T15:18:29.974Z</time></trkpt><trkpt lat="45.8048967" lon="12.2678883"><ele>55.599999999999994</ele><time>2026-04-02T15:18:30.974Z</time></trkpt><trkpt lat="45.8048283" lon="12.2680317"><ele>55.4</ele><time>2026-04-02T15:18:31.974Z</time></trkpt><trkpt lat="45.8047667" lon="12.2681533"><ele>55.2</ele><time>2026-04-02T15:18:32.974Z</time></trkpt><trkpt lat="45.8047283" lon="12.2682367"><ele>55.0</ele><time>2026-04-02T15:18:33.973Z</time></trkpt><trkpt lat="45.804695" lon="12.26842"><ele>55.4</ele><time>2026-04-02T15:18:35.974Z</time></trkpt><trkpt lat="45.80475" lon="12.2685017"><ele>55.8</ele><time>2026-04-02T15:18:36.974Z</time></trkpt><trkpt lat="45.804815" lon="12.2686033"><ele>56.2</ele><time>2026-04-02T15:18:37.974Z</time></trkpt><trkpt lat="45.80491" lon="12.2687417"><ele>56.6</ele><time>2026-04-02T15:18:38.973Z</time></trkpt><trkpt lat="45.8049917" lon="12.2688917"><ele>57.0</ele><time>2026-04-02T15:18:39.974Z</time></trkpt><trkpt lat="45.8050567" lon="12.26906"><ele>56.33333333333333</ele><time>2026-04-02T15:18:40.974Z</time></trkpt><trkpt lat="45.805195" lon="12.2694083"><ele>55.666666666666664</ele><time>2026-04-02T15:18:42.974Z</time></trkpt><trkpt lat="45.8052717" lon="12.2695667"><ele>55.0</ele><time>2026-04-02T15:18:43.973Z</time></trkpt><trkpt lat="45.8053867" lon="12.2696983"><ele>55.25</ele><time>2026-04-02T15:18:44.974Z</time></trkpt><trkpt lat="45.80549" lon="12.2698267"><ele>55.5</ele><time>2026-04-02T15:18:45.974Z</time></trkpt><trkpt lat="45.8055883" lon="12.2699567"><ele>55.75</ele><time>2026-04-02T15:18:46.974Z</time></trkpt><trkpt lat="45.8056617" lon="12.2700817"><ele>56.0</ele><time>2026-04-02T15:18:47.973Z</time></trkpt><trkpt lat="45.8057433" lon="12.2702317"><ele>56.0</ele><time>2026-04-02T15:18:48.974Z</time></trkpt><trkpt lat="45.8058317" lon="12.2704133"><ele>56.0</ele><time>2026-04-02T15:18:49.974Z</time></trkpt><trkpt lat="45.80593" lon="12.270615"><ele>56.0</ele><time>2026-04-02T15:18:50.974Z</time></trkpt><trkpt lat="45.806025" lon="12.2708233"><ele>56.0</ele><time>2026-04-02T15:18:51.974Z</time></trkpt><trkpt lat="45.8061033" lon="12.2710317"><ele>56.0</ele><time>2026-04-02T15:18:52.974Z</time></trkpt><trkpt lat="45.8061883" lon="12.2712567"><ele>56.0</ele><time>2026-04-02T15:18:53.973Z</time></trkpt><trkpt lat="45.80626" lon="12.2714767"><ele>56.0</ele><time>2026-04-02T15:18:54.974Z</time></trkpt><trkpt lat="45.8063183" lon="12.2717133"><ele>56.0</ele><time>2026-04-02T15:18:55.974Z</time></trkpt><trkpt lat="45.80639" lon="12.2719083"><ele>56.0</ele><time>2026-04-02T15:18:56.973Z</time></trkpt><trkpt lat="45.806485" lon="12.2720767"><ele>56.0</ele><time>2026-04-02T15:18:57.974Z</time></trkpt><trkpt lat="45.8065767" lon="12.272245"><ele>56.0</ele><time>2026-04-02T15:18:58.974Z</time></trkpt><trkpt lat="45.8066617" lon="12.2724017"><ele>56.0</ele><time>2026-04-02T15:18:59.974Z</time></trkpt><trkpt lat="45.80675" lon="12.27256"><ele>56.0</ele><time>2026-04-02T15:19:00.974Z</time></trkpt><trkpt lat="45.8068467" lon="12.2727183"><ele>55.333333333333336</ele><time>2026-04-02T15:19:01.974Z</time></trkpt><trkpt lat="45.80701" lon="12.2730217"><ele>54.66666666666667</ele><time>2026-04-02T15:19:03.974Z</time></trkpt><trkpt lat="45.807065" lon="12.27317"><ele>54.0</ele><time>2026-04-02T15:19:04.974Z</time></trkpt><trkpt lat="45.8071167" lon="12.2733367"><ele>54.0</ele><time>2026-04-02T15:19:05.974Z</time></trkpt><trkpt lat="45.80716" lon="12.2735233"><ele>54.0</ele><time>2026-04-02T15:19:06.973Z</time></trkpt><trkpt lat="45.807205" lon="12.27372"><ele>54.0</ele><time>2026-04-02T15:19:07.973Z</time></trkpt><trkpt lat="45.8072417" lon="12.2739133"><ele>54.0</ele><time>2026-04-02T15:19:08.974Z</time></trkpt><trkpt lat="45.8073" lon="12.2741183"><ele>54.25</ele><time>2026-04-02T15:19:09.974Z</time></trkpt><trkpt lat="45.8073533" lon="12.2743017"><ele>54.5</ele><time>2026-04-02T15:19:10.973Z</time></trkpt><trkpt lat="45.8074" lon="12.2744667"><ele>54.75</ele><time>2026-04-02T15:19:11.974Z</time></trkpt><trkpt lat="45.8074517" lon="12.27461"><ele>55.0</ele><time>2026-04-02T15:19:12.974Z</time></trkpt><trkpt lat="45.8075017" lon="12.2747367"><ele>55.0</ele><time>2026-04-02T15:19:13.974Z</time></trkpt><trkpt lat="45.8075483" lon="12.2748833"><ele>55.0</ele><time>2026-04-02T15:19:14.974Z</time></trkpt><trkpt lat="45.807605" lon="12.2750617"><ele>55.0</ele><time>2026-04-02T15:19:15.974Z</time></trkpt><trkpt lat="45.8076667" lon="12.275235"><ele>55.0</ele><time>2026-04-02T15:19:16.973Z</time></trkpt><trkpt lat="45.807735" lon="12.2753917"><ele>55.0</ele><time>2026-04-02T15:19:17.974Z</time></trkpt><trkpt lat="45.8078017" lon="12.275545"><ele>55.0</ele><time>2026-04-02T15:19:18.974Z</time></trkpt><trkpt lat="45.8078583" lon="12.27571"><ele>55.0</ele><time>2026-04-02T15:19:19.974Z</time></trkpt><trkpt lat="45.807925" lon="12.275885"><ele>55.0</ele><time>2026-04-02T15:19:20.974Z</time></trkpt><trkpt lat="45.80801" lon="12.2760783"><ele>55.0</ele><time>2026-04-02T15:19:21.974Z</time></trkpt><trkpt lat="45.808065" lon="12.2762783"><ele>55.0</ele><time>2026-04-02T15:19:22.974Z</time></trkpt><trkpt lat="45.8081533" lon="12.2767083"><ele>54.5</ele><time>2026-04-02T15:19:24.974Z</time></trkpt><trkpt lat="45.8081717" lon="12.2769183"><ele>54.0</ele><time>2026-04-02T15:19:25.973Z</time></trkpt><trkpt lat="45.8082117" lon="12.2771"><ele>53.5</ele><time>2026-04-02T15:19:26.974Z</time></trkpt><trkpt lat="45.808245" lon="12.2772817"><ele>53.0</ele><time>2026-04-02T15:19:27.974Z</time></trkpt><trkpt lat="45.8082867" lon="12.2774333"><ele>53.00000000000001</ele><time>2026-04-02T15:19:28.974Z</time></trkpt><trkpt lat="45.8083433" lon="12.2775367"><ele>53.0</ele><time>2026-04-02T15:19:29.973Z</time></trkpt><trkpt lat="45.8083983" lon="12.277635"><ele>53.0</ele><time>2026-04-02T15:19:30.973Z</time></trkpt><trkpt lat="45.80846" lon="12.2777267"><ele>53.0</ele><time>2026-04-02T15:19:31.974Z</time></trkpt><trkpt lat="45.8084917" lon="12.2778383"><ele>53.00000000000001</ele><time>2026-04-02T15:19:32.973Z</time></trkpt><trkpt lat="45.8085067" lon="12.2779433"><ele>53.0</ele><time>2026-04-02T15:19:33.974Z</time></trkpt><trkpt lat="45.808495" lon="12.2780633"><ele>53.16666666666667</ele><time>2026-04-02T15:19:34.974Z</time></trkpt><trkpt lat="45.80848" lon="12.27819"><ele>53.333333333333336</ele><time>2026-04-02T15:19:35.974Z</time></trkpt><trkpt lat="45.808455" lon="12.2782867"><ele>53.5</ele><time>2026-04-02T15:19:36.973Z</time></trkpt><trkpt lat="45.808415" lon="12.2783567"><ele>53.66666666666667</ele><time>2026-04-02T15:19:37.973Z</time></trkpt><trkpt lat="45.808345" lon="12.278385"><ele>53.833333333333336</ele><time>2026-04-02T15:19:38.974Z</time></trkpt><trkpt lat="45.8082617" lon="12.2784617"><ele>54.0</ele><time>2026-04-02T15:19:40.973Z</time></trkpt><trkpt lat="45.8081967" lon="12.2784883"><ele>54.0</ele><time>2026-04-02T15:20:20.973Z</time></trkpt><trkpt lat="45.8080483" lon="12.2785267"><ele>54.0</ele><time>2026-04-02T15:20:22.973Z</time></trkpt><trkpt lat="45.807895" lon="12.2786117"><ele>54.0</ele><time>2026-04-02T15:20:23.973Z</time></trkpt><trkpt lat="45.8077783" lon="12.278665"><ele>54.0</ele><time>2026-04-02T15:20:24.973Z</time></trkpt><trkpt lat="45.807635" lon="12.2787283"><ele>54.0</ele><time>2026-04-02T15:20:25.973Z</time></trkpt><trkpt lat="45.8074783" lon="12.278795"><ele>54.0</ele><time>2026-04-02T15:20:26.973Z</time></trkpt><trkpt lat="45.8073183" lon="12.2788483"><ele>54.0</ele><time>2026-04-02T15:20:27.973Z</time></trkpt><trkpt lat="45.807135" lon="12.2789083"><ele>53.66666666666667</ele><time>2026-04-02T15:20:28.973Z</time></trkpt><trkpt lat="45.8069533" lon="12.2789467"><ele>53.333333333333336</ele><time>2026-04-02T15:20:29.973Z</time></trkpt><trkpt lat="45.8067767" lon="12.27896"><ele>53.0</ele><time>2026-04-02T15:20:30.973Z</time></trkpt><trkpt lat="45.8065817" lon="12.27895"><ele>53.0</ele><time>2026-04-02T15:20:31.972Z</time></trkpt><trkpt lat="45.806395" lon="12.2789617"><ele>53.0</ele><time>2026-04-02T15:20:32.972Z</time></trkpt><trkpt lat="45.806185" lon="12.2790117"><ele>53.0</ele><time>2026-04-02T15:20:33.972Z</time></trkpt><trkpt lat="45.805995" lon="12.2790583"><ele>53.333333333333336</ele><time>2026-04-02T15:20:34.973Z</time></trkpt><trkpt lat="45.8057983" lon="12.2791117"><ele>53.66666666666667</ele><time>2026-04-02T15:20:35.973Z</time></trkpt><trkpt lat="45.8056017" lon="12.279145"><ele>54.0</ele><time>2026-04-02T15:20:36.973Z</time></trkpt><trkpt lat="45.8054017" lon="12.2791833"><ele>54.0</ele><time>2026-04-02T15:20:37.973Z</time></trkpt><trkpt lat="45.8051967" lon="12.279245"><ele>54.0</ele><time>2026-04-02T15:20:38.973Z</time></trkpt><trkpt lat="45.804995" lon="12.2793133"><ele>54.0</ele><time>2026-04-02T15:20:39.973Z</time></trkpt><trkpt lat="45.804795" lon="12.2793833"><ele>53.0</ele><time>2026-04-02T15:20:40.973Z</time></trkpt><trkpt lat="45.8045983" lon="12.2794417"><ele>52.0</ele><time>2026-04-02T15:20:41.973Z</time></trkpt><trkpt lat="45.804265" lon="12.2795267"><ele>52.0</ele><time>2026-04-02T15:20:43.973Z</time></trkpt><trkpt lat="45.8041167" lon="12.2795983"><ele>52.0</ele><time>2026-04-02T15:20:44.973Z</time></trkpt><trkpt lat="45.8039917" lon="12.2796783"><ele>52.0</ele><time>2026-04-02T15:20:45.973Z</time></trkpt><trkpt lat="45.8038917" lon="12.2797767"><ele>52.0</ele><time>2026-04-02T15:20:46.973Z</time></trkpt><trkpt lat="45.8038183" lon="12.2798867"><ele>52.6</ele><time>2026-04-02T15:20:47.973Z</time></trkpt><trkpt lat="45.80376" lon="12.2800117"><ele>53.2</ele><time>2026-04-02T15:20:48.973Z</time></trkpt><trkpt lat="45.8036733" lon="12.2801467"><ele>53.8</ele><time>2026-04-02T15:20:49.972Z</time></trkpt><trkpt lat="45.80362" lon="12.2802633"><ele>54.4</ele><time>2026-04-02T15:20:50.972Z</time></trkpt><trkpt lat="45.8035817" lon="12.2804117"><ele>55.0</ele><time>2026-04-02T15:20:51.973Z</time></trkpt><trkpt lat="45.8035433" lon="12.2805467"><ele>55.166666666666664</ele><time>2026-04-02T15:20:52.973Z</time></trkpt><trkpt lat="45.8035117" lon="12.2806583"><ele>55.33333333333333</ele><time>2026-04-02T15:20:53.972Z</time></trkpt><trkpt lat="45.8034817" lon="12.280765"><ele>55.5</ele><time>2026-04-02T15:20:54.973Z</time></trkpt><trkpt lat="45.803445" lon="12.2808733"><ele>55.66666666666667</ele><time>2026-04-02T15:20:55.972Z</time></trkpt><trkpt lat="45.8034033" lon="12.2809733"><ele>55.833333333333336</ele><time>2026-04-02T15:20:56.973Z</time></trkpt><trkpt lat="45.8033383" lon="12.2810767"><ele>56.0</ele><time>2026-04-02T15:20:57.973Z</time></trkpt><trkpt lat="45.8032633" lon="12.2811733"><ele>55.5</ele><time>2026-04-02T15:20:58.973Z</time></trkpt><trkpt lat="45.8031617" lon="12.28127"><ele>55.0</ele><time>2026-04-02T15:20:59.973Z</time></trkpt><trkpt lat="45.80306" lon="12.2813817"><ele>54.5</ele><time>2026-04-02T15:21:00.973Z</time></trkpt><trkpt lat="45.8029267" lon="12.281505"><ele>54.0</ele><time>2026-04-02T15:21:01.972Z</time></trkpt><trkpt lat="45.802775" lon="12.28163"><ele>52.5</ele><time>2026-04-02T15:21:02.972Z</time></trkpt><trkpt lat="45.802515" lon="12.2819083"><ele>51.0</ele><time>2026-04-02T15:21:04.973Z</time></trkpt><trkpt lat="45.8023833" lon="12.282065"><ele>51.0</ele><time>2026-04-02T15:21:05.973Z</time></trkpt><trkpt lat="45.802245" lon="12.2822367"><ele>51.0</ele><time>2026-04-02T15:21:06.973Z</time></trkpt><trkpt lat="45.8021083" lon="12.2824133"><ele>51.0</ele><time>2026-04-02T15:21:07.973Z</time></trkpt><trkpt lat="45.8019917" lon="12.2825733"><ele>51.33333333333333</ele><time>2026-04-02T15:21:08.973Z</time></trkpt><trkpt lat="45.8018817" lon="12.28274"><ele>51.666666666666664</ele><time>2026-04-02T15:21:09.972Z</time></trkpt><trkpt lat="45.8018033" lon="12.2829117"><ele>52.0</ele><time>2026-04-02T15:21:10.972Z</time></trkpt><trkpt lat="45.801715" lon="12.2831"><ele>52.0</ele><time>2026-04-02T15:21:11.973Z</time></trkpt><trkpt lat="45.8016333" lon="12.2832833"><ele>52.0</ele><time>2026-04-02T15:21:12.973Z</time></trkpt><trkpt lat="45.8015683" lon="12.2834767"><ele>52.0</ele><time>2026-04-02T15:21:13.972Z</time></trkpt><trkpt lat="45.8015033" lon="12.2836867"><ele>52.0</ele><time>2026-04-02T15:21:14.973Z</time></trkpt><trkpt lat="45.8014333" lon="12.283875"><ele>52.0</ele><time>2026-04-02T15:21:15.973Z</time></trkpt><trkpt lat="45.8013533" lon="12.28405"><ele>52.0</ele><time>2026-04-02T15:21:16.973Z</time></trkpt><trkpt lat="45.8012583" lon="12.2842"><ele>52.0</ele><time>2026-04-02T15:21:17.973Z</time></trkpt><trkpt lat="45.8011533" lon="12.2843533"><ele>52.0</ele><time>2026-04-02T15:21:18.973Z</time></trkpt><trkpt lat="45.8010433" lon="12.2844883"><ele>52.0</ele><time>2026-04-02T15:21:19.973Z</time></trkpt><trkpt lat="45.8009083" lon="12.284625"><ele>52.0</ele><time>2026-04-02T15:21:20.972Z</time></trkpt><trkpt lat="45.8007567" lon="12.28475"><ele>51.666666666666664</ele><time>2026-04-02T15:21:21.972Z</time></trkpt><trkpt lat="45.8005967" lon="12.284865"><ele>51.33333333333333</ele><time>2026-04-02T15:21:22.973Z</time></trkpt><trkpt lat="45.8004233" lon="12.2849267"><ele>51.0</ele><time>2026-04-02T15:21:23.973Z</time></trkpt><trkpt lat="45.8000367" lon="12.28502"><ele>50.66666666666667</ele><time>2026-04-02T15:21:25.973Z</time></trkpt><trkpt lat="45.7998383" lon="12.2850683"><ele>50.333333333333336</ele><time>2026-04-02T15:21:26.973Z</time></trkpt><trkpt lat="45.7996633" lon="12.2851433"><ele>50.0</ele><time>2026-04-02T15:21:27.973Z</time></trkpt><trkpt lat="45.7995017" lon="12.2852317"><ele>50.0</ele><time>2026-04-02T15:21:28.973Z</time></trkpt><trkpt lat="45.7993467" lon="12.2853283"><ele>50.0</ele><time>2026-04-02T15:21:29.972Z</time></trkpt><trkpt lat="45.799185" lon="12.2854367"><ele>50.0</ele><time>2026-04-02T15:21:30.973Z</time></trkpt><trkpt lat="45.79902" lon="12.2855617"><ele>50.66666666666667</ele><time>2026-04-02T15:21:31.972Z</time></trkpt><trkpt lat="45.7988767" lon="12.2857033"><ele>51.33333333333333</ele><time>2026-04-02T15:21:32.972Z</time></trkpt><trkpt lat="45.7987283" lon="12.2858717"><ele>52.0</ele><time>2026-04-02T15:21:33.973Z</time></trkpt><trkpt lat="45.7985783" lon="12.2860467"><ele>51.666666666666664</ele><time>2026-04-02T15:21:34.972Z</time></trkpt><trkpt lat="45.79843" lon="12.2861717"><ele>51.33333333333333</ele><time>2026-04-02T15:21:35.972Z</time></trkpt><trkpt lat="45.798265" lon="12.2862733"><ele>51.0</ele><time>2026-04-02T15:21:36.973Z</time></trkpt><trkpt lat="45.798105" lon="12.2863733"><ele>51.0</ele><time>2026-04-02T15:21:37.973Z</time></trkpt><trkpt lat="45.7979483" lon="12.28648"><ele>51.0</ele><time>2026-04-02T15:21:38.973Z</time></trkpt><trkpt lat="45.7978017" lon="12.2865833"><ele>51.0</ele><time>2026-04-02T15:21:39.972Z</time></trkpt><trkpt lat="45.7976633" lon="12.2867067"><ele>50.5</ele><time>2026-04-02T15:21:40.972Z</time></trkpt><trkpt lat="45.79755" lon="12.286835"><ele>50.0</ele><time>2026-04-02T15:21:41.973Z</time></trkpt><trkpt lat="45.7974683" lon="12.28696"><ele>49.5</ele><time>2026-04-02T15:21:42.973Z</time></trkpt><trkpt lat="45.7974133" lon="12.2870867"><ele>49.0</ele><time>2026-04-02T15:21:43.972Z</time></trkpt><trkpt lat="45.7974117" lon="12.2872383"><ele>49.33333333333333</ele><time>2026-04-02T15:21:44.973Z</time></trkpt><trkpt lat="45.7974333" lon="12.2875783"><ele>49.66666666666667</ele><time>2026-04-02T15:21:46.972Z</time></trkpt><trkpt lat="45.797415" lon="12.28777"><ele>50.0</ele><time>2026-04-02T15:21:47.973Z</time></trkpt><trkpt lat="45.7974083" lon="12.2879833"><ele>50.25</ele><time>2026-04-02T15:21:48.973Z</time></trkpt><trkpt lat="45.7974" lon="12.2881967"><ele>50.5</ele><time>2026-04-02T15:21:49.972Z</time></trkpt><trkpt lat="45.7973867" lon="12.2883933"><ele>50.75</ele><time>2026-04-02T15:21:50.973Z</time></trkpt><trkpt lat="45.7973683" lon="12.288585"><ele>51.0</ele><time>2026-04-02T15:21:51.973Z</time></trkpt><trkpt lat="45.7973417" lon="12.2887367"><ele>51.0</ele><time>2026-04-02T15:21:52.973Z</time></trkpt><trkpt lat="45.7973133" lon="12.2888617"><ele>51.0</ele><time>2026-04-02T15:21:53.973Z</time></trkpt><trkpt lat="45.79727" lon="12.2889867"><ele>51.0</ele><time>2026-04-02T15:21:54.972Z</time></trkpt><trkpt lat="45.79723" lon="12.28912"><ele>51.0</ele><time>2026-04-02T15:21:55.972Z</time></trkpt><trkpt lat="45.79718" lon="12.28925"><ele>51.0</ele><time>2026-04-02T15:21:56.972Z</time></trkpt><trkpt lat="45.79713" lon="12.2893567"><ele>50.75</ele><time>2026-04-02T15:21:57.972Z</time></trkpt><trkpt lat="45.7970717" lon="12.2894633"><ele>50.5</ele><time>2026-04-02T15:21:58.973Z</time></trkpt><trkpt lat="45.7970033" lon="12.28958"><ele>50.25</ele><time>2026-04-02T15:21:59.973Z</time></trkpt><trkpt lat="45.796935" lon="12.2897217"><ele>50.0</ele><time>2026-04-02T15:22:00.973Z</time></trkpt><trkpt lat="45.796865" lon="12.2898783"><ele>50.0</ele><time>2026-04-02T15:22:01.972Z</time></trkpt><trkpt lat="45.7967867" lon="12.2900467"><ele>50.0</ele><time>2026-04-02T15:22:02.973Z</time></trkpt><trkpt lat="45.7966983" lon="12.2902"><ele>50.0</ele><time>2026-04-02T15:22:03.973Z</time></trkpt><trkpt lat="45.7966067" lon="12.2903317"><ele>50.0</ele><time>2026-04-02T15:22:04.972Z</time></trkpt><trkpt lat="45.7965067" lon="12.2904633"><ele>50.0</ele><time>2026-04-02T15:22:05.973Z</time></trkpt><trkpt lat="45.79631" lon="12.2907083"><ele>50.0</ele><time>2026-04-02T15:22:07.972Z</time></trkpt><trkpt lat="45.79621" lon="12.2908517"><ele>50.0</ele><time>2026-04-02T15:22:08.973Z</time></trkpt><trkpt lat="45.7961233" lon="12.2909933"><ele>50.0</ele><time>2026-04-02T15:22:09.973Z</time></trkpt><trkpt lat="45.796055" lon="12.2911533"><ele>50.0</ele><time>2026-04-02T15:22:10.972Z</time></trkpt><trkpt lat="45.7959933" lon="12.2913283"><ele>50.0</ele><time>2026-04-02T15:22:11.973Z</time></trkpt><trkpt lat="45.7959333" lon="12.2915"><ele>50.0</ele><time>2026-04-02T15:22:12.973Z</time></trkpt><trkpt lat="45.7958633" lon="12.2916567"><ele>49.5</ele><time>2026-04-02T15:22:13.972Z</time></trkpt><trkpt lat="45.795795" lon="12.2918"><ele>49.0</ele><time>2026-04-02T15:22:14.973Z</time></trkpt><trkpt lat="45.7957317" lon="12.291955"><ele>48.5</ele><time>2026-04-02T15:22:15.973Z</time></trkpt><trkpt lat="45.7956567" lon="12.2921083"><ele>48.0</ele><time>2026-04-02T15:22:16.973Z</time></trkpt><trkpt lat="45.795575" lon="12.2922483"><ele>48.25</ele><time>2026-04-02T15:22:17.973Z</time></trkpt><trkpt lat="45.7954817" lon="12.2923767"><ele>48.5</ele><time>2026-04-02T15:22:18.972Z</time></trkpt><trkpt lat="45.7953933" lon="12.2924867"><ele>48.75</ele><time>2026-04-02T15:22:19.973Z</time></trkpt><trkpt lat="45.7953083" lon="12.2926183"><ele>49.0</ele><time>2026-04-02T15:22:20.972Z</time></trkpt><trkpt lat="45.7952067" lon="12.292745"><ele>49.0</ele><time>2026-04-02T15:22:21.973Z</time></trkpt><trkpt lat="45.795105" lon="12.2928783"><ele>49.0</ele><time>2026-04-02T15:22:22.973Z</time></trkpt><trkpt lat="45.79501" lon="12.2930417"><ele>49.0</ele><time>2026-04-02T15:22:23.973Z</time></trkpt><trkpt lat="45.794915" lon="12.2932"><ele>49.0</ele><time>2026-04-02T15:22:24.972Z</time></trkpt><trkpt lat="45.7948267" lon="12.2933433"><ele>49.0</ele><time>2026-04-02T15:22:25.973Z</time></trkpt><trkpt lat="45.794735" lon="12.2934717"><ele>49.0</ele><time>2026-04-02T15:22:26.973Z</time></trkpt><trkpt lat="45.7945883" lon="12.2937"><ele>49.0</ele><time>2026-04-02T15:22:28.973Z</time></trkpt><trkpt lat="45.79453" lon="12.293835"><ele>49.0</ele><time>2026-04-02T15:22:29.972Z</time></trkpt><trkpt lat="45.7944833" lon="12.2939917"><ele>49.0</ele><time>2026-04-02T15:22:30.972Z</time></trkpt><trkpt lat="45.7944117" lon="12.29415"><ele>49.0</ele><time>2026-04-02T15:22:31.973Z</time></trkpt><trkpt lat="45.794365" lon="12.29433"><ele>49.0</ele><time>2026-04-02T15:22:32.973Z</time></trkpt><trkpt lat="45.79432" lon="12.2944933"><ele>48.75</ele><time>2026-04-02T15:22:33.973Z</time></trkpt><trkpt lat="45.7942833" lon="12.29464"><ele>48.5</ele><time>2026-04-02T15:22:34.973Z</time></trkpt><trkpt lat="45.79424" lon="12.2948"><ele>48.25</ele><time>2026-04-02T15:22:35.973Z</time></trkpt><trkpt lat="45.7942067" lon="12.2949717"><ele>48.0</ele><time>2026-04-02T15:22:36.973Z</time></trkpt><trkpt lat="45.7941867" lon="12.2951283"><ele>48.5</ele><time>2026-04-02T15:22:37.973Z</time></trkpt><trkpt lat="45.7941783" lon="12.2953"><ele>49.0</ele><time>2026-04-02T15:22:38.973Z</time></trkpt><trkpt lat="45.794165" lon="12.2954717"><ele>49.5</ele><time>2026-04-02T15:22:39.973Z</time></trkpt><trkpt lat="45.7941517" lon="12.2956583"><ele>50.0</ele><time>2026-04-02T15:22:40.973Z</time></trkpt><trkpt lat="45.7941383" lon="12.295835"><ele>50.25</ele><time>2026-04-02T15:22:41.973Z</time></trkpt><trkpt lat="45.79413" lon="12.29599"><ele>50.5</ele><time>2026-04-02T15:22:42.973Z</time></trkpt><trkpt lat="45.7941133" lon="12.29617"><ele>50.75</ele><time>2026-04-02T15:22:43.973Z</time></trkpt><trkpt lat="45.7941067" lon="12.29634"><ele>51.0</ele><time>2026-04-02T15:22:44.972Z</time></trkpt><trkpt lat="45.79412" lon="12.2965283"><ele>50.33333333333333</ele><time>2026-04-02T15:22:45.973Z</time></trkpt><trkpt lat="45.7941467" lon="12.2967333"><ele>49.666666666666664</ele><time>2026-04-02T15:22:46.973Z</time></trkpt><trkpt lat="45.7941617" lon="12.2969233"><ele>49.0</ele><time>2026-04-02T15:22:47.972Z</time></trkpt><trkpt lat="45.7942033" lon="12.2972467"><ele>48.5</ele><time>2026-04-02T15:22:49.973Z</time></trkpt><trkpt lat="45.79419" lon="12.2974183"><ele>48.0</ele><time>2026-04-02T15:22:50.973Z</time></trkpt><trkpt lat="45.794165" lon="12.2975883"><ele>47.5</ele><time>2026-04-02T15:22:51.973Z</time></trkpt><trkpt lat="45.794135" lon="12.2977567"><ele>47.0</ele><time>2026-04-02T15:22:52.973Z</time></trkpt><trkpt lat="45.7940867" lon="12.2979283"><ele>47.666666666666664</ele><time>2026-04-02T15:22:53.973Z</time></trkpt><trkpt lat="45.794005" lon="12.29812"><ele>48.33333333333333</ele><time>2026-04-02T15:22:54.973Z</time></trkpt><trkpt lat="45.79392" lon="12.298305"><ele>49.0</ele><time>2026-04-02T15:22:55.973Z</time></trkpt><trkpt lat="45.7938183" lon="12.2985083"><ele>49.0</ele><time>2026-04-02T15:22:56.972Z</time></trkpt><trkpt lat="45.79371" lon="12.298715"><ele>49.0</ele><time>2026-04-02T15:22:57.973Z</time></trkpt><trkpt lat="45.7935933" lon="12.2989517"><ele>49.0</ele><time>2026-04-02T15:22:58.973Z</time></trkpt><trkpt lat="45.793415" lon="12.2992183"><ele>48.0</ele><time>2026-04-02T15:22:59.972Z</time></trkpt><trkpt lat="45.7932583" lon="12.29954"><ele>47.0</ele><time>2026-04-02T15:23:00.973Z</time></trkpt><trkpt lat="45.7931533" lon="12.2998233"><ele>47.0</ele><time>2026-04-02T15:23:01.973Z</time></trkpt><trkpt lat="45.79308" lon="12.3000467"><ele>47.0</ele><time>2026-04-02T15:23:02.973Z</time></trkpt><trkpt lat="45.7930183" lon="12.30026"><ele>47.0</ele><time>2026-04-02T15:23:03.972Z</time></trkpt><trkpt lat="45.79298" lon="12.3004517"><ele>47.0</ele><time>2026-04-02T15:23:04.973Z</time></trkpt><trkpt lat="45.792965" lon="12.30063"><ele>47.0</ele><time>2026-04-02T15:23:05.973Z</time></trkpt><trkpt lat="45.792975" lon="12.300825"><ele>47.0</ele><time>2026-04-02T15:23:06.973Z</time></trkpt><trkpt lat="45.79297" lon="12.3010367"><ele>47.0</ele><time>2026-04-02T15:23:07.973Z</time></trkpt><trkpt lat="45.7929717" lon="12.30125"><ele>46.33333333333333</ele><time>2026-04-02T15:23:08.972Z</time></trkpt><trkpt lat="45.7929767" lon="12.3016533"><ele>45.666666666666664</ele><time>2026-04-02T15:23:10.972Z</time></trkpt><trkpt lat="45.7929883" lon="12.3018383"><ele>45.0</ele><time>2026-04-02T15:23:11.973Z</time></trkpt><trkpt lat="45.7929867" lon="12.3020033"><ele>45.0</ele><time>2026-04-02T15:23:12.972Z</time></trkpt><trkpt lat="45.79299" lon="12.3021667"><ele>45.0</ele><time>2026-04-02T15:23:13.973Z</time></trkpt><trkpt lat="45.793005" lon="12.30231"><ele>45.0</ele><time>2026-04-02T15:23:14.973Z</time></trkpt><trkpt lat="45.7930267" lon="12.3024117"><ele>45.0</ele><time>2026-04-02T15:23:15.973Z</time></trkpt><trkpt lat="45.7930733" lon="12.302535"><ele>45.0</ele><time>2026-04-02T15:23:17.973Z</time></trkpt><trkpt lat="45.7931783" lon="12.30257"><ele>44.8</ele><time>2026-04-02T15:23:19.973Z</time></trkpt><trkpt lat="45.7932417" lon="12.302615"><ele>44.6</ele><time>2026-04-02T15:23:20.973Z</time></trkpt><trkpt lat="45.7933583" lon="12.30261"><ele>44.400000000000006</ele><time>2026-04-02T15:23:21.973Z</time></trkpt><trkpt lat="45.7934483" lon="12.3025783"><ele>44.2</ele><time>2026-04-02T15:23:22.972Z</time></trkpt><trkpt lat="45.7935117" lon="12.3025483"><ele>44.0</ele><time>2026-04-02T15:23:23.972Z</time></trkpt><trkpt lat="45.7936167" lon="12.3025667"><ele>44.0</ele><time>2026-04-02T15:23:25.973Z</time></trkpt><trkpt lat="45.793655" lon="12.3026417"><ele>44.0</ele><time>2026-04-02T15:23:26.973Z</time></trkpt><trkpt lat="45.7936817" lon="12.30275"><ele>44.0</ele><time>2026-04-02T15:23:27.972Z</time></trkpt><trkpt lat="45.7936933" lon="12.30288"><ele>44.0</ele><time>2026-04-02T15:23:28.972Z</time></trkpt><trkpt lat="45.7936933" lon="12.30301"><ele>44.0</ele><time>2026-04-02T15:23:29.973Z</time></trkpt><trkpt lat="45.79366" lon="12.3033117"><ele>44.0</ele><time>2026-04-02T15:23:31.973Z</time></trkpt><trkpt lat="45.793645" lon="12.3034567"><ele>44.0</ele><time>2026-04-02T15:23:32.973Z</time></trkpt><trkpt lat="45.7936283" lon="12.3035767"><ele>44.0</ele><time>2026-04-02T15:23:33.973Z</time></trkpt><trkpt lat="45.7936133" lon="12.3036833"><ele>44.0</ele><time>2026-04-02T15:23:34.973Z</time></trkpt><trkpt lat="45.7936133" lon="12.3037917"><ele>44.0</ele><time>2026-04-02T15:23:35.972Z</time></trkpt><trkpt lat="45.7936117" lon="12.30391"><ele>44.0</ele><time>2026-04-02T15:23:36.973Z</time></trkpt><trkpt lat="45.7936033" lon="12.3040367"><ele>44.0</ele><time>2026-04-02T15:23:37.972Z</time></trkpt><trkpt lat="45.7935983" lon="12.3041633"><ele>44.0</ele><time>2026-04-02T15:23:38.973Z</time></trkpt><trkpt lat="45.7935917" lon="12.3042733"><ele>44.0</ele><time>2026-04-02T15:23:39.973Z</time></trkpt><trkpt lat="45.793585" lon="12.3043767"><ele>44.0</ele><time>2026-04-02T15:23:40.973Z</time></trkpt><trkpt lat="45.7935833" lon="12.3044733"><ele>44.0</ele><time>2026-04-02T15:23:41.973Z</time></trkpt><trkpt lat="45.7935667" lon="12.3045867"><ele>44.0</ele><time>2026-04-02T15:23:42.973Z</time></trkpt><trkpt lat="45.7935517" lon="12.30471"><ele>44.0</ele><time>2026-04-02T15:23:43.973Z</time></trkpt><trkpt lat="45.7935483" lon="12.3048417"><ele>44.0</ele><time>2026-04-02T15:23:44.973Z</time></trkpt><trkpt lat="45.793535" lon="12.305005"><ele>44.0</ele><time>2026-04-02T15:23:45.973Z</time></trkpt><trkpt lat="45.7935317" lon="12.305165"><ele>44.0</ele><time>2026-04-02T15:23:46.973Z</time></trkpt><trkpt lat="45.7935233" lon="12.3053667"><ele>44.0</ele><time>2026-04-02T15:23:47.972Z</time></trkpt><trkpt lat="45.7934983" lon="12.3055833"><ele>44.0</ele><time>2026-04-02T15:23:48.972Z</time></trkpt><trkpt lat="45.79347" lon="12.3058267"><ele>44.0</ele><time>2026-04-02T15:23:49.972Z</time></trkpt><trkpt lat="45.7934367" lon="12.306055"><ele>43.666666666666664</ele><time>2026-04-02T15:23:50.972Z</time></trkpt><trkpt lat="45.7933867" lon="12.306465"><ele>43.333333333333336</ele><time>2026-04-02T15:23:52.972Z</time></trkpt><trkpt lat="45.7933617" lon="12.3066283"><ele>43.0</ele><time>2026-04-02T15:23:53.972Z</time></trkpt><trkpt lat="45.7933283" lon="12.3067533"><ele>43.0</ele><time>2026-04-02T15:23:54.972Z</time></trkpt><trkpt lat="45.793275" lon="12.3068617"><ele>43.0</ele><time>2026-04-02T15:23:55.972Z</time></trkpt><trkpt lat="45.7932183" lon="12.30695"><ele>43.0</ele><time>2026-04-02T15:23:56.972Z</time></trkpt><trkpt lat="45.7931633" lon="12.307015"><ele>43.0</ele><time>2026-04-02T15:23:57.971Z</time></trkpt><trkpt lat="45.7931017" lon="12.30705"><ele>43.0</ele><time>2026-04-02T15:23:58.972Z</time></trkpt><trkpt lat="45.7930017" lon="12.3070517"><ele>43.0</ele><time>2026-04-02T15:23:59.972Z</time></trkpt><trkpt lat="45.7928933" lon="12.3069867"><ele>43.0</ele><time>2026-04-02T15:24:00.971Z</time></trkpt><trkpt lat="45.7927883" lon="12.306965"><ele>43.0</ele><time>2026-04-02T15:24:01.972Z</time></trkpt><trkpt lat="45.7927033" lon="12.306955"><ele>43.0</ele><time>2026-04-02T15:24:02.972Z</time></trkpt><trkpt lat="45.7926283" lon="12.3069683"><ele>43.0</ele><time>2026-04-02T15:24:03.972Z</time></trkpt><trkpt lat="45.792525" lon="12.30702"><ele>43.0</ele><time>2026-04-02T15:24:05.972Z</time></trkpt><trkpt lat="45.7924933" lon="12.3071133"><ele>43.0</ele><time>2026-04-02T15:24:06.972Z</time></trkpt><trkpt lat="45.7924567" lon="12.3072467"><ele>43.0</ele><time>2026-04-02T15:24:07.971Z</time></trkpt><trkpt lat="45.7924167" lon="12.3074183"><ele>43.0</ele><time>2026-04-02T15:24:08.972Z</time></trkpt><trkpt lat="45.7923617" lon="12.3076183"><ele>43.0</ele><time>2026-04-02T15:24:09.971Z</time></trkpt><trkpt lat="45.7923083" lon="12.307845"><ele>43.0</ele><time>2026-04-02T15:24:10.972Z</time></trkpt><trkpt lat="45.7922517" lon="12.308075"><ele>43.0</ele><time>2026-04-02T15:24:11.971Z</time></trkpt><trkpt lat="45.792185" lon="12.3085067"><ele>43.0</ele><time>2026-04-02T15:24:13.972Z</time></trkpt><trkpt lat="45.792185" lon="12.308725"><ele>43.0</ele><time>2026-04-02T15:24:14.972Z</time></trkpt><trkpt lat="45.7922083" lon="12.30893"><ele>43.0</ele><time>2026-04-02T15:24:15.972Z</time></trkpt><trkpt lat="45.79225" lon="12.3091317"><ele>43.0</ele><time>2026-04-02T15:24:16.972Z</time></trkpt><trkpt lat="45.79228" lon="12.309305"><ele>43.0</ele><time>2026-04-02T15:24:17.972Z</time></trkpt><trkpt lat="45.7923183" lon="12.3094467"><ele>43.0</ele><time>2026-04-02T15:24:18.972Z</time></trkpt><trkpt lat="45.792355" lon="12.3095833"><ele>43.0</ele><time>2026-04-02T15:24:19.972Z</time></trkpt><trkpt lat="45.7924183" lon="12.3097067"><ele>43.0</ele><time>2026-04-02T15:24:20.972Z</time></trkpt><trkpt lat="45.7924867" lon="12.3098167"><ele>43.0</ele><time>2026-04-02T15:24:21.972Z</time></trkpt><trkpt lat="45.7925817" lon="12.3099367"><ele>43.0</ele><time>2026-04-02T15:24:22.972Z</time></trkpt><trkpt lat="45.79269" lon="12.3100667"><ele>43.25</ele><time>2026-04-02T15:24:23.972Z</time></trkpt><trkpt lat="45.7927917" lon="12.310195"><ele>43.5</ele><time>2026-04-02T15:24:24.971Z</time></trkpt><trkpt lat="45.792905" lon="12.3103217"><ele>43.75</ele><time>2026-04-02T15:24:25.972Z</time></trkpt><trkpt lat="45.7930317" lon="12.31046"><ele>44.0</ele><time>2026-04-02T15:24:26.972Z</time></trkpt><trkpt lat="45.7931533" lon="12.3105967"><ele>44.0</ele><time>2026-04-02T15:24:27.972Z</time></trkpt><trkpt lat="45.793225" lon="12.3107767"><ele>44.0</ele><time>2026-04-02T15:24:28.971Z</time></trkpt><trkpt lat="45.793295" lon="12.3109817"><ele>44.0</ele><time>2026-04-02T15:24:29.972Z</time></trkpt><trkpt lat="45.7933567" lon="12.3112033"><ele>44.0</ele><time>2026-04-02T15:24:30.972Z</time></trkpt><trkpt lat="45.7934133" lon="12.3114017"><ele>44.0</ele><time>2026-04-02T15:24:31.972Z</time></trkpt><trkpt lat="45.79343" lon="12.311575"><ele>44.0</ele><time>2026-04-02T15:24:32.972Z</time></trkpt><trkpt lat="45.7934433" lon="12.3119283"><ele>44.0</ele><time>2026-04-02T15:24:34.972Z</time></trkpt><trkpt lat="45.7934217" lon="12.312105"><ele>44.0</ele><time>2026-04-02T15:24:35.972Z</time></trkpt><trkpt lat="45.793395" lon="12.312265"><ele>44.0</ele><time>2026-04-02T15:24:36.972Z</time></trkpt><trkpt lat="45.7933333" lon="12.3124083"><ele>44.0</ele><time>2026-04-02T15:24:37.972Z</time></trkpt><trkpt lat="45.793265" lon="12.3125717"><ele>44.0</ele><time>2026-04-02T15:24:38.972Z</time></trkpt><trkpt lat="45.793195" lon="12.3127333"><ele>44.0</ele><time>2026-04-02T15:24:39.972Z</time></trkpt><trkpt lat="45.7931083" lon="12.3129033"><ele>44.0</ele><time>2026-04-02T15:24:40.972Z</time></trkpt><trkpt lat="45.7930217" lon="12.3130633"><ele>44.0</ele><time>2026-04-02T15:24:41.972Z</time></trkpt><trkpt lat="45.79296" lon="12.3132333"><ele>44.0</ele><time>2026-04-02T15:24:42.972Z</time></trkpt><trkpt lat="45.79291" lon="12.3134"><ele>44.0</ele><time>2026-04-02T15:24:43.971Z</time></trkpt><trkpt lat="45.7928717" lon="12.313565"><ele>44.0</ele><time>2026-04-02T15:24:44.972Z</time></trkpt><trkpt lat="45.7928483" lon="12.3137367"><ele>44.0</ele><time>2026-04-02T15:24:45.971Z</time></trkpt><trkpt lat="45.7928517" lon="12.3139283"><ele>44.0</ele><time>2026-04-02T15:24:46.972Z</time></trkpt><trkpt lat="45.7928633" lon="12.314125"><ele>44.0</ele><time>2026-04-02T15:24:47.972Z</time></trkpt><trkpt lat="45.7928517" lon="12.314315"><ele>44.0</ele><time>2026-04-02T15:24:48.971Z</time></trkpt><trkpt lat="45.7928333" lon="12.3144817"><ele>44.0</ele><time>2026-04-02T15:24:49.972Z</time></trkpt><trkpt lat="45.7928183" lon="12.3146433"><ele>43.5</ele><time>2026-04-02T15:24:50.972Z</time></trkpt><trkpt lat="45.79279" lon="12.3147933"><ele>43.0</ele><time>2026-04-02T15:24:51.972Z</time></trkpt><trkpt lat="45.7927433" lon="12.31494"><ele>42.5</ele><time>2026-04-02T15:24:52.972Z</time></trkpt><trkpt lat="45.792675" lon="12.3150733"><ele>42.0</ele><time>2026-04-02T15:24:53.97Z</time></trkpt><trkpt lat="45.7925233" lon="12.315355"><ele>41.75</ele><time>2026-04-02T15:24:55.972Z</time></trkpt><trkpt lat="45.7924283" lon="12.3154833"><ele>41.5</ele><time>2026-04-02T15:24:56.972Z</time></trkpt><trkpt lat="45.79234" lon="12.315605"><ele>41.25</ele><time>2026-04-02T15:24:57.972Z</time></trkpt><trkpt lat="45.7922783" lon="12.3157317"><ele>41.0</ele><time>2026-04-02T15:24:58.972Z</time></trkpt><trkpt lat="45.79223" lon="12.3158717"><ele>40.75</ele><time>2026-04-02T15:24:59.971Z</time></trkpt><trkpt lat="45.79218" lon="12.3160683"><ele>40.5</ele><time>2026-04-02T15:25:00.972Z</time></trkpt><trkpt lat="45.792145" lon="12.3162383"><ele>40.25</ele><time>2026-04-02T15:25:01.972Z</time></trkpt><trkpt lat="45.792135" lon="12.3164233"><ele>40.0</ele><time>2026-04-02T15:25:02.972Z</time></trkpt><trkpt lat="45.7921433" lon="12.3166367"><ele>40.0</ele><time>2026-04-02T15:25:03.972Z</time></trkpt><trkpt lat="45.7921767" lon="12.31684"><ele>40.0</ele><time>2026-04-02T15:25:04.972Z</time></trkpt><trkpt lat="45.7922183" lon="12.31706"><ele>40.0</ele><time>2026-04-02T15:25:05.972Z</time></trkpt><trkpt lat="45.7922567" lon="12.31729"><ele>40.0</ele><time>2026-04-02T15:25:06.972Z</time></trkpt><trkpt lat="45.7922983" lon="12.31752"><ele>40.0</ele><time>2026-04-02T15:25:07.972Z</time></trkpt><trkpt lat="45.79234" lon="12.3177367"><ele>40.0</ele><time>2026-04-02T15:25:08.971Z</time></trkpt><trkpt lat="45.792375" lon="12.31795"><ele>39.75</ele><time>2026-04-02T15:25:09.972Z</time></trkpt><trkpt lat="45.7924117" lon="12.3181033"><ele>39.5</ele><time>2026-04-02T15:25:10.972Z</time></trkpt><trkpt lat="45.7924517" lon="12.31827"><ele>39.25</ele><time>2026-04-02T15:25:11.972Z</time></trkpt><trkpt lat="45.7924933" lon="12.3184417"><ele>39.0</ele><time>2026-04-02T15:25:12.971Z</time></trkpt><trkpt lat="45.7925133" lon="12.31863"><ele>39.0</ele><time>2026-04-02T15:25:13.972Z</time></trkpt><trkpt lat="45.7925233" lon="12.3188283"><ele>39.0</ele><time>2026-04-02T15:25:14.972Z</time></trkpt><trkpt lat="45.7925317" lon="12.3192333"><ele>39.0</ele><time>2026-04-02T15:25:16.972Z</time></trkpt><trkpt lat="45.7925383" lon="12.3194217"><ele>39.0</ele><time>2026-04-02T15:25:17.972Z</time></trkpt><trkpt lat="45.7925417" lon="12.31959"><ele>39.0</ele><time>2026-04-02T15:25:18.972Z</time></trkpt><trkpt lat="45.7925383" lon="12.3197117"><ele>39.0</ele><time>2026-04-02T15:25:19.972Z</time></trkpt><trkpt lat="45.7925267" lon="12.319875"><ele>39.0</ele><time>2026-04-02T15:25:20.972Z</time></trkpt><trkpt lat="45.7925067" lon="12.3200533"><ele>39.0</ele><time>2026-04-02T15:25:21.972Z</time></trkpt><trkpt lat="45.7924833" lon="12.3202183"><ele>39.0</ele><time>2026-04-02T15:25:22.972Z</time></trkpt><trkpt lat="45.7924633" lon="12.32037"><ele>39.0</ele><time>2026-04-02T15:25:23.972Z</time></trkpt><trkpt lat="45.792465" lon="12.32052"><ele>39.0</ele><time>2026-04-02T15:25:24.972Z</time></trkpt><trkpt lat="45.7924667" lon="12.3206533"><ele>39.0</ele><time>2026-04-02T15:25:25.972Z</time></trkpt><trkpt lat="45.7924583" lon="12.32077"><ele>39.0</ele><time>2026-04-02T15:25:26.971Z</time></trkpt><trkpt lat="45.7924583" lon="12.3208933"><ele>39.0</ele><time>2026-04-02T15:25:27.972Z</time></trkpt><trkpt lat="45.79244" lon="12.3210233"><ele>39.0</ele><time>2026-04-02T15:25:28.972Z</time></trkpt><trkpt lat="45.79241" lon="12.3211617"><ele>39.0</ele><time>2026-04-02T15:25:29.972Z</time></trkpt><trkpt lat="45.792375" lon="12.3213117"><ele>39.0</ele><time>2026-04-02T15:25:30.972Z</time></trkpt><trkpt lat="45.7923417" lon="12.3214717"><ele>39.0</ele><time>2026-04-02T15:25:31.972Z</time></trkpt><trkpt lat="45.7923033" lon="12.3216267"><ele>39.25</ele><time>2026-04-02T15:25:32.972Z</time></trkpt><trkpt lat="45.7922717" lon="12.3217967"><ele>39.5</ele><time>2026-04-02T15:25:33.972Z</time></trkpt><trkpt lat="45.7922467" lon="12.3219867"><ele>39.75</ele><time>2026-04-02T15:25:34.972Z</time></trkpt><trkpt lat="45.7922517" lon="12.3222"><ele>40.0</ele><time>2026-04-02T15:25:35.972Z</time></trkpt><trkpt lat="45.792265" lon="12.3226033"><ele>40.0</ele><time>2026-04-02T15:25:37.972Z</time></trkpt><trkpt lat="45.7922567" lon="12.3227733"><ele>40.0</ele><time>2026-04-02T15:25:38.972Z</time></trkpt><trkpt lat="45.7922433" lon="12.322935"><ele>40.0</ele><time>2026-04-02T15:25:39.972Z</time></trkpt><trkpt lat="45.792225" lon="12.3231167"><ele>40.0</ele><time>2026-04-02T15:25:40.972Z</time></trkpt><trkpt lat="45.7921883" lon="12.3233033"><ele>40.0</ele><time>2026-04-02T15:25:41.972Z</time></trkpt><trkpt lat="45.792155" lon="12.3235017"><ele>40.0</ele><time>2026-04-02T15:25:42.972Z</time></trkpt><trkpt lat="45.7921267" lon="12.3236983"><ele>40.0</ele><time>2026-04-02T15:25:43.972Z</time></trkpt><trkpt lat="45.7921017" lon="12.3238867"><ele>40.0</ele><time>2026-04-02T15:25:44.972Z</time></trkpt><trkpt lat="45.7920933" lon="12.324065"><ele>40.0</ele><time>2026-04-02T15:25:45.972Z</time></trkpt><trkpt lat="45.7921" lon="12.32423"><ele>40.0</ele><time>2026-04-02T15:25:46.972Z</time></trkpt><trkpt lat="45.792125" lon="12.3244067"><ele>40.0</ele><time>2026-04-02T15:25:47.972Z</time></trkpt><trkpt lat="45.792155" lon="12.3245917"><ele>40.0</ele><time>2026-04-02T15:25:48.972Z</time></trkpt><trkpt lat="45.7921917" lon="12.32479"><ele>38.66666666666667</ele><time>2026-04-02T15:25:49.972Z</time></trkpt><trkpt lat="45.7922233" lon="12.325005"><ele>37.333333333333336</ele><time>2026-04-02T15:25:50.972Z</time></trkpt><trkpt lat="45.79226" lon="12.325225"><ele>36.0</ele><time>2026-04-02T15:25:51.972Z</time></trkpt><trkpt lat="45.7922883" lon="12.3254533"><ele>36.25</ele><time>2026-04-02T15:25:52.972Z</time></trkpt><trkpt lat="45.79231" lon="12.3256767"><ele>36.5</ele><time>2026-04-02T15:25:53.971Z</time></trkpt><trkpt lat="45.7923217" lon="12.3258817"><ele>36.75</ele><time>2026-04-02T15:25:54.972Z</time></trkpt><trkpt lat="45.79232" lon="12.32607"><ele>37.0</ele><time>2026-04-02T15:25:55.971Z</time></trkpt><trkpt lat="45.7923017" lon="12.326255"><ele>37.333333333333336</ele><time>2026-04-02T15:25:56.972Z</time></trkpt><trkpt lat="45.7922317" lon="12.3265767"><ele>37.666666666666664</ele><time>2026-04-02T15:25:58.972Z</time></trkpt><trkpt lat="45.7921867" lon="12.3267267"><ele>38.0</ele><time>2026-04-02T15:25:59.972Z</time></trkpt><trkpt lat="45.7921333" lon="12.3268817"><ele>38.0</ele><time>2026-04-02T15:26:00.972Z</time></trkpt><trkpt lat="45.7920583" lon="12.3270467"><ele>38.0</ele><time>2026-04-02T15:26:01.972Z</time></trkpt><trkpt lat="45.7919767" lon="12.3272217"><ele>38.0</ele><time>2026-04-02T15:26:02.972Z</time></trkpt><trkpt lat="45.7918983" lon="12.3274133"><ele>38.0</ele><time>2026-04-02T15:26:03.972Z</time></trkpt><trkpt lat="45.791825" lon="12.3276033"><ele>37.5</ele><time>2026-04-02T15:26:04.972Z</time></trkpt><trkpt lat="45.7917567" lon="12.3277883"><ele>37.0</ele><time>2026-04-02T15:26:05.972Z</time></trkpt><trkpt lat="45.7916967" lon="12.3279483"><ele>36.5</ele><time>2026-04-02T15:26:06.972Z</time></trkpt><trkpt lat="45.7916483" lon="12.3281083"><ele>36.0</ele><time>2026-04-02T15:26:07.972Z</time></trkpt><trkpt lat="45.7915967" lon="12.3282767"><ele>36.0</ele><time>2026-04-02T15:26:08.972Z</time></trkpt><trkpt lat="45.7915267" lon="12.3284433"><ele>36.0</ele><time>2026-04-02T15:26:09.972Z</time></trkpt><trkpt lat="45.791465" lon="12.3286117"><ele>36.0</ele><time>2026-04-02T15:26:10.972Z</time></trkpt><trkpt lat="45.7913917" lon="12.3287583"><ele>36.0</ele><time>2026-04-02T15:26:11.972Z</time></trkpt><trkpt lat="45.7913083" lon="12.3288817"><ele>35.75</ele><time>2026-04-02T15:26:12.972Z</time></trkpt><trkpt lat="45.791225" lon="12.3290083"><ele>35.5</ele><time>2026-04-02T15:26:13.972Z</time></trkpt><trkpt lat="45.7911233" lon="12.329145"><ele>35.25</ele><time>2026-04-02T15:26:14.972Z</time></trkpt><trkpt lat="45.7910467" lon="12.3293117"><ele>35.0</ele><time>2026-04-02T15:26:15.972Z</time></trkpt><trkpt lat="45.790985" lon="12.3294867"><ele>35.0</ele><time>2026-04-02T15:26:16.971Z</time></trkpt><trkpt lat="45.7909317" lon="12.3296617"><ele>35.0</ele><time>2026-04-02T15:26:17.972Z</time></trkpt><trkpt lat="45.790875" lon="12.33002"><ele>35.0</ele><time>2026-04-02T15:26:19.972Z</time></trkpt><trkpt lat="45.79087" lon="12.33013"><ele>34.83333333333333</ele><time>2026-04-02T15:26:20.971Z</time></trkpt><trkpt lat="45.790875" lon="12.3302883"><ele>34.666666666666664</ele><time>2026-04-02T15:26:22.971Z</time></trkpt><trkpt lat="45.7909" lon="12.3303767"><ele>34.5</ele><time>2026-04-02T15:26:25.972Z</time></trkpt><trkpt lat="45.7908783" lon="12.3304633"><ele>34.333333333333336</ele><time>2026-04-02T15:26:27.972Z</time></trkpt><trkpt lat="45.790845" lon="12.3305567"><ele>34.16666666666667</ele><time>2026-04-02T15:26:30.972Z</time></trkpt><trkpt lat="45.7908017" lon="12.3306617"><ele>34.0</ele><time>2026-04-02T15:26:32.972Z</time></trkpt><trkpt lat="45.7907383" lon="12.3307483"><ele>34.0</ele><time>2026-04-02T15:26:34.972Z</time></trkpt><trkpt lat="45.7906583" lon="12.3308383"><ele>34.0</ele><time>2026-04-02T15:26:36.972Z</time></trkpt><trkpt lat="45.7906067" lon="12.3308983"><ele>34.0</ele><time>2026-04-02T15:26:37.972Z</time></trkpt><trkpt lat="45.7905117" lon="12.3309817"><ele>34.0</ele><time>2026-04-02T15:26:39.972Z</time></trkpt><trkpt lat="45.790435" lon="12.33123"><ele>34.0</ele><time>2026-04-02T15:26:43.972Z</time></trkpt><trkpt lat="45.7904067" lon="12.3313783"><ele>34.0</ele><time>2026-04-02T15:26:45.972Z</time></trkpt><trkpt lat="45.7903933" lon="12.3314767"><ele>34.0</ele><time>2026-04-02T15:26:46.972Z</time></trkpt><trkpt lat="45.7903717" lon="12.3315883"><ele>34.0</ele><time>2026-04-02T15:26:47.972Z</time></trkpt><trkpt lat="45.79035" lon="12.3316883"><ele>34.0</ele><time>2026-04-02T15:26:48.971Z</time></trkpt><trkpt lat="45.7903233" lon="12.3317783"><ele>34.0</ele><time>2026-04-02T15:26:49.972Z</time></trkpt><trkpt lat="45.79027" lon="12.3319483"><ele>33.8</ele><time>2026-04-02T15:26:51.972Z</time></trkpt><trkpt lat="45.7902433" lon="12.3320633"><ele>33.599999999999994</ele><time>2026-04-02T15:26:52.972Z</time></trkpt><trkpt lat="45.79021" lon="12.3321983"><ele>33.4</ele><time>2026-04-02T15:26:53.972Z</time></trkpt><trkpt lat="45.790175" lon="12.3323417"><ele>33.199999999999996</ele><time>2026-04-02T15:26:54.972Z</time></trkpt><trkpt lat="45.79013" lon="12.3324983"><ele>33.0</ele><time>2026-04-02T15:26:55.972Z</time></trkpt><trkpt lat="45.7900833" lon="12.3326467"><ele>33.4</ele><time>2026-04-02T15:26:56.971Z</time></trkpt><trkpt lat="45.7900433" lon="12.3327833"><ele>33.8</ele><time>2026-04-02T15:26:57.972Z</time></trkpt><trkpt lat="45.7900133" lon="12.3329217"><ele>34.2</ele><time>2026-04-02T15:26:58.972Z</time></trkpt><trkpt lat="45.7899867" lon="12.333065"><ele>34.6</ele><time>2026-04-02T15:26:59.972Z</time></trkpt><trkpt lat="45.789965" lon="12.3332267"><ele>35.0</ele><time>2026-04-02T15:27:00.972Z</time></trkpt><trkpt lat="45.789925" lon="12.3335"><ele>35.0</ele><time>2026-04-02T15:27:02.971Z</time></trkpt><trkpt lat="45.7899017" lon="12.3336183"><ele>35.0</ele><time>2026-04-02T15:27:03.972Z</time></trkpt><trkpt lat="45.7898817" lon="12.3337167"><ele>35.0</ele><time>2026-04-02T15:27:04.972Z</time></trkpt><trkpt lat="45.789825" lon="12.33385"><ele>35.0</ele><time>2026-04-02T15:27:06.972Z</time></trkpt><trkpt lat="45.7897983" lon="12.3339733"><ele>35.0</ele><time>2026-04-02T15:27:08.972Z</time></trkpt><trkpt lat="45.7898133" lon="12.334155"><ele>35.0</ele><time>2026-04-02T15:27:10.972Z</time></trkpt><trkpt lat="45.7898433" lon="12.3343317"><ele>35.0</ele><time>2026-04-02T15:27:12.972Z</time></trkpt><trkpt lat="45.7898583" lon="12.33443"><ele>35.0</ele><time>2026-04-02T15:27:13.972Z</time></trkpt><trkpt lat="45.7898733" lon="12.3345183"><ele>35.0</ele><time>2026-04-02T15:27:14.972Z</time></trkpt><trkpt lat="45.7899117" lon="12.334645"><ele>35.0</ele><time>2026-04-02T15:27:16.972Z</time></trkpt><trkpt lat="45.789955" lon="12.3347567"><ele>35.0</ele><time>2026-04-02T15:27:18.972Z</time></trkpt><trkpt lat="45.7899817" lon="12.3349083"><ele>35.0</ele><time>2026-04-02T15:27:20.972Z</time></trkpt><trkpt lat="45.7899867" lon="12.3350183"><ele>35.0</ele><time>2026-04-02T15:27:21.972Z</time></trkpt><trkpt lat="45.7900017" lon="12.3352783"><ele>35.0</ele><time>2026-04-02T15:27:23.972Z</time></trkpt><trkpt lat="45.7900033" lon="12.3353983"><ele>35.0</ele><time>2026-04-02T15:27:24.972Z</time></trkpt><trkpt lat="45.79" lon="12.3355133"><ele>35.0</ele><time>2026-04-02T15:27:25.972Z</time></trkpt><trkpt lat="45.7899867" lon="12.3356267"><ele>35.0</ele><time>2026-04-02T15:27:26.972Z</time></trkpt><trkpt lat="45.7899733" lon="12.33575"><ele>35.0</ele><time>2026-04-02T15:27:27.971Z</time></trkpt><trkpt lat="45.7899567" lon="12.3358617"><ele>35.0</ele><time>2026-04-02T15:27:28.972Z</time></trkpt><trkpt lat="45.7899317" lon="12.3359583"><ele>35.0</ele><time>2026-04-02T15:27:29.972Z</time></trkpt><trkpt lat="45.7899067" lon="12.33606"><ele>35.0</ele><time>2026-04-02T15:27:30.972Z</time></trkpt><trkpt lat="45.7898817" lon="12.3361567"><ele>35.0</ele><time>2026-04-02T15:27:31.972Z</time></trkpt><trkpt lat="45.7898517" lon="12.3362417"><ele>35.0</ele><time>2026-04-02T15:27:32.972Z</time></trkpt><trkpt lat="45.78982" lon="12.3363217"><ele>35.0</ele><time>2026-04-02T15:27:33.972Z</time></trkpt><trkpt lat="45.78979" lon="12.3364067"><ele>35.0</ele><time>2026-04-02T15:27:34.971Z</time></trkpt><trkpt lat="45.7897617" lon="12.3364917"><ele>35.0</ele><time>2026-04-02T15:27:35.972Z</time></trkpt><trkpt lat="45.7897083" lon="12.3366217"><ele>35.0</ele><time>2026-04-02T15:27:37.972Z</time></trkpt><trkpt lat="45.7896617" lon="12.33672"><ele>35.0</ele><time>2026-04-02T15:27:39.972Z</time></trkpt><trkpt lat="45.7896117" lon="12.336815"><ele>35.0</ele><time>2026-04-02T15:27:41.972Z</time></trkpt><trkpt lat="45.7895583" lon="12.3368833"><ele>35.0</ele><time>2026-04-02T15:27:43.971Z</time></trkpt><trkpt lat="45.7894683" lon="12.3370733"><ele>35.0</ele><time>2026-04-02T15:27:48.971Z</time></trkpt><trkpt lat="45.7894133" lon="12.3371767"><ele>35.0</ele><time>2026-04-02T15:27:51.971Z</time></trkpt><trkpt lat="45.7893683" lon="12.3372533"><ele>35.0</ele><time>2026-04-02T15:27:53.971Z</time></trkpt><trkpt lat="45.7893117" lon="12.3372983"><ele>35.0</ele><time>2026-04-02T15:27:55.972Z</time></trkpt><trkpt lat="45.7892467" lon="12.3373283"><ele>35.0</ele><time>2026-04-02T15:27:57.972Z</time></trkpt><trkpt lat="45.7891633" lon="12.3373633"><ele>35.0</ele><time>2026-04-02T15:28:00.972Z</time></trkpt><trkpt lat="45.7891017" lon="12.33745"><ele>35.0</ele><time>2026-04-02T15:28:03.972Z</time></trkpt><trkpt lat="45.7890517" lon="12.33757"><ele>35.0</ele><time>2026-04-02T15:28:06.971Z</time></trkpt><trkpt lat="45.7889917" lon="12.3377983"><ele>35.0</ele><time>2026-04-02T15:28:09.972Z</time></trkpt><trkpt lat="45.7889683" lon="12.3378833"><ele>35.0</ele><time>2026-04-02T15:28:10.972Z</time></trkpt><trkpt lat="45.7889417" lon="12.3379833"><ele>35.0</ele><time>2026-04-02T15:28:11.971Z</time></trkpt><trkpt lat="45.788915" lon="12.33809"><ele>35.0</ele><time>2026-04-02T15:28:12.972Z</time></trkpt><trkpt lat="45.788885" lon="12.33818"><ele>35.0</ele><time>2026-04-02T15:28:13.972Z</time></trkpt><trkpt lat="45.788865" lon="12.3382683"><ele>35.0</ele><time>2026-04-02T15:28:14.971Z</time></trkpt><trkpt lat="45.78885" lon="12.3383567"><ele>35.0</ele><time>2026-04-02T15:28:15.972Z</time></trkpt><trkpt lat="45.78884" lon="12.3384467"><ele>34.8</ele><time>2026-04-02T15:28:16.972Z</time></trkpt><trkpt lat="45.78883" lon="12.338635"><ele>34.6</ele><time>2026-04-02T15:28:18.972Z</time></trkpt><trkpt lat="45.7888267" lon="12.3387983"><ele>34.4</ele><time>2026-04-02T15:28:20.972Z</time></trkpt><trkpt lat="45.7888317" lon="12.3388967"><ele>34.2</ele><time>2026-04-02T15:28:21.972Z</time></trkpt><trkpt lat="45.7888367" lon="12.3390133"><ele>34.0</ele><time>2026-04-02T15:28:22.972Z</time></trkpt><trkpt lat="45.7888383" lon="12.3391433"><ele>34.0</ele><time>2026-04-02T15:28:23.971Z</time></trkpt><trkpt lat="45.7888417" lon="12.339265"><ele>34.0</ele><time>2026-04-02T15:28:24.971Z</time></trkpt><trkpt lat="45.7888467" lon="12.339375"><ele>34.0</ele><time>2026-04-02T15:28:25.971Z</time></trkpt><trkpt lat="45.78886" lon="12.3395017"><ele>34.0</ele><time>2026-04-02T15:28:27.972Z</time></trkpt><trkpt lat="45.7889817" lon="12.3396567"><ele>34.0</ele><time>2026-04-02T15:28:47.971Z</time></trkpt><trkpt lat="45.78904" lon="12.3397217"><ele>34.0</ele><time>2026-04-02T15:28:50.971Z</time></trkpt><trkpt lat="45.789175" lon="12.3397583"><ele>34.0</ele><time>2026-04-02T15:28:57.971Z</time></trkpt><trkpt lat="45.789205" lon="12.3399117"><ele>34.0</ele><time>2026-04-02T15:29:00.971Z</time></trkpt><trkpt lat="45.7892217" lon="12.3400033"><ele>34.0</ele><time>2026-04-02T15:29:01.971Z</time></trkpt><trkpt lat="45.78923" lon="12.3400933"><ele>34.0</ele><time>2026-04-02T15:29:02.97Z</time></trkpt><trkpt lat="45.789245" lon="12.34022"><ele>34.0</ele><time>2026-04-02T15:29:04.971Z</time></trkpt><trkpt lat="45.7892383" lon="12.34033"><ele>34.0</ele><time>2026-04-02T15:29:06.971Z</time></trkpt><trkpt lat="45.7892533" lon="12.3404583"><ele>34.0</ele><time>2026-04-02T15:29:08.971Z</time></trkpt><trkpt lat="45.7892783" lon="12.3405617"><ele>34.0</ele><time>2026-04-02T15:29:10.971Z</time></trkpt><trkpt lat="45.7893067" lon="12.3406433"><ele>34.0</ele><time>2026-04-02T15:29:12.971Z</time></trkpt><trkpt lat="45.789395" lon="12.3407767"><ele>34.0</ele><time>2026-04-02T15:29:17.971Z</time></trkpt><trkpt lat="45.78948" lon="12.3408283"><ele>34.0</ele><time>2026-04-02T15:29:19.971Z</time></trkpt><trkpt lat="45.7895517" lon="12.3408383"><ele>34.0</ele><time>2026-04-02T15:29:20.971Z</time></trkpt><trkpt lat="45.7896383" lon="12.34085"><ele>34.0</ele><time>2026-04-02T15:29:21.97Z</time></trkpt><trkpt lat="45.7897383" lon="12.340855"><ele>34.0</ele><time>2026-04-02T15:29:22.971Z</time></trkpt><trkpt lat="45.78984" lon="12.34086"><ele>34.0</ele><time>2026-04-02T15:29:23.971Z</time></trkpt><trkpt lat="45.789935" lon="12.3408683"><ele>34.0</ele><time>2026-04-02T15:29:24.971Z</time></trkpt><trkpt lat="45.7900217" lon="12.3408683"><ele>34.0</ele><time>2026-04-02T15:29:25.971Z</time></trkpt><trkpt lat="45.790105" lon="12.340885"><ele>34.0</ele><time>2026-04-02T15:29:26.971Z</time></trkpt><trkpt lat="45.7901683" lon="12.3409017"><ele>34.0</ele><time>2026-04-02T15:29:27.971Z</time></trkpt><trkpt lat="45.7902917" lon="12.3409583"><ele>34.0</ele><time>2026-04-02T15:29:29.97Z</time></trkpt><trkpt lat="45.7903917" lon="12.3410117"><ele>34.0</ele><time>2026-04-02T15:29:31.971Z</time></trkpt><trkpt lat="45.7904533" lon="12.3409883"><ele>34.0</ele><time>2026-04-02T15:29:34.971Z</time></trkpt><trkpt lat="45.79026" lon="12.3409517"><ele>34.0</ele><time>2026-04-02T15:29:40.971Z</time></trkpt><trkpt lat="45.7901967" lon="12.3409317"><ele>34.0</ele><time>2026-04-02T15:29:41.971Z</time></trkpt><trkpt lat="45.7901067" lon="12.34091"><ele>34.0</ele><time>2026-04-02T15:29:43.971Z</time></trkpt><trkpt lat="45.7900117" lon="12.3410117"><ele>34.0</ele><time>2026-04-02T15:29:46.971Z</time></trkpt><trkpt lat="45.7899717" lon="12.3410933"><ele>34.0</ele><time>2026-04-02T15:29:47.971Z</time></trkpt><trkpt lat="45.789925" lon="12.3411983"><ele>34.0</ele><time>2026-04-02T15:29:48.971Z</time></trkpt><trkpt lat="45.7898767" lon="12.34134"><ele>34.0</ele><time>2026-04-02T15:29:49.971Z</time></trkpt><trkpt lat="45.789835" lon="12.3415033"><ele>34.0</ele><time>2026-04-02T15:29:50.97Z</time></trkpt><trkpt lat="45.789805" lon="12.3416517"><ele>34.2</ele><time>2026-04-02T15:29:51.971Z</time></trkpt><trkpt lat="45.7897917" lon="12.3418033"><ele>34.4</ele><time>2026-04-02T15:29:52.971Z</time></trkpt><trkpt lat="45.7897917" lon="12.3419417"><ele>34.6</ele><time>2026-04-02T15:29:53.971Z</time></trkpt><trkpt lat="45.7897983" lon="12.3420667"><ele>34.8</ele><time>2026-04-02T15:29:54.971Z</time></trkpt><trkpt lat="45.7897833" lon="12.342205"><ele>35.0</ele><time>2026-04-02T15:29:55.971Z</time></trkpt><trkpt lat="45.7897083" lon="12.3425"><ele>35.0</ele><time>2026-04-02T15:29:57.97Z</time></trkpt><trkpt lat="45.78967" lon="12.34267"><ele>35.0</ele><time>2026-04-02T15:29:58.971Z</time></trkpt><trkpt lat="45.7896383" lon="12.3428133"><ele>35.0</ele><time>2026-04-02T15:29:59.971Z</time></trkpt><trkpt lat="45.7896117" lon="12.3429533"><ele>35.0</ele><time>2026-04-02T15:30:00.971Z</time></trkpt><trkpt lat="45.7895867" lon="12.3431033"><ele>35.0</ele><time>2026-04-02T15:30:01.971Z</time></trkpt><trkpt lat="45.78956" lon="12.3432167"><ele>34.83333333333333</ele><time>2026-04-02T15:30:02.971Z</time></trkpt><trkpt lat="45.7895183" lon="12.3433333"><ele>34.666666666666664</ele><time>2026-04-02T15:30:03.971Z</time></trkpt><trkpt lat="45.789455" lon="12.3434367"><ele>34.5</ele><time>2026-04-02T15:30:04.971Z</time></trkpt><trkpt lat="45.7894067" lon="12.3435417"><ele>34.333333333333336</ele><time>2026-04-02T15:30:05.97Z</time></trkpt><trkpt lat="45.789375" lon="12.34364"><ele>34.16666666666667</ele><time>2026-04-02T15:30:06.971Z</time></trkpt><trkpt lat="45.7893483" lon="12.34377"><ele>34.0</ele><time>2026-04-02T15:30:07.971Z</time></trkpt><trkpt lat="45.7893367" lon="12.3438833"><ele>34.333333333333336</ele><time>2026-04-02T15:30:08.971Z</time></trkpt><trkpt lat="45.78933" lon="12.344025"><ele>34.66666666666667</ele><time>2026-04-02T15:30:09.971Z</time></trkpt><trkpt lat="45.7893067" lon="12.344145"><ele>35.0</ele><time>2026-04-02T15:30:10.97Z</time></trkpt><trkpt lat="45.7892833" lon="12.3442517"><ele>35.333333333333336</ele><time>2026-04-02T15:30:11.971Z</time></trkpt><trkpt lat="45.7892433" lon="12.3443467"><ele>35.666666666666664</ele><time>2026-04-02T15:30:12.971Z</time></trkpt><trkpt lat="45.7892033" lon="12.3444483"><ele>36.0</ele><time>2026-04-02T15:30:13.971Z</time></trkpt><trkpt lat="45.7891883" lon="12.3445583"><ele>36.0</ele><time>2026-04-02T15:30:14.971Z</time></trkpt><trkpt lat="45.7891733" lon="12.3446833"><ele>36.0</ele><time>2026-04-02T15:30:15.971Z</time></trkpt><trkpt lat="45.78917" lon="12.3448133"><ele>36.0</ele><time>2026-04-02T15:30:16.971Z</time></trkpt><trkpt lat="45.7891467" lon="12.3450533"><ele>36.0</ele><time>2026-04-02T15:30:18.97Z</time></trkpt><trkpt lat="45.7891433" lon="12.34515"><ele>36.0</ele><time>2026-04-02T15:30:19.971Z</time></trkpt><trkpt lat="45.7891467" lon="12.34526"><ele>35.8</ele><time>2026-04-02T15:30:20.97Z</time></trkpt><trkpt lat="45.7891417" lon="12.3453817"><ele>35.6</ele><time>2026-04-02T15:30:21.971Z</time></trkpt><trkpt lat="45.7891267" lon="12.34553"><ele>35.4</ele><time>2026-04-02T15:30:22.971Z</time></trkpt><trkpt lat="45.789105" lon="12.345675"><ele>35.2</ele><time>2026-04-02T15:30:23.971Z</time></trkpt><trkpt lat="45.789075" lon="12.3458067"><ele>35.0</ele><time>2026-04-02T15:30:24.971Z</time></trkpt><trkpt lat="45.7890333" lon="12.3459217"><ele>35.0</ele><time>2026-04-02T15:30:25.97Z</time></trkpt><trkpt lat="45.7889867" lon="12.3460367"><ele>35.0</ele><time>2026-04-02T15:30:26.97Z</time></trkpt><trkpt lat="45.7889367" lon="12.346145"><ele>35.0</ele><time>2026-04-02T15:30:27.971Z</time></trkpt><trkpt lat="45.7888683" lon="12.34626"><ele>35.0</ele><time>2026-04-02T15:30:28.971Z</time></trkpt><trkpt lat="45.7887917" lon="12.3463867"><ele>35.0</ele><time>2026-04-02T15:30:29.971Z</time></trkpt><trkpt lat="45.7887217" lon="12.34648"><ele>34.83333333333333</ele><time>2026-04-02T15:30:30.971Z</time></trkpt><trkpt lat="45.7886617" lon="12.3465667"><ele>34.666666666666664</ele><time>2026-04-02T15:30:31.971Z</time></trkpt><trkpt lat="45.7885833" lon="12.3466267"><ele>34.5</ele><time>2026-04-02T15:30:32.971Z</time></trkpt><trkpt lat="45.7885167" lon="12.3466933"><ele>34.333333333333336</ele><time>2026-04-02T15:30:33.97Z</time></trkpt><trkpt lat="45.78846" lon="12.3467733"><ele>34.16666666666667</ele><time>2026-04-02T15:30:34.97Z</time></trkpt><trkpt lat="45.7884083" lon="12.346885"><ele>34.0</ele><time>2026-04-02T15:30:35.971Z</time></trkpt><trkpt lat="45.78836" lon="12.3470283"><ele>34.25</ele><time>2026-04-02T15:30:36.97Z</time></trkpt><trkpt lat="45.788325" lon="12.3472367"><ele>34.5</ele><time>2026-04-02T15:30:37.971Z</time></trkpt><trkpt lat="45.7882467" lon="12.347475"><ele>34.75</ele><time>2026-04-02T15:30:39.971Z</time></trkpt><trkpt lat="45.7881983" lon="12.3475633"><ele>35.0</ele><time>2026-04-02T15:30:40.971Z</time></trkpt><trkpt lat="45.7881267" lon="12.34764"><ele>35.0</ele><time>2026-04-02T15:30:41.971Z</time></trkpt><trkpt lat="45.78806" lon="12.34773"><ele>35.0</ele><time>2026-04-02T15:30:42.971Z</time></trkpt><trkpt lat="45.7880133" lon="12.3478417"><ele>35.0</ele><time>2026-04-02T15:30:43.971Z</time></trkpt><trkpt lat="45.7879617" lon="12.3479917"><ele>35.0</ele><time>2026-04-02T15:30:44.971Z</time></trkpt><trkpt lat="45.7878933" lon="12.3481417"><ele>35.0</ele><time>2026-04-02T15:30:45.971Z</time></trkpt><trkpt lat="45.78783" lon="12.348275"><ele>34.8</ele><time>2026-04-02T15:30:46.971Z</time></trkpt><trkpt lat="45.7877783" lon="12.34841"><ele>34.6</ele><time>2026-04-02T15:30:47.97Z</time></trkpt><trkpt lat="45.78773" lon="12.3485233"><ele>34.4</ele><time>2026-04-02T15:30:48.971Z</time></trkpt><trkpt lat="45.7876833" lon="12.3486183"><ele>34.2</ele><time>2026-04-02T15:30:49.971Z</time></trkpt><trkpt lat="45.7875967" lon="12.3487267"><ele>34.0</ele><time>2026-04-02T15:30:51.97Z</time></trkpt><trkpt lat="45.78749" lon="12.3487017"><ele>34.0</ele><time>2026-04-02T15:30:53.971Z</time></trkpt><trkpt lat="45.7874233" lon="12.3486683"><ele>34.0</ele><time>2026-04-02T15:30:54.971Z</time></trkpt><trkpt lat="45.7873417" lon="12.3486117"><ele>34.0</ele><time>2026-04-02T15:30:55.971Z</time></trkpt><trkpt lat="45.7872783" lon="12.3485683"><ele>34.0</ele><time>2026-04-02T15:30:56.971Z</time></trkpt><trkpt lat="45.78719" lon="12.3485867"><ele>34.0</ele><time>2026-04-02T15:30:58.971Z</time></trkpt><trkpt lat="45.78708" lon="12.348755"><ele>34.0</ele><time>2026-04-02T15:31:02.971Z</time></trkpt><trkpt lat="45.786985" lon="12.3487917"><ele>34.0</ele><time>2026-04-02T15:31:04.971Z</time></trkpt><trkpt lat="45.7868567" lon="12.3488633"><ele>34.0</ele><time>2026-04-02T15:31:06.971Z</time></trkpt><trkpt lat="45.7867617" lon="12.348925"><ele>34.0</ele><time>2026-04-02T15:31:07.971Z</time></trkpt><trkpt lat="45.7867" lon="12.3489867"><ele>34.0</ele><time>2026-04-02T15:31:08.971Z</time></trkpt><trkpt lat="45.7866417" lon="12.3490683"><ele>34.0</ele><time>2026-04-02T15:31:09.971Z</time></trkpt><trkpt lat="45.7865983" lon="12.349155"><ele>34.0</ele><time>2026-04-02T15:31:10.97Z</time></trkpt><trkpt lat="45.7865967" lon="12.3493083"><ele>34.0</ele><time>2026-04-02T15:31:12.971Z</time></trkpt><trkpt lat="45.786615" lon="12.34943"><ele>34.0</ele><time>2026-04-02T15:31:14.971Z</time></trkpt><trkpt lat="45.78658" lon="12.34958"><ele>34.0</ele><time>2026-04-02T15:31:16.971Z</time></trkpt><trkpt lat="45.786555" lon="12.3496733"><ele>34.0</ele><time>2026-04-02T15:31:17.971Z</time></trkpt><trkpt lat="45.7865133" lon="12.349795"><ele>33.5</ele><time>2026-04-02T15:31:18.971Z</time></trkpt><trkpt lat="45.786455" lon="12.3499167"><ele>33.0</ele><time>2026-04-02T15:31:19.971Z</time></trkpt><trkpt lat="45.7863783" lon="12.3501383"><ele>32.5</ele><time>2026-04-02T15:31:21.971Z</time></trkpt><trkpt lat="45.78634" lon="12.350335"><ele>32.0</ele><time>2026-04-02T15:31:23.971Z</time></trkpt><trkpt lat="45.7863267" lon="12.3504633"><ele>31.666666666666664</ele><time>2026-04-02T15:31:24.97Z</time></trkpt><trkpt lat="45.78635" lon="12.350565"><ele>31.333333333333332</ele><time>2026-04-02T15:31:25.971Z</time></trkpt><trkpt lat="45.7863483" lon="12.35068"><ele>31.0</ele><time>2026-04-02T15:31:26.971Z</time></trkpt><trkpt lat="45.7863367" lon="12.3507983"><ele>30.666666666666664</ele><time>2026-04-02T15:31:27.97Z</time></trkpt><trkpt lat="45.78631" lon="12.3509133"><ele>30.333333333333332</ele><time>2026-04-02T15:31:28.971Z</time></trkpt><trkpt lat="45.7862683" lon="12.35103"><ele>30.0</ele><time>2026-04-02T15:31:29.971Z</time></trkpt><trkpt lat="45.7862217" lon="12.3511333"><ele>30.0</ele><time>2026-04-02T15:31:30.971Z</time></trkpt><trkpt lat="45.7861633" lon="12.351225"><ele>30.0</ele><time>2026-04-02T15:31:31.971Z</time></trkpt><trkpt lat="45.7861017" lon="12.3513067"><ele>30.0</ele><time>2026-04-02T15:31:32.97Z</time></trkpt><trkpt lat="45.786015" lon="12.3513483"><ele>30.0</ele><time>2026-04-02T15:31:33.971Z</time></trkpt><trkpt lat="45.7859367" lon="12.3514283"><ele>30.0</ele><time>2026-04-02T15:31:34.971Z</time></trkpt><trkpt lat="45.7858717" lon="12.3515117"><ele>30.0</ele><time>2026-04-02T15:31:35.971Z</time></trkpt><trkpt lat="45.7857717" lon="12.3516517"><ele>31.25</ele><time>2026-04-02T15:31:36.971Z</time></trkpt><trkpt lat="45.785655" lon="12.3517867"><ele>32.5</ele><time>2026-04-02T15:31:37.97Z</time></trkpt><trkpt lat="45.78556" lon="12.3519317"><ele>33.75</ele><time>2026-04-02T15:31:38.971Z</time></trkpt><trkpt lat="45.78548" lon="12.3520283"><ele>35.0</ele><time>2026-04-02T15:31:39.971Z</time></trkpt><trkpt lat="45.7854067" lon="12.352115"><ele>35.0</ele><time>2026-04-02T15:31:40.971Z</time></trkpt><trkpt lat="45.7852533" lon="12.3521717"><ele>35.0</ele><time>2026-04-02T15:31:42.971Z</time></trkpt><trkpt lat="45.785175" lon="12.352155"><ele>35.0</ele><time>2026-04-02T15:31:43.97Z</time></trkpt><trkpt lat="45.78509" lon="12.3521367"><ele>35.0</ele><time>2026-04-02T15:31:44.97Z</time></trkpt><trkpt lat="45.784995" lon="12.3521167"><ele>35.0</ele><time>2026-04-02T15:31:45.971Z</time></trkpt><trkpt lat="45.784905" lon="12.3521167"><ele>35.2</ele><time>2026-04-02T15:31:46.971Z</time></trkpt><trkpt lat="45.7848217" lon="12.352125"><ele>35.4</ele><time>2026-04-02T15:31:47.971Z</time></trkpt><trkpt lat="45.7847367" lon="12.3521467"><ele>35.6</ele><time>2026-04-02T15:31:48.971Z</time></trkpt><trkpt lat="45.7846433" lon="12.3521783"><ele>35.8</ele><time>2026-04-02T15:31:49.971Z</time></trkpt><trkpt lat="45.78453" lon="12.352255"><ele>36.0</ele><time>2026-04-02T15:31:50.971Z</time></trkpt><trkpt lat="45.7844467" lon="12.352315"><ele>35.4</ele><time>2026-04-02T15:31:51.971Z</time></trkpt><trkpt lat="45.7843433" lon="12.3523383"><ele>34.8</ele><time>2026-04-02T15:31:52.97Z</time></trkpt><trkpt lat="45.784235" lon="12.3523533"><ele>34.199999999999996</ele><time>2026-04-02T15:31:53.971Z</time></trkpt><trkpt lat="45.7841217" lon="12.35238"><ele>33.6</ele><time>2026-04-02T15:31:54.971Z</time></trkpt><trkpt lat="45.7840267" lon="12.3524167"><ele>33.0</ele><time>2026-04-02T15:31:55.971Z</time></trkpt><trkpt lat="45.7839517" lon="12.3524583"><ele>33.0</ele><time>2026-04-02T15:31:56.971Z</time></trkpt><trkpt lat="45.783865" lon="12.352585"><ele>33.0</ele><time>2026-04-02T15:31:57.971Z</time></trkpt><trkpt lat="45.7837583" lon="12.3527817"><ele>33.0</ele><time>2026-04-02T15:31:58.971Z</time></trkpt><trkpt lat="45.7836517" lon="12.3529833"><ele>32.333333333333336</ele><time>2026-04-02T15:31:59.971Z</time></trkpt><trkpt lat="45.7835433" lon="12.3531867"><ele>31.666666666666668</ele><time>2026-04-02T15:32:00.971Z</time></trkpt><trkpt lat="45.78344" lon="12.3533733"><ele>31.0</ele><time>2026-04-02T15:32:01.971Z</time></trkpt><trkpt lat="45.7832333" lon="12.3536983"><ele>30.75</ele><time>2026-04-02T15:32:03.971Z</time></trkpt><trkpt lat="45.7831317" lon="12.3538483"><ele>30.5</ele><time>2026-04-02T15:32:04.971Z</time></trkpt><trkpt lat="45.78303" lon="12.3539817"><ele>30.25</ele><time>2026-04-02T15:32:05.971Z</time></trkpt><trkpt lat="45.7829433" lon="12.35411"><ele>30.0</ele><time>2026-04-02T15:32:06.971Z</time></trkpt><trkpt lat="45.7828683" lon="12.3542267"><ele>30.4</ele><time>2026-04-02T15:32:07.971Z</time></trkpt><trkpt lat="45.7828083" lon="12.3543433"><ele>30.8</ele><time>2026-04-02T15:32:08.971Z</time></trkpt><trkpt lat="45.7827417" lon="12.3544717"><ele>31.200000000000003</ele><time>2026-04-02T15:32:09.971Z</time></trkpt><trkpt lat="45.78269" lon="12.3546083"><ele>31.6</ele><time>2026-04-02T15:32:10.971Z</time></trkpt><trkpt lat="45.78264" lon="12.3547317"><ele>32.0</ele><time>2026-04-02T15:32:11.971Z</time></trkpt><trkpt lat="45.7826133" lon="12.3548883"><ele>32.666666666666664</ele><time>2026-04-02T15:32:12.971Z</time></trkpt><trkpt lat="45.7825717" lon="12.3550117"><ele>33.33333333333333</ele><time>2026-04-02T15:32:13.971Z</time></trkpt><trkpt lat="45.7825483" lon="12.355125"><ele>34.0</ele><time>2026-04-02T15:32:14.97Z</time></trkpt><trkpt lat="45.782535" lon="12.3552467"><ele>34.666666666666664</ele><time>2026-04-02T15:32:15.971Z</time></trkpt><trkpt lat="45.7825283" lon="12.35535"><ele>35.333333333333336</ele><time>2026-04-02T15:32:16.971Z</time></trkpt><trkpt lat="45.7825133" lon="12.355485"><ele>36.0</ele><time>2026-04-02T15:32:17.971Z</time></trkpt><trkpt lat="45.7824983" lon="12.3556083"><ele>36.0</ele><time>2026-04-02T15:32:18.971Z</time></trkpt><trkpt lat="45.7824767" lon="12.35575"><ele>36.0</ele><time>2026-04-02T15:32:19.971Z</time></trkpt><trkpt lat="45.7824533" lon="12.3559"><ele>36.0</ele><time>2026-04-02T15:32:20.971Z</time></trkpt><trkpt lat="45.7824333" lon="12.35606"><ele>36.0</ele><time>2026-04-02T15:32:21.97Z</time></trkpt><trkpt lat="45.7824167" lon="12.356195"><ele>36.0</ele><time>2026-04-02T15:32:22.971Z</time></trkpt><trkpt lat="45.7823483" lon="12.3564233"><ele>36.0</ele><time>2026-04-02T15:32:26.971Z</time></trkpt><trkpt lat="45.7823133" lon="12.356505"><ele>36.0</ele><time>2026-04-02T15:32:29.97Z</time></trkpt><trkpt lat="45.7823817" lon="12.356425"><ele>36.0</ele><time>2026-04-02T15:32:35.971Z</time></trkpt><trkpt lat="45.782395" lon="12.3563017"><ele>36.0</ele><time>2026-04-02T15:32:37.971Z</time></trkpt><trkpt lat="45.78241" lon="12.3562"><ele>36.0</ele><time>2026-04-02T15:32:39.971Z</time></trkpt><trkpt lat="45.7823633" lon="12.3560833"><ele>36.0</ele><time>2026-04-02T15:32:42.971Z</time></trkpt><trkpt lat="45.782305" lon="12.3560417"><ele>36.0</ele><time>2026-04-02T15:32:44.971Z</time></trkpt><trkpt lat="45.78211" lon="12.3560967"><ele>36.0</ele><time>2026-04-02T15:32:48.971Z</time></trkpt><trkpt lat="45.7820483" lon="12.3561533"><ele>36.0</ele><time>2026-04-02T15:32:49.971Z</time></trkpt><trkpt lat="45.7819967" lon="12.3562233"><ele>36.0</ele><time>2026-04-02T15:32:50.971Z</time></trkpt><trkpt lat="45.78195" lon="12.3563"><ele>36.0</ele><time>2026-04-02T15:32:51.971Z</time></trkpt><trkpt lat="45.781895" lon="12.3564"><ele>35.25</ele><time>2026-04-02T15:32:52.971Z</time></trkpt><trkpt lat="45.78183" lon="12.35652"><ele>34.5</ele><time>2026-04-02T15:32:53.971Z</time></trkpt><trkpt lat="45.7817517" lon="12.3566333"><ele>33.75</ele><time>2026-04-02T15:32:54.971Z</time></trkpt><trkpt lat="45.7816633" lon="12.3567483"><ele>33.0</ele><time>2026-04-02T15:32:55.971Z</time></trkpt><trkpt lat="45.7815583" lon="12.3568633"><ele>33.0</ele><time>2026-04-02T15:32:56.971Z</time></trkpt><trkpt lat="45.7814417" lon="12.3569583"><ele>33.0</ele><time>2026-04-02T15:32:57.971Z</time></trkpt><trkpt lat="45.7813433" lon="12.3570417"><ele>33.0</ele><time>2026-04-02T15:32:58.971Z</time></trkpt><trkpt lat="45.7812483" lon="12.3571017"><ele>33.0</ele><time>2026-04-02T15:32:59.971Z</time></trkpt><trkpt lat="45.7811633" lon="12.3571617"><ele>33.0</ele><time>2026-04-02T15:33:00.971Z</time></trkpt><trkpt lat="45.7811067" lon="12.3572067"><ele>32.6</ele><time>2026-04-02T15:33:01.97Z</time></trkpt><trkpt lat="45.781055" lon="12.3573017"><ele>32.199999999999996</ele><time>2026-04-02T15:33:02.971Z</time></trkpt><trkpt lat="45.7809867" lon="12.35741"><ele>31.8</ele><time>2026-04-02T15:33:03.971Z</time></trkpt><trkpt lat="45.7809267" lon="12.357525"><ele>31.4</ele><time>2026-04-02T15:33:04.971Z</time></trkpt><trkpt lat="45.780865" lon="12.357655"><ele>31.0</ele><time>2026-04-02T15:33:05.97Z</time></trkpt><trkpt lat="45.7807617" lon="12.3578733"><ele>31.000000000000004</ele><time>2026-04-02T15:33:07.971Z</time></trkpt><trkpt lat="45.78071" lon="12.357945"><ele>31.0</ele><time>2026-04-02T15:33:08.971Z</time></trkpt><trkpt lat="45.7806667" lon="12.3580167"><ele>31.0</ele><time>2026-04-02T15:33:09.97Z</time></trkpt><trkpt lat="45.780635" lon="12.3581483"><ele>31.0</ele><time>2026-04-02T15:33:11.971Z</time></trkpt><trkpt lat="45.7806717" lon="12.35826"><ele>31.000000000000004</ele><time>2026-04-02T15:33:14.971Z</time></trkpt><trkpt lat="45.780755" lon="12.35835"><ele>31.0</ele><time>2026-04-02T15:33:16.971Z</time></trkpt><trkpt lat="45.7808633" lon="12.358435"><ele>31.0</ele><time>2026-04-02T15:33:18.971Z</time></trkpt><trkpt lat="45.78094" lon="12.35854"><ele>31.0</ele><time>2026-04-02T15:33:20.971Z</time></trkpt><trkpt lat="45.781015" lon="12.3586383"><ele>31.0</ele><time>2026-04-02T15:33:22.971Z</time></trkpt><trkpt lat="45.781045" lon="12.358725"><ele>31.0</ele><time>2026-04-02T15:33:24.971Z</time></trkpt><trkpt lat="45.7809967" lon="12.3588733"><ele>31.0</ele><time>2026-04-02T15:33:26.971Z</time></trkpt><trkpt lat="45.7808983" lon="12.35912"><ele>31.0</ele><time>2026-04-02T15:33:28.971Z</time></trkpt><trkpt lat="45.78082" lon="12.359275"><ele>31.0</ele><time>2026-04-02T15:33:29.97Z</time></trkpt><trkpt lat="45.7807417" lon="12.3594583"><ele>31.0</ele><time>2026-04-02T15:33:30.971Z</time></trkpt><trkpt lat="45.7806667" lon="12.3596517"><ele>31.0</ele><time>2026-04-02T15:33:31.97Z</time></trkpt><trkpt lat="45.7806017" lon="12.359855"><ele>31.0</ele><time>2026-04-02T15:33:32.971Z</time></trkpt><trkpt lat="45.7805083" lon="12.3600267"><ele>31.0</ele><time>2026-04-02T15:33:33.971Z</time></trkpt><trkpt lat="45.7804283" lon="12.3602283"><ele>31.0</ele><time>2026-04-02T15:33:34.971Z</time></trkpt><trkpt lat="45.7803533" lon="12.3604583"><ele>30.666666666666668</ele><time>2026-04-02T15:33:35.971Z</time></trkpt><trkpt lat="45.7802683" lon="12.3606883"><ele>30.333333333333336</ele><time>2026-04-02T15:33:36.971Z</time></trkpt><trkpt lat="45.7801683" lon="12.360945"><ele>30.0</ele><time>2026-04-02T15:33:37.971Z</time></trkpt><trkpt lat="45.78009" lon="12.3611833"><ele>29.333333333333336</ele><time>2026-04-02T15:33:38.971Z</time></trkpt><trkpt lat="45.7800183" lon="12.36143"><ele>28.666666666666668</ele><time>2026-04-02T15:33:39.971Z</time></trkpt><trkpt lat="45.7799717" lon="12.3616467"><ele>28.0</ele><time>2026-04-02T15:33:40.971Z</time></trkpt><trkpt lat="45.7799167" lon="12.3618517"><ele>28.0</ele><time>2026-04-02T15:33:41.971Z</time></trkpt><trkpt lat="45.7798467" lon="12.36205"><ele>28.0</ele><time>2026-04-02T15:33:42.971Z</time></trkpt><trkpt lat="45.7797717" lon="12.3622433"><ele>28.0</ele><time>2026-04-02T15:33:43.971Z</time></trkpt><trkpt lat="45.7797017" lon="12.3624267"><ele>27.75</ele><time>2026-04-02T15:33:44.97Z</time></trkpt><trkpt lat="45.7796433" lon="12.3625767"><ele>27.5</ele><time>2026-04-02T15:33:45.971Z</time></trkpt><trkpt lat="45.779595" lon="12.3627117"><ele>27.25</ele><time>2026-04-02T15:33:46.97Z</time></trkpt><trkpt lat="45.77956" lon="12.3628217"><ele>27.0</ele><time>2026-04-02T15:33:47.971Z</time></trkpt><trkpt lat="45.7794933" lon="12.3630083"><ele>26.5</ele><time>2026-04-02T15:33:49.97Z</time></trkpt><trkpt lat="45.7794317" lon="12.36311"><ele>26.0</ele><time>2026-04-02T15:33:51.971Z</time></trkpt><trkpt lat="45.7793633" lon="12.3632233"><ele>25.5</ele><time>2026-04-02T15:35:03.969Z</time></trkpt><trkpt lat="45.7792533" lon="12.363475"><ele>25.0</ele><time>2026-04-02T15:35:05.969Z</time></trkpt><trkpt lat="45.7791917" lon="12.3635933"><ele>25.833333333333336</ele><time>2026-04-02T15:35:06.97Z</time></trkpt><trkpt lat="45.7791233" lon="12.3636567"><ele>26.666666666666668</ele><time>2026-04-02T15:35:07.969Z</time></trkpt><trkpt lat="45.7790517" lon="12.3637367"><ele>27.5</ele><time>2026-04-02T15:35:08.969Z</time></trkpt><trkpt lat="45.7789883" lon="12.3638217"><ele>28.333333333333336</ele><time>2026-04-02T15:35:09.969Z</time></trkpt><trkpt lat="45.7789283" lon="12.3639133"><ele>29.166666666666668</ele><time>2026-04-02T15:35:10.97Z</time></trkpt><trkpt lat="45.7788833" lon="12.36404"><ele>30.0</ele><time>2026-04-02T15:35:11.969Z</time></trkpt><trkpt lat="45.778845" lon="12.364185"><ele>30.2</ele><time>2026-04-02T15:35:12.97Z</time></trkpt><trkpt lat="45.7788017" lon="12.36432"><ele>30.4</ele><time>2026-04-02T15:35:13.97Z</time></trkpt><trkpt lat="45.7787567" lon="12.3644483"><ele>30.6</ele><time>2026-04-02T15:35:14.97Z</time></trkpt><trkpt lat="45.7786983" lon="12.3645633"><ele>30.8</ele><time>2026-04-02T15:35:15.969Z</time></trkpt><trkpt lat="45.778635" lon="12.3647033"><ele>31.0</ele><time>2026-04-02T15:35:16.969Z</time></trkpt><trkpt lat="45.77856" lon="12.3648217"><ele>30.4</ele><time>2026-04-02T15:35:17.969Z</time></trkpt><trkpt lat="45.7784817" lon="12.36493"><ele>29.8</ele><time>2026-04-02T15:35:18.97Z</time></trkpt><trkpt lat="45.7783967" lon="12.3650233"><ele>29.199999999999996</ele><time>2026-04-02T15:35:19.97Z</time></trkpt><trkpt lat="45.7783217" lon="12.3651017"><ele>28.599999999999998</ele><time>2026-04-02T15:35:20.97Z</time></trkpt><trkpt lat="45.7782333" lon="12.3651667"><ele>28.0</ele><time>2026-04-02T15:35:22.97Z</time></trkpt><trkpt lat="45.77823" lon="12.3649817"><ele>28.0</ele><time>2026-04-02T15:35:38.97Z</time></trkpt><trkpt lat="45.7780917" lon="12.3650733"><ele>27.999999999999996</ele><time>2026-04-02T15:35:48.97Z</time></trkpt><trkpt lat="45.7780717" lon="12.3652233"><ele>27.999999999999996</ele><time>2026-04-02T15:35:50.97Z</time></trkpt><trkpt lat="45.77804" lon="12.3653683"><ele>28.0</ele><time>2026-04-02T15:35:52.97Z</time></trkpt><trkpt lat="45.7779833" lon="12.3654133"><ele>28.0</ele><time>2026-04-02T15:35:54.97Z</time></trkpt><trkpt lat="45.7779233" lon="12.3654683"><ele>28.0</ele><time>2026-04-02T15:35:56.97Z</time></trkpt><trkpt lat="45.777855" lon="12.365525"><ele>27.999999999999996</ele><time>2026-04-02T15:35:59.97Z</time></trkpt><trkpt lat="45.77771" lon="12.3656567"><ele>27.999999999999996</ele><time>2026-04-02T15:36:05.969Z</time></trkpt><trkpt lat="45.7776317" lon="12.3657383"><ele>28.0</ele><time>2026-04-02T15:36:07.97Z</time></trkpt><trkpt lat="45.777575" lon="12.365835"><ele>28.0</ele><time>2026-04-02T15:36:09.97Z</time></trkpt><trkpt lat="45.7775383" lon="12.3659517"><ele>28.000000000000004</ele><time>2026-04-02T15:36:11.969Z</time></trkpt><trkpt lat="45.7775167" lon="12.3660533"><ele>28.0</ele><time>2026-04-02T15:36:13.969Z</time></trkpt><trkpt lat="45.7775017" lon="12.3661633"><ele>28.0</ele><time>2026-04-02T15:36:15.97Z</time></trkpt><trkpt lat="45.7774433" lon="12.3662133"><ele>28.0</ele><time>2026-04-02T15:36:17.969Z</time></trkpt><trkpt lat="45.77736" lon="12.3662733"><ele>28.000000000000004</ele><time>2026-04-02T15:36:19.97Z</time></trkpt><trkpt lat="45.7772517" lon="12.3663433"><ele>28.0</ele><time>2026-04-02T15:36:21.97Z</time></trkpt><trkpt lat="45.7771133" lon="12.3664017"><ele>28.0</ele><time>2026-04-02T15:36:24.97Z</time></trkpt><trkpt lat="45.7770133" lon="12.3664617"><ele>28.0</ele><time>2026-04-02T15:36:49.97Z</time></trkpt><trkpt lat="45.7769033" lon="12.36664"><ele>28.0</ele><time>2026-04-02T15:37:12.97Z</time></trkpt><trkpt lat="45.7767517" lon="12.3667733"><ele>28.0</ele><time>2026-04-02T15:37:15.97Z</time></trkpt><trkpt lat="45.7766867" lon="12.3668167"><ele>27.999999999999996</ele><time>2026-04-02T15:37:16.969Z</time></trkpt><trkpt lat="45.776615" lon="12.36687"><ele>27.999999999999996</ele><time>2026-04-02T15:37:17.97Z</time></trkpt><trkpt lat="45.7765217" lon="12.3669167"><ele>28.0</ele><time>2026-04-02T15:37:18.969Z</time></trkpt><trkpt lat="45.7764383" lon="12.3669917"><ele>28.0</ele><time>2026-04-02T15:37:19.97Z</time></trkpt><trkpt lat="45.7763433" lon="12.367085"><ele>27.75</ele><time>2026-04-02T15:37:20.969Z</time></trkpt><trkpt lat="45.7762517" lon="12.3672017"><ele>27.5</ele><time>2026-04-02T15:37:21.97Z</time></trkpt><trkpt lat="45.7761683" lon="12.3673017"><ele>27.25</ele><time>2026-04-02T15:37:22.97Z</time></trkpt><trkpt lat="45.7760817" lon="12.36741"><ele>27.0</ele><time>2026-04-02T15:37:23.969Z</time></trkpt><trkpt lat="45.7759983" lon="12.3675217"><ele>27.0</ele><time>2026-04-02T15:37:24.97Z</time></trkpt><trkpt lat="45.7759083" lon="12.3676217"><ele>27.000000000000004</ele><time>2026-04-02T15:37:25.97Z</time></trkpt><trkpt lat="45.7758217" lon="12.3677017"><ele>27.000000000000004</ele><time>2026-04-02T15:37:26.97Z</time></trkpt><trkpt lat="45.775745" lon="12.367775"><ele>27.0</ele><time>2026-04-02T15:37:27.969Z</time></trkpt><trkpt lat="45.7756717" lon="12.367835"><ele>27.0</ele><time>2026-04-02T15:37:28.969Z</time></trkpt><trkpt lat="45.775595" lon="12.3678917"><ele>27.0</ele><time>2026-04-02T15:37:29.969Z</time></trkpt><trkpt lat="45.7755067" lon="12.3679767"><ele>27.000000000000004</ele><time>2026-04-02T15:37:30.969Z</time></trkpt><trkpt lat="45.7754117" lon="12.368065"><ele>27.000000000000004</ele><time>2026-04-02T15:37:31.97Z</time></trkpt><trkpt lat="45.7753067" lon="12.3681283"><ele>27.0</ele><time>2026-04-02T15:37:32.969Z</time></trkpt><trkpt lat="45.7752083" lon="12.3681983"><ele>27.0</ele><time>2026-04-02T15:37:33.97Z</time></trkpt><trkpt lat="45.7749967" lon="12.3683417"><ele>26.8</ele><time>2026-04-02T15:37:35.97Z</time></trkpt><trkpt lat="45.7749067" lon="12.3684233"><ele>26.6</ele><time>2026-04-02T15:37:36.97Z</time></trkpt><trkpt lat="45.7748233" lon="12.3684983"><ele>26.400000000000002</ele><time>2026-04-02T15:37:37.97Z</time></trkpt><trkpt lat="45.77474" lon="12.3685683"><ele>26.200000000000003</ele><time>2026-04-02T15:37:38.97Z</time></trkpt><trkpt lat="45.7746483" lon="12.3686633"><ele>26.0</ele><time>2026-04-02T15:37:39.969Z</time></trkpt><trkpt lat="45.77457" lon="12.3687567"><ele>26.0</ele><time>2026-04-02T15:37:40.969Z</time></trkpt><trkpt lat="45.7744883" lon="12.36887"><ele>26.0</ele><time>2026-04-02T15:37:41.97Z</time></trkpt><trkpt lat="45.7744" lon="12.3690033"><ele>26.0</ele><time>2026-04-02T15:37:42.97Z</time></trkpt><trkpt lat="45.774305" lon="12.3691333"><ele>26.0</ele><time>2026-04-02T15:37:43.97Z</time></trkpt><trkpt lat="45.7742" lon="12.3692517"><ele>26.0</ele><time>2026-04-02T15:37:44.97Z</time></trkpt><trkpt lat="45.7740883" lon="12.3693733"><ele>26.0</ele><time>2026-04-02T15:37:45.97Z</time></trkpt><trkpt lat="45.7739767" lon="12.3694983"><ele>26.0</ele><time>2026-04-02T15:37:46.97Z</time></trkpt><trkpt lat="45.773865" lon="12.369625"><ele>26.0</ele><time>2026-04-02T15:37:47.97Z</time></trkpt><trkpt lat="45.773775" lon="12.3697417"><ele>26.0</ele><time>2026-04-02T15:37:48.969Z</time></trkpt><trkpt lat="45.773685" lon="12.3698533"><ele>26.0</ele><time>2026-04-02T15:37:49.97Z</time></trkpt><trkpt lat="45.7736" lon="12.36996"><ele>26.0</ele><time>2026-04-02T15:37:50.97Z</time></trkpt><trkpt lat="45.7735233" lon="12.3700417"><ele>26.0</ele><time>2026-04-02T15:37:51.97Z</time></trkpt><trkpt lat="45.7734467" lon="12.3700983"><ele>26.0</ele><time>2026-04-02T15:37:52.97Z</time></trkpt><trkpt lat="45.773385" lon="12.3701467"><ele>26.4</ele><time>2026-04-02T15:37:53.97Z</time></trkpt><trkpt lat="45.7733217" lon="12.37019"><ele>26.8</ele><time>2026-04-02T15:37:54.97Z</time></trkpt><trkpt lat="45.7731117" lon="12.37016"><ele>27.199999999999996</ele><time>2026-04-02T15:37:58.969Z</time></trkpt><trkpt lat="45.77304" lon="12.3701483"><ele>27.599999999999998</ele><time>2026-04-02T15:37:59.97Z</time></trkpt><trkpt lat="45.7729667" lon="12.3701367"><ele>28.0</ele><time>2026-04-02T15:38:00.97Z</time></trkpt><trkpt lat="45.7728867" lon="12.3701183"><ele>28.000000000000004</ele><time>2026-04-02T15:38:01.97Z</time></trkpt><trkpt lat="45.7728183" lon="12.3701"><ele>28.0</ele><time>2026-04-02T15:38:02.97Z</time></trkpt><trkpt lat="45.77275" lon="12.3701067"><ele>28.0</ele><time>2026-04-02T15:38:03.97Z</time></trkpt><trkpt lat="45.77269" lon="12.3701383"><ele>28.0</ele><time>2026-04-02T15:38:04.969Z</time></trkpt><trkpt lat="45.7726267" lon="12.37017"><ele>28.000000000000004</ele><time>2026-04-02T15:38:05.97Z</time></trkpt><trkpt lat="45.7725433" lon="12.3701883"><ele>28.0</ele><time>2026-04-02T15:38:06.97Z</time></trkpt><trkpt lat="45.7724467" lon="12.370195"><ele>28.0</ele><time>2026-04-02T15:38:07.97Z</time></trkpt><trkpt lat="45.7723267" lon="12.3702283"><ele>28.0</ele><time>2026-04-02T15:38:08.97Z</time></trkpt><trkpt lat="45.7722183" lon="12.370265"><ele>28.0</ele><time>2026-04-02T15:38:09.97Z</time></trkpt><trkpt lat="45.77211" lon="12.3703133"><ele>28.0</ele><time>2026-04-02T15:38:10.97Z</time></trkpt><trkpt lat="45.77199" lon="12.3703683"><ele>28.0</ele><time>2026-04-02T15:38:11.97Z</time></trkpt><trkpt lat="45.77188" lon="12.3704133"><ele>28.0</ele><time>2026-04-02T15:38:12.97Z</time></trkpt><trkpt lat="45.7717717" lon="12.3704583"><ele>28.0</ele><time>2026-04-02T15:38:13.97Z</time></trkpt><trkpt lat="45.77165" lon="12.3705033"><ele>28.0</ele><time>2026-04-02T15:38:14.97Z</time></trkpt><trkpt lat="45.771535" lon="12.3705267"><ele>27.75</ele><time>2026-04-02T15:38:15.97Z</time></trkpt><trkpt lat="45.771305" lon="12.3705367"><ele>27.5</ele><time>2026-04-02T15:38:17.969Z</time></trkpt><trkpt lat="45.7712133" lon="12.370575"><ele>27.25</ele><time>2026-04-02T15:38:18.97Z</time></trkpt><trkpt lat="45.7711183" lon="12.3706217"><ele>27.0</ele><time>2026-04-02T15:38:19.969Z</time></trkpt><trkpt lat="45.7710383" lon="12.37069"><ele>26.666666666666668</ele><time>2026-04-02T15:38:20.969Z</time></trkpt><trkpt lat="45.7709533" lon="12.3707617"><ele>26.333333333333336</ele><time>2026-04-02T15:38:21.969Z</time></trkpt><trkpt lat="45.7708783" lon="12.3708117"><ele>26.0</ele><time>2026-04-02T15:38:22.969Z</time></trkpt><trkpt lat="45.7708033" lon="12.3708417"><ele>25.666666666666668</ele><time>2026-04-02T15:38:23.969Z</time></trkpt><trkpt lat="45.770725" lon="12.3708483"><ele>25.333333333333336</ele><time>2026-04-02T15:38:24.969Z</time></trkpt><trkpt lat="45.7706167" lon="12.37082"><ele>25.0</ele><time>2026-04-02T15:38:26.969Z</time></trkpt><trkpt lat="45.7705533" lon="12.3708183"><ele>25.000000000000004</ele><time>2026-04-02T15:38:27.969Z</time></trkpt><trkpt lat="45.7704733" lon="12.3707983"><ele>25.0</ele><time>2026-04-02T15:38:28.968Z</time></trkpt><trkpt lat="45.77041" lon="12.370755"><ele>25.0</ele><time>2026-04-02T15:38:29.969Z</time></trkpt><trkpt lat="45.7703533" lon="12.3707133"><ele>25.0</ele><time>2026-04-02T15:38:30.969Z</time></trkpt><trkpt lat="45.7702567" lon="12.370655"><ele>25.000000000000004</ele><time>2026-04-02T15:38:32.969Z</time></trkpt><trkpt lat="45.7701617" lon="12.370635"><ele>25.0</ele><time>2026-04-02T15:38:34.969Z</time></trkpt><trkpt lat="45.7700783" lon="12.37068"><ele>25.4</ele><time>2026-04-02T15:38:37.969Z</time></trkpt><trkpt lat="45.7699283" lon="12.37078"><ele>25.8</ele><time>2026-04-02T15:38:42.969Z</time></trkpt><trkpt lat="45.7698883" lon="12.3706667"><ele>26.200000000000003</ele><time>2026-04-02T15:38:44.969Z</time></trkpt><trkpt lat="45.7698267" lon="12.37059"><ele>26.6</ele><time>2026-04-02T15:38:46.968Z</time></trkpt><trkpt lat="45.7697317" lon="12.3705867"><ele>27.0</ele><time>2026-04-02T15:38:48.969Z</time></trkpt><trkpt lat="45.7696567" lon="12.3705983"><ele>27.0</ele><time>2026-04-02T15:38:49.968Z</time></trkpt><trkpt lat="45.7695833" lon="12.3706167"><ele>27.0</ele><time>2026-04-02T15:38:50.969Z</time></trkpt><trkpt lat="45.769505" lon="12.37066"><ele>27.0</ele><time>2026-04-02T15:38:51.968Z</time></trkpt><trkpt lat="45.76942" lon="12.3706967"><ele>27.0</ele><time>2026-04-02T15:38:52.969Z</time></trkpt><trkpt lat="45.7693333" lon="12.3707133"><ele>27.0</ele><time>2026-04-02T15:38:53.969Z</time></trkpt><trkpt lat="45.7692467" lon="12.370705"><ele>27.0</ele><time>2026-04-02T15:38:54.969Z</time></trkpt><trkpt lat="45.76917" lon="12.3707133"><ele>27.0</ele><time>2026-04-02T15:38:55.969Z</time></trkpt><trkpt lat="45.7691067" lon="12.370715"><ele>27.0</ele><time>2026-04-02T15:38:56.968Z</time></trkpt><trkpt lat="45.7690433" lon="12.3707333"><ele>27.0</ele><time>2026-04-02T15:38:57.969Z</time></trkpt><trkpt lat="45.768975" lon="12.3707667"><ele>27.0</ele><time>2026-04-02T15:38:58.969Z</time></trkpt><trkpt lat="45.7688317" lon="12.3708367"><ele>27.0</ele><time>2026-04-02T15:39:00.969Z</time></trkpt><trkpt lat="45.7687683" lon="12.3708867"><ele>27.0</ele><time>2026-04-02T15:39:01.969Z</time></trkpt><trkpt lat="45.76868" lon="12.3709283"><ele>27.0</ele><time>2026-04-02T15:39:03.969Z</time></trkpt><trkpt lat="45.7685717" lon="12.371"><ele>27.000000000000004</ele><time>2026-04-02T15:39:05.969Z</time></trkpt><trkpt lat="45.7685183" lon="12.3710617"><ele>27.000000000000004</ele><time>2026-04-02T15:39:06.969Z</time></trkpt><trkpt lat="45.7684133" lon="12.3711517"><ele>27.0</ele><time>2026-04-02T15:39:08.969Z</time></trkpt><trkpt lat="45.7682833" lon="12.3711817"><ele>27.0</ele><time>2026-04-02T15:39:10.969Z</time></trkpt><trkpt lat="45.7682067" lon="12.371185"><ele>26.833333333333332</ele><time>2026-04-02T15:39:11.968Z</time></trkpt><trkpt lat="45.7681283" lon="12.3711867"><ele>26.666666666666664</ele><time>2026-04-02T15:39:12.969Z</time></trkpt><trkpt lat="45.76806" lon="12.3711983"><ele>26.5</ele><time>2026-04-02T15:39:13.968Z</time></trkpt><trkpt lat="45.767985" lon="12.3712183"><ele>26.333333333333332</ele><time>2026-04-02T15:39:14.969Z</time></trkpt><trkpt lat="45.7678917" lon="12.3712417"><ele>26.166666666666664</ele><time>2026-04-02T15:39:15.968Z</time></trkpt><trkpt lat="45.767795" lon="12.3712833"><ele>26.0</ele><time>2026-04-02T15:39:16.969Z</time></trkpt><trkpt lat="45.7676967" lon="12.3713183"><ele>25.8</ele><time>2026-04-02T15:39:17.969Z</time></trkpt><trkpt lat="45.7676133" lon="12.37135"><ele>25.6</ele><time>2026-04-02T15:39:18.969Z</time></trkpt><trkpt lat="45.767535" lon="12.3713783"><ele>25.4</ele><time>2026-04-02T15:39:19.969Z</time></trkpt><trkpt lat="45.7673767" lon="12.3714883"><ele>25.2</ele><time>2026-04-02T15:39:21.968Z</time></trkpt><trkpt lat="45.7672983" lon="12.3715117"><ele>25.0</ele><time>2026-04-02T15:39:22.968Z</time></trkpt><trkpt lat="45.76722" lon="12.3715533"><ele>25.4</ele><time>2026-04-02T15:39:23.969Z</time></trkpt><trkpt lat="45.7671433" lon="12.3716167"><ele>25.8</ele><time>2026-04-02T15:39:24.969Z</time></trkpt><trkpt lat="45.767065" lon="12.3716733"><ele>26.200000000000003</ele><time>2026-04-02T15:39:25.969Z</time></trkpt><trkpt lat="45.7669783" lon="12.3717233"><ele>26.6</ele><time>2026-04-02T15:39:26.969Z</time></trkpt><trkpt lat="45.7668567" lon="12.37176"><ele>27.0</ele><time>2026-04-02T15:39:27.969Z</time></trkpt><trkpt lat="45.7667417" lon="12.3718033"><ele>27.0</ele><time>2026-04-02T15:39:28.969Z</time></trkpt><trkpt lat="45.7666283" lon="12.3718633"><ele>27.000000000000004</ele><time>2026-04-02T15:39:29.969Z</time></trkpt><trkpt lat="45.766525" lon="12.371885"><ele>27.000000000000004</ele><time>2026-04-02T15:39:30.969Z</time></trkpt><trkpt lat="45.7664317" lon="12.3719"><ele>27.0</ele><time>2026-04-02T15:39:31.969Z</time></trkpt><trkpt lat="45.7663417" lon="12.3719067"><ele>27.0</ele><time>2026-04-02T15:39:32.969Z</time></trkpt><trkpt lat="45.7662567" lon="12.37192"><ele>27.0</ele><time>2026-04-02T15:39:33.969Z</time></trkpt><trkpt lat="45.766185" lon="12.3719267"><ele>27.0</ele><time>2026-04-02T15:39:34.969Z</time></trkpt><trkpt lat="45.7661283" lon="12.3719683"><ele>27.0</ele><time>2026-04-02T15:39:35.968Z</time></trkpt><trkpt lat="45.7660717" lon="12.37201"><ele>27.0</ele><time>2026-04-02T15:39:36.969Z</time></trkpt><trkpt lat="45.766005" lon="12.3720567"><ele>27.0</ele><time>2026-04-02T15:39:37.969Z</time></trkpt><trkpt lat="45.7659517" lon="12.3721567"><ele>27.0</ele><time>2026-04-02T15:39:38.969Z</time></trkpt><trkpt lat="45.7658983" lon="12.3722533"><ele>27.0</ele><time>2026-04-02T15:39:39.969Z</time></trkpt><trkpt lat="45.7658433" lon="12.3723933"><ele>26.5</ele><time>2026-04-02T15:39:40.969Z</time></trkpt><trkpt lat="45.7657467" lon="12.3726733"><ele>26.0</ele><time>2026-04-02T15:39:42.969Z</time></trkpt><trkpt lat="45.7657067" lon="12.3728"><ele>25.5</ele><time>2026-04-02T15:39:43.969Z</time></trkpt><trkpt lat="45.7656783" lon="12.37291"><ele>25.0</ele><time>2026-04-02T15:39:44.968Z</time></trkpt><trkpt lat="45.7656417" lon="12.3730367"><ele>25.0</ele><time>2026-04-02T15:39:45.969Z</time></trkpt><trkpt lat="45.7656017" lon="12.3731967"><ele>25.0</ele><time>2026-04-02T15:39:46.969Z</time></trkpt><trkpt lat="45.7655567" lon="12.3733367"><ele>25.0</ele><time>2026-04-02T15:39:47.969Z</time></trkpt><trkpt lat="45.7655217" lon="12.3734617"><ele>25.0</ele><time>2026-04-02T15:39:48.968Z</time></trkpt><trkpt lat="45.7654933" lon="12.3735767"><ele>25.0</ele><time>2026-04-02T15:39:49.969Z</time></trkpt><trkpt lat="45.765445" lon="12.3737133"><ele>25.000000000000004</ele><time>2026-04-02T15:39:50.969Z</time></trkpt><trkpt lat="45.7653967" lon="12.3738367"><ele>25.0</ele><time>2026-04-02T15:39:51.969Z</time></trkpt><trkpt lat="45.765355" lon="12.373955"><ele>25.0</ele><time>2026-04-02T15:39:52.969Z</time></trkpt><trkpt lat="45.76531" lon="12.374065"><ele>25.0</ele><time>2026-04-02T15:39:53.969Z</time></trkpt><trkpt lat="45.7652667" lon="12.3741567"><ele>25.000000000000004</ele><time>2026-04-02T15:39:54.969Z</time></trkpt><trkpt lat="45.7652133" lon="12.374235"><ele>25.0</ele><time>2026-04-02T15:39:55.969Z</time></trkpt><trkpt lat="45.7651867" lon="12.3743183"><ele>25.4</ele><time>2026-04-02T15:39:56.969Z</time></trkpt><trkpt lat="45.7651567" lon="12.3744"><ele>25.8</ele><time>2026-04-02T15:39:57.968Z</time></trkpt><trkpt lat="45.7651183" lon="12.374485"><ele>26.200000000000003</ele><time>2026-04-02T15:39:58.969Z</time></trkpt><trkpt lat="45.7650717" lon="12.3745533"><ele>26.6</ele><time>2026-04-02T15:39:59.969Z</time></trkpt><trkpt lat="45.7649783" lon="12.3745133"><ele>27.0</ele><time>2026-04-02T15:40:02.969Z</time></trkpt><trkpt lat="45.7648533" lon="12.3743533"><ele>27.0</ele><time>2026-04-02T15:40:07.969Z</time></trkpt><trkpt lat="45.7647967" lon="12.37427"><ele>27.0</ele><time>2026-04-02T15:40:09.968Z</time></trkpt><trkpt lat="45.7647417" lon="12.3742217"><ele>27.0</ele><time>2026-04-02T15:40:11.969Z</time></trkpt><trkpt lat="45.7646467" lon="12.3741833"><ele>27.0</ele><time>2026-04-02T15:40:13.969Z</time></trkpt><trkpt lat="45.7645783" lon="12.3741483"><ele>27.0</ele><time>2026-04-02T15:40:14.969Z</time></trkpt><trkpt lat="45.76448" lon="12.374105"><ele>27.0</ele><time>2026-04-02T15:40:15.969Z</time></trkpt><trkpt lat="45.7644017" lon="12.3740583"><ele>27.0</ele><time>2026-04-02T15:40:16.969Z</time></trkpt><trkpt lat="45.7643167" lon="12.374025"><ele>27.0</ele><time>2026-04-02T15:40:17.969Z</time></trkpt><trkpt lat="45.764235" lon="12.37399"><ele>27.0</ele><time>2026-04-02T15:40:18.969Z</time></trkpt><trkpt lat="45.764165" lon="12.3739517"><ele>27.0</ele><time>2026-04-02T15:40:19.968Z</time></trkpt><trkpt lat="45.7640967" lon="12.37392"><ele>27.0</ele><time>2026-04-02T15:40:20.969Z</time></trkpt><trkpt lat="45.7640283" lon="12.373895"><ele>27.0</ele><time>2026-04-02T15:40:21.969Z</time></trkpt><trkpt lat="45.763955" lon="12.3738883"><ele>27.0</ele><time>2026-04-02T15:40:22.969Z</time></trkpt><trkpt lat="45.763855" lon="12.37391"><ele>27.000000000000004</ele><time>2026-04-02T15:40:24.969Z</time></trkpt><trkpt lat="45.763745" lon="12.3740533"><ele>27.000000000000004</ele><time>2026-04-02T15:40:27.969Z</time></trkpt><trkpt lat="45.7636967" lon="12.3741333"><ele>27.0</ele><time>2026-04-02T15:40:28.968Z</time></trkpt><trkpt lat="45.7636417" lon="12.3742083"><ele>27.0</ele><time>2026-04-02T15:40:29.969Z</time></trkpt><trkpt lat="45.7635833" lon="12.3743"><ele>26.6</ele><time>2026-04-02T15:40:30.969Z</time></trkpt><trkpt lat="45.7635217" lon="12.3743883"><ele>26.200000000000003</ele><time>2026-04-02T15:40:31.969Z</time></trkpt><trkpt lat="45.7634733" lon="12.3744867"><ele>25.8</ele><time>2026-04-02T15:40:32.969Z</time></trkpt><trkpt lat="45.763415" lon="12.3745783"><ele>25.4</ele><time>2026-04-02T15:40:33.969Z</time></trkpt><trkpt lat="45.7633533" lon="12.3746983"><ele>25.0</ele><time>2026-04-02T15:40:34.968Z</time></trkpt><trkpt lat="45.7633083" lon="12.3748183"><ele>25.000000000000004</ele><time>2026-04-02T15:40:35.969Z</time></trkpt><trkpt lat="45.763275" lon="12.374905"><ele>25.0</ele><time>2026-04-02T15:40:36.969Z</time></trkpt><trkpt lat="45.7632567" lon="12.3749917"><ele>25.0</ele><time>2026-04-02T15:40:37.968Z</time></trkpt><trkpt lat="45.7632133" lon="12.3751067"><ele>25.0</ele><time>2026-04-02T15:40:39.969Z</time></trkpt><trkpt lat="45.7632017" lon="12.375235"><ele>25.000000000000004</ele><time>2026-04-02T15:40:42.969Z</time></trkpt><trkpt lat="45.7631883" lon="12.3753383"><ele>25.0</ele><time>2026-04-02T15:40:46.969Z</time></trkpt><trkpt lat="45.7630933" lon="12.37548"><ele>24.8</ele><time>2026-04-02T15:40:52.969Z</time></trkpt><trkpt lat="45.763025" lon="12.3755733"><ele>24.6</ele><time>2026-04-02T15:40:54.969Z</time></trkpt><trkpt lat="45.7629667" lon="12.3756383"><ele>24.4</ele><time>2026-04-02T15:40:55.969Z</time></trkpt><trkpt lat="45.7628667" lon="12.375695"><ele>24.2</ele><time>2026-04-02T15:40:57.969Z</time></trkpt><trkpt lat="45.7628233" lon="12.37579"><ele>24.0</ele><time>2026-04-02T15:40:59.969Z</time></trkpt><trkpt lat="45.7627633" lon="12.37595"><ele>24.0</ele><time>2026-04-02T15:41:01.969Z</time></trkpt><trkpt lat="45.76272" lon="12.3760283"><ele>24.0</ele><time>2026-04-02T15:41:02.968Z</time></trkpt><trkpt lat="45.7626583" lon="12.3761117"><ele>24.0</ele><time>2026-04-02T15:41:04.969Z</time></trkpt><trkpt lat="45.762595" lon="12.376115"><ele>24.0</ele><time>2026-04-02T15:41:07.968Z</time></trkpt><trkpt lat="45.76241" lon="12.3762083"><ele>24.0</ele><time>2026-04-02T15:41:13.969Z</time></trkpt><trkpt lat="45.7622567" lon="12.3762517"><ele>23.75</ele><time>2026-04-02T15:41:14.969Z</time></trkpt><trkpt lat="45.7621767" lon="12.3762583"><ele>23.5</ele><time>2026-04-02T15:41:15.969Z</time></trkpt><trkpt lat="45.7620683" lon="12.376255"><ele>23.25</ele><time>2026-04-02T15:41:16.969Z</time></trkpt><trkpt lat="45.7619517" lon="12.3762483"><ele>23.0</ele><time>2026-04-02T15:41:17.969Z</time></trkpt><trkpt lat="45.7617917" lon="12.3762383"><ele>23.0</ele><time>2026-04-02T15:41:18.969Z</time></trkpt><trkpt lat="45.7616317" lon="12.3762333"><ele>23.0</ele><time>2026-04-02T15:41:19.969Z</time></trkpt><trkpt lat="45.7614833" lon="12.3762333"><ele>23.0</ele><time>2026-04-02T15:41:20.969Z</time></trkpt><trkpt lat="45.76133" lon="12.3762767"><ele>23.0</ele><time>2026-04-02T15:41:21.969Z</time></trkpt><trkpt lat="45.76118" lon="12.3763033"><ele>23.0</ele><time>2026-04-02T15:41:22.969Z</time></trkpt><trkpt lat="45.7610083" lon="12.37632"><ele>23.0</ele><time>2026-04-02T15:41:23.969Z</time></trkpt><trkpt lat="45.7608667" lon="12.3763217"><ele>23.0</ele><time>2026-04-02T15:41:24.969Z</time></trkpt><trkpt lat="45.7607267" lon="12.376325"><ele>23.0</ele><time>2026-04-02T15:41:25.969Z</time></trkpt><trkpt lat="45.7605983" lon="12.3763217"><ele>23.0</ele><time>2026-04-02T15:41:26.968Z</time></trkpt><trkpt lat="45.7604383" lon="12.3763233"><ele>23.0</ele><time>2026-04-02T15:41:27.969Z</time></trkpt><trkpt lat="45.76032" lon="12.3763283"><ele>22.75</ele><time>2026-04-02T15:41:28.969Z</time></trkpt><trkpt lat="45.7601183" lon="12.376345"><ele>22.5</ele><time>2026-04-02T15:41:30.969Z</time></trkpt><trkpt lat="45.7600267" lon="12.37635"><ele>22.25</ele><time>2026-04-02T15:41:31.968Z</time></trkpt><trkpt lat="45.7599267" lon="12.3763133"><ele>22.0</ele><time>2026-04-02T15:41:32.969Z</time></trkpt><trkpt lat="45.7598567" lon="12.376255"><ele>22.0</ele><time>2026-04-02T15:41:33.968Z</time></trkpt><trkpt lat="45.7597883" lon="12.3762033"><ele>22.0</ele><time>2026-04-02T15:41:34.969Z</time></trkpt><trkpt lat="45.7597367" lon="12.3761383"><ele>22.0</ele><time>2026-04-02T15:41:35.969Z</time></trkpt><trkpt lat="45.7596933" lon="12.37605"><ele>22.0</ele><time>2026-04-02T15:41:39.969Z</time></trkpt><trkpt lat="45.7596067" lon="12.3759633"><ele>22.0</ele><time>2026-04-02T15:41:42.969Z</time></trkpt><trkpt lat="45.75949" lon="12.3758"><ele>22.0</ele><time>2026-04-02T15:41:44.969Z</time></trkpt><trkpt lat="45.7594517" lon="12.3757283"><ele>22.0</ele><time>2026-04-02T15:41:45.969Z</time></trkpt><trkpt lat="45.75938" lon="12.375635"><ele>22.0</ele><time>2026-04-02T15:41:47.969Z</time></trkpt><trkpt lat="45.7592933" lon="12.3756617"><ele>22.0</ele><time>2026-04-02T15:41:50.968Z</time></trkpt><trkpt lat="45.7591267" lon="12.375845"><ele>22.400000000000002</ele><time>2026-04-02T15:41:53.969Z</time></trkpt><trkpt lat="45.7590367" lon="12.3759067"><ele>22.8</ele><time>2026-04-02T15:41:54.968Z</time></trkpt><trkpt lat="45.758965" lon="12.3759633"><ele>23.2</ele><time>2026-04-02T15:41:55.969Z</time></trkpt><trkpt lat="45.7588967" lon="12.3760467"><ele>23.6</ele><time>2026-04-02T15:41:56.969Z</time></trkpt><trkpt lat="45.75883" lon="12.3761333"><ele>24.0</ele><time>2026-04-02T15:41:57.969Z</time></trkpt><trkpt lat="45.7587517" lon="12.3762383"><ele>23.799999999999997</ele><time>2026-04-02T15:41:58.969Z</time></trkpt><trkpt lat="45.7586683" lon="12.37636"><ele>23.599999999999998</ele><time>2026-04-02T15:41:59.969Z</time></trkpt><trkpt lat="45.7586033" lon="12.3764783"><ele>23.4</ele><time>2026-04-02T15:42:00.969Z</time></trkpt><trkpt lat="45.7585567" lon="12.3765767"><ele>23.2</ele><time>2026-04-02T15:42:01.969Z</time></trkpt><trkpt lat="45.7585233" lon="12.3766783"><ele>23.0</ele><time>2026-04-02T15:42:02.969Z</time></trkpt><trkpt lat="45.758475" lon="12.3767617"><ele>22.599999999999998</ele><time>2026-04-02T15:42:03.969Z</time></trkpt><trkpt lat="45.758465" lon="12.3769033"><ele>22.2</ele><time>2026-04-02T15:42:04.969Z</time></trkpt><trkpt lat="45.7584683" lon="12.3770383"><ele>21.8</ele><time>2026-04-02T15:42:05.968Z</time></trkpt><trkpt lat="45.7584517" lon="12.377165"><ele>21.4</ele><time>2026-04-02T15:42:06.969Z</time></trkpt><trkpt lat="45.7584983" lon="12.377305"><ele>21.0</ele><time>2026-04-02T15:42:07.968Z</time></trkpt><trkpt lat="45.758535" lon="12.3774433"><ele>21.0</ele><time>2026-04-02T15:42:08.968Z</time></trkpt><trkpt lat="45.7585767" lon="12.3775567"><ele>21.0</ele><time>2026-04-02T15:42:09.968Z</time></trkpt><trkpt lat="45.7586133" lon="12.3776867"><ele>21.0</ele><time>2026-04-02T15:42:10.968Z</time></trkpt><trkpt lat="45.7586517" lon="12.3778317"><ele>21.0</ele><time>2026-04-02T15:42:11.967Z</time></trkpt><trkpt lat="45.7587633" lon="12.3780867"><ele>21.0</ele><time>2026-04-02T15:42:13.967Z</time></trkpt><trkpt lat="45.7588117" lon="12.3782217"><ele>21.0</ele><time>2026-04-02T15:42:14.968Z</time></trkpt><trkpt lat="45.7588517" lon="12.37836"><ele>21.0</ele><time>2026-04-02T15:42:15.968Z</time></trkpt><trkpt lat="45.75887" lon="12.3784667"><ele>21.0</ele><time>2026-04-02T15:42:16.968Z</time></trkpt><trkpt lat="45.75887" lon="12.378595"><ele>21.0</ele><time>2026-04-02T15:42:17.968Z</time></trkpt><trkpt lat="45.758855" lon="12.37872"><ele>20.75</ele><time>2026-04-02T15:42:18.968Z</time></trkpt><trkpt lat="45.758815" lon="12.3788517"><ele>20.5</ele><time>2026-04-02T15:42:19.968Z</time></trkpt><trkpt lat="45.7587433" lon="12.3789867"><ele>20.25</ele><time>2026-04-02T15:42:20.968Z</time></trkpt><trkpt lat="45.7586833" lon="12.379145"><ele>20.0</ele><time>2026-04-02T15:42:21.968Z</time></trkpt><trkpt lat="45.7586" lon="12.3792967"><ele>20.0</ele><time>2026-04-02T15:42:22.968Z</time></trkpt><trkpt lat="45.758525" lon="12.3794533"><ele>20.0</ele><time>2026-04-02T15:42:23.968Z</time></trkpt><trkpt lat="45.758425" lon="12.379625"><ele>20.0</ele><time>2026-04-02T15:42:24.968Z</time></trkpt><trkpt lat="45.7583383" lon="12.379755"><ele>20.0</ele><time>2026-04-02T15:42:25.968Z</time></trkpt><trkpt lat="45.758245" lon="12.37986"><ele>20.25</ele><time>2026-04-02T15:42:26.968Z</time></trkpt><trkpt lat="45.758155" lon="12.37995"><ele>20.5</ele><time>2026-04-02T15:42:27.968Z</time></trkpt><trkpt lat="45.7580517" lon="12.3800083"><ele>20.75</ele><time>2026-04-02T15:42:28.968Z</time></trkpt><trkpt lat="45.7579533" lon="12.38007"><ele>21.0</ele><time>2026-04-02T15:42:29.968Z</time></trkpt><trkpt lat="45.7578467" lon="12.3801533"><ele>21.0</ele><time>2026-04-02T15:42:30.968Z</time></trkpt><trkpt lat="45.7577217" lon="12.3802183"><ele>21.0</ele><time>2026-04-02T15:42:31.968Z</time></trkpt><trkpt lat="45.7575933" lon="12.3802483"><ele>21.0</ele><time>2026-04-02T15:42:32.968Z</time></trkpt><trkpt lat="45.757275" lon="12.38023"><ele>21.666666666666668</ele><time>2026-04-02T15:42:34.968Z</time></trkpt><trkpt lat="45.7570983" lon="12.3801933"><ele>22.333333333333336</ele><time>2026-04-02T15:42:35.968Z</time></trkpt><trkpt lat="45.7569467" lon="12.380145"><ele>23.0</ele><time>2026-04-02T15:42:36.968Z</time></trkpt><trkpt lat="45.756805" lon="12.38011"><ele>23.4</ele><time>2026-04-02T15:42:37.968Z</time></trkpt><trkpt lat="45.7566867" lon="12.380095"><ele>23.799999999999997</ele><time>2026-04-02T15:42:38.967Z</time></trkpt><trkpt lat="45.7565533" lon="12.3800967"><ele>24.2</ele><time>2026-04-02T15:42:39.968Z</time></trkpt><trkpt lat="45.7564567" lon="12.380105"><ele>24.6</ele><time>2026-04-02T15:42:40.968Z</time></trkpt><trkpt lat="45.7563617" lon="12.380115"><ele>25.0</ele><time>2026-04-02T15:42:41.968Z</time></trkpt><trkpt lat="45.7562433" lon="12.3801267"><ele>25.0</ele><time>2026-04-02T15:42:42.968Z</time></trkpt><trkpt lat="45.7561033" lon="12.38012"><ele>25.0</ele><time>2026-04-02T15:42:43.968Z</time></trkpt><trkpt lat="45.75598" lon="12.380115"><ele>25.0</ele><time>2026-04-02T15:42:44.968Z</time></trkpt><trkpt lat="45.75587" lon="12.3801033"><ele>25.0</ele><time>2026-04-02T15:42:45.967Z</time></trkpt><trkpt lat="45.7557683" lon="12.3800983"><ele>24.0</ele><time>2026-04-02T15:42:46.968Z</time></trkpt><trkpt lat="45.755665" lon="12.3801033"><ele>23.0</ele><time>2026-04-02T15:42:47.968Z</time></trkpt><trkpt lat="45.755545" lon="12.3801117"><ele>22.0</ele><time>2026-04-02T15:42:48.967Z</time></trkpt><trkpt lat="45.7554383" lon="12.38014"><ele>21.0</ele><time>2026-04-02T15:42:49.968Z</time></trkpt><trkpt lat="45.7553333" lon="12.380185"><ele>20.0</ele><time>2026-04-02T15:42:50.968Z</time></trkpt><trkpt lat="45.75523" lon="12.3802417"><ele>19.5</ele><time>2026-04-02T15:42:51.968Z</time></trkpt><trkpt lat="45.7551433" lon="12.3803083"><ele>19.0</ele><time>2026-04-02T15:42:52.968Z</time></trkpt><trkpt lat="45.7550667" lon="12.3803983"><ele>18.5</ele><time>2026-04-02T15:42:53.968Z</time></trkpt><trkpt lat="45.7549167" lon="12.3806383"><ele>18.0</ele><time>2026-04-02T15:42:55.968Z</time></trkpt><trkpt lat="45.7548267" lon="12.380775"><ele>18.0</ele><time>2026-04-02T15:42:56.968Z</time></trkpt><trkpt lat="45.754735" lon="12.3809067"><ele>18.0</ele><time>2026-04-02T15:42:57.968Z</time></trkpt><trkpt lat="45.75464" lon="12.3810417"><ele>18.0</ele><time>2026-04-02T15:42:58.968Z</time></trkpt><trkpt lat="45.7545267" lon="12.3811767"><ele>18.0</ele><time>2026-04-02T15:42:59.967Z</time></trkpt><trkpt lat="45.7544133" lon="12.3812867"><ele>17.333333333333332</ele><time>2026-04-02T15:43:00.968Z</time></trkpt><trkpt lat="45.7542933" lon="12.38144"><ele>16.666666666666664</ele><time>2026-04-02T15:43:01.968Z</time></trkpt><trkpt lat="45.7541783" lon="12.38158"><ele>16.0</ele><time>2026-04-02T15:43:02.967Z</time></trkpt><trkpt lat="45.7540667" lon="12.381745"><ele>16.0</ele><time>2026-04-02T15:43:03.968Z</time></trkpt><trkpt lat="45.753945" lon="12.3819133"><ele>16.0</ele><time>2026-04-02T15:43:04.967Z</time></trkpt><trkpt lat="45.7538417" lon="12.382095"><ele>16.0</ele><time>2026-04-02T15:43:05.968Z</time></trkpt><trkpt lat="45.7537283" lon="12.38226"><ele>15.666666666666666</ele><time>2026-04-02T15:43:06.968Z</time></trkpt><trkpt lat="45.753625" lon="12.382435"><ele>15.333333333333332</ele><time>2026-04-02T15:43:07.968Z</time></trkpt><trkpt lat="45.7535133" lon="12.38261"><ele>15.0</ele><time>2026-04-02T15:43:08.968Z</time></trkpt><trkpt lat="45.7534017" lon="12.38277"><ele>15.0</ele><time>2026-04-02T15:43:09.968Z</time></trkpt><trkpt lat="45.7533" lon="12.3829217"><ele>15.0</ele><time>2026-04-02T15:43:10.968Z</time></trkpt><trkpt lat="45.7532133" lon="12.383065"><ele>15.0</ele><time>2026-04-02T15:43:11.968Z</time></trkpt><trkpt lat="45.753155" lon="12.3831867"><ele>15.0</ele><time>2026-04-02T15:43:12.968Z</time></trkpt><trkpt lat="45.7531033" lon="12.3833133"><ele>15.8</ele><time>2026-04-02T15:43:13.968Z</time></trkpt><trkpt lat="45.75305" lon="12.383425"><ele>16.6</ele><time>2026-04-02T15:43:14.968Z</time></trkpt><trkpt lat="45.752935" lon="12.38362"><ele>17.4</ele><time>2026-04-02T15:43:16.968Z</time></trkpt><trkpt lat="45.7530067" lon="12.383615"><ele>18.2</ele><time>2026-04-02T15:43:21.968Z</time></trkpt><trkpt lat="45.7530583" lon="12.38369"><ele>19.0</ele><time>2026-04-02T15:43:30.968Z</time></trkpt><trkpt lat="45.75306" lon="12.383835"><ele>19.25</ele><time>2026-04-02T15:43:33.967Z</time></trkpt><trkpt lat="45.7530033" lon="12.384015"><ele>19.5</ele><time>2026-04-02T15:43:35.968Z</time></trkpt><trkpt lat="45.7529433" lon="12.3842867"><ele>19.75</ele><time>2026-04-02T15:43:37.967Z</time></trkpt><trkpt lat="45.75292" lon="12.38442"><ele>20.0</ele><time>2026-04-02T15:43:38.967Z</time></trkpt><trkpt lat="45.7529" lon="12.3845467"><ele>20.0</ele><time>2026-04-02T15:43:39.968Z</time></trkpt><trkpt lat="45.75287" lon="12.3846683"><ele>20.0</ele><time>2026-04-02T15:43:40.968Z</time></trkpt><trkpt lat="45.7528433" lon="12.3847817"><ele>20.0</ele><time>2026-04-02T15:43:41.968Z</time></trkpt><trkpt lat="45.75282" lon="12.38488"><ele>20.0</ele><time>2026-04-02T15:43:42.967Z</time></trkpt><trkpt lat="45.7527967" lon="12.384975"><ele>20.0</ele><time>2026-04-02T15:43:43.967Z</time></trkpt><trkpt lat="45.752775" lon="12.3850833"><ele>20.0</ele><time>2026-04-02T15:43:44.968Z</time></trkpt><trkpt lat="45.7527567" lon="12.3851967"><ele>19.666666666666668</ele><time>2026-04-02T15:43:45.967Z</time></trkpt><trkpt lat="45.7527433" lon="12.3853067"><ele>19.333333333333336</ele><time>2026-04-02T15:43:46.967Z</time></trkpt><trkpt lat="45.7527417" lon="12.3854133"><ele>19.0</ele><time>2026-04-02T15:43:47.968Z</time></trkpt><trkpt lat="45.7527383" lon="12.38551"><ele>18.666666666666668</ele><time>2026-04-02T15:43:48.968Z</time></trkpt><trkpt lat="45.7527317" lon="12.3856533"><ele>18.333333333333332</ele><time>2026-04-02T15:43:50.968Z</time></trkpt><trkpt lat="45.752735" lon="12.3857467"><ele>18.0</ele><time>2026-04-02T15:43:52.967Z</time></trkpt><trkpt lat="45.7527317" lon="12.3859117"><ele>17.75</ele><time>2026-04-02T15:43:54.967Z</time></trkpt><trkpt lat="45.75273" lon="12.3860283"><ele>17.5</ele><time>2026-04-02T15:43:55.968Z</time></trkpt><trkpt lat="45.7527233" lon="12.386155"><ele>17.25</ele><time>2026-04-02T15:43:56.968Z</time></trkpt><trkpt lat="45.75271" lon="12.3864683"><ele>17.0</ele><time>2026-04-02T15:43:58.968Z</time></trkpt><trkpt lat="45.7526967" lon="12.38665"><ele>17.25</ele><time>2026-04-02T15:43:59.968Z</time></trkpt><trkpt lat="45.75269" lon="12.3868367"><ele>17.5</ele><time>2026-04-02T15:44:00.967Z</time></trkpt><trkpt lat="45.752685" lon="12.38702"><ele>17.75</ele><time>2026-04-02T15:44:01.968Z</time></trkpt><trkpt lat="45.75269" lon="12.3871917"><ele>18.0</ele><time>2026-04-02T15:44:02.968Z</time></trkpt><trkpt lat="45.752705" lon="12.3873483"><ele>18.0</ele><time>2026-04-02T15:44:03.968Z</time></trkpt><trkpt lat="45.7527233" lon="12.3874867"><ele>18.0</ele><time>2026-04-02T15:44:04.968Z</time></trkpt><trkpt lat="45.75275" lon="12.3876033"><ele>18.0</ele><time>2026-04-02T15:44:05.968Z</time></trkpt><trkpt lat="45.7527633" lon="12.387705"><ele>18.0</ele><time>2026-04-02T15:44:06.967Z</time></trkpt><trkpt lat="45.75277" lon="12.3878067"><ele>18.0</ele><time>2026-04-02T15:44:07.967Z</time></trkpt><trkpt lat="45.752755" lon="12.3879367"><ele>18.0</ele><time>2026-04-02T15:44:09.967Z</time></trkpt><trkpt lat="45.7526967" lon="12.388015"><ele>18.0</ele><time>2026-04-02T15:44:11.967Z</time></trkpt><trkpt lat="45.7525567" lon="12.3879667"><ele>18.0</ele><time>2026-04-02T15:44:12.968Z</time></trkpt><trkpt lat="45.75241" lon="12.3879117"><ele>18.0</ele><time>2026-04-02T15:44:13.968Z</time></trkpt><trkpt lat="45.752265" lon="12.3878833"><ele>18.0</ele><time>2026-04-02T15:44:14.968Z</time></trkpt><trkpt lat="45.7521433" lon="12.387835"><ele>18.0</ele><time>2026-04-02T15:44:15.968Z</time></trkpt><trkpt lat="45.7520133" lon="12.3878083"><ele>18.0</ele><time>2026-04-02T15:44:16.968Z</time></trkpt><trkpt lat="45.75187" lon="12.3878"><ele>18.0</ele><time>2026-04-02T15:44:17.968Z</time></trkpt><trkpt lat="45.75161" lon="12.38783"><ele>18.0</ele><time>2026-04-02T15:44:19.968Z</time></trkpt><trkpt lat="45.7514917" lon="12.3878783"><ele>18.0</ele><time>2026-04-02T15:44:20.968Z</time></trkpt><trkpt lat="45.751385" lon="12.3879283"><ele>18.0</ele><time>2026-04-02T15:44:21.967Z</time></trkpt><trkpt lat="45.7512817" lon="12.3880133"><ele>18.0</ele><time>2026-04-02T15:44:22.968Z</time></trkpt><trkpt lat="45.751175" lon="12.3882417"><ele>18.0</ele><time>2026-04-02T15:44:23.967Z</time></trkpt><trkpt lat="45.7510783" lon="12.3883883"><ele>18.0</ele><time>2026-04-02T15:44:24.968Z</time></trkpt><trkpt lat="45.7509817" lon="12.3885517"><ele>18.0</ele><time>2026-04-02T15:44:25.968Z</time></trkpt><trkpt lat="45.75089" lon="12.3887133"><ele>18.0</ele><time>2026-04-02T15:44:26.968Z</time></trkpt><trkpt lat="45.750805" lon="12.3888433"><ele>18.25</ele><time>2026-04-02T15:44:27.968Z</time></trkpt><trkpt lat="45.7507083" lon="12.3889783"><ele>18.5</ele><time>2026-04-02T15:44:28.968Z</time></trkpt><trkpt lat="45.750625" lon="12.389105"><ele>18.75</ele><time>2026-04-02T15:44:29.968Z</time></trkpt><trkpt lat="45.7505483" lon="12.3892433"><ele>19.0</ele><time>2026-04-02T15:44:30.968Z</time></trkpt><trkpt lat="45.7504717" lon="12.3893583"><ele>19.0</ele><time>2026-04-02T15:44:31.968Z</time></trkpt><trkpt lat="45.7503817" lon="12.3894883"><ele>19.0</ele><time>2026-04-02T15:44:32.968Z</time></trkpt><trkpt lat="45.75029" lon="12.3895833"><ele>19.0</ele><time>2026-04-02T15:44:33.968Z</time></trkpt><trkpt lat="45.75019" lon="12.38969"><ele>19.0</ele><time>2026-04-02T15:44:34.967Z</time></trkpt><trkpt lat="45.750105" lon="12.3897933"><ele>18.75</ele><time>2026-04-02T15:44:35.968Z</time></trkpt><trkpt lat="45.7500033" lon="12.3898883"><ele>18.5</ele><time>2026-04-02T15:44:36.967Z</time></trkpt><trkpt lat="45.7498983" lon="12.38998"><ele>18.25</ele><time>2026-04-02T15:44:37.968Z</time></trkpt><trkpt lat="45.7497983" lon="12.3900867"><ele>18.0</ele><time>2026-04-02T15:44:38.968Z</time></trkpt><trkpt lat="45.7496117" lon="12.3902967"><ele>18.0</ele><time>2026-04-02T15:44:40.968Z</time></trkpt><trkpt lat="45.7495233" lon="12.3903917"><ele>18.0</ele><time>2026-04-02T15:44:41.968Z</time></trkpt><trkpt lat="45.7494483" lon="12.39047"><ele>18.0</ele><time>2026-04-02T15:44:42.968Z</time></trkpt><trkpt lat="45.7493717" lon="12.3905167"><ele>18.0</ele><time>2026-04-02T15:44:43.967Z</time></trkpt><trkpt lat="45.7493" lon="12.3905183"><ele>18.0</ele><time>2026-04-02T15:44:44.968Z</time></trkpt><trkpt lat="45.74923" lon="12.39054"><ele>18.0</ele><time>2026-04-02T15:44:45.968Z</time></trkpt><trkpt lat="45.7491567" lon="12.390565"><ele>17.833333333333332</ele><time>2026-04-02T15:44:46.968Z</time></trkpt><trkpt lat="45.749085" lon="12.3906217"><ele>17.666666666666668</ele><time>2026-04-02T15:44:47.968Z</time></trkpt><trkpt lat="45.7490167" lon="12.3906767"><ele>17.5</ele><time>2026-04-02T15:44:48.968Z</time></trkpt><trkpt lat="45.7489583" lon="12.3907317"><ele>17.333333333333336</ele><time>2026-04-02T15:44:49.968Z</time></trkpt><trkpt lat="45.7488783" lon="12.3907783"><ele>17.166666666666668</ele><time>2026-04-02T15:44:51.968Z</time></trkpt><trkpt lat="45.7488" lon="12.3908167"><ele>17.0</ele><time>2026-04-02T15:44:53.968Z</time></trkpt><trkpt lat="45.748705" lon="12.3909033"><ele>17.0</ele><time>2026-04-02T15:44:55.968Z</time></trkpt><trkpt lat="45.74865" lon="12.3909567"><ele>17.0</ele><time>2026-04-02T15:44:56.968Z</time></trkpt><trkpt lat="45.7485883" lon="12.3910333"><ele>17.0</ele><time>2026-04-02T15:44:57.968Z</time></trkpt><trkpt lat="45.74852" lon="12.39114"><ele>17.0</ele><time>2026-04-02T15:44:58.968Z</time></trkpt><trkpt lat="45.74845" lon="12.3912433"><ele>17.0</ele><time>2026-04-02T15:44:59.968Z</time></trkpt><trkpt lat="45.7482883" lon="12.39149"><ele>17.25</ele><time>2026-04-02T15:45:01.968Z</time></trkpt><trkpt lat="45.7482067" lon="12.3916267"><ele>17.5</ele><time>2026-04-02T15:45:02.968Z</time></trkpt><trkpt lat="45.7481117" lon="12.3917417"><ele>17.75</ele><time>2026-04-02T15:45:03.968Z</time></trkpt><trkpt lat="45.7480017" lon="12.391865"><ele>18.0</ele><time>2026-04-02T15:45:04.968Z</time></trkpt><trkpt lat="45.7478983" lon="12.3920083"><ele>18.0</ele><time>2026-04-02T15:45:05.967Z</time></trkpt><trkpt lat="45.7477717" lon="12.3921617"><ele>18.0</ele><time>2026-04-02T15:45:06.968Z</time></trkpt><trkpt lat="45.74764" lon="12.3923183"><ele>18.0</ele><time>2026-04-02T15:45:07.968Z</time></trkpt><trkpt lat="45.747515" lon="12.3924617"><ele>18.25</ele><time>2026-04-02T15:45:08.967Z</time></trkpt><trkpt lat="45.7474017" lon="12.392585"><ele>18.5</ele><time>2026-04-02T15:45:09.968Z</time></trkpt><trkpt lat="45.7473" lon="12.3927317"><ele>18.75</ele><time>2026-04-02T15:45:10.968Z</time></trkpt><trkpt lat="45.7472167" lon="12.39288"><ele>19.0</ele><time>2026-04-02T15:45:11.968Z</time></trkpt><trkpt lat="45.7471317" lon="12.393005"><ele>19.0</ele><time>2026-04-02T15:45:12.968Z</time></trkpt><trkpt lat="45.7470267" lon="12.3931433"><ele>19.0</ele><time>2026-04-02T15:45:13.968Z</time></trkpt><trkpt lat="45.7469233" lon="12.3932917"><ele>19.0</ele><time>2026-04-02T15:45:14.967Z</time></trkpt><trkpt lat="45.74681" lon="12.393435"><ele>19.0</ele><time>2026-04-02T15:45:15.968Z</time></trkpt><trkpt lat="45.7466817" lon="12.393565"><ele>19.0</ele><time>2026-04-02T15:45:16.968Z</time></trkpt><trkpt lat="45.746545" lon="12.393715"><ele>19.0</ele><time>2026-04-02T15:45:17.968Z</time></trkpt><trkpt lat="45.7464117" lon="12.3938667"><ele>19.0</ele><time>2026-04-02T15:45:18.968Z</time></trkpt><trkpt lat="45.7462967" lon="12.3940233"><ele>18.5</ele><time>2026-04-02T15:45:19.968Z</time></trkpt><trkpt lat="45.74618" lon="12.3941883"><ele>18.0</ele><time>2026-04-02T15:45:20.968Z</time></trkpt><trkpt lat="45.7459717" lon="12.3944867"><ele>18.5</ele><time>2026-04-02T15:45:22.968Z</time></trkpt><trkpt lat="45.7458633" lon="12.3946267"><ele>19.0</ele><time>2026-04-02T15:45:23.967Z</time></trkpt><trkpt lat="45.7457517" lon="12.3947383"><ele>19.5</ele><time>2026-04-02T15:45:24.968Z</time></trkpt><trkpt lat="45.7456333" lon="12.39484"><ele>20.0</ele><time>2026-04-02T15:45:25.968Z</time></trkpt><trkpt lat="45.74552" lon="12.3949467"><ele>20.0</ele><time>2026-04-02T15:45:26.968Z</time></trkpt><trkpt lat="45.7454133" lon="12.3950717"><ele>20.0</ele><time>2026-04-02T15:45:27.968Z</time></trkpt><trkpt lat="45.7453067" lon="12.3951833"><ele>20.0</ele><time>2026-04-02T15:45:28.968Z</time></trkpt><trkpt lat="45.7451933" lon="12.3952817"><ele>20.0</ele><time>2026-04-02T15:45:29.968Z</time></trkpt><trkpt lat="45.745075" lon="12.3953783"><ele>19.75</ele><time>2026-04-02T15:45:30.968Z</time></trkpt><trkpt lat="45.744955" lon="12.395465"><ele>19.5</ele><time>2026-04-02T15:45:31.968Z</time></trkpt><trkpt lat="45.7448383" lon="12.3955517"><ele>19.25</ele><time>2026-04-02T15:45:32.968Z</time></trkpt><trkpt lat="45.7447233" lon="12.395615"><ele>19.0</ele><time>2026-04-02T15:45:33.967Z</time></trkpt><trkpt lat="45.7446117" lon="12.3956733"><ele>19.0</ele><time>2026-04-02T15:45:34.968Z</time></trkpt><trkpt lat="45.7444817" lon="12.39572"><ele>19.0</ele><time>2026-04-02T15:45:35.968Z</time></trkpt><trkpt lat="45.744335" lon="12.3957717"><ele>19.0</ele><time>2026-04-02T15:45:36.968Z</time></trkpt><trkpt lat="45.7441817" lon="12.39582"><ele>19.0</ele><time>2026-04-02T15:45:37.968Z</time></trkpt><trkpt lat="45.7440217" lon="12.3958483"><ele>18.75</ele><time>2026-04-02T15:45:38.967Z</time></trkpt><trkpt lat="45.7438733" lon="12.3958933"><ele>18.5</ele><time>2026-04-02T15:45:39.968Z</time></trkpt><trkpt lat="45.7437383" lon="12.3959233"><ele>18.25</ele><time>2026-04-02T15:45:40.968Z</time></trkpt><trkpt lat="45.7436267" lon="12.3959417"><ele>18.0</ele><time>2026-04-02T15:45:41.968Z</time></trkpt><trkpt lat="45.74341" lon="12.39602"><ele>17.8</ele><time>2026-04-02T15:45:43.968Z</time></trkpt><trkpt lat="45.7432967" lon="12.396025"><ele>17.6</ele><time>2026-04-02T15:45:44.968Z</time></trkpt><trkpt lat="45.74319" lon="12.3960417"><ele>17.4</ele><time>2026-04-02T15:45:45.968Z</time></trkpt><trkpt lat="45.7430867" lon="12.3960333"><ele>17.2</ele><time>2026-04-02T15:45:46.967Z</time></trkpt><trkpt lat="45.7429867" lon="12.3960333"><ele>17.0</ele><time>2026-04-02T15:45:47.968Z</time></trkpt><trkpt lat="45.7428917" lon="12.39603"><ele>17.0</ele><time>2026-04-02T15:45:48.968Z</time></trkpt><trkpt lat="45.7427867" lon="12.396065"><ele>17.0</ele><time>2026-04-02T15:45:49.968Z</time></trkpt><trkpt lat="45.7426867" lon="12.3960983"><ele>17.0</ele><time>2026-04-02T15:45:50.968Z</time></trkpt><trkpt lat="45.742585" lon="12.3961333"><ele>17.0</ele><time>2026-04-02T15:45:51.968Z</time></trkpt><trkpt lat="45.74249" lon="12.3961717"><ele>17.0</ele><time>2026-04-02T15:45:52.968Z</time></trkpt><trkpt lat="45.7424067" lon="12.396225"><ele>16.833333333333336</ele><time>2026-04-02T15:45:53.968Z</time></trkpt><trkpt lat="45.7423367" lon="12.396285"><ele>16.666666666666668</ele><time>2026-04-02T15:45:54.968Z</time></trkpt><trkpt lat="45.7422783" lon="12.3963567"><ele>16.5</ele><time>2026-04-02T15:45:55.966Z</time></trkpt><trkpt lat="45.7422233" lon="12.3964267"><ele>16.333333333333332</ele><time>2026-04-02T15:45:56.967Z</time></trkpt><trkpt lat="45.7421167" lon="12.3964967"><ele>16.166666666666664</ele><time>2026-04-02T15:45:58.967Z</time></trkpt><trkpt lat="45.7420517" lon="12.3965383"><ele>16.0</ele><time>2026-04-02T15:45:59.967Z</time></trkpt><trkpt lat="45.741985" lon="12.39657"><ele>15.75</ele><time>2026-04-02T15:46:00.967Z</time></trkpt><trkpt lat="45.7418817" lon="12.3965717"><ele>15.5</ele><time>2026-04-02T15:46:02.967Z</time></trkpt><trkpt lat="45.741695" lon="12.3964767"><ele>15.25</ele><time>2026-04-02T15:46:05.967Z</time></trkpt><trkpt lat="45.7416267" lon="12.3963983"><ele>15.0</ele><time>2026-04-02T15:46:06.967Z</time></trkpt><trkpt lat="45.741565" lon="12.3963333"><ele>15.0</ele><time>2026-04-02T15:46:07.967Z</time></trkpt><trkpt lat="45.7415083" lon="12.3962833"><ele>15.0</ele><time>2026-04-02T15:46:08.967Z</time></trkpt><trkpt lat="45.7414317" lon="12.3962633"><ele>15.0</ele><time>2026-04-02T15:46:09.967Z</time></trkpt><trkpt lat="45.7413417" lon="12.3962367"><ele>15.0</ele><time>2026-04-02T15:46:10.967Z</time></trkpt><trkpt lat="45.74126" lon="12.3961883"><ele>15.0</ele><time>2026-04-02T15:46:11.967Z</time></trkpt><trkpt lat="45.7411667" lon="12.3962"><ele>15.0</ele><time>2026-04-02T15:46:12.967Z</time></trkpt><trkpt lat="45.7410667" lon="12.396255"><ele>14.6</ele><time>2026-04-02T15:46:13.966Z</time></trkpt><trkpt lat="45.7409717" lon="12.3963017"><ele>14.2</ele><time>2026-04-02T15:46:14.967Z</time></trkpt><trkpt lat="45.74088" lon="12.3963733"><ele>13.8</ele><time>2026-04-02T15:46:15.967Z</time></trkpt><trkpt lat="45.7407883" lon="12.3964433"><ele>13.4</ele><time>2026-04-02T15:46:16.967Z</time></trkpt><trkpt lat="45.7406933" lon="12.3965233"><ele>13.0</ele><time>2026-04-02T15:46:17.967Z</time></trkpt><trkpt lat="45.7405983" lon="12.39662"><ele>12.75</ele><time>2026-04-02T15:46:18.966Z</time></trkpt><trkpt lat="45.7405017" lon="12.3967233"><ele>12.5</ele><time>2026-04-02T15:46:19.966Z</time></trkpt><trkpt lat="45.7403983" lon="12.396825"><ele>12.25</ele><time>2026-04-02T15:46:20.967Z</time></trkpt><trkpt lat="45.7402917" lon="12.396955"><ele>12.0</ele><time>2026-04-02T15:46:21.966Z</time></trkpt><trkpt lat="45.7402" lon="12.3970683"><ele>12.666666666666668</ele><time>2026-04-02T15:46:22.966Z</time></trkpt><trkpt lat="45.74012" lon="12.39721"><ele>13.333333333333334</ele><time>2026-04-02T15:46:23.966Z</time></trkpt><trkpt lat="45.7399733" lon="12.3974867"><ele>14.0</ele><time>2026-04-02T15:46:25.967Z</time></trkpt><trkpt lat="45.7398983" lon="12.39769"><ele>14.0</ele><time>2026-04-02T15:46:26.967Z</time></trkpt><trkpt lat="45.739845" lon="12.397885"><ele>14.0</ele><time>2026-04-02T15:46:27.967Z</time></trkpt><trkpt lat="45.7397867" lon="12.3981083"><ele>14.0</ele><time>2026-04-02T15:46:28.967Z</time></trkpt><trkpt lat="45.7397317" lon="12.3983167"><ele>14.0</ele><time>2026-04-02T15:46:29.967Z</time></trkpt><trkpt lat="45.7396817" lon="12.3985167"><ele>14.0</ele><time>2026-04-02T15:46:30.967Z</time></trkpt><trkpt lat="45.73963" lon="12.3987083"><ele>14.0</ele><time>2026-04-02T15:46:31.967Z</time></trkpt><trkpt lat="45.7395883" lon="12.39889"><ele>14.0</ele><time>2026-04-02T15:46:32.966Z</time></trkpt><trkpt lat="45.73954" lon="12.3990783"><ele>14.25</ele><time>2026-04-02T15:46:33.967Z</time></trkpt><trkpt lat="45.739485" lon="12.3992617"><ele>14.5</ele><time>2026-04-02T15:46:34.967Z</time></trkpt><trkpt lat="45.7394317" lon="12.39945"><ele>14.75</ele><time>2026-04-02T15:46:35.967Z</time></trkpt><trkpt lat="45.7393717" lon="12.3996383"><ele>15.0</ele><time>2026-04-02T15:46:36.967Z</time></trkpt><trkpt lat="45.7393033" lon="12.3998017"><ele>15.2</ele><time>2026-04-02T15:46:37.967Z</time></trkpt><trkpt lat="45.739245" lon="12.399965"><ele>15.4</ele><time>2026-04-02T15:46:38.967Z</time></trkpt><trkpt lat="45.73919" lon="12.400095"><ele>15.600000000000001</ele><time>2026-04-02T15:46:39.966Z</time></trkpt><trkpt lat="45.7391317" lon="12.4002233"><ele>15.8</ele><time>2026-04-02T15:46:40.966Z</time></trkpt><trkpt lat="45.7390733" lon="12.4003267"><ele>16.0</ele><time>2026-04-02T15:46:41.967Z</time></trkpt><trkpt lat="45.7390033" lon="12.4004117"><ele>15.75</ele><time>2026-04-02T15:46:42.967Z</time></trkpt><trkpt lat="45.738935" lon="12.4005083"><ele>15.5</ele><time>2026-04-02T15:46:43.967Z</time></trkpt><trkpt lat="45.7388383" lon="12.4005983"><ele>15.25</ele><time>2026-04-02T15:46:44.966Z</time></trkpt><trkpt lat="45.7386217" lon="12.4006933"><ele>15.0</ele><time>2026-04-02T15:46:46.967Z</time></trkpt><trkpt lat="45.73851" lon="12.4007367"><ele>15.0</ele><time>2026-04-02T15:46:47.967Z</time></trkpt><trkpt lat="45.7384083" lon="12.4008133"><ele>15.0</ele><time>2026-04-02T15:46:48.967Z</time></trkpt><trkpt lat="45.73831" lon="12.4008933"><ele>15.0</ele><time>2026-04-02T15:46:49.967Z</time></trkpt><trkpt lat="45.7382367" lon="12.4009783"><ele>15.0</ele><time>2026-04-02T15:46:50.967Z</time></trkpt><trkpt lat="45.73817" lon="12.4010717"><ele>15.0</ele><time>2026-04-02T15:46:51.966Z</time></trkpt><trkpt lat="45.7381417" lon="12.4011917"><ele>15.0</ele><time>2026-04-02T15:46:52.967Z</time></trkpt><trkpt lat="45.7380967" lon="12.4013067"><ele>15.0</ele><time>2026-04-02T15:46:53.967Z</time></trkpt><trkpt lat="45.7380317" lon="12.4013733"><ele>15.0</ele><time>2026-04-02T15:46:54.967Z</time></trkpt><trkpt lat="45.7379617" lon="12.40145"><ele>15.0</ele><time>2026-04-02T15:46:55.967Z</time></trkpt><trkpt lat="45.7378883" lon="12.4015317"><ele>15.0</ele><time>2026-04-02T15:46:56.967Z</time></trkpt><trkpt lat="45.7378017" lon="12.40162"><ele>15.0</ele><time>2026-04-02T15:46:57.967Z</time></trkpt><trkpt lat="45.7377233" lon="12.401725"><ele>15.0</ele><time>2026-04-02T15:46:58.967Z</time></trkpt><trkpt lat="45.73764" lon="12.4018317"><ele>15.0</ele><time>2026-04-02T15:46:59.967Z</time></trkpt><trkpt lat="45.7375717" lon="12.40194"><ele>15.0</ele><time>2026-04-02T15:47:00.966Z</time></trkpt><trkpt lat="45.737505" lon="12.402055"><ele>15.0</ele><time>2026-04-02T15:47:01.966Z</time></trkpt><trkpt lat="45.73744" lon="12.4021717"><ele>14.5</ele><time>2026-04-02T15:47:02.967Z</time></trkpt><trkpt lat="45.7373717" lon="12.4022933"><ele>14.0</ele><time>2026-04-02T15:47:03.966Z</time></trkpt><trkpt lat="45.7372967" lon="12.4024017"><ele>13.5</ele><time>2026-04-02T15:47:04.967Z</time></trkpt><trkpt lat="45.7372117" lon="12.4025183"><ele>13.0</ele><time>2026-04-02T15:47:05.967Z</time></trkpt><trkpt lat="45.7370267" lon="12.402765"><ele>13.0</ele><time>2026-04-02T15:47:07.967Z</time></trkpt><trkpt lat="45.736945" lon="12.4028917"><ele>13.0</ele><time>2026-04-02T15:47:08.967Z</time></trkpt><trkpt lat="45.7368733" lon="12.40298"><ele>13.0</ele><time>2026-04-02T15:47:09.967Z</time></trkpt><trkpt lat="45.736815" lon="12.4030833"><ele>13.0</ele><time>2026-04-02T15:47:10.966Z</time></trkpt><trkpt lat="45.7367533" lon="12.4031983"><ele>13.0</ele><time>2026-04-02T15:47:11.967Z</time></trkpt><trkpt lat="45.736685" lon="12.4033033"><ele>12.999999999999998</ele><time>2026-04-02T15:47:12.967Z</time></trkpt><trkpt lat="45.7366183" lon="12.403405"><ele>13.0</ele><time>2026-04-02T15:47:13.967Z</time></trkpt><trkpt lat="45.736545" lon="12.4034983"><ele>13.0</ele><time>2026-04-02T15:47:14.966Z</time></trkpt><trkpt lat="45.7364783" lon="12.4035717"><ele>13.0</ele><time>2026-04-02T15:47:15.967Z</time></trkpt><trkpt lat="45.736405" lon="12.403645"><ele>12.999999999999998</ele><time>2026-04-02T15:47:16.966Z</time></trkpt><trkpt lat="45.736335" lon="12.4036867"><ele>13.0</ele><time>2026-04-02T15:47:17.967Z</time></trkpt><trkpt lat="45.7362583" lon="12.4037617"><ele>13.0</ele><time>2026-04-02T15:47:18.967Z</time></trkpt><trkpt lat="45.7361717" lon="12.4038083"><ele>13.0</ele><time>2026-04-02T15:47:19.966Z</time></trkpt><trkpt lat="45.7360767" lon="12.4038217"><ele>13.0</ele><time>2026-04-02T15:47:20.967Z</time></trkpt><trkpt lat="45.7359733" lon="12.4038183"><ele>13.0</ele><time>2026-04-02T15:47:21.966Z</time></trkpt><trkpt lat="45.735875" lon="12.4038167"><ele>13.0</ele><time>2026-04-02T15:47:22.967Z</time></trkpt><trkpt lat="45.7357867" lon="12.4038333"><ele>13.0</ele><time>2026-04-02T15:47:23.967Z</time></trkpt><trkpt lat="45.7356917" lon="12.4038433"><ele>13.0</ele><time>2026-04-02T15:47:24.967Z</time></trkpt><trkpt lat="45.7355983" lon="12.40386"><ele>13.0</ele><time>2026-04-02T15:47:25.966Z</time></trkpt><trkpt lat="45.7355217" lon="12.403935"><ele>13.0</ele><time>2026-04-02T15:47:26.967Z</time></trkpt><trkpt lat="45.735395" lon="12.4040383"><ele>13.0</ele><time>2026-04-02T15:47:28.966Z</time></trkpt><trkpt lat="45.735335" lon="12.4040733"><ele>12.999999999999998</ele><time>2026-04-02T15:47:29.967Z</time></trkpt><trkpt lat="45.735235" lon="12.404095"><ele>13.0</ele><time>2026-04-02T15:47:31.966Z</time></trkpt><trkpt lat="45.7351517" lon="12.4041483"><ele>13.0</ele><time>2026-04-02T15:47:33.966Z</time></trkpt><trkpt lat="45.7350967" lon="12.404255"><ele>13.0</ele><time>2026-04-02T15:47:35.966Z</time></trkpt><trkpt lat="45.7350633" lon="12.4043433"><ele>12.999999999999998</ele><time>2026-04-02T15:47:36.967Z</time></trkpt><trkpt lat="45.7350283" lon="12.4044467"><ele>13.0</ele><time>2026-04-02T15:47:37.967Z</time></trkpt><trkpt lat="45.73497" lon="12.4045633"><ele>13.0</ele><time>2026-04-02T15:47:38.967Z</time></trkpt><trkpt lat="45.7349067" lon="12.4046817"><ele>13.0</ele><time>2026-04-02T15:47:39.966Z</time></trkpt><trkpt lat="45.734845" lon="12.404805"><ele>13.0</ele><time>2026-04-02T15:47:40.967Z</time></trkpt><trkpt lat="45.73478" lon="12.4049217"><ele>13.0</ele><time>2026-04-02T15:47:41.967Z</time></trkpt><trkpt lat="45.734725" lon="12.4050333"><ele>13.0</ele><time>2026-04-02T15:47:42.967Z</time></trkpt><trkpt lat="45.73468" lon="12.4051867"><ele>13.0</ele><time>2026-04-02T15:47:43.966Z</time></trkpt><trkpt lat="45.73465" lon="12.4053217"><ele>13.0</ele><time>2026-04-02T15:47:44.967Z</time></trkpt><trkpt lat="45.7346367" lon="12.4054517"><ele>13.0</ele><time>2026-04-02T15:47:45.966Z</time></trkpt><trkpt lat="45.7346167" lon="12.4055683"><ele>13.0</ele><time>2026-04-02T15:47:46.967Z</time></trkpt><trkpt lat="45.73459" lon="12.405725"><ele>13.0</ele><time>2026-04-02T15:47:48.967Z</time></trkpt><trkpt lat="45.7345333" lon="12.40593"><ele>13.0</ele><time>2026-04-02T15:47:50.967Z</time></trkpt><trkpt lat="45.7344933" lon="12.4060367"><ele>13.0</ele><time>2026-04-02T15:47:51.967Z</time></trkpt><trkpt lat="45.7344533" lon="12.4061567"><ele>13.0</ele><time>2026-04-02T15:47:52.967Z</time></trkpt><trkpt lat="45.73441" lon="12.4062783"><ele>13.0</ele><time>2026-04-02T15:47:53.967Z</time></trkpt><trkpt lat="45.734365" lon="12.4063983"><ele>13.0</ele><time>2026-04-02T15:47:54.967Z</time></trkpt><trkpt lat="45.7342967" lon="12.4065183"><ele>12.5</ele><time>2026-04-02T15:47:55.966Z</time></trkpt><trkpt lat="45.734225" lon="12.4066383"><ele>12.0</ele><time>2026-04-02T15:47:56.967Z</time></trkpt><trkpt lat="45.7341283" lon="12.406755"><ele>11.5</ele><time>2026-04-02T15:47:57.967Z</time></trkpt><trkpt lat="45.73403" lon="12.4068733"><ele>11.0</ele><time>2026-04-02T15:47:58.967Z</time></trkpt><trkpt lat="45.733935" lon="12.4070183"><ele>11.0</ele><time>2026-04-02T15:47:59.966Z</time></trkpt><trkpt lat="45.73382" lon="12.4071433"><ele>11.0</ele><time>2026-04-02T15:48:00.967Z</time></trkpt><trkpt lat="45.7336933" lon="12.4072767"><ele>11.0</ele><time>2026-04-02T15:48:01.967Z</time></trkpt><trkpt lat="45.73357" lon="12.4074417"><ele>10.0</ele><time>2026-04-02T15:48:02.967Z</time></trkpt><trkpt lat="45.733475" lon="12.4076067"><ele>9.0</ele><time>2026-04-02T15:48:03.967Z</time></trkpt><trkpt lat="45.7333267" lon="12.4077483"><ele>8.0</ele><time>2026-04-02T15:48:04.967Z</time></trkpt><trkpt lat="45.733255" lon="12.4078983"><ele>8.8</ele><time>2026-04-02T15:48:05.967Z</time></trkpt><trkpt lat="45.7331933" lon="12.40805"><ele>9.600000000000001</ele><time>2026-04-02T15:48:06.967Z</time></trkpt><trkpt lat="45.7331233" lon="12.4081767"><ele>10.399999999999999</ele><time>2026-04-02T15:48:07.967Z</time></trkpt><trkpt lat="45.7330917" lon="12.4083"><ele>11.2</ele><time>2026-04-02T15:48:08.967Z</time></trkpt><trkpt lat="45.7330417" lon="12.4084233"><ele>12.0</ele><time>2026-04-02T15:48:09.967Z</time></trkpt><trkpt lat="45.732905" lon="12.40866"><ele>12.0</ele><time>2026-04-02T15:48:11.966Z</time></trkpt><trkpt lat="45.7327983" lon="12.40874"><ele>12.0</ele><time>2026-04-02T15:48:12.967Z</time></trkpt><trkpt lat="45.7326933" lon="12.40882"><ele>12.0</ele><time>2026-04-02T15:48:13.967Z</time></trkpt><trkpt lat="45.73258" lon="12.408875"><ele>12.0</ele><time>2026-04-02T15:48:14.967Z</time></trkpt><trkpt lat="45.7324783" lon="12.4089233"><ele>12.333333333333332</ele><time>2026-04-02T15:48:15.967Z</time></trkpt><trkpt lat="45.732365" lon="12.40895"><ele>12.666666666666666</ele><time>2026-04-02T15:48:16.967Z</time></trkpt><trkpt lat="45.7321833" lon="12.4089667"><ele>13.0</ele><time>2026-04-02T15:48:17.967Z</time></trkpt><trkpt lat="45.7319917" lon="12.408995"><ele>12.75</ele><time>2026-04-02T15:48:18.967Z</time></trkpt><trkpt lat="45.7318467" lon="12.409015"><ele>12.5</ele><time>2026-04-02T15:48:19.967Z</time></trkpt><trkpt lat="45.7317033" lon="12.4090217"><ele>12.25</ele><time>2026-04-02T15:48:20.967Z</time></trkpt><trkpt lat="45.73157" lon="12.4090483"><ele>12.0</ele><time>2026-04-02T15:48:21.966Z</time></trkpt><trkpt lat="45.7314167" lon="12.4090633"><ele>12.0</ele><time>2026-04-02T15:48:22.967Z</time></trkpt><trkpt lat="45.7312917" lon="12.4091283"><ele>12.0</ele><time>2026-04-02T15:48:23.967Z</time></trkpt><trkpt lat="45.7311783" lon="12.4091867"><ele>12.0</ele><time>2026-04-02T15:48:24.967Z</time></trkpt><trkpt lat="45.7310617" lon="12.409255"><ele>12.0</ele><time>2026-04-02T15:48:25.967Z</time></trkpt><trkpt lat="45.7309517" lon="12.4093183"><ele>12.0</ele><time>2026-04-02T15:48:26.967Z</time></trkpt><trkpt lat="45.7308383" lon="12.40937"><ele>12.0</ele><time>2026-04-02T15:48:27.967Z</time></trkpt><trkpt lat="45.730735" lon="12.40943"><ele>12.0</ele><time>2026-04-02T15:48:28.966Z</time></trkpt><trkpt lat="45.7306383" lon="12.409475"><ele>12.0</ele><time>2026-04-02T15:48:29.966Z</time></trkpt><trkpt lat="45.7305417" lon="12.4095317"><ele>12.0</ele><time>2026-04-02T15:48:30.967Z</time></trkpt><trkpt lat="45.73034" lon="12.4096817"><ele>12.0</ele><time>2026-04-02T15:48:32.967Z</time></trkpt><trkpt lat="45.7302417" lon="12.4097633"><ele>12.0</ele><time>2026-04-02T15:48:33.967Z</time></trkpt><trkpt lat="45.730135" lon="12.4098517"><ele>12.0</ele><time>2026-04-02T15:48:34.966Z</time></trkpt><trkpt lat="45.7300283" lon="12.4099817"><ele>12.0</ele><time>2026-04-02T15:48:35.967Z</time></trkpt><trkpt lat="45.729915" lon="12.41014"><ele>12.0</ele><time>2026-04-02T15:48:36.967Z</time></trkpt><trkpt lat="45.729795" lon="12.4102633"><ele>12.0</ele><time>2026-04-02T15:48:37.967Z</time></trkpt><trkpt lat="45.7296767" lon="12.410395"><ele>12.0</ele><time>2026-04-02T15:48:38.966Z</time></trkpt><trkpt lat="45.7295683" lon="12.41049"><ele>12.0</ele><time>2026-04-02T15:48:39.967Z</time></trkpt><trkpt lat="45.7294617" lon="12.41058"><ele>12.6</ele><time>2026-04-02T15:48:40.967Z</time></trkpt><trkpt lat="45.7293483" lon="12.4106517"><ele>13.2</ele><time>2026-04-02T15:48:41.967Z</time></trkpt><trkpt lat="45.7292483" lon="12.4107267"><ele>13.8</ele><time>2026-04-02T15:48:42.967Z</time></trkpt><trkpt lat="45.7291633" lon="12.4107717"><ele>14.4</ele><time>2026-04-02T15:48:43.967Z</time></trkpt><trkpt lat="45.729095" lon="12.4108033"><ele>15.0</ele><time>2026-04-02T15:48:44.967Z</time></trkpt><trkpt lat="45.729035" lon="12.4108317"><ele>15.0</ele><time>2026-04-02T15:48:45.966Z</time></trkpt><trkpt lat="45.7289483" lon="12.4108567"><ele>15.0</ele><time>2026-04-02T15:48:47.967Z</time></trkpt><trkpt lat="45.7288917" lon="12.410785"><ele>15.0</ele><time>2026-04-02T15:48:49.967Z</time></trkpt><trkpt lat="45.7287917" lon="12.4106667"><ele>15.0</ele><time>2026-04-02T15:48:51.966Z</time></trkpt><trkpt lat="45.7286517" lon="12.4105667"><ele>14.25</ele><time>2026-04-02T15:48:54.967Z</time></trkpt><trkpt lat="45.7285283" lon="12.4105433"><ele>13.5</ele><time>2026-04-02T15:48:56.967Z</time></trkpt><trkpt lat="45.728455" lon="12.4105967"><ele>12.75</ele><time>2026-04-02T15:48:57.967Z</time></trkpt><trkpt lat="45.7283583" lon="12.41076"><ele>12.0</ele><time>2026-04-02T15:48:58.967Z</time></trkpt><trkpt lat="45.72826" lon="12.4109267"><ele>12.0</ele><time>2026-04-02T15:48:59.967Z</time></trkpt><trkpt lat="45.7281667" lon="12.4110567"><ele>12.0</ele><time>2026-04-02T15:49:00.967Z</time></trkpt><trkpt lat="45.728075" lon="12.4111633"><ele>12.0</ele><time>2026-04-02T15:49:01.967Z</time></trkpt><trkpt lat="45.727975" lon="12.41128"><ele>12.0</ele><time>2026-04-02T15:49:02.967Z</time></trkpt><trkpt lat="45.7278617" lon="12.411395"><ele>11.666666666666666</ele><time>2026-04-02T15:49:03.967Z</time></trkpt><trkpt lat="45.7277317" lon="12.4115183"><ele>11.333333333333332</ele><time>2026-04-02T15:49:04.967Z</time></trkpt><trkpt lat="45.7275983" lon="12.4116217"><ele>11.0</ele><time>2026-04-02T15:49:05.967Z</time></trkpt><trkpt lat="45.7274633" lon="12.4117167"><ele>10.333333333333332</ele><time>2026-04-02T15:49:06.967Z</time></trkpt><trkpt lat="45.72731" lon="12.4118233"><ele>9.666666666666666</ele><time>2026-04-02T15:49:07.967Z</time></trkpt><trkpt lat="45.727175" lon="12.411925"><ele>9.0</ele><time>2026-04-02T15:49:08.967Z</time></trkpt><trkpt lat="45.727045" lon="12.4120317"><ele>9.0</ele><time>2026-04-02T15:49:09.966Z</time></trkpt><trkpt lat="45.7269217" lon="12.412135"><ele>9.0</ele><time>2026-04-02T15:49:10.966Z</time></trkpt><trkpt lat="45.7268083" lon="12.412225"><ele>9.0</ele><time>2026-04-02T15:49:11.967Z</time></trkpt><trkpt lat="45.7267033" lon="12.4123167"><ele>9.0</ele><time>2026-04-02T15:49:12.967Z</time></trkpt><trkpt lat="45.7265217" lon="12.4125"><ele>9.2</ele><time>2026-04-02T15:49:14.966Z</time></trkpt><trkpt lat="45.7264317" lon="12.41256"><ele>9.4</ele><time>2026-04-02T15:49:15.967Z</time></trkpt><trkpt lat="45.726355" lon="12.412615"><ele>9.6</ele><time>2026-04-02T15:49:16.967Z</time></trkpt><trkpt lat="45.72627" lon="12.4126967"><ele>9.8</ele><time>2026-04-02T15:49:17.967Z</time></trkpt><trkpt lat="45.726185" lon="12.412785"><ele>10.0</ele><time>2026-04-02T15:49:18.967Z</time></trkpt><trkpt lat="45.7261083" lon="12.41289"><ele>10.0</ele><time>2026-04-02T15:49:19.967Z</time></trkpt><trkpt lat="45.7260317" lon="12.4129867"><ele>10.0</ele><time>2026-04-02T15:49:20.966Z</time></trkpt><trkpt lat="45.7259567" lon="12.4131183"><ele>10.0</ele><time>2026-04-02T15:49:21.967Z</time></trkpt><trkpt lat="45.7258917" lon="12.413215"><ele>10.0</ele><time>2026-04-02T15:49:22.967Z</time></trkpt><trkpt lat="45.7258283" lon="12.4133117"><ele>10.0</ele><time>2026-04-02T15:49:23.967Z</time></trkpt><trkpt lat="45.7257917" lon="12.4134167"><ele>10.0</ele><time>2026-04-02T15:49:24.966Z</time></trkpt><trkpt lat="45.725755" lon="12.4135167"><ele>10.0</ele><time>2026-04-02T15:49:25.967Z</time></trkpt><trkpt lat="45.7257183" lon="12.4136067"><ele>10.0</ele><time>2026-04-02T15:49:26.967Z</time></trkpt><trkpt lat="45.7256733" lon="12.4136967"><ele>10.0</ele><time>2026-04-02T15:49:27.967Z</time></trkpt><trkpt lat="45.7256217" lon="12.413775"><ele>10.0</ele><time>2026-04-02T15:49:28.966Z</time></trkpt><trkpt lat="45.7255317" lon="12.41385"><ele>10.0</ele><time>2026-04-02T15:49:30.966Z</time></trkpt><trkpt lat="45.72542" lon="12.41385"><ele>10.0</ele><time>2026-04-02T15:49:32.967Z</time></trkpt><trkpt lat="45.7252917" lon="12.41382"><ele>10.0</ele><time>2026-04-02T15:49:33.967Z</time></trkpt><trkpt lat="45.725075" lon="12.413785"><ele>10.0</ele><time>2026-04-02T15:49:35.967Z</time></trkpt><trkpt lat="45.7249617" lon="12.4137233"><ele>10.0</ele><time>2026-04-02T15:49:36.966Z</time></trkpt><trkpt lat="45.72486" lon="12.4136883"><ele>10.0</ele><time>2026-04-02T15:49:37.966Z</time></trkpt><trkpt lat="45.7247633" lon="12.41367"><ele>10.0</ele><time>2026-04-02T15:49:38.967Z</time></trkpt><trkpt lat="45.724665" lon="12.4137"><ele>10.0</ele><time>2026-04-02T15:49:39.967Z</time></trkpt><trkpt lat="45.72458" lon="12.41378"><ele>10.0</ele><time>2026-04-02T15:49:40.967Z</time></trkpt><trkpt lat="45.7245017" lon="12.413865"><ele>10.166666666666668</ele><time>2026-04-02T15:49:41.967Z</time></trkpt><trkpt lat="45.724435" lon="12.4139833"><ele>10.333333333333334</ele><time>2026-04-02T15:49:42.966Z</time></trkpt><trkpt lat="45.724385" lon="12.4140917"><ele>10.5</ele><time>2026-04-02T15:49:43.966Z</time></trkpt><trkpt lat="45.7243517" lon="12.4141833"><ele>10.666666666666666</ele><time>2026-04-02T15:49:44.967Z</time></trkpt><trkpt lat="45.724315" lon="12.4142883"><ele>10.833333333333332</ele><time>2026-04-02T15:49:45.966Z</time></trkpt><trkpt lat="45.7242667" lon="12.41439"><ele>11.0</ele><time>2026-04-02T15:49:46.966Z</time></trkpt><trkpt lat="45.7242067" lon="12.4145117"><ele>11.0</ele><time>2026-04-02T15:49:47.966Z</time></trkpt><trkpt lat="45.724145" lon="12.4146383"><ele>11.0</ele><time>2026-04-02T15:49:48.966Z</time></trkpt><trkpt lat="45.72408" lon="12.4147833"><ele>11.0</ele><time>2026-04-02T15:49:49.966Z</time></trkpt><trkpt lat="45.7240083" lon="12.4149167"><ele>11.0</ele><time>2026-04-02T15:49:50.966Z</time></trkpt><trkpt lat="45.723935" lon="12.4150717"><ele>11.0</ele><time>2026-04-02T15:49:51.965Z</time></trkpt><trkpt lat="45.723865" lon="12.4152483"><ele>11.0</ele><time>2026-04-02T15:49:52.966Z</time></trkpt><trkpt lat="45.7237983" lon="12.4154067"><ele>11.0</ele><time>2026-04-02T15:49:53.966Z</time></trkpt><trkpt lat="45.723745" lon="12.4155517"><ele>11.0</ele><time>2026-04-02T15:49:54.965Z</time></trkpt><trkpt lat="45.723685" lon="12.4158467"><ele>11.25</ele><time>2026-04-02T15:49:56.966Z</time></trkpt><trkpt lat="45.7236717" lon="12.416025"><ele>11.5</ele><time>2026-04-02T15:49:57.966Z</time></trkpt><trkpt lat="45.723665" lon="12.41619"><ele>11.75</ele><time>2026-04-02T15:49:58.966Z</time></trkpt><trkpt lat="45.7236633" lon="12.41636"><ele>12.0</ele><time>2026-04-02T15:49:59.966Z</time></trkpt><trkpt lat="45.7236567" lon="12.4165083"><ele>11.8</ele><time>2026-04-02T15:50:00.966Z</time></trkpt><trkpt lat="45.7236217" lon="12.4166383"><ele>11.6</ele><time>2026-04-02T15:50:01.966Z</time></trkpt><trkpt lat="45.7235817" lon="12.416785"><ele>11.4</ele><time>2026-04-02T15:50:02.966Z</time></trkpt><trkpt lat="45.723525" lon="12.4169017"><ele>11.200000000000001</ele><time>2026-04-02T15:50:03.966Z</time></trkpt><trkpt lat="45.7234717" lon="12.4170133"><ele>11.0</ele><time>2026-04-02T15:50:04.966Z</time></trkpt><trkpt lat="45.72341" lon="12.4170967"><ele>11.0</ele><time>2026-04-02T15:50:05.966Z</time></trkpt><trkpt lat="45.7233583" lon="12.4171483"><ele>11.0</ele><time>2026-04-02T15:50:06.965Z</time></trkpt><trkpt lat="45.72329" lon="12.41719"><ele>11.0</ele><time>2026-04-02T15:50:07.966Z</time></trkpt><trkpt lat="45.7232183" lon="12.417225"><ele>11.0</ele><time>2026-04-02T15:50:08.965Z</time></trkpt><trkpt lat="45.723145" lon="12.4172817"><ele>11.0</ele><time>2026-04-02T15:50:09.966Z</time></trkpt><trkpt lat="45.723065" lon="12.417345"><ele>11.0</ele><time>2026-04-02T15:50:10.965Z</time></trkpt><trkpt lat="45.7229867" lon="12.4174183"><ele>10.8</ele><time>2026-04-02T15:50:11.966Z</time></trkpt><trkpt lat="45.72292" lon="12.4174883"><ele>10.600000000000001</ele><time>2026-04-02T15:50:12.965Z</time></trkpt><trkpt lat="45.7228717" lon="12.4175867"><ele>10.4</ele><time>2026-04-02T15:50:13.966Z</time></trkpt><trkpt lat="45.7228133" lon="12.4176817"><ele>10.2</ele><time>2026-04-02T15:50:14.966Z</time></trkpt><trkpt lat="45.722805" lon="12.4177733"><ele>10.0</ele><time>2026-04-02T15:50:15.965Z</time></trkpt><trkpt lat="45.7228083" lon="12.41797"><ele>9.8</ele><time>2026-04-02T15:50:17.966Z</time></trkpt><trkpt lat="45.72283" lon="12.418065"><ele>9.6</ele><time>2026-04-02T15:50:18.966Z</time></trkpt><trkpt lat="45.7228517" lon="12.418185"><ele>9.4</ele><time>2026-04-02T15:50:20.966Z</time></trkpt><trkpt lat="45.7229033" lon="12.4182833"><ele>9.2</ele><time>2026-04-02T15:50:23.965Z</time></trkpt><trkpt lat="45.7229917" lon="12.418345"><ele>9.0</ele><time>2026-04-02T15:50:25.966Z</time></trkpt><trkpt lat="45.72309" lon="12.4184233"><ele>9.0</ele><time>2026-04-02T15:50:27.965Z</time></trkpt><trkpt lat="45.723175" lon="12.41849"><ele>9.0</ele><time>2026-04-02T15:50:29.966Z</time></trkpt><trkpt lat="45.723195" lon="12.418585"><ele>9.0</ele><time>2026-04-02T15:50:31.966Z</time></trkpt><trkpt lat="45.7232033" lon="12.4186917"><ele>9.0</ele><time>2026-04-02T15:50:33.966Z</time></trkpt><trkpt lat="45.72319" lon="12.4188783"><ele>9.0</ele><time>2026-04-02T15:50:35.966Z</time></trkpt><trkpt lat="45.723165" lon="12.4190083"><ele>10.0</ele><time>2026-04-02T15:50:36.966Z</time></trkpt><trkpt lat="45.7230867" lon="12.4193333"><ele>11.0</ele><time>2026-04-02T15:50:38.966Z</time></trkpt><trkpt lat="45.7230433" lon="12.4194867"><ele>12.0</ele><time>2026-04-02T15:50:39.966Z</time></trkpt><trkpt lat="45.72301" lon="12.419625"><ele>11.8</ele><time>2026-04-02T15:50:40.966Z</time></trkpt><trkpt lat="45.722995" lon="12.4197533"><ele>11.6</ele><time>2026-04-02T15:50:41.966Z</time></trkpt><trkpt lat="45.72298" lon="12.4198533"><ele>11.4</ele><time>2026-04-02T15:50:42.966Z</time></trkpt><trkpt lat="45.72296" lon="12.4199783"><ele>11.200000000000001</ele><time>2026-04-02T15:50:44.966Z</time></trkpt><trkpt lat="45.7230083" lon="12.4200367"><ele>11.0</ele><time>2026-04-02T15:51:36.966Z</time></trkpt><trkpt lat="45.7230517" lon="12.420265"><ele>11.0</ele><time>2026-04-02T15:51:39.966Z</time></trkpt><trkpt lat="45.72307" lon="12.42039"><ele>11.0</ele><time>2026-04-02T15:51:40.966Z</time></trkpt><trkpt lat="45.7231067" lon="12.4205433"><ele>11.0</ele><time>2026-04-02T15:51:41.966Z</time></trkpt><trkpt lat="45.7231267" lon="12.420705"><ele>11.0</ele><time>2026-04-02T15:51:42.966Z</time></trkpt><trkpt lat="45.7231517" lon="12.42086"><ele>11.0</ele><time>2026-04-02T15:51:43.966Z</time></trkpt><trkpt lat="45.7231733" lon="12.4210017"><ele>11.200000000000001</ele><time>2026-04-02T15:51:44.966Z</time></trkpt><trkpt lat="45.7231983" lon="12.4211333"><ele>11.4</ele><time>2026-04-02T15:51:45.966Z</time></trkpt><trkpt lat="45.723235" lon="12.4212533"><ele>11.6</ele><time>2026-04-02T15:51:46.966Z</time></trkpt><trkpt lat="45.7232783" lon="12.421375"><ele>11.8</ele><time>2026-04-02T15:51:47.966Z</time></trkpt><trkpt lat="45.7233117" lon="12.4215017"><ele>12.0</ele><time>2026-04-02T15:51:48.966Z</time></trkpt><trkpt lat="45.723345" lon="12.4216067"><ele>11.6</ele><time>2026-04-02T15:51:49.966Z</time></trkpt><trkpt lat="45.72337" lon="12.4217467"><ele>11.2</ele><time>2026-04-02T15:51:51.966Z</time></trkpt><trkpt lat="45.7232917" lon="12.4217317"><ele>10.8</ele><time>2026-04-02T15:51:53.966Z</time></trkpt><trkpt lat="45.7232267" lon="12.4217383"><ele>10.4</ele><time>2026-04-02T15:51:56.965Z</time></trkpt><trkpt lat="45.7231733" lon="12.4217917"><ele>10.0</ele><time>2026-04-02T15:51:58.966Z</time></trkpt><trkpt lat="45.72304" lon="12.4220017"><ele>10.0</ele><time>2026-04-02T15:52:02.966Z</time></trkpt><trkpt lat="45.72299" lon="12.4220767"><ele>10.0</ele><time>2026-04-02T15:52:04.966Z</time></trkpt><trkpt lat="45.7229467" lon="12.4221517"><ele>10.0</ele><time>2026-04-02T15:52:06.966Z</time></trkpt><trkpt lat="45.7229033" lon="12.4222367"><ele>10.0</ele><time>2026-04-02T15:52:08.966Z</time></trkpt><trkpt lat="45.7228233" lon="12.422225"><ele>10.0</ele><time>2026-04-02T15:52:12.966Z</time></trkpt><trkpt lat="45.72276" lon="12.4221517"><ele>10.0</ele><time>2026-04-02T15:52:14.965Z</time></trkpt><trkpt lat="45.7226767" lon="12.4221283"><ele>9.75</ele><time>2026-04-02T15:52:17.966Z</time></trkpt><trkpt lat="45.7225917" lon="12.4222067"><ele>9.5</ele><time>2026-04-02T15:52:21.966Z</time></trkpt><trkpt lat="45.7224917" lon="12.4223883"><ele>9.25</ele><time>2026-04-02T15:52:26.966Z</time></trkpt><trkpt lat="45.7224133" lon="12.4225233"><ele>9.0</ele><time>2026-04-02T15:52:28.965Z</time></trkpt><trkpt lat="45.7223533" lon="12.4225783"><ele>9.0</ele><time>2026-04-02T15:52:29.966Z</time></trkpt><trkpt lat="45.722275" lon="12.422705"><ele>9.0</ele><time>2026-04-02T15:52:31.966Z</time></trkpt><trkpt lat="45.7221967" lon="12.422815"><ele>9.0</ele><time>2026-04-02T15:52:33.966Z</time></trkpt><trkpt lat="45.7221183" lon="12.4229217"><ele>9.0</ele><time>2026-04-02T15:52:35.966Z</time></trkpt><trkpt lat="45.722025" lon="12.4229933"><ele>9.0</ele><time>2026-04-02T15:52:37.966Z</time></trkpt><trkpt lat="45.7219383" lon="12.4230883"><ele>9.0</ele><time>2026-04-02T15:52:39.966Z</time></trkpt><trkpt lat="45.7219133" lon="12.423175"><ele>9.0</ele><time>2026-04-02T15:52:41.965Z</time></trkpt><trkpt lat="45.721875" lon="12.4233033"><ele>9.0</ele><time>2026-04-02T15:52:43.966Z</time></trkpt><trkpt lat="45.7217283" lon="12.4235033"><ele>9.0</ele><time>2026-04-02T15:52:46.966Z</time></trkpt><trkpt lat="45.7216483" lon="12.423605"><ele>9.4</ele><time>2026-04-02T15:52:47.966Z</time></trkpt><trkpt lat="45.72158" lon="12.423705"><ele>9.8</ele><time>2026-04-02T15:52:48.966Z</time></trkpt><trkpt lat="45.72151" lon="12.423805"><ele>10.200000000000001</ele><time>2026-04-02T15:52:49.966Z</time></trkpt><trkpt lat="45.7214383" lon="12.4239"><ele>10.600000000000001</ele><time>2026-04-02T15:52:50.966Z</time></trkpt><trkpt lat="45.7213667" lon="12.4239617"><ele>11.0</ele><time>2026-04-02T15:52:51.966Z</time></trkpt><trkpt lat="45.7213017" lon="12.4240467"><ele>11.0</ele><time>2026-04-02T15:52:52.965Z</time></trkpt><trkpt lat="45.7212467" lon="12.4241267"><ele>11.0</ele><time>2026-04-02T15:52:53.966Z</time></trkpt><trkpt lat="45.7211717" lon="12.424225"><ele>11.0</ele><time>2026-04-02T15:52:54.966Z</time></trkpt><trkpt lat="45.7211017" lon="12.4243183"><ele>11.0</ele><time>2026-04-02T15:52:55.965Z</time></trkpt><trkpt lat="45.7210167" lon="12.424415"><ele>11.0</ele><time>2026-04-02T15:52:56.965Z</time></trkpt><trkpt lat="45.7208983" lon="12.4245333"><ele>11.0</ele><time>2026-04-02T15:52:57.966Z</time></trkpt><trkpt lat="45.7207817" lon="12.42464"><ele>11.0</ele><time>2026-04-02T15:52:58.966Z</time></trkpt><trkpt lat="45.7206683" lon="12.4247583"><ele>11.0</ele><time>2026-04-02T15:52:59.966Z</time></trkpt><trkpt lat="45.7205567" lon="12.424885"><ele>11.0</ele><time>2026-04-02T15:53:00.965Z</time></trkpt><trkpt lat="45.7204667" lon="12.4249933"><ele>11.0</ele><time>2026-04-02T15:53:01.966Z</time></trkpt><trkpt lat="45.7203983" lon="12.42509"><ele>11.0</ele><time>2026-04-02T15:53:02.966Z</time></trkpt><trkpt lat="45.7203417" lon="12.4251433"><ele>11.0</ele><time>2026-04-02T15:53:03.966Z</time></trkpt><trkpt lat="45.72024" lon="12.425255"><ele>11.0</ele><time>2026-04-02T15:53:05.966Z</time></trkpt><trkpt lat="45.7200683" lon="12.4253217"><ele>11.0</ele><time>2026-04-02T15:53:11.966Z</time></trkpt><trkpt lat="45.7200167" lon="12.4253867"><ele>11.0</ele><time>2026-04-02T15:53:25.965Z</time></trkpt><trkpt lat="45.720015" lon="12.4255067"><ele>11.0</ele><time>2026-04-02T15:53:27.966Z</time></trkpt><trkpt lat="45.7199733" lon="12.4257217"><ele>11.0</ele><time>2026-04-02T15:53:31.966Z</time></trkpt><trkpt lat="45.719955" lon="12.4258633"><ele>11.0</ele><time>2026-04-02T15:53:33.966Z</time></trkpt><trkpt lat="45.7199433" lon="12.4259533"><ele>11.0</ele><time>2026-04-02T15:53:34.965Z</time></trkpt><trkpt lat="45.71993" lon="12.4260617"><ele>11.0</ele><time>2026-04-02T15:53:35.966Z</time></trkpt><trkpt lat="45.719905" lon="12.4261633"><ele>11.0</ele><time>2026-04-02T15:53:36.966Z</time></trkpt><trkpt lat="45.719875" lon="12.4262883"><ele>11.0</ele><time>2026-04-02T15:53:37.966Z</time></trkpt><trkpt lat="45.7198233" lon="12.4264317"><ele>11.0</ele><time>2026-04-02T15:53:38.966Z</time></trkpt><trkpt lat="45.7197483" lon="12.4265767"><ele>10.0</ele><time>2026-04-02T15:53:39.966Z</time></trkpt><trkpt lat="45.719645" lon="12.4267433"><ele>9.0</ele><time>2026-04-02T15:53:40.966Z</time></trkpt><trkpt lat="45.7195167" lon="12.4269433"><ele>8.0</ele><time>2026-04-02T15:53:41.966Z</time></trkpt><trkpt lat="45.7194133" lon="12.4271017"><ele>8.5</ele><time>2026-04-02T15:53:42.966Z</time></trkpt><trkpt lat="45.7193017" lon="12.4272583"><ele>9.0</ele><time>2026-04-02T15:53:43.966Z</time></trkpt><trkpt lat="45.7191883" lon="12.4273733"><ele>9.5</ele><time>2026-04-02T15:53:44.966Z</time></trkpt><trkpt lat="45.7190767" lon="12.4274883"><ele>10.0</ele><time>2026-04-02T15:53:45.966Z</time></trkpt><trkpt lat="45.7189883" lon="12.42757"><ele>10.0</ele><time>2026-04-02T15:53:46.966Z</time></trkpt><trkpt lat="45.7188883" lon="12.4276367"><ele>10.0</ele><time>2026-04-02T15:53:47.966Z</time></trkpt><trkpt lat="45.7188" lon="12.4277217"><ele>10.0</ele><time>2026-04-02T15:53:48.966Z</time></trkpt><trkpt lat="45.718585" lon="12.4278567"><ele>10.0</ele><time>2026-04-02T15:53:50.966Z</time></trkpt><trkpt lat="45.7185" lon="12.4279183"><ele>10.0</ele><time>2026-04-02T15:53:51.966Z</time></trkpt><trkpt lat="45.7184217" lon="12.4279867"><ele>10.0</ele><time>2026-04-02T15:53:52.965Z</time></trkpt><trkpt lat="45.7183567" lon="12.4280633"><ele>10.0</ele><time>2026-04-02T15:53:53.966Z</time></trkpt><trkpt lat="45.7182933" lon="12.428125"><ele>10.0</ele><time>2026-04-02T15:53:54.966Z</time></trkpt><trkpt lat="45.7182117" lon="12.428185"><ele>10.0</ele><time>2026-04-02T15:53:55.965Z</time></trkpt><trkpt lat="45.71815" lon="12.4282083"><ele>10.0</ele><time>2026-04-02T15:53:56.966Z</time></trkpt><trkpt lat="45.71807" lon="12.4282167"><ele>10.0</ele><time>2026-04-02T15:53:57.966Z</time></trkpt><trkpt lat="45.717985" lon="12.4282233"><ele>10.0</ele><time>2026-04-02T15:53:58.966Z</time></trkpt><trkpt lat="45.7179183" lon="12.428235"><ele>10.0</ele><time>2026-04-02T15:53:59.966Z</time></trkpt><trkpt lat="45.7178517" lon="12.4282517"><ele>10.0</ele><time>2026-04-02T15:54:00.965Z</time></trkpt><trkpt lat="45.717795" lon="12.428295"><ele>10.0</ele><time>2026-04-02T15:54:01.965Z</time></trkpt><trkpt lat="45.7177217" lon="12.4283433"><ele>10.0</ele><time>2026-04-02T15:54:02.965Z</time></trkpt><trkpt lat="45.717645" lon="12.4284067"><ele>10.5</ele><time>2026-04-02T15:54:03.965Z</time></trkpt><trkpt lat="45.7175517" lon="12.428465"><ele>11.0</ele><time>2026-04-02T15:54:04.964Z</time></trkpt><trkpt lat="45.7174367" lon="12.4285333"><ele>11.5</ele><time>2026-04-02T15:54:05.964Z</time></trkpt><trkpt lat="45.71732" lon="12.4286083"><ele>12.0</ele><time>2026-04-02T15:54:06.964Z</time></trkpt><trkpt lat="45.7172067" lon="12.4286683"><ele>12.0</ele><time>2026-04-02T15:54:07.965Z</time></trkpt><trkpt lat="45.71708" lon="12.4287283"><ele>12.0</ele><time>2026-04-02T15:54:08.965Z</time></trkpt><trkpt lat="45.71695" lon="12.4287783"><ele>12.0</ele><time>2026-04-02T15:54:09.964Z</time></trkpt><trkpt lat="45.71669" lon="12.428925"><ele>11.2</ele><time>2026-04-02T15:54:11.965Z</time></trkpt><trkpt lat="45.716595" lon="12.4289867"><ele>10.399999999999999</ele><time>2026-04-02T15:54:12.965Z</time></trkpt><trkpt lat="45.71647" lon="12.429015"><ele>9.600000000000001</ele><time>2026-04-02T15:54:13.965Z</time></trkpt><trkpt lat="45.7163783" lon="12.4290517"><ele>8.8</ele><time>2026-04-02T15:54:14.965Z</time></trkpt><trkpt lat="45.7162867" lon="12.4290983"><ele>8.0</ele><time>2026-04-02T15:54:15.965Z</time></trkpt><trkpt lat="45.7161883" lon="12.4291533"><ele>8.0</ele><time>2026-04-02T15:54:16.965Z</time></trkpt><trkpt lat="45.7161" lon="12.4292367"><ele>8.0</ele><time>2026-04-02T15:54:17.965Z</time></trkpt><trkpt lat="45.7159967" lon="12.429345"><ele>8.0</ele><time>2026-04-02T15:54:18.964Z</time></trkpt><trkpt lat="45.715885" lon="12.4294683"><ele>8.0</ele><time>2026-04-02T15:54:19.965Z</time></trkpt><trkpt lat="45.7157617" lon="12.4295983"><ele>8.0</ele><time>2026-04-02T15:54:20.965Z</time></trkpt><trkpt lat="45.7156483" lon="12.429735"><ele>8.0</ele><time>2026-04-02T15:54:21.965Z</time></trkpt><trkpt lat="45.7155333" lon="12.42988"><ele>8.0</ele><time>2026-04-02T15:54:22.965Z</time></trkpt><trkpt lat="45.71545" lon="12.4300183"><ele>8.0</ele><time>2026-04-02T15:54:23.965Z</time></trkpt><trkpt lat="45.7153567" lon="12.4301717"><ele>8.0</ele><time>2026-04-02T15:54:24.965Z</time></trkpt><trkpt lat="45.7152733" lon="12.4303017"><ele>8.0</ele><time>2026-04-02T15:54:25.965Z</time></trkpt><trkpt lat="45.71524" lon="12.430445"><ele>8.0</ele><time>2026-04-02T15:54:26.965Z</time></trkpt><trkpt lat="45.7152283" lon="12.4305917"><ele>8.0</ele><time>2026-04-02T15:54:27.965Z</time></trkpt><trkpt lat="45.7152383" lon="12.4307283"><ele>8.0</ele><time>2026-04-02T15:54:28.965Z</time></trkpt><trkpt lat="45.715225" lon="12.4308633"><ele>8.0</ele><time>2026-04-02T15:54:29.965Z</time></trkpt><trkpt lat="45.7152217" lon="12.4310033"><ele>8.0</ele><time>2026-04-02T15:54:30.965Z</time></trkpt><trkpt lat="45.7151917" lon="12.4313333"><ele>8.0</ele><time>2026-04-02T15:54:32.964Z</time></trkpt><trkpt lat="45.7151783" lon="12.4315083"><ele>7.75</ele><time>2026-04-02T15:54:33.965Z</time></trkpt><trkpt lat="45.7151567" lon="12.431685"><ele>7.5</ele><time>2026-04-02T15:54:34.964Z</time></trkpt><trkpt lat="45.7151383" lon="12.431865"><ele>7.25</ele><time>2026-04-02T15:54:35.965Z</time></trkpt><trkpt lat="45.71512" lon="12.43203"><ele>7.0</ele><time>2026-04-02T15:54:36.964Z</time></trkpt><trkpt lat="45.7151017" lon="12.4321867"><ele>7.0</ele><time>2026-04-02T15:54:37.965Z</time></trkpt><trkpt lat="45.71509" lon="12.43233"><ele>6.999999999999999</ele><time>2026-04-02T15:54:38.965Z</time></trkpt><trkpt lat="45.7150667" lon="12.43245"><ele>6.999999999999999</ele><time>2026-04-02T15:54:39.965Z</time></trkpt><trkpt lat="45.7150467" lon="12.4325467"><ele>7.0</ele><time>2026-04-02T15:54:40.965Z</time></trkpt><trkpt lat="45.715015" lon="12.4326767"><ele>7.0</ele><time>2026-04-02T15:54:42.965Z</time></trkpt><trkpt lat="45.7150383" lon="12.4328183"><ele>7.0</ele><time>2026-04-02T15:54:46.965Z</time></trkpt><trkpt lat="45.7150783" lon="12.4329533"><ele>6.999999999999999</ele><time>2026-04-02T15:54:48.965Z</time></trkpt><trkpt lat="45.71508" lon="12.43307"><ele>6.999999999999999</ele><time>2026-04-02T15:54:51.965Z</time></trkpt><trkpt lat="45.7150183" lon="12.43333"><ele>7.0</ele><time>2026-04-02T15:54:55.965Z</time></trkpt><trkpt lat="45.7149833" lon="12.4334217"><ele>7.0</ele><time>2026-04-02T15:54:56.965Z</time></trkpt><trkpt lat="45.714945" lon="12.4335083"><ele>7.0</ele><time>2026-04-02T15:54:57.964Z</time></trkpt><trkpt lat="45.71489" lon="12.433595"><ele>6.999999999999999</ele><time>2026-04-02T15:54:58.965Z</time></trkpt><trkpt lat="45.7148267" lon="12.4337117"><ele>6.999999999999999</ele><time>2026-04-02T15:54:59.964Z</time></trkpt><trkpt lat="45.7147667" lon="12.43383"><ele>7.0</ele><time>2026-04-02T15:55:00.965Z</time></trkpt><trkpt lat="45.7147033" lon="12.433935"><ele>7.0</ele><time>2026-04-02T15:55:01.965Z</time></trkpt><trkpt lat="45.7146467" lon="12.4340267"><ele>7.000000000000001</ele><time>2026-04-02T15:55:02.965Z</time></trkpt><trkpt lat="45.7145933" lon="12.4341167"><ele>7.0</ele><time>2026-04-02T15:55:03.965Z</time></trkpt><trkpt lat="45.7145383" lon="12.4342117"><ele>7.0</ele><time>2026-04-02T15:55:04.964Z</time></trkpt><trkpt lat="45.7144817" lon="12.4343"><ele>7.0</ele><time>2026-04-02T15:55:05.964Z</time></trkpt><trkpt lat="45.7144283" lon="12.4343983"><ele>7.000000000000001</ele><time>2026-04-02T15:55:06.965Z</time></trkpt><trkpt lat="45.7143633" lon="12.4344917"><ele>7.0</ele><time>2026-04-02T15:55:07.965Z</time></trkpt><trkpt lat="45.7143017" lon="12.4345767"><ele>6.8</ele><time>2026-04-02T15:55:08.964Z</time></trkpt><trkpt lat="45.7142483" lon="12.43464"><ele>6.6</ele><time>2026-04-02T15:55:09.965Z</time></trkpt><trkpt lat="45.7142067" lon="12.4347717"><ele>6.3999999999999995</ele><time>2026-04-02T15:55:11.965Z</time></trkpt><trkpt lat="45.7141833" lon="12.43487"><ele>6.199999999999999</ele><time>2026-04-02T15:55:13.965Z</time></trkpt><trkpt lat="45.71426" lon="12.4351017"><ele>6.0</ele><time>2026-04-02T15:55:15.965Z</time></trkpt><trkpt lat="45.7142617" lon="12.4352517"><ele>6.0</ele><time>2026-04-02T15:55:16.965Z</time></trkpt><trkpt lat="45.7142433" lon="12.4354117"><ele>6.0</ele><time>2026-04-02T15:55:17.965Z</time></trkpt><trkpt lat="45.7142317" lon="12.4355833"><ele>6.0</ele><time>2026-04-02T15:55:18.965Z</time></trkpt><trkpt lat="45.714215" lon="12.43578"><ele>6.0</ele><time>2026-04-02T15:55:19.965Z</time></trkpt><trkpt lat="45.714195" lon="12.4360233"><ele>5.666666666666667</ele><time>2026-04-02T15:55:20.965Z</time></trkpt><trkpt lat="45.71419" lon="12.4362533"><ele>5.333333333333334</ele><time>2026-04-02T15:55:21.964Z</time></trkpt><trkpt lat="45.7141533" lon="12.4364783"><ele>5.0</ele><time>2026-04-02T15:55:22.965Z</time></trkpt><trkpt lat="45.7141417" lon="12.436665"><ele>5.0</ele><time>2026-04-02T15:55:23.965Z</time></trkpt><trkpt lat="45.7141233" lon="12.4368467"><ele>5.0</ele><time>2026-04-02T15:55:24.964Z</time></trkpt><trkpt lat="45.714095" lon="12.4370083"><ele>5.0</ele><time>2026-04-02T15:55:25.965Z</time></trkpt><trkpt lat="45.7140617" lon="12.4371583"><ele>5.0</ele><time>2026-04-02T15:55:26.965Z</time></trkpt><trkpt lat="45.7140033" lon="12.4372617"><ele>5.0</ele><time>2026-04-02T15:55:27.964Z</time></trkpt><trkpt lat="45.7139483" lon="12.437395"><ele>5.4</ele><time>2026-04-02T15:55:28.964Z</time></trkpt><trkpt lat="45.7138917" lon="12.4375217"><ele>5.8</ele><time>2026-04-02T15:55:29.965Z</time></trkpt><trkpt lat="45.7138467" lon="12.4376417"><ele>6.199999999999999</ele><time>2026-04-02T15:55:30.965Z</time></trkpt><trkpt lat="45.7138033" lon="12.4377333"><ele>6.6</ele><time>2026-04-02T15:55:31.965Z</time></trkpt><trkpt lat="45.7137567" lon="12.4378067"><ele>7.0</ele><time>2026-04-02T15:55:32.964Z</time></trkpt><trkpt lat="45.7136717" lon="12.43791"><ele>6.75</ele><time>2026-04-02T15:55:34.965Z</time></trkpt><trkpt lat="45.71349" lon="12.437935"><ele>6.5</ele><time>2026-04-02T15:55:38.964Z</time></trkpt><trkpt lat="45.7134133" lon="12.437995"><ele>6.25</ele><time>2026-04-02T15:55:40.965Z</time></trkpt><trkpt lat="45.71331" lon="12.4381083"><ele>6.0</ele><time>2026-04-02T15:55:42.965Z</time></trkpt><trkpt lat="45.7132717" lon="12.4382167"><ele>6.0</ele><time>2026-04-02T15:55:44.965Z</time></trkpt><trkpt lat="45.7132683" lon="12.438315"><ele>6.0</ele><time>2026-04-02T15:55:46.965Z</time></trkpt><trkpt lat="45.71327" lon="12.4384217"><ele>6.0</ele><time>2026-04-02T15:55:48.965Z</time></trkpt><trkpt lat="45.7132667" lon="12.43856"><ele>6.0</ele><time>2026-04-02T15:55:50.965Z</time></trkpt><trkpt lat="45.7132367" lon="12.4387233"><ele>6.0</ele><time>2026-04-02T15:55:52.965Z</time></trkpt><trkpt lat="45.7132017" lon="12.4388067"><ele>6.0</ele><time>2026-04-02T15:55:53.965Z</time></trkpt><trkpt lat="45.71316" lon="12.4388967"><ele>6.25</ele><time>2026-04-02T15:55:54.965Z</time></trkpt><trkpt lat="45.7131067" lon="12.4390067"><ele>6.5</ele><time>2026-04-02T15:55:55.965Z</time></trkpt><trkpt lat="45.7130033" lon="12.4393117"><ele>6.75</ele><time>2026-04-02T15:55:59.965Z</time></trkpt><trkpt lat="45.71298" lon="12.4394033"><ele>7.0</ele><time>2026-04-02T15:56:01.965Z</time></trkpt><trkpt lat="45.71296" lon="12.4395217"><ele>7.000000000000001</ele><time>2026-04-02T15:56:05.965Z</time></trkpt><trkpt lat="45.7129533" lon="12.4396283"><ele>7.0</ele><time>2026-04-02T15:56:08.965Z</time></trkpt><trkpt lat="45.713015" lon="12.4397017"><ele>7.0</ele><time>2026-04-02T15:56:11.965Z</time></trkpt><trkpt lat="45.7130517" lon="12.4397867"><ele>7.0</ele><time>2026-04-02T15:56:13.965Z</time></trkpt><trkpt lat="45.7130767" lon="12.43991"><ele>7.000000000000001</ele><time>2026-04-02T15:56:15.965Z</time></trkpt><trkpt lat="45.7130517" lon="12.44007"><ele>7.0</ele><time>2026-04-02T15:56:17.965Z</time></trkpt><trkpt lat="45.7129983" lon="12.440355"><ele>7.000000000000001</ele><time>2026-04-02T15:56:19.965Z</time></trkpt><trkpt lat="45.712995" lon="12.440495"><ele>7.0</ele><time>2026-04-02T15:56:20.965Z</time></trkpt><trkpt lat="45.7129917" lon="12.44063"><ele>7.0</ele><time>2026-04-02T15:56:21.964Z</time></trkpt><trkpt lat="45.7129933" lon="12.4407483"><ele>7.0</ele><time>2026-04-02T15:56:22.965Z</time></trkpt><trkpt lat="45.713005" lon="12.4408633"><ele>7.000000000000001</ele><time>2026-04-02T15:56:23.965Z</time></trkpt><trkpt lat="45.7130217" lon="12.4409633"><ele>7.0</ele><time>2026-04-02T15:56:24.965Z</time></trkpt><trkpt lat="45.7130417" lon="12.4410733"><ele>7.0</ele><time>2026-04-02T15:56:25.964Z</time></trkpt><trkpt lat="45.7130667" lon="12.4411983"><ele>6.999999999999999</ele><time>2026-04-02T15:56:26.965Z</time></trkpt><trkpt lat="45.7131067" lon="12.4413167"><ele>6.999999999999999</ele><time>2026-04-02T15:56:27.965Z</time></trkpt><trkpt lat="45.713155" lon="12.4414383"><ele>7.0</ele><time>2026-04-02T15:56:28.965Z</time></trkpt><trkpt lat="45.7132133" lon="12.4415783"><ele>7.0</ele><time>2026-04-02T15:56:29.965Z</time></trkpt><trkpt lat="45.713235" lon="12.4417267"><ele>7.0</ele><time>2026-04-02T15:56:30.964Z</time></trkpt><trkpt lat="45.7132683" lon="12.4419133"><ele>7.0</ele><time>2026-04-02T15:56:31.964Z</time></trkpt><trkpt lat="45.7132833" lon="12.4421117"><ele>7.0</ele><time>2026-04-02T15:56:32.965Z</time></trkpt><trkpt lat="45.7132867" lon="12.4423167"><ele>7.0</ele><time>2026-04-02T15:56:33.965Z</time></trkpt><trkpt lat="45.7132817" lon="12.4425083"><ele>7.0</ele><time>2026-04-02T15:56:34.965Z</time></trkpt><trkpt lat="45.7132667" lon="12.4426933"><ele>7.0</ele><time>2026-04-02T15:56:35.965Z</time></trkpt><trkpt lat="45.7132367" lon="12.4428633"><ele>7.0</ele><time>2026-04-02T15:56:36.965Z</time></trkpt><trkpt lat="45.7132017" lon="12.44302"><ele>7.0</ele><time>2026-04-02T15:56:37.965Z</time></trkpt><trkpt lat="45.7131567" lon="12.4431567"><ele>7.0</ele><time>2026-04-02T15:56:38.965Z</time></trkpt><trkpt lat="45.713035" lon="12.4434417"><ele>7.0</ele><time>2026-04-02T15:56:40.964Z</time></trkpt><trkpt lat="45.7129583" lon="12.443595"><ele>7.0</ele><time>2026-04-02T15:56:41.965Z</time></trkpt><trkpt lat="45.7128917" lon="12.44377"><ele>7.0</ele><time>2026-04-02T15:56:42.965Z</time></trkpt><trkpt lat="45.7128333" lon="12.4439433"><ele>7.0</ele><time>2026-04-02T15:56:43.965Z</time></trkpt><trkpt lat="45.7127717" lon="12.44411"><ele>7.0</ele><time>2026-04-02T15:56:44.965Z</time></trkpt><trkpt lat="45.712695" lon="12.4442633"><ele>7.0</ele><time>2026-04-02T15:56:45.965Z</time></trkpt><trkpt lat="45.7126367" lon="12.444385"><ele>7.000000000000001</ele><time>2026-04-02T15:56:46.965Z</time></trkpt><trkpt lat="45.7125633" lon="12.4444833"><ele>7.0</ele><time>2026-04-02T15:56:47.965Z</time></trkpt><trkpt lat="45.7125133" lon="12.4445717"><ele>7.0</ele><time>2026-04-02T15:56:48.965Z</time></trkpt><trkpt lat="45.7124667" lon="12.4446683"><ele>7.0</ele><time>2026-04-02T15:56:49.964Z</time></trkpt><trkpt lat="45.7124217" lon="12.444765"><ele>7.000000000000001</ele><time>2026-04-02T15:56:50.965Z</time></trkpt><trkpt lat="45.712365" lon="12.4448683"><ele>7.0</ele><time>2026-04-02T15:56:51.965Z</time></trkpt><trkpt lat="45.7123183" lon="12.444965"><ele>7.0</ele><time>2026-04-02T15:56:52.965Z</time></trkpt><trkpt lat="45.71228" lon="12.445065"><ele>6.999999999999999</ele><time>2026-04-02T15:56:53.965Z</time></trkpt><trkpt lat="45.712255" lon="12.4451733"><ele>6.999999999999999</ele><time>2026-04-02T15:56:54.964Z</time></trkpt><trkpt lat="45.7122333" lon="12.4453017"><ele>7.0</ele><time>2026-04-02T15:56:55.965Z</time></trkpt><trkpt lat="45.7122183" lon="12.4454617"><ele>7.0</ele><time>2026-04-02T15:56:56.965Z</time></trkpt><trkpt lat="45.712195" lon="12.4455833"><ele>7.0</ele><time>2026-04-02T15:56:57.965Z</time></trkpt><trkpt lat="45.7121717" lon="12.4457133"><ele>6.999999999999999</ele><time>2026-04-02T15:56:58.965Z</time></trkpt><trkpt lat="45.7121433" lon="12.445825"><ele>6.999999999999999</ele><time>2026-04-02T15:56:59.964Z</time></trkpt><trkpt lat="45.7120417" lon="12.44602"><ele>7.0</ele><time>2026-04-02T15:57:02.965Z</time></trkpt><trkpt lat="45.7119783" lon="12.4460117"><ele>7.0</ele><time>2026-04-02T15:57:04.965Z</time></trkpt><trkpt lat="45.7119383" lon="12.4461333"><ele>7.0</ele><time>2026-04-02T15:57:18.965Z</time></trkpt><trkpt lat="45.7119267" lon="12.44623"><ele>6.999999999999999</ele><time>2026-04-02T15:57:22.965Z</time></trkpt><trkpt lat="45.7117667" lon="12.44621"><ele>6.999999999999999</ele><time>2026-04-02T15:57:36.965Z</time></trkpt><trkpt lat="45.711685" lon="12.4461983"><ele>7.0</ele><time>2026-04-02T15:57:39.965Z</time></trkpt><trkpt lat="45.7116" lon="12.446185"><ele>7.0</ele><time>2026-04-02T15:57:42.965Z</time></trkpt><trkpt lat="45.7115367" lon="12.44626"><ele>7.3999999999999995</ele><time>2026-04-02T15:57:45.965Z</time></trkpt><trkpt lat="45.711475" lon="12.446435"><ele>7.799999999999999</ele><time>2026-04-02T15:57:57.964Z</time></trkpt><trkpt lat="45.7114183" lon="12.4465517"><ele>8.2</ele><time>2026-04-02T15:58:20.965Z</time></trkpt><trkpt lat="45.7113833" lon="12.4467283"><ele>8.6</ele><time>2026-04-02T15:58:26.964Z</time></trkpt><trkpt lat="45.7113167" lon="12.4467533"><ele>9.0</ele><time>2026-04-02T15:58:29.964Z</time></trkpt><trkpt lat="45.7112933" lon="12.44686"><ele>9.0</ele><time>2026-04-02T15:58:32.965Z</time></trkpt><trkpt lat="45.7112333" lon="12.4469033"><ele>9.0</ele><time>2026-04-02T15:58:37.965Z</time></trkpt><trkpt lat="45.71114" lon="12.4468433"><ele>9.0</ele><time>2026-04-02T15:58:45.964Z</time></trkpt><trkpt lat="45.711" lon="12.4469133"><ele>9.0</ele><time>2026-04-02T15:58:49.965Z</time></trkpt><trkpt lat="45.7109367" lon="12.446935"><ele>9.0</ele><time>2026-04-02T15:58:51.965Z</time></trkpt><trkpt lat="45.7108117" lon="12.447005"><ele>8.75</ele><time>2026-04-02T15:59:38.964Z</time></trkpt><trkpt lat="45.7108633" lon="12.4472733"><ele>8.5</ele><time>2026-04-02T16:17:59.961Z</time></trkpt><trkpt lat="45.7109217" lon="12.4473567"><ele>8.25</ele><time>2026-04-02T16:18:01.961Z</time></trkpt><trkpt lat="45.7109367" lon="12.44748"><ele>8.0</ele><time>2026-04-02T16:18:04.961Z</time></trkpt><trkpt lat="45.7109067" lon="12.4476"><ele>8.0</ele><time>2026-04-02T16:18:06.961Z</time></trkpt><trkpt lat="45.7108983" lon="12.4477017"><ele>8.0</ele><time>2026-04-02T16:18:08.961Z</time></trkpt><trkpt lat="45.710945" lon="12.4478183"><ele>8.0</ele><time>2026-04-02T16:18:11.961Z</time></trkpt><trkpt lat="45.7110217" lon="12.4478867"><ele>8.0</ele><time>2026-04-02T16:18:14.96Z</time></trkpt><trkpt lat="45.71106" lon="12.447985"><ele>8.0</ele><time>2026-04-02T16:18:17.961Z</time></trkpt><trkpt lat="45.71104" lon="12.4482217"><ele>7.999999999999999</ele><time>2026-04-02T16:18:21.961Z</time></trkpt><trkpt lat="45.7110233" lon="12.448375"><ele>8.0</ele><time>2026-04-02T16:18:23.961Z</time></trkpt><trkpt lat="45.7110217" lon="12.4485133"><ele>8.0</ele><time>2026-04-02T16:18:25.961Z</time></trkpt><trkpt lat="45.7110383" lon="12.448615"><ele>8.0</ele><time>2026-04-02T16:18:27.961Z</time></trkpt><trkpt lat="45.71104" lon="12.448725"><ele>7.999999999999999</ele><time>2026-04-02T16:18:29.961Z</time></trkpt><trkpt lat="45.711055" lon="12.4488267"><ele>8.0</ele><time>2026-04-02T16:18:32.961Z</time></trkpt><trkpt lat="45.7111117" lon="12.4488767"><ele>9.666666666666666</ele><time>2026-04-02T16:18:39.961Z</time></trkpt><trkpt lat="45.711235" lon="12.4489067"><ele>11.333333333333332</ele><time>2026-04-02T16:19:15.959Z</time></trkpt><trkpt lat="45.7113383" lon="12.4487667"><ele>13.0</ele><time>2026-04-02T16:19:18.96Z</time></trkpt><trkpt lat="45.711375" lon="12.4491517"><ele>12.999999999999998</ele><time>2026-04-02T16:19:51.96Z</time></trkpt><trkpt lat="45.7114283" lon="12.4492233"><ele>13.0</ele><time>2026-04-02T16:19:56.96Z</time></trkpt><trkpt lat="45.7114883" lon="12.4493067"><ele>13.0</ele><time>2026-04-02T16:20:00.959Z</time></trkpt><trkpt lat="45.711505" lon="12.4494267"><ele>13.0</ele><time>2026-04-02T16:20:02.96Z</time></trkpt><trkpt lat="45.711535" lon="12.44952"><ele>12.999999999999998</ele><time>2026-04-02T16:20:04.959Z</time></trkpt><trkpt lat="45.7116" lon="12.4495933"><ele>13.0</ele><time>2026-04-02T16:20:06.96Z</time></trkpt><trkpt lat="45.7116617" lon="12.4496833"><ele>13.0</ele><time>2026-04-02T16:20:09.959Z</time></trkpt><trkpt lat="45.7117617" lon="12.4499083"><ele>13.0</ele><time>2026-04-02T16:20:13.96Z</time></trkpt><trkpt lat="45.7118117" lon="12.4500483"><ele>13.0</ele><time>2026-04-02T16:20:15.96Z</time></trkpt><trkpt lat="45.7118317" lon="12.45016"><ele>13.0</ele><time>2026-04-02T16:20:17.96Z</time></trkpt><trkpt lat="45.711805" lon="12.4502783"><ele>12.999999999999998</ele><time>2026-04-02T16:20:19.96Z</time></trkpt><trkpt lat="45.7118067" lon="12.450405"><ele>13.0</ele><time>2026-04-02T16:20:21.96Z</time></trkpt><trkpt lat="45.71182" lon="12.4505283"><ele>13.0</ele><time>2026-04-02T16:20:23.96Z</time></trkpt><trkpt lat="45.7117983" lon="12.4506667"><ele>13.0</ele><time>2026-04-02T16:20:25.96Z</time></trkpt><trkpt lat="45.7117633" lon="12.45078"><ele>12.999999999999998</ele><time>2026-04-02T16:20:27.96Z</time></trkpt><trkpt lat="45.7117333" lon="12.4508983"><ele>13.0</ele><time>2026-04-02T16:20:29.959Z</time></trkpt><trkpt lat="45.71169" lon="12.4509833"><ele>11.5</ele><time>2026-04-02T16:20:31.959Z</time></trkpt><trkpt lat="45.711755" lon="12.4513183"><ele>10.0</ele><time>2026-04-02T16:20:43.96Z</time></trkpt><trkpt lat="45.7117617" lon="12.451435"><ele>8.5</ele><time>2026-04-02T16:20:46.959Z</time></trkpt><trkpt lat="45.7117433" lon="12.4515417"><ele>7.0</ele><time>2026-04-02T16:20:52.96Z</time></trkpt><trkpt lat="45.711655" lon="12.4517417"><ele>7.0</ele><time>2026-04-02T16:20:58.96Z</time></trkpt><trkpt lat="45.7116033" lon="12.4518017"><ele>7.0</ele><time>2026-04-02T16:21:03.96Z</time></trkpt><trkpt lat="45.71159" lon="12.45189"><ele>7.0</ele><time>2026-04-02T16:21:06.96Z</time></trkpt><trkpt lat="45.7115833" lon="12.4519833"><ele>7.0</ele><time>2026-04-02T16:21:08.96Z</time></trkpt><trkpt lat="45.7115917" lon="12.45208"><ele>7.0</ele><time>2026-04-02T16:21:10.96Z</time></trkpt><trkpt lat="45.711625" lon="12.4521883"><ele>7.0</ele><time>2026-04-02T16:21:12.96Z</time></trkpt><trkpt lat="45.71166" lon="12.4522767"><ele>7.0</ele><time>2026-04-02T16:21:14.96Z</time></trkpt><trkpt lat="45.7116367" lon="12.4524467"><ele>7.0</ele><time>2026-04-02T16:21:28.96Z</time></trkpt><trkpt lat="45.71165" lon="12.4526117"><ele>6.999999999999999</ele><time>2026-04-02T16:22:24.959Z</time></trkpt><trkpt lat="45.71166" lon="12.45243"><ele>6.999999999999999</ele><time>2026-04-02T16:32:48.956Z</time></trkpt><trkpt lat="45.7116417" lon="12.452325"><ele>7.0</ele><time>2026-04-02T16:32:50.956Z</time></trkpt><trkpt lat="45.7116133" lon="12.4522167"><ele>7.0</ele><time>2026-04-02T16:32:52.956Z</time></trkpt><trkpt lat="45.7116217" lon="12.4521183"><ele>7.0</ele><time>2026-04-02T16:32:55.955Z</time></trkpt><trkpt lat="45.7116233" lon="12.452025"><ele>6.999999999999999</ele><time>2026-04-02T16:32:58.956Z</time></trkpt><trkpt lat="45.71164" lon="12.4518933"><ele>6.999999999999999</ele><time>2026-04-02T16:33:01.955Z</time></trkpt><trkpt lat="45.7116583" lon="12.451765"><ele>7.0</ele><time>2026-04-02T16:33:03.956Z</time></trkpt><trkpt lat="45.71169" lon="12.45165"><ele>7.0</ele><time>2026-04-02T16:33:05.955Z</time></trkpt><trkpt lat="45.7117117" lon="12.451425"><ele>7.0</ele><time>2026-04-02T16:33:10.955Z</time></trkpt><trkpt lat="45.711675" lon="12.451305"><ele>6.999999999999999</ele><time>2026-04-02T16:33:12.956Z</time></trkpt><trkpt lat="45.71164" lon="12.45118"><ele>6.999999999999999</ele><time>2026-04-02T16:33:14.956Z</time></trkpt><trkpt lat="45.7115933" lon="12.4510983"><ele>7.0</ele><time>2026-04-02T16:33:17.956Z</time></trkpt><trkpt lat="45.7115667" lon="12.4509983"><ele>7.0</ele><time>2026-04-02T16:33:43.955Z</time></trkpt><trkpt lat="45.7116067" lon="12.4508167"><ele>7.500000000000001</ele><time>2026-04-02T16:33:52.956Z</time></trkpt><trkpt lat="45.71165" lon="12.4507467"><ele>8.0</ele><time>2026-04-02T16:33:54.956Z</time></trkpt><trkpt lat="45.7116783" lon="12.4506283"><ele>8.5</ele><time>2026-04-02T16:33:57.956Z</time></trkpt><trkpt lat="45.71167" lon="12.450505"><ele>9.0</ele><time>2026-04-02T16:33:59.956Z</time></trkpt><trkpt lat="45.711705" lon="12.45041"><ele>9.5</ele><time>2026-04-02T16:34:02.956Z</time></trkpt><trkpt lat="45.7117167" lon="12.4503083"><ele>10.0</ele><time>2026-04-02T16:34:04.955Z</time></trkpt><trkpt lat="45.7116383" lon="12.4500533"><ele>10.5</ele><time>2026-04-02T16:34:08.956Z</time></trkpt><trkpt lat="45.71162" lon="12.449925"><ele>11.0</ele><time>2026-04-02T16:34:11.956Z</time></trkpt><trkpt lat="45.7116" lon="12.4498233"><ele>11.5</ele><time>2026-04-02T16:34:13.955Z</time></trkpt><trkpt lat="45.7115467" lon="12.4497467"><ele>12.0</ele><time>2026-04-02T16:34:15.956Z</time></trkpt><trkpt lat="45.7115017" lon="12.4496717"><ele>12.499999999999998</ele><time>2026-04-02T16:34:17.955Z</time></trkpt><trkpt lat="45.7114883" lon="12.4495467"><ele>13.0</ele><time>2026-04-02T16:34:20.956Z</time></trkpt><trkpt lat="45.71143" lon="12.4494733"><ele>13.0</ele><time>2026-04-02T16:34:24.956Z</time></trkpt><trkpt lat="45.7113567" lon="12.4494633"><ele>13.0</ele><time>2026-04-02T16:34:28.955Z</time></trkpt><trkpt lat="45.7112883" lon="12.4493033"><ele>13.0</ele><time>2026-04-02T16:34:33.956Z</time></trkpt><trkpt lat="45.7112433" lon="12.4491783"><ele>13.0</ele><time>2026-04-02T16:34:35.956Z</time></trkpt><trkpt lat="45.7111883" lon="12.4490733"><ele>13.0</ele><time>2026-04-02T16:34:37.956Z</time></trkpt><trkpt lat="45.7111433" lon="12.449005"><ele>12.0</ele><time>2026-04-02T16:34:39.956Z</time></trkpt><trkpt lat="45.71107" lon="12.448925"><ele>11.0</ele><time>2026-04-02T16:34:46.955Z</time></trkpt><trkpt lat="45.7110067" lon="12.4488483"><ele>10.0</ele><time>2026-04-02T16:34:49.956Z</time></trkpt><trkpt lat="45.7109717" lon="12.44861"><ele>9.0</ele><time>2026-04-02T16:34:54.956Z</time></trkpt><trkpt lat="45.71097" lon="12.4484717"><ele>8.0</ele><time>2026-04-02T16:34:56.956Z</time></trkpt><trkpt lat="45.7109583" lon="12.4483383"><ele>7.999999999999999</ele><time>2026-04-02T16:34:58.955Z</time></trkpt><trkpt lat="45.7109467" lon="12.4481933"><ele>8.0</ele><time>2026-04-02T16:35:00.955Z</time></trkpt><trkpt lat="45.7109267" lon="12.4481017"><ele>8.0</ele><time>2026-04-02T16:35:02.956Z</time></trkpt><trkpt lat="45.710885" lon="12.4479983"><ele>8.0</ele><time>2026-04-02T16:35:05.956Z</time></trkpt><trkpt lat="45.7108367" lon="12.4479117"><ele>7.999999999999999</ele><time>2026-04-02T16:35:09.956Z</time></trkpt><trkpt lat="45.710825" lon="12.4478183"><ele>8.0</ele><time>2026-04-02T16:35:11.956Z</time></trkpt><trkpt lat="45.71087" lon="12.4475383"><ele>7.999999999999999</ele><time>2026-04-02T16:35:15.956Z</time></trkpt><trkpt lat="45.7108917" lon="12.4474333"><ele>8.0</ele><time>2026-04-02T16:35:17.956Z</time></trkpt><trkpt lat="45.7109067" lon="12.4473"><ele>8.0</ele><time>2026-04-02T16:35:19.956Z</time></trkpt><trkpt lat="45.7109183" lon="12.4471783"><ele>8.0</ele><time>2026-04-02T16:35:21.956Z</time></trkpt><trkpt lat="45.71096" lon="12.44711"><ele>7.999999999999999</ele><time>2026-04-02T16:35:23.956Z</time></trkpt><trkpt lat="45.71101" lon="12.4469967"><ele>8.0</ele><time>2026-04-02T16:35:26.956Z</time></trkpt><trkpt lat="45.7110583" lon="12.44693"><ele>8.166666666666666</ele><time>2026-04-02T16:35:30.956Z</time></trkpt><trkpt lat="45.7111333" lon="12.446965"><ele>8.333333333333332</ele><time>2026-04-02T16:35:35.956Z</time></trkpt><trkpt lat="45.7112633" lon="12.4469083"><ele>8.5</ele><time>2026-04-02T16:35:41.955Z</time></trkpt><trkpt lat="45.7113417" lon="12.4468717"><ele>8.666666666666666</ele><time>2026-04-02T16:35:44.955Z</time></trkpt><trkpt lat="45.7113917" lon="12.4468167"><ele>8.833333333333334</ele><time>2026-04-02T16:35:47.956Z</time></trkpt><trkpt lat="45.7114267" lon="12.446735"><ele>9.0</ele><time>2026-04-02T16:35:50.955Z</time></trkpt><trkpt lat="45.7114833" lon="12.4466633"><ele>9.0</ele><time>2026-04-02T16:35:54.954Z</time></trkpt><trkpt lat="45.711515" lon="12.4465483"><ele>9.0</ele><time>2026-04-02T16:36:00.955Z</time></trkpt><trkpt lat="45.71164" lon="12.4463533"><ele>9.0</ele><time>2026-04-02T16:36:10.955Z</time></trkpt><trkpt lat="45.7116917" lon="12.4462717"><ele>9.0</ele><time>2026-04-02T16:36:13.955Z</time></trkpt><trkpt lat="45.7117483" lon="12.4462283"><ele>9.0</ele><time>2026-04-02T16:36:18.954Z</time></trkpt><trkpt lat="45.71181" lon="12.4462867"><ele>8.5</ele><time>2026-04-02T16:36:25.955Z</time></trkpt><trkpt lat="45.7119333" lon="12.4463333"><ele>8.0</ele><time>2026-04-02T16:36:31.954Z</time></trkpt><trkpt lat="45.7119683" lon="12.446225"><ele>7.5</ele><time>2026-04-02T16:36:34.955Z</time></trkpt><trkpt lat="45.71197" lon="12.4461317"><ele>7.0</ele><time>2026-04-02T16:36:37.954Z</time></trkpt><trkpt lat="45.7121633" lon="12.4460883"><ele>7.0</ele><time>2026-04-02T16:36:40.955Z</time></trkpt><trkpt lat="45.712225" lon="12.4459933"><ele>7.0</ele><time>2026-04-02T16:36:43.955Z</time></trkpt><trkpt lat="45.7122883" lon="12.44593"><ele>7.0</ele><time>2026-04-02T16:36:45.955Z</time></trkpt><trkpt lat="45.7122467" lon="12.44584"><ele>7.0</ele><time>2026-04-02T16:36:48.955Z</time></trkpt><trkpt lat="45.7123433" lon="12.4454783"><ele>7.0</ele><time>2026-04-02T16:37:23.955Z</time></trkpt><trkpt lat="45.7123517" lon="12.445315"><ele>6.999999999999999</ele><time>2026-04-02T16:37:24.955Z</time></trkpt><trkpt lat="45.712375" lon="12.445185"><ele>6.999999999999999</ele><time>2026-04-02T16:37:25.954Z</time></trkpt><trkpt lat="45.7123917" lon="12.445045"><ele>7.0</ele><time>2026-04-02T16:37:26.955Z</time></trkpt><trkpt lat="45.712415" lon="12.4449217"><ele>7.0</ele><time>2026-04-02T16:37:27.955Z</time></trkpt><trkpt lat="45.7124467" lon="12.4448133"><ele>7.0</ele><time>2026-04-02T16:37:28.954Z</time></trkpt><trkpt lat="45.7124783" lon="12.44469"><ele>6.999999999999999</ele><time>2026-04-02T16:37:29.954Z</time></trkpt><trkpt lat="45.7125083" lon="12.4445617"><ele>6.999999999999999</ele><time>2026-04-02T16:37:30.955Z</time></trkpt><trkpt lat="45.7125567" lon="12.44443"><ele>7.0</ele><time>2026-04-02T16:37:31.954Z</time></trkpt><trkpt lat="45.7126333" lon="12.4442783"><ele>7.0</ele><time>2026-04-02T16:37:32.955Z</time></trkpt><trkpt lat="45.7126933" lon="12.4440983"><ele>7.0</ele><time>2026-04-02T16:37:33.954Z</time></trkpt><trkpt lat="45.71274" lon="12.4439533"><ele>7.0</ele><time>2026-04-02T16:37:34.955Z</time></trkpt><trkpt lat="45.712795" lon="12.4438033"><ele>7.0</ele><time>2026-04-02T16:37:35.954Z</time></trkpt><trkpt lat="45.7128433" lon="12.4436567"><ele>7.0</ele><time>2026-04-02T16:37:36.954Z</time></trkpt><trkpt lat="45.7128933" lon="12.4435017"><ele>7.0</ele><time>2026-04-02T16:37:37.955Z</time></trkpt><trkpt lat="45.7129717" lon="12.44336"><ele>7.0</ele><time>2026-04-02T16:37:38.955Z</time></trkpt><trkpt lat="45.71304" lon="12.4432117"><ele>7.0</ele><time>2026-04-02T16:37:39.955Z</time></trkpt><trkpt lat="45.7131017" lon="12.4430583"><ele>7.0</ele><time>2026-04-02T16:37:40.955Z</time></trkpt><trkpt lat="45.71316" lon="12.4428917"><ele>7.0</ele><time>2026-04-02T16:37:41.955Z</time></trkpt><trkpt lat="45.71327" lon="12.4425433"><ele>7.0</ele><time>2026-04-02T16:37:43.955Z</time></trkpt><trkpt lat="45.7132933" lon="12.4423367"><ele>7.0</ele><time>2026-04-02T16:37:44.955Z</time></trkpt><trkpt lat="45.7133133" lon="12.44216"><ele>7.25</ele><time>2026-04-02T16:37:45.955Z</time></trkpt><trkpt lat="45.7133017" lon="12.441975"><ele>7.5</ele><time>2026-04-02T16:37:46.954Z</time></trkpt><trkpt lat="45.7132917" lon="12.4417983"><ele>7.75</ele><time>2026-04-02T16:37:47.955Z</time></trkpt><trkpt lat="45.7132517" lon="12.4415933"><ele>8.0</ele><time>2026-04-02T16:37:48.955Z</time></trkpt><trkpt lat="45.7131783" lon="12.4413917"><ele>7.75</ele><time>2026-04-02T16:37:49.954Z</time></trkpt><trkpt lat="45.7131233" lon="12.4412183"><ele>7.5</ele><time>2026-04-02T16:37:50.955Z</time></trkpt><trkpt lat="45.7130817" lon="12.4410333"><ele>7.25</ele><time>2026-04-02T16:37:51.955Z</time></trkpt><trkpt lat="45.71306" lon="12.4408683"><ele>7.0</ele><time>2026-04-02T16:37:52.955Z</time></trkpt><trkpt lat="45.713065" lon="12.44069"><ele>7.0</ele><time>2026-04-02T16:37:53.955Z</time></trkpt><trkpt lat="45.71305" lon="12.4405283"><ele>6.999999999999999</ele><time>2026-04-02T16:37:54.954Z</time></trkpt><trkpt lat="45.7130433" lon="12.4403583"><ele>6.999999999999999</ele><time>2026-04-02T16:37:55.955Z</time></trkpt><trkpt lat="45.7130367" lon="12.4402067"><ele>7.0</ele><time>2026-04-02T16:37:56.955Z</time></trkpt><trkpt lat="45.713045" lon="12.4400717"><ele>7.0</ele><time>2026-04-02T16:37:57.955Z</time></trkpt><trkpt lat="45.7130617" lon="12.4399533"><ele>7.199999999999999</ele><time>2026-04-02T16:37:58.955Z</time></trkpt><trkpt lat="45.7130667" lon="12.4398633"><ele>7.3999999999999995</ele><time>2026-04-02T16:38:00.955Z</time></trkpt><trkpt lat="45.71311" lon="12.4397767"><ele>7.6000000000000005</ele><time>2026-04-02T16:38:02.954Z</time></trkpt><trkpt lat="45.7132767" lon="12.4398567"><ele>7.800000000000001</ele><time>2026-04-02T16:38:06.955Z</time></trkpt><trkpt lat="45.7132167" lon="12.4397833"><ele>8.0</ele><time>2026-04-02T16:38:10.955Z</time></trkpt><trkpt lat="45.7131183" lon="12.43965"><ele>7.833333333333333</ele><time>2026-04-02T16:38:12.955Z</time></trkpt><trkpt lat="45.713075" lon="12.4395733"><ele>7.666666666666666</ele><time>2026-04-02T16:38:13.955Z</time></trkpt><trkpt lat="45.7129933" lon="12.4394417"><ele>7.5</ele><time>2026-04-02T16:38:15.955Z</time></trkpt><trkpt lat="45.7129683" lon="12.4393567"><ele>7.333333333333334</ele><time>2026-04-02T16:38:16.955Z</time></trkpt><trkpt lat="45.7129433" lon="12.4392133"><ele>7.166666666666667</ele><time>2026-04-02T16:38:18.954Z</time></trkpt><trkpt lat="45.7129683" lon="12.4390917"><ele>7.0</ele><time>2026-04-02T16:38:20.955Z</time></trkpt><trkpt lat="45.7130117" lon="12.439005"><ele>7.0</ele><time>2026-04-02T16:38:21.955Z</time></trkpt><trkpt lat="45.71307" lon="12.4389067"><ele>6.999999999999999</ele><time>2026-04-02T16:38:22.955Z</time></trkpt><trkpt lat="45.7131133" lon="12.438835"><ele>6.999999999999999</ele><time>2026-04-02T16:38:23.955Z</time></trkpt><trkpt lat="45.71319" lon="12.438675"><ele>7.0</ele><time>2026-04-02T16:38:25.955Z</time></trkpt><trkpt lat="45.7132417" lon="12.438565"><ele>7.0</ele><time>2026-04-02T16:38:27.955Z</time></trkpt><trkpt lat="45.7132683" lon="12.4384617"><ele>6.8</ele><time>2026-04-02T16:38:29.955Z</time></trkpt><trkpt lat="45.71329" lon="12.4383533"><ele>6.6</ele><time>2026-04-02T16:38:31.955Z</time></trkpt><trkpt lat="45.7133133" lon="12.4382017"><ele>6.3999999999999995</ele><time>2026-04-02T16:38:33.955Z</time></trkpt><trkpt lat="45.7133367" lon="12.438115"><ele>6.199999999999999</ele><time>2026-04-02T16:38:34.955Z</time></trkpt><trkpt lat="45.7133933" lon="12.4379783"><ele>6.0</ele><time>2026-04-02T16:38:36.955Z</time></trkpt><trkpt lat="45.71344" lon="12.4378617"><ele>6.25</ele><time>2026-04-02T16:38:38.955Z</time></trkpt><trkpt lat="45.7135467" lon="12.4377867"><ele>6.5</ele><time>2026-04-02T16:38:40.955Z</time></trkpt><trkpt lat="45.713705" lon="12.43793"><ele>6.75</ele><time>2026-04-02T16:38:42.955Z</time></trkpt><trkpt lat="45.7137733" lon="12.4379883"><ele>7.0</ele><time>2026-04-02T16:38:43.955Z</time></trkpt><trkpt lat="45.71388" lon="12.4380717"><ele>7.0</ele><time>2026-04-02T16:38:45.955Z</time></trkpt><trkpt lat="45.714" lon="12.438185"><ele>6.999999999999999</ele><time>2026-04-02T16:38:47.955Z</time></trkpt><trkpt lat="45.71406" lon="12.4382433"><ele>6.999999999999999</ele><time>2026-04-02T16:38:48.955Z</time></trkpt><trkpt lat="45.714105" lon="12.4383067"><ele>7.0</ele><time>2026-04-02T16:38:49.955Z</time></trkpt><trkpt lat="45.7141583" lon="12.4384433"><ele>7.0</ele><time>2026-04-02T16:38:51.954Z</time></trkpt><trkpt lat="45.7141567" lon="12.43857"><ele>7.0</ele><time>2026-04-02T16:38:53.955Z</time></trkpt><trkpt lat="45.7141967" lon="12.4387083"><ele>6.999999999999999</ele><time>2026-04-02T16:38:55.955Z</time></trkpt><trkpt lat="45.71431" lon="12.438825"><ele>6.999999999999999</ele><time>2026-04-02T16:38:57.954Z</time></trkpt><trkpt lat="45.7143867" lon="12.4388933"><ele>7.0</ele><time>2026-04-02T16:38:58.955Z</time></trkpt><trkpt lat="45.7144767" lon="12.4389733"><ele>7.0</ele><time>2026-04-02T16:38:59.955Z</time></trkpt><trkpt lat="45.7145833" lon="12.4390567"><ele>6.75</ele><time>2026-04-02T16:39:00.955Z</time></trkpt><trkpt lat="45.7146917" lon="12.4391433"><ele>6.5</ele><time>2026-04-02T16:39:01.955Z</time></trkpt><trkpt lat="45.7148117" lon="12.43922"><ele>6.25</ele><time>2026-04-02T16:39:02.955Z</time></trkpt><trkpt lat="45.714915" lon="12.4393167"><ele>6.0</ele><time>2026-04-02T16:39:03.954Z</time></trkpt><trkpt lat="45.7150133" lon="12.4394033"><ele>6.0</ele><time>2026-04-02T16:39:04.954Z</time></trkpt><trkpt lat="45.7151133" lon="12.4394833"><ele>6.0</ele><time>2026-04-02T16:39:05.953Z</time></trkpt><trkpt lat="45.7152033" lon="12.4395583"><ele>6.0</ele><time>2026-04-02T16:39:06.953Z</time></trkpt><trkpt lat="45.7153483" lon="12.4396767"><ele>6.0</ele><time>2026-04-02T16:39:08.954Z</time></trkpt><trkpt lat="45.7154017" lon="12.439735"><ele>6.333333333333333</ele><time>2026-04-02T16:39:09.954Z</time></trkpt><trkpt lat="45.7154583" lon="12.4398383"><ele>6.666666666666666</ele><time>2026-04-02T16:39:11.954Z</time></trkpt><trkpt lat="45.7154783" lon="12.43997"><ele>7.0</ele><time>2026-04-02T16:39:13.953Z</time></trkpt><trkpt lat="45.71543" lon="12.44004"><ele>7.333333333333333</ele><time>2026-04-02T16:39:14.954Z</time></trkpt><trkpt lat="45.7153883" lon="12.440155"><ele>7.666666666666666</ele><time>2026-04-02T16:39:15.954Z</time></trkpt><trkpt lat="45.7153883" lon="12.4402817"><ele>8.0</ele><time>2026-04-02T16:39:16.954Z</time></trkpt><trkpt lat="45.7153967" lon="12.4403967"><ele>8.333333333333332</ele><time>2026-04-02T16:39:17.954Z</time></trkpt><trkpt lat="45.7154183" lon="12.4404833"><ele>8.666666666666666</ele><time>2026-04-02T16:39:18.954Z</time></trkpt><trkpt lat="45.715465" lon="12.4405667"><ele>9.0</ele><time>2026-04-02T16:39:19.954Z</time></trkpt><trkpt lat="45.71552" lon="12.44064"><ele>9.333333333333334</ele><time>2026-04-02T16:39:20.954Z</time></trkpt><trkpt lat="45.71561" lon="12.4407"><ele>9.666666666666668</ele><time>2026-04-02T16:39:21.953Z</time></trkpt><trkpt lat="45.7156983" lon="12.440765"><ele>10.0</ele><time>2026-04-02T16:39:22.954Z</time></trkpt><trkpt lat="45.715775" lon="12.44083"><ele>10.0</ele><time>2026-04-02T16:39:23.954Z</time></trkpt><trkpt lat="45.715855" lon="12.4409017"><ele>10.0</ele><time>2026-04-02T16:39:24.954Z</time></trkpt><trkpt lat="45.7159317" lon="12.44097"><ele>10.0</ele><time>2026-04-02T16:39:25.954Z</time></trkpt><trkpt lat="45.7160183" lon="12.441045"><ele>10.0</ele><time>2026-04-02T16:39:26.954Z</time></trkpt><trkpt lat="45.7161017" lon="12.44113"><ele>10.0</ele><time>2026-04-02T16:39:27.953Z</time></trkpt><trkpt lat="45.7162533" lon="12.4413417"><ele>9.75</ele><time>2026-04-02T16:39:29.953Z</time></trkpt><trkpt lat="45.716335" lon="12.441465"><ele>9.5</ele><time>2026-04-02T16:39:30.954Z</time></trkpt><trkpt lat="45.71641" lon="12.4415917"><ele>9.25</ele><time>2026-04-02T16:39:31.954Z</time></trkpt><trkpt lat="45.716475" lon="12.4417283"><ele>9.0</ele><time>2026-04-02T16:39:32.954Z</time></trkpt><trkpt lat="45.71653" lon="12.4418683"><ele>9.0</ele><time>2026-04-02T16:39:33.954Z</time></trkpt><trkpt lat="45.7165767" lon="12.4420067"><ele>9.0</ele><time>2026-04-02T16:39:34.953Z</time></trkpt><trkpt lat="45.7166083" lon="12.44215"><ele>9.0</ele><time>2026-04-02T16:39:35.954Z</time></trkpt><trkpt lat="45.716645" lon="12.4422933"><ele>9.0</ele><time>2026-04-02T16:39:36.953Z</time></trkpt><trkpt lat="45.7166983" lon="12.4424167"><ele>9.0</ele><time>2026-04-02T16:39:37.954Z</time></trkpt><trkpt lat="45.7167717" lon="12.4425217"><ele>9.0</ele><time>2026-04-02T16:39:38.954Z</time></trkpt><trkpt lat="45.716855" lon="12.4426083"><ele>9.0</ele><time>2026-04-02T16:39:39.954Z</time></trkpt><trkpt lat="45.7169417" lon="12.4426867"><ele>9.0</ele><time>2026-04-02T16:39:40.954Z</time></trkpt><trkpt lat="45.7170433" lon="12.44273"><ele>9.0</ele><time>2026-04-02T16:39:41.953Z</time></trkpt><trkpt lat="45.7172233" lon="12.4427883"><ele>9.0</ele><time>2026-04-02T16:39:42.954Z</time></trkpt><trkpt lat="45.7173883" lon="12.4427617"><ele>9.0</ele><time>2026-04-02T16:39:43.954Z</time></trkpt><trkpt lat="45.7175183" lon="12.44278"><ele>9.0</ele><time>2026-04-02T16:39:44.954Z</time></trkpt><trkpt lat="45.7176383" lon="12.4428083"><ele>9.0</ele><time>2026-04-02T16:39:45.953Z</time></trkpt><trkpt lat="45.717735" lon="12.442835"><ele>9.0</ele><time>2026-04-02T16:39:46.954Z</time></trkpt><trkpt lat="45.717825" lon="12.442875"><ele>9.0</ele><time>2026-04-02T16:39:47.954Z</time></trkpt><trkpt lat="45.7179017" lon="12.4429033"><ele>9.0</ele><time>2026-04-02T16:39:48.954Z</time></trkpt><trkpt lat="45.7180567" lon="12.4431"><ele>9.0</ele><time>2026-04-02T16:39:51.953Z</time></trkpt><trkpt lat="45.7180567" lon="12.4432383"><ele>9.0</ele><time>2026-04-02T16:39:52.954Z</time></trkpt><trkpt lat="45.718025" lon="12.4434267"><ele>9.0</ele><time>2026-04-02T16:39:53.954Z</time></trkpt><trkpt lat="45.7179967" lon="12.4436217"><ele>9.0</ele><time>2026-04-02T16:39:54.954Z</time></trkpt><trkpt lat="45.7179817" lon="12.4438017"><ele>9.0</ele><time>2026-04-02T16:39:55.954Z</time></trkpt><trkpt lat="45.71797" lon="12.4439983"><ele>9.0</ele><time>2026-04-02T16:39:56.954Z</time></trkpt><trkpt lat="45.7179633" lon="12.4441883"><ele>9.0</ele><time>2026-04-02T16:39:57.954Z</time></trkpt><trkpt lat="45.717965" lon="12.444365"><ele>9.0</ele><time>2026-04-02T16:39:58.953Z</time></trkpt><trkpt lat="45.7179567" lon="12.4445733"><ele>9.0</ele><time>2026-04-02T16:39:59.954Z</time></trkpt><trkpt lat="45.7179533" lon="12.44478"><ele>9.0</ele><time>2026-04-02T16:40:00.954Z</time></trkpt><trkpt lat="45.717945" lon="12.4449767"><ele>9.0</ele><time>2026-04-02T16:40:01.954Z</time></trkpt><trkpt lat="45.7179417" lon="12.4451633"><ele>9.0</ele><time>2026-04-02T16:40:02.954Z</time></trkpt><trkpt lat="45.7179483" lon="12.44533"><ele>9.0</ele><time>2026-04-02T16:40:03.953Z</time></trkpt><trkpt lat="45.7179567" lon="12.4455217"><ele>9.0</ele><time>2026-04-02T16:40:04.954Z</time></trkpt><trkpt lat="45.7179667" lon="12.4457033"><ele>9.0</ele><time>2026-04-02T16:40:05.953Z</time></trkpt><trkpt lat="45.7179683" lon="12.44592"><ele>9.0</ele><time>2026-04-02T16:40:06.954Z</time></trkpt><trkpt lat="45.71797" lon="12.4461433"><ele>9.0</ele><time>2026-04-02T16:40:07.954Z</time></trkpt><trkpt lat="45.717975" lon="12.4463717"><ele>9.0</ele><time>2026-04-02T16:40:08.954Z</time></trkpt><trkpt lat="45.7179733" lon="12.446595"><ele>9.0</ele><time>2026-04-02T16:40:09.954Z</time></trkpt><trkpt lat="45.717965" lon="12.4470333"><ele>9.25</ele><time>2026-04-02T16:40:11.954Z</time></trkpt><trkpt lat="45.7179617" lon="12.44725"><ele>9.5</ele><time>2026-04-02T16:40:12.954Z</time></trkpt><trkpt lat="45.717955" lon="12.4474633"><ele>9.75</ele><time>2026-04-02T16:40:13.953Z</time></trkpt><trkpt lat="45.7179517" lon="12.44767"><ele>10.0</ele><time>2026-04-02T16:40:14.954Z</time></trkpt><trkpt lat="45.7179333" lon="12.44787"><ele>9.5</ele><time>2026-04-02T16:40:15.954Z</time></trkpt><trkpt lat="45.7179017" lon="12.4480717"><ele>9.0</ele><time>2026-04-02T16:40:16.954Z</time></trkpt><trkpt lat="45.717865" lon="12.4482733"><ele>8.5</ele><time>2026-04-02T16:40:17.953Z</time></trkpt><trkpt lat="45.71783" lon="12.448465"><ele>8.0</ele><time>2026-04-02T16:40:18.953Z</time></trkpt><trkpt lat="45.7177917" lon="12.4486583"><ele>7.75</ele><time>2026-04-02T16:40:19.954Z</time></trkpt><trkpt lat="45.717755" lon="12.4488533"><ele>7.5</ele><time>2026-04-02T16:40:20.954Z</time></trkpt><trkpt lat="45.7177167" lon="12.449045"><ele>7.25</ele><time>2026-04-02T16:40:21.954Z</time></trkpt><trkpt lat="45.7176817" lon="12.449245"><ele>7.0</ele><time>2026-04-02T16:40:22.954Z</time></trkpt><trkpt lat="45.717645" lon="12.449455"><ele>7.666666666666667</ele><time>2026-04-02T16:40:23.954Z</time></trkpt><trkpt lat="45.7176067" lon="12.449665"><ele>8.333333333333334</ele><time>2026-04-02T16:40:24.954Z</time></trkpt><trkpt lat="45.7175683" lon="12.4498833"><ele>9.0</ele><time>2026-04-02T16:40:25.954Z</time></trkpt><trkpt lat="45.717525" lon="12.4501017"><ele>9.0</ele><time>2026-04-02T16:40:26.954Z</time></trkpt><trkpt lat="45.7174783" lon="12.45032"><ele>9.0</ele><time>2026-04-02T16:40:27.954Z</time></trkpt><trkpt lat="45.7174333" lon="12.4505367"><ele>9.0</ele><time>2026-04-02T16:40:28.954Z</time></trkpt><trkpt lat="45.7173833" lon="12.4507583"><ele>8.0</ele><time>2026-04-02T16:40:29.954Z</time></trkpt><trkpt lat="45.7173433" lon="12.45099"><ele>7.0</ele><time>2026-04-02T16:40:30.953Z</time></trkpt><trkpt lat="45.7172517" lon="12.451465"><ele>7.0</ele><time>2026-04-02T16:40:32.954Z</time></trkpt><trkpt lat="45.7171983" lon="12.45171"><ele>7.0</ele><time>2026-04-02T16:40:33.954Z</time></trkpt><trkpt lat="45.7171467" lon="12.451945"><ele>7.0</ele><time>2026-04-02T16:40:34.954Z</time></trkpt><trkpt lat="45.7170983" lon="12.4521767"><ele>7.0</ele><time>2026-04-02T16:40:35.954Z</time></trkpt><trkpt lat="45.7170517" lon="12.4523917"><ele>7.0</ele><time>2026-04-02T16:40:36.954Z</time></trkpt><trkpt lat="45.7170083" lon="12.4525933"><ele>7.0</ele><time>2026-04-02T16:40:37.953Z</time></trkpt><trkpt lat="45.7169617" lon="12.4527817"><ele>7.0</ele><time>2026-04-02T16:40:38.953Z</time></trkpt><trkpt lat="45.71691" lon="12.4529667"><ele>7.0</ele><time>2026-04-02T16:40:39.954Z</time></trkpt><trkpt lat="45.7168733" lon="12.4531533"><ele>7.0</ele><time>2026-04-02T16:40:40.953Z</time></trkpt><trkpt lat="45.7168417" lon="12.4533283"><ele>7.0</ele><time>2026-04-02T16:40:41.953Z</time></trkpt><trkpt lat="45.716815" lon="12.453485"><ele>7.0</ele><time>2026-04-02T16:40:42.954Z</time></trkpt><trkpt lat="45.716785" lon="12.4536233"><ele>7.000000000000001</ele><time>2026-04-02T16:40:43.954Z</time></trkpt><trkpt lat="45.716765" lon="12.4537517"><ele>7.0</ele><time>2026-04-02T16:40:44.954Z</time></trkpt><trkpt lat="45.7167433" lon="12.45387"><ele>7.0</ele><time>2026-04-02T16:40:45.954Z</time></trkpt><trkpt lat="45.71673" lon="12.4539867"><ele>7.0</ele><time>2026-04-02T16:40:46.954Z</time></trkpt><trkpt lat="45.7167167" lon="12.45408"><ele>7.000000000000001</ele><time>2026-04-02T16:40:47.954Z</time></trkpt><trkpt lat="45.7167233" lon="12.4542017"><ele>7.0</ele><time>2026-04-02T16:40:49.954Z</time></trkpt><trkpt lat="45.716815" lon="12.4542783"><ele>7.75</ele><time>2026-04-02T16:40:51.954Z</time></trkpt><trkpt lat="45.716965" lon="12.45435"><ele>8.5</ele><time>2026-04-02T16:40:53.954Z</time></trkpt><trkpt lat="45.7170933" lon="12.4544067"><ele>9.25</ele><time>2026-04-02T16:40:54.954Z</time></trkpt><trkpt lat="45.7172333" lon="12.4544983"><ele>10.0</ele><time>2026-04-02T16:40:55.954Z</time></trkpt><trkpt lat="45.7173633" lon="12.4545817"><ele>9.75</ele><time>2026-04-02T16:40:56.954Z</time></trkpt><trkpt lat="45.7174933" lon="12.4546633"><ele>9.5</ele><time>2026-04-02T16:40:57.954Z</time></trkpt><trkpt lat="45.7176117" lon="12.4547483"><ele>9.25</ele><time>2026-04-02T16:40:58.954Z</time></trkpt><trkpt lat="45.7177283" lon="12.4548333"><ele>9.0</ele><time>2026-04-02T16:40:59.954Z</time></trkpt><trkpt lat="45.7178483" lon="12.4549233"><ele>9.0</ele><time>2026-04-02T16:41:00.953Z</time></trkpt><trkpt lat="45.717965" lon="12.45501"><ele>9.0</ele><time>2026-04-02T16:41:01.953Z</time></trkpt><trkpt lat="45.7180783" lon="12.4550983"><ele>9.0</ele><time>2026-04-02T16:41:02.954Z</time></trkpt><trkpt lat="45.7181767" lon="12.45519"><ele>9.0</ele><time>2026-04-02T16:41:03.954Z</time></trkpt><trkpt lat="45.7182767" lon="12.4552833"><ele>9.0</ele><time>2026-04-02T16:41:04.954Z</time></trkpt><trkpt lat="45.7183633" lon="12.45538"><ele>9.0</ele><time>2026-04-02T16:41:05.953Z</time></trkpt><trkpt lat="45.7184483" lon="12.455485"><ele>9.0</ele><time>2026-04-02T16:41:06.954Z</time></trkpt><trkpt lat="45.7185283" lon="12.455595"><ele>9.0</ele><time>2026-04-02T16:41:07.954Z</time></trkpt><trkpt lat="45.7186" lon="12.4557033"><ele>9.0</ele><time>2026-04-02T16:41:08.954Z</time></trkpt><trkpt lat="45.7186667" lon="12.4558117"><ele>8.75</ele><time>2026-04-02T16:41:09.954Z</time></trkpt><trkpt lat="45.7187117" lon="12.4559217"><ele>8.5</ele><time>2026-04-02T16:41:10.954Z</time></trkpt><trkpt lat="45.7187817" lon="12.456015"><ele>8.25</ele><time>2026-04-02T16:41:11.954Z</time></trkpt><trkpt lat="45.7188417" lon="12.4561167"><ele>8.0</ele><time>2026-04-02T16:41:12.954Z</time></trkpt><trkpt lat="45.7186433" lon="12.4565467"><ele>8.0</ele><time>2026-04-02T16:41:14.954Z</time></trkpt><trkpt lat="45.7185083" lon="12.4568117"><ele>8.0</ele><time>2026-04-02T16:41:15.954Z</time></trkpt><trkpt lat="45.718515" lon="12.4570367"><ele>8.0</ele><time>2026-04-02T16:41:16.954Z</time></trkpt><trkpt lat="45.7185833" lon="12.457395"><ele>8.0</ele><time>2026-04-02T16:41:17.954Z</time></trkpt><trkpt lat="45.7186233" lon="12.4575533"><ele>8.0</ele><time>2026-04-02T16:41:18.953Z</time></trkpt><trkpt lat="45.71864" lon="12.4574217"><ele>8.0</ele><time>2026-04-02T16:41:19.954Z</time></trkpt><trkpt lat="45.7186933" lon="12.4573733"><ele>8.0</ele><time>2026-04-02T16:41:21.954Z</time></trkpt><trkpt lat="45.7187667" lon="12.4573967"><ele>8.0</ele><time>2026-04-02T16:41:27.954Z</time></trkpt><trkpt lat="45.7188733" lon="12.4573817"><ele>8.0</ele><time>2026-04-02T16:41:29.954Z</time></trkpt><trkpt lat="45.7189983" lon="12.457405"><ele>8.0</ele><time>2026-04-02T16:41:31.954Z</time></trkpt><trkpt lat="45.7190833" lon="12.4574483"><ele>8.0</ele><time>2026-04-02T16:41:32.953Z</time></trkpt><trkpt lat="45.7191567" lon="12.45749"><ele>8.0</ele><time>2026-04-02T16:41:33.954Z</time></trkpt><trkpt lat="45.7192767" lon="12.45758"><ele>8.0</ele><time>2026-04-02T16:41:35.954Z</time></trkpt><trkpt lat="45.719305" lon="12.45767"><ele>8.0</ele><time>2026-04-02T16:41:36.954Z</time></trkpt><trkpt lat="45.7193467" lon="12.4577483"><ele>8.0</ele><time>2026-04-02T16:41:37.954Z</time></trkpt><trkpt lat="45.7193367" lon="12.45786"><ele>8.0</ele><time>2026-04-02T16:41:38.954Z</time></trkpt><trkpt lat="45.7193233" lon="12.4579833"><ele>8.0</ele><time>2026-04-02T16:41:39.954Z</time></trkpt><trkpt lat="45.7192917" lon="12.4581233"><ele>8.0</ele><time>2026-04-02T16:41:40.953Z</time></trkpt><trkpt lat="45.7192333" lon="12.4582783"><ele>9.0</ele><time>2026-04-02T16:41:41.953Z</time></trkpt><trkpt lat="45.71917" lon="12.4584333"><ele>10.0</ele><time>2026-04-02T16:41:42.954Z</time></trkpt><trkpt lat="45.7190933" lon="12.458605"><ele>11.0</ele><time>2026-04-02T16:41:43.954Z</time></trkpt><trkpt lat="45.7189967" lon="12.4587683"><ele>12.0</ele><time>2026-04-02T16:41:44.954Z</time></trkpt><trkpt lat="45.718895" lon="12.45896"><ele>12.0</ele><time>2026-04-02T16:41:45.954Z</time></trkpt><trkpt lat="45.71878" lon="12.4591417"><ele>12.0</ele><time>2026-04-02T16:41:46.954Z</time></trkpt><trkpt lat="45.7186783" lon="12.4593017"><ele>12.0</ele><time>2026-04-02T16:41:47.954Z</time></trkpt><trkpt lat="45.718575" lon="12.4594383"><ele>12.25</ele><time>2026-04-02T16:41:48.954Z</time></trkpt><trkpt lat="45.7184733" lon="12.4595717"><ele>12.5</ele><time>2026-04-02T16:41:49.954Z</time></trkpt><trkpt lat="45.71837" lon="12.45973"><ele>12.75</ele><time>2026-04-02T16:41:50.954Z</time></trkpt><trkpt lat="45.7182583" lon="12.4598817"><ele>13.0</ele><time>2026-04-02T16:41:51.954Z</time></trkpt><trkpt lat="45.718155" lon="12.4600317"><ele>12.333333333333332</ele><time>2026-04-02T16:41:52.954Z</time></trkpt><trkpt lat="45.7180717" lon="12.46017"><ele>11.666666666666666</ele><time>2026-04-02T16:41:53.954Z</time></trkpt><trkpt lat="45.7179833" lon="12.4602833"><ele>11.0</ele><time>2026-04-02T16:41:54.954Z</time></trkpt><trkpt lat="45.7178617" lon="12.4605517"><ele>11.0</ele><time>2026-04-02T16:41:56.954Z</time></trkpt><trkpt lat="45.7177867" lon="12.4607017"><ele>11.0</ele><time>2026-04-02T16:41:57.953Z</time></trkpt><trkpt lat="45.7177167" lon="12.4608433"><ele>11.0</ele><time>2026-04-02T16:41:58.954Z</time></trkpt><trkpt lat="45.7176333" lon="12.4609867"><ele>11.0</ele><time>2026-04-02T16:41:59.953Z</time></trkpt><trkpt lat="45.7175517" lon="12.4611233"><ele>11.200000000000001</ele><time>2026-04-02T16:42:00.954Z</time></trkpt><trkpt lat="45.7174833" lon="12.46125"><ele>11.4</ele><time>2026-04-02T16:42:01.954Z</time></trkpt><trkpt lat="45.71742" lon="12.461365"><ele>11.6</ele><time>2026-04-02T16:42:02.954Z</time></trkpt><trkpt lat="45.7173583" lon="12.4614683"><ele>11.8</ele><time>2026-04-02T16:42:03.953Z</time></trkpt><trkpt lat="45.7173033" lon="12.4615517"><ele>12.0</ele><time>2026-04-02T16:42:04.954Z</time></trkpt><trkpt lat="45.717265" lon="12.46164"><ele>12.0</ele><time>2026-04-02T16:42:05.954Z</time></trkpt><trkpt lat="45.7172267" lon="12.4617433"><ele>12.0</ele><time>2026-04-02T16:42:06.954Z</time></trkpt><trkpt lat="45.71718" lon="12.4618367"><ele>12.0</ele><time>2026-04-02T16:42:07.954Z</time></trkpt><trkpt lat="45.7171333" lon="12.46193"><ele>12.0</ele><time>2026-04-02T16:42:08.954Z</time></trkpt><trkpt lat="45.7170783" lon="12.4619983"><ele>12.0</ele><time>2026-04-02T16:42:09.954Z</time></trkpt><trkpt lat="45.71687" lon="12.4618017"><ele>12.0</ele><time>2026-04-02T16:42:11.954Z</time></trkpt><trkpt lat="45.7167633" lon="12.4616867"><ele>12.0</ele><time>2026-04-02T16:42:12.953Z</time></trkpt><trkpt lat="45.7166417" lon="12.4615783"><ele>12.0</ele><time>2026-04-02T16:42:13.954Z</time></trkpt><trkpt lat="45.716535" lon="12.46148"><ele>12.0</ele><time>2026-04-02T16:42:14.954Z</time></trkpt><trkpt lat="45.7163567" lon="12.461325"><ele>11.666666666666666</ele><time>2026-04-02T16:42:15.954Z</time></trkpt><trkpt lat="45.71614" lon="12.4612033"><ele>11.333333333333332</ele><time>2026-04-02T16:42:17.954Z</time></trkpt><trkpt lat="45.7160317" lon="12.4611683"><ele>11.0</ele><time>2026-04-02T16:42:18.954Z</time></trkpt><trkpt lat="45.7159267" lon="12.461125"><ele>10.666666666666666</ele><time>2026-04-02T16:42:19.954Z</time></trkpt><trkpt lat="45.7158267" lon="12.46111"><ele>10.333333333333332</ele><time>2026-04-02T16:42:20.954Z</time></trkpt><trkpt lat="45.71574" lon="12.4610983"><ele>10.0</ele><time>2026-04-02T16:42:21.954Z</time></trkpt><trkpt lat="45.7156583" lon="12.461095"><ele>9.666666666666666</ele><time>2026-04-02T16:42:22.953Z</time></trkpt><trkpt lat="45.7155883" lon="12.461095"><ele>9.333333333333334</ele><time>2026-04-02T16:42:23.952Z</time></trkpt><trkpt lat="45.7154867" lon="12.4610733"><ele>9.0</ele><time>2026-04-02T16:42:25.952Z</time></trkpt><trkpt lat="45.715425" lon="12.4610533"><ele>9.0</ele><time>2026-04-02T16:43:39.953Z</time></trkpt><trkpt lat="45.7152467" lon="12.46103"><ele>9.0</ele><time>2026-04-02T16:43:43.953Z</time></trkpt><trkpt lat="45.7151867" lon="12.460995"><ele>9.0</ele><time>2026-04-02T16:43:44.953Z</time></trkpt><trkpt lat="45.7151317" lon="12.4609483"><ele>9.0</ele><time>2026-04-02T16:43:45.952Z</time></trkpt><trkpt lat="45.715035" lon="12.4608483"><ele>9.0</ele><time>2026-04-02T16:43:47.953Z</time></trkpt><trkpt lat="45.7149733" lon="12.4607683"><ele>8.6</ele><time>2026-04-02T16:43:48.953Z</time></trkpt><trkpt lat="45.7149317" lon="12.460675"><ele>8.2</ele><time>2026-04-02T16:43:49.953Z</time></trkpt><trkpt lat="45.7149" lon="12.4605467"><ele>7.799999999999999</ele><time>2026-04-02T16:43:50.953Z</time></trkpt><trkpt lat="45.7148717" lon="12.4604217"><ele>7.3999999999999995</ele><time>2026-04-02T16:43:51.953Z</time></trkpt><trkpt lat="45.714825" lon="12.460265"><ele>7.0</ele><time>2026-04-02T16:43:52.953Z</time></trkpt><trkpt lat="45.7147867" lon="12.4601233"><ele>7.0</ele><time>2026-04-02T16:43:53.953Z</time></trkpt><trkpt lat="45.7147533" lon="12.4599583"><ele>7.0</ele><time>2026-04-02T16:43:54.953Z</time></trkpt><trkpt lat="45.7146967" lon="12.4597633"><ele>7.0</ele><time>2026-04-02T16:43:55.953Z</time></trkpt><trkpt lat="45.7146417" lon="12.4595633"><ele>7.0</ele><time>2026-04-02T16:43:56.953Z</time></trkpt><trkpt lat="45.714585" lon="12.4593583"><ele>7.25</ele><time>2026-04-02T16:43:57.953Z</time></trkpt><trkpt lat="45.71453" lon="12.4591483"><ele>7.5</ele><time>2026-04-02T16:43:58.953Z</time></trkpt><trkpt lat="45.7144817" lon="12.45895"><ele>7.75</ele><time>2026-04-02T16:43:59.952Z</time></trkpt><trkpt lat="45.7144267" lon="12.4587567"><ele>8.0</ele><time>2026-04-02T16:44:00.952Z</time></trkpt><trkpt lat="45.71428" lon="12.4583533"><ele>8.0</ele><time>2026-04-02T16:44:02.953Z</time></trkpt><trkpt lat="45.7142383" lon="12.4581683"><ele>8.0</ele><time>2026-04-02T16:44:03.952Z</time></trkpt><trkpt lat="45.7141533" lon="12.4579717"><ele>8.0</ele><time>2026-04-02T16:44:04.953Z</time></trkpt><trkpt lat="45.7140617" lon="12.4577733"><ele>8.666666666666666</ele><time>2026-04-02T16:44:05.952Z</time></trkpt><trkpt lat="45.71397" lon="12.45757"><ele>9.333333333333334</ele><time>2026-04-02T16:44:06.953Z</time></trkpt><trkpt lat="45.71387" lon="12.4573733"><ele>10.0</ele><time>2026-04-02T16:44:07.953Z</time></trkpt><trkpt lat="45.7137617" lon="12.457185"><ele>10.0</ele><time>2026-04-02T16:44:08.953Z</time></trkpt><trkpt lat="45.7136383" lon="12.45699"><ele>10.0</ele><time>2026-04-02T16:44:09.952Z</time></trkpt><trkpt lat="45.713515" lon="12.4568083"><ele>10.0</ele><time>2026-04-02T16:44:10.953Z</time></trkpt><trkpt lat="45.7133833" lon="12.4566283"><ele>9.666666666666668</ele><time>2026-04-02T16:44:11.953Z</time></trkpt><trkpt lat="45.7132433" lon="12.4564633"><ele>9.333333333333334</ele><time>2026-04-02T16:44:12.953Z</time></trkpt><trkpt lat="45.7131033" lon="12.4563033"><ele>9.0</ele><time>2026-04-02T16:44:13.952Z</time></trkpt><trkpt lat="45.712965" lon="12.4561517"><ele>9.0</ele><time>2026-04-02T16:44:14.953Z</time></trkpt><trkpt lat="45.7128267" lon="12.4560233"><ele>9.0</ele><time>2026-04-02T16:44:15.953Z</time></trkpt><trkpt lat="45.712675" lon="12.4558883"><ele>9.0</ele><time>2026-04-02T16:44:16.953Z</time></trkpt><trkpt lat="45.712535" lon="12.45576"><ele>9.0</ele><time>2026-04-02T16:44:17.953Z</time></trkpt><trkpt lat="45.7123967" lon="12.4556383"><ele>9.0</ele><time>2026-04-02T16:44:18.953Z</time></trkpt><trkpt lat="45.7122567" lon="12.45551"><ele>9.0</ele><time>2026-04-02T16:44:19.953Z</time></trkpt><trkpt lat="45.7121167" lon="12.4553983"><ele>8.5</ele><time>2026-04-02T16:44:20.953Z</time></trkpt><trkpt lat="45.7119717" lon="12.4552783"><ele>8.0</ele><time>2026-04-02T16:44:21.953Z</time></trkpt><trkpt lat="45.7116733" lon="12.4550333"><ele>6.666666666666666</ele><time>2026-04-02T16:44:23.953Z</time></trkpt><trkpt lat="45.7115233" lon="12.454915"><ele>5.333333333333333</ele><time>2026-04-02T16:44:24.953Z</time></trkpt><trkpt lat="45.7113767" lon="12.4547933"><ele>4.0</ele><time>2026-04-02T16:44:25.952Z</time></trkpt><trkpt lat="45.7112333" lon="12.45467"><ele>3.333333333333333</ele><time>2026-04-02T16:44:26.953Z</time></trkpt><trkpt lat="45.7110883" lon="12.4545483"><ele>2.6666666666666665</ele><time>2026-04-02T16:44:27.952Z</time></trkpt><trkpt lat="45.71094" lon="12.454415"><ele>2.0</ele><time>2026-04-02T16:44:28.952Z</time></trkpt><trkpt lat="45.7107783" lon="12.4542783"><ele>2.0</ele><time>2026-04-02T16:44:29.953Z</time></trkpt><trkpt lat="45.7106167" lon="12.4541467"><ele>2.0</ele><time>2026-04-02T16:44:30.953Z</time></trkpt><trkpt lat="45.7104717" lon="12.4540367"><ele>2.0</ele><time>2026-04-02T16:44:31.953Z</time></trkpt><trkpt lat="45.710315" lon="12.4539017"><ele>3.666666666666667</ele><time>2026-04-02T16:44:32.953Z</time></trkpt><trkpt lat="45.7101583" lon="12.4537633"><ele>5.333333333333334</ele><time>2026-04-02T16:44:33.952Z</time></trkpt><trkpt lat="45.7100017" lon="12.453625"><ele>7.0</ele><time>2026-04-02T16:44:34.953Z</time></trkpt><trkpt lat="45.70984" lon="12.4534967"><ele>7.0</ele><time>2026-04-02T16:44:35.953Z</time></trkpt><trkpt lat="45.7096883" lon="12.4533633"><ele>7.0</ele><time>2026-04-02T16:44:36.952Z</time></trkpt><trkpt lat="45.709535" lon="12.4532333"><ele>7.0</ele><time>2026-04-02T16:44:37.952Z</time></trkpt><trkpt lat="45.7093867" lon="12.4530917"><ele>8.0</ele><time>2026-04-02T16:44:38.953Z</time></trkpt><trkpt lat="45.7092517" lon="12.4529367"><ele>9.0</ele><time>2026-04-02T16:44:39.952Z</time></trkpt><trkpt lat="45.709125" lon="12.4527617"><ele>10.0</ele><time>2026-04-02T16:44:40.952Z</time></trkpt><trkpt lat="45.7089983" lon="12.4525817"><ele>10.0</ele><time>2026-04-02T16:44:41.953Z</time></trkpt><trkpt lat="45.7089" lon="12.45238"><ele>10.0</ele><time>2026-04-02T16:44:42.953Z</time></trkpt><trkpt lat="45.708735" lon="12.45193"><ele>10.0</ele><time>2026-04-02T16:44:44.953Z</time></trkpt><trkpt lat="45.70867" lon="12.4517"><ele>10.0</ele><time>2026-04-02T16:44:45.953Z</time></trkpt><trkpt lat="45.708625" lon="12.4514717"><ele>10.0</ele><time>2026-04-02T16:44:46.953Z</time></trkpt><trkpt lat="45.7086083" lon="12.45123"><ele>9.666666666666668</ele><time>2026-04-02T16:44:47.953Z</time></trkpt><trkpt lat="45.708605" lon="12.45104"><ele>9.333333333333334</ele><time>2026-04-02T16:44:48.953Z</time></trkpt><trkpt lat="45.70857" lon="12.450785"><ele>9.0</ele><time>2026-04-02T16:44:49.953Z</time></trkpt><trkpt lat="45.70852" lon="12.4505683"><ele>8.666666666666666</ele><time>2026-04-02T16:44:50.952Z</time></trkpt><trkpt lat="45.7084767" lon="12.4503317"><ele>8.333333333333332</ele><time>2026-04-02T16:44:51.953Z</time></trkpt><trkpt lat="45.7084317" lon="12.4500817"><ele>8.0</ele><time>2026-04-02T16:44:52.952Z</time></trkpt><trkpt lat="45.7083783" lon="12.44983"><ele>7.666666666666666</ele><time>2026-04-02T16:44:53.953Z</time></trkpt><trkpt lat="45.70831" lon="12.4495817"><ele>7.333333333333334</ele><time>2026-04-02T16:44:54.953Z</time></trkpt><trkpt lat="45.708235" lon="12.44935"><ele>7.0</ele><time>2026-04-02T16:44:55.953Z</time></trkpt><trkpt lat="45.7081533" lon="12.4491133"><ele>7.0</ele><time>2026-04-02T16:44:56.952Z</time></trkpt><trkpt lat="45.708075" lon="12.4488717"><ele>7.0</ele><time>2026-04-02T16:44:57.953Z</time></trkpt><trkpt lat="45.7080083" lon="12.448655"><ele>7.0</ele><time>2026-04-02T16:44:58.953Z</time></trkpt><trkpt lat="45.70794" lon="12.4484467"><ele>7.0</ele><time>2026-04-02T16:44:59.952Z</time></trkpt><trkpt lat="45.70787" lon="12.4482333"><ele>7.0</ele><time>2026-04-02T16:45:00.953Z</time></trkpt><trkpt lat="45.707805" lon="12.4480233"><ele>7.0</ele><time>2026-04-02T16:45:01.953Z</time></trkpt><trkpt lat="45.70775" lon="12.4478267"><ele>7.0</ele><time>2026-04-02T16:45:02.953Z</time></trkpt><trkpt lat="45.7076733" lon="12.4476167"><ele>7.0</ele><time>2026-04-02T16:45:03.953Z</time></trkpt><trkpt lat="45.7075317" lon="12.4472033"><ele>7.5</ele><time>2026-04-02T16:45:05.952Z</time></trkpt><trkpt lat="45.7074767" lon="12.4470283"><ele>8.0</ele><time>2026-04-02T16:45:06.953Z</time></trkpt><trkpt lat="45.707405" lon="12.4468383"><ele>8.5</ele><time>2026-04-02T16:45:07.953Z</time></trkpt><trkpt lat="45.70735" lon="12.4466583"><ele>9.0</ele><time>2026-04-02T16:45:08.953Z</time></trkpt><trkpt lat="45.7072733" lon="12.44645"><ele>9.0</ele><time>2026-04-02T16:45:09.953Z</time></trkpt><trkpt lat="45.7071983" lon="12.4462233"><ele>9.0</ele><time>2026-04-02T16:45:10.953Z</time></trkpt><trkpt lat="45.7071267" lon="12.4460083"><ele>9.0</ele><time>2026-04-02T16:45:11.952Z</time></trkpt><trkpt lat="45.707055" lon="12.4457933"><ele>9.0</ele><time>2026-04-02T16:45:12.953Z</time></trkpt><trkpt lat="45.70698" lon="12.4455717"><ele>9.0</ele><time>2026-04-02T16:45:13.952Z</time></trkpt><trkpt lat="45.706905" lon="12.4453433"><ele>9.0</ele><time>2026-04-02T16:45:14.953Z</time></trkpt><trkpt lat="45.7068317" lon="12.445105"><ele>9.333333333333334</ele><time>2026-04-02T16:45:15.953Z</time></trkpt><trkpt lat="45.70675" lon="12.44487"><ele>9.666666666666668</ele><time>2026-04-02T16:45:16.953Z</time></trkpt><trkpt lat="45.706665" lon="12.4446267"><ele>10.0</ele><time>2026-04-02T16:45:17.953Z</time></trkpt><trkpt lat="45.7066017" lon="12.4444117"><ele>10.0</ele><time>2026-04-02T16:45:18.953Z</time></trkpt><trkpt lat="45.706535" lon="12.4442083"><ele>10.0</ele><time>2026-04-02T16:45:19.953Z</time></trkpt><trkpt lat="45.7064717" lon="12.4439867"><ele>10.0</ele><time>2026-04-02T16:45:20.953Z</time></trkpt><trkpt lat="45.7064033" lon="12.443775"><ele>9.75</ele><time>2026-04-02T16:45:21.953Z</time></trkpt><trkpt lat="45.7063633" lon="12.4436117"><ele>9.5</ele><time>2026-04-02T16:45:22.953Z</time></trkpt><trkpt lat="45.7063133" lon="12.4434283"><ele>9.25</ele><time>2026-04-02T16:45:23.953Z</time></trkpt><trkpt lat="45.7062433" lon="12.443225"><ele>9.0</ele><time>2026-04-02T16:45:24.952Z</time></trkpt><trkpt lat="45.7060867" lon="12.4427867"><ele>9.333333333333334</ele><time>2026-04-02T16:45:26.953Z</time></trkpt><trkpt lat="45.706" lon="12.4425783"><ele>9.666666666666668</ele><time>2026-04-02T16:45:27.953Z</time></trkpt><trkpt lat="45.7059167" lon="12.442365"><ele>10.0</ele><time>2026-04-02T16:45:28.953Z</time></trkpt><trkpt lat="45.7058367" lon="12.4421533"><ele>9.666666666666668</ele><time>2026-04-02T16:45:29.953Z</time></trkpt><trkpt lat="45.70575" lon="12.4419467"><ele>9.333333333333334</ele><time>2026-04-02T16:45:30.953Z</time></trkpt><trkpt lat="45.705615" lon="12.4416833"><ele>9.0</ele><time>2026-04-02T16:45:31.953Z</time></trkpt><trkpt lat="45.7055417" lon="12.44148"><ele>9.0</ele><time>2026-04-02T16:45:32.953Z</time></trkpt><trkpt lat="45.7055167" lon="12.4413283"><ele>9.0</ele><time>2026-04-02T16:45:33.953Z</time></trkpt><trkpt lat="45.7054517" lon="12.4411167"><ele>9.0</ele><time>2026-04-02T16:45:34.953Z</time></trkpt><trkpt lat="45.705385" lon="12.440905"><ele>9.0</ele><time>2026-04-02T16:45:35.953Z</time></trkpt><trkpt lat="45.7053133" lon="12.4406933"><ele>9.0</ele><time>2026-04-02T16:45:36.953Z</time></trkpt><trkpt lat="45.705245" lon="12.4404817"><ele>9.0</ele><time>2026-04-02T16:45:37.952Z</time></trkpt><trkpt lat="45.705175" lon="12.4402667"><ele>9.0</ele><time>2026-04-02T16:45:38.953Z</time></trkpt><trkpt lat="45.705115" lon="12.44004"><ele>9.0</ele><time>2026-04-02T16:45:39.952Z</time></trkpt><trkpt lat="45.705035" lon="12.4398283"><ele>9.0</ele><time>2026-04-02T16:45:40.953Z</time></trkpt><trkpt lat="45.70495" lon="12.4396117"><ele>9.0</ele><time>2026-04-02T16:45:41.953Z</time></trkpt><trkpt lat="45.7048517" lon="12.4393917"><ele>9.333333333333334</ele><time>2026-04-02T16:45:42.953Z</time></trkpt><trkpt lat="45.70477" lon="12.4391667"><ele>9.666666666666668</ele><time>2026-04-02T16:45:43.952Z</time></trkpt><trkpt lat="45.70471" lon="12.43896"><ele>10.0</ele><time>2026-04-02T16:45:44.953Z</time></trkpt><trkpt lat="45.7046483" lon="12.438765"><ele>10.0</ele><time>2026-04-02T16:45:45.953Z</time></trkpt><trkpt lat="45.7044833" lon="12.4383433"><ele>10.0</ele><time>2026-04-02T16:45:47.952Z</time></trkpt><trkpt lat="45.7044067" lon="12.4381483"><ele>10.0</ele><time>2026-04-02T16:45:48.952Z</time></trkpt><trkpt lat="45.7043317" lon="12.4379383"><ele>10.0</ele><time>2026-04-02T16:45:49.951Z</time></trkpt><trkpt lat="45.7042533" lon="12.43773"><ele>10.0</ele><time>2026-04-02T16:45:50.952Z</time></trkpt><trkpt lat="45.7041483" lon="12.4374933"><ele>10.0</ele><time>2026-04-02T16:45:51.952Z</time></trkpt><trkpt lat="45.70408" lon="12.43726"><ele>10.0</ele><time>2026-04-02T16:45:52.952Z</time></trkpt><trkpt lat="45.704005" lon="12.437045"><ele>10.0</ele><time>2026-04-02T16:45:53.952Z</time></trkpt><trkpt lat="45.7039583" lon="12.4368533"><ele>10.0</ele><time>2026-04-02T16:45:54.952Z</time></trkpt><trkpt lat="45.7038767" lon="12.4366267"><ele>10.0</ele><time>2026-04-02T16:45:55.952Z</time></trkpt><trkpt lat="45.7037833" lon="12.43638"><ele>10.0</ele><time>2026-04-02T16:45:56.952Z</time></trkpt><trkpt lat="45.703685" lon="12.4361317"><ele>10.0</ele><time>2026-04-02T16:45:57.952Z</time></trkpt><trkpt lat="45.7036033" lon="12.43591"><ele>10.0</ele><time>2026-04-02T16:45:58.952Z</time></trkpt><trkpt lat="45.70351" lon="12.4356617"><ele>10.0</ele><time>2026-04-02T16:45:59.952Z</time></trkpt><trkpt lat="45.70342" lon="12.4354267"><ele>10.0</ele><time>2026-04-02T16:46:00.952Z</time></trkpt><trkpt lat="45.7033117" lon="12.4351717"><ele>10.0</ele><time>2026-04-02T16:46:01.952Z</time></trkpt><trkpt lat="45.70321" lon="12.4349283"><ele>10.0</ele><time>2026-04-02T16:46:02.952Z</time></trkpt><trkpt lat="45.7031267" lon="12.4347133"><ele>9.666666666666668</ele><time>2026-04-02T16:46:03.952Z</time></trkpt><trkpt lat="45.7030517" lon="12.4345033"><ele>9.333333333333334</ele><time>2026-04-02T16:46:04.952Z</time></trkpt><trkpt lat="45.7029833" lon="12.43431"><ele>9.0</ele><time>2026-04-02T16:46:05.951Z</time></trkpt><trkpt lat="45.7029233" lon="12.4340933"><ele>8.5</ele><time>2026-04-02T16:46:06.952Z</time></trkpt><trkpt lat="45.70277" lon="12.433635"><ele>8.0</ele><time>2026-04-02T16:46:08.952Z</time></trkpt><trkpt lat="45.702695" lon="12.43343"><ele>8.0</ele><time>2026-04-02T16:46:09.952Z</time></trkpt><trkpt lat="45.702625" lon="12.43322"><ele>8.0</ele><time>2026-04-02T16:46:10.951Z</time></trkpt><trkpt lat="45.70255" lon="12.4330167"><ele>8.0</ele><time>2026-04-02T16:46:11.952Z</time></trkpt><trkpt lat="45.702465" lon="12.4328067"><ele>8.0</ele><time>2026-04-02T16:46:12.952Z</time></trkpt><trkpt lat="45.7023767" lon="12.4325917"><ele>8.0</ele><time>2026-04-02T16:46:13.952Z</time></trkpt><trkpt lat="45.7022983" lon="12.43236"><ele>8.0</ele><time>2026-04-02T16:46:14.952Z</time></trkpt><trkpt lat="45.7022333" lon="12.43214"><ele>7.666666666666666</ele><time>2026-04-02T16:46:15.952Z</time></trkpt><trkpt lat="45.7021533" lon="12.4319133"><ele>7.333333333333334</ele><time>2026-04-02T16:46:16.952Z</time></trkpt><trkpt lat="45.7020783" lon="12.43171"><ele>7.0</ele><time>2026-04-02T16:46:17.952Z</time></trkpt><trkpt lat="45.7019917" lon="12.431505"><ele>7.666666666666667</ele><time>2026-04-02T16:46:18.951Z</time></trkpt><trkpt lat="45.7019067" lon="12.4312983"><ele>8.333333333333334</ele><time>2026-04-02T16:46:19.952Z</time></trkpt><trkpt lat="45.7018233" lon="12.43108"><ele>9.0</ele><time>2026-04-02T16:46:20.952Z</time></trkpt><trkpt lat="45.7017467" lon="12.4308567"><ele>9.0</ele><time>2026-04-02T16:46:21.952Z</time></trkpt><trkpt lat="45.7016683" lon="12.4306417"><ele>9.0</ele><time>2026-04-02T16:46:22.952Z</time></trkpt><trkpt lat="45.7015867" lon="12.4304267"><ele>9.0</ele><time>2026-04-02T16:46:23.952Z</time></trkpt><trkpt lat="45.7015067" lon="12.4302167"><ele>9.333333333333334</ele><time>2026-04-02T16:46:24.952Z</time></trkpt><trkpt lat="45.7014333" lon="12.4300017"><ele>9.666666666666668</ele><time>2026-04-02T16:46:25.952Z</time></trkpt><trkpt lat="45.7013583" lon="12.4297783"><ele>10.0</ele><time>2026-04-02T16:46:26.952Z</time></trkpt><trkpt lat="45.7012833" lon="12.4295633"><ele>10.0</ele><time>2026-04-02T16:46:27.952Z</time></trkpt><trkpt lat="45.7011333" lon="12.4291417"><ele>10.0</ele><time>2026-04-02T16:46:29.951Z</time></trkpt><trkpt lat="45.7010633" lon="12.4289317"><ele>9.333333333333334</ele><time>2026-04-02T16:46:30.951Z</time></trkpt><trkpt lat="45.700995" lon="12.4287217"><ele>8.666666666666666</ele><time>2026-04-02T16:46:31.952Z</time></trkpt><trkpt lat="45.700925" lon="12.428515"><ele>8.0</ele><time>2026-04-02T16:46:32.952Z</time></trkpt><trkpt lat="45.7008533" lon="12.4282933"><ele>8.0</ele><time>2026-04-02T16:46:33.952Z</time></trkpt><trkpt lat="45.7007767" lon="12.428065"><ele>8.0</ele><time>2026-04-02T16:46:34.952Z</time></trkpt><trkpt lat="45.7006983" lon="12.4278367"><ele>8.0</ele><time>2026-04-02T16:46:35.952Z</time></trkpt><trkpt lat="45.7006167" lon="12.427615"><ele>8.0</ele><time>2026-04-02T16:46:36.952Z</time></trkpt><trkpt lat="45.7005383" lon="12.4273867"><ele>8.0</ele><time>2026-04-02T16:46:37.952Z</time></trkpt><trkpt lat="45.700465" lon="12.4271633"><ele>8.0</ele><time>2026-04-02T16:46:38.952Z</time></trkpt><trkpt lat="45.700395" lon="12.4269583"><ele>8.0</ele><time>2026-04-02T16:46:39.952Z</time></trkpt><trkpt lat="45.7003433" lon="12.426765"><ele>8.0</ele><time>2026-04-02T16:46:40.951Z</time></trkpt><trkpt lat="45.70027" lon="12.4265467"><ele>8.0</ele><time>2026-04-02T16:46:41.952Z</time></trkpt><trkpt lat="45.7001933" lon="12.4263367"><ele>8.0</ele><time>2026-04-02T16:46:42.952Z</time></trkpt><trkpt lat="45.7001067" lon="12.4261267"><ele>8.0</ele><time>2026-04-02T16:46:43.952Z</time></trkpt><trkpt lat="45.7000333" lon="12.4259167"><ele>8.0</ele><time>2026-04-02T16:46:44.952Z</time></trkpt><trkpt lat="45.6999567" lon="12.4257133"><ele>8.0</ele><time>2026-04-02T16:46:45.952Z</time></trkpt><trkpt lat="45.6998767" lon="12.4255067"><ele>8.0</ele><time>2026-04-02T16:46:46.951Z</time></trkpt><trkpt lat="45.6997817" lon="12.4252833"><ele>8.0</ele><time>2026-04-02T16:46:47.952Z</time></trkpt><trkpt lat="45.6997117" lon="12.4250567"><ele>8.5</ele><time>2026-04-02T16:46:48.952Z</time></trkpt><trkpt lat="45.6995683" lon="12.4246217"><ele>9.0</ele><time>2026-04-02T16:46:50.952Z</time></trkpt><trkpt lat="45.6994933" lon="12.4243967"><ele>9.0</ele><time>2026-04-02T16:46:51.951Z</time></trkpt><trkpt lat="45.69942" lon="12.42417"><ele>9.0</ele><time>2026-04-02T16:46:52.952Z</time></trkpt><trkpt lat="45.6993433" lon="12.42395"><ele>9.0</ele><time>2026-04-02T16:46:53.951Z</time></trkpt><trkpt lat="45.6992867" lon="12.4237433"><ele>8.666666666666666</ele><time>2026-04-02T16:46:54.952Z</time></trkpt><trkpt lat="45.69921" lon="12.4235383"><ele>8.333333333333332</ele><time>2026-04-02T16:46:55.952Z</time></trkpt><trkpt lat="45.69914" lon="12.4233417"><ele>8.0</ele><time>2026-04-02T16:46:56.952Z</time></trkpt><trkpt lat="45.6990633" lon="12.4231467"><ele>8.25</ele><time>2026-04-02T16:46:57.951Z</time></trkpt><trkpt lat="45.6989883" lon="12.4229483"><ele>8.5</ele><time>2026-04-02T16:46:58.952Z</time></trkpt><trkpt lat="45.698935" lon="12.4227767"><ele>8.75</ele><time>2026-04-02T16:46:59.952Z</time></trkpt><trkpt lat="45.6988633" lon="12.4225717"><ele>9.0</ele><time>2026-04-02T16:47:00.951Z</time></trkpt><trkpt lat="45.698805" lon="12.42237"><ele>8.666666666666666</ele><time>2026-04-02T16:47:01.952Z</time></trkpt><trkpt lat="45.69873" lon="12.4221383"><ele>8.333333333333332</ele><time>2026-04-02T16:47:02.952Z</time></trkpt><trkpt lat="45.6986583" lon="12.4219233"><ele>8.0</ele><time>2026-04-02T16:47:03.952Z</time></trkpt><trkpt lat="45.6985733" lon="12.42169"><ele>8.0</ele><time>2026-04-02T16:47:04.952Z</time></trkpt><trkpt lat="45.698485" lon="12.4214383"><ele>8.0</ele><time>2026-04-02T16:47:05.952Z</time></trkpt><trkpt lat="45.698405" lon="12.42121"><ele>8.0</ele><time>2026-04-02T16:47:06.951Z</time></trkpt><trkpt lat="45.6983233" lon="12.4209833"><ele>8.0</ele><time>2026-04-02T16:47:07.952Z</time></trkpt><trkpt lat="45.698245" lon="12.4207517"><ele>8.0</ele><time>2026-04-02T16:47:08.952Z</time></trkpt><trkpt lat="45.69817" lon="12.420525"><ele>8.0</ele><time>2026-04-02T16:47:09.952Z</time></trkpt><trkpt lat="45.6980233" lon="12.4201017"><ele>7.666666666666666</ele><time>2026-04-02T16:47:11.952Z</time></trkpt><trkpt lat="45.6979483" lon="12.4198783"><ele>7.333333333333334</ele><time>2026-04-02T16:47:12.951Z</time></trkpt><trkpt lat="45.6978733" lon="12.41965"><ele>7.0</ele><time>2026-04-02T16:47:13.952Z</time></trkpt><trkpt lat="45.6978067" lon="12.4194183"><ele>7.0</ele><time>2026-04-02T16:47:14.952Z</time></trkpt><trkpt lat="45.6977317" lon="12.4191783"><ele>7.0</ele><time>2026-04-02T16:47:15.952Z</time></trkpt><trkpt lat="45.6976617" lon="12.4189867"><ele>7.0</ele><time>2026-04-02T16:47:16.952Z</time></trkpt><trkpt lat="45.6975667" lon="12.41878"><ele>7.333333333333334</ele><time>2026-04-02T16:47:17.951Z</time></trkpt><trkpt lat="45.6974817" lon="12.418585"><ele>7.666666666666666</ele><time>2026-04-02T16:47:18.952Z</time></trkpt><trkpt lat="45.6974083" lon="12.418375"><ele>8.0</ele><time>2026-04-02T16:47:19.952Z</time></trkpt><trkpt lat="45.6973333" lon="12.4181617"><ele>8.666666666666666</ele><time>2026-04-02T16:47:20.952Z</time></trkpt><trkpt lat="45.6972583" lon="12.41795"><ele>9.333333333333334</ele><time>2026-04-02T16:47:21.952Z</time></trkpt><trkpt lat="45.6971833" lon="12.4177367"><ele>10.0</ele><time>2026-04-02T16:47:22.951Z</time></trkpt><trkpt lat="45.6971067" lon="12.417515"><ele>10.0</ele><time>2026-04-02T16:47:23.952Z</time></trkpt><trkpt lat="45.6970283" lon="12.4172967"><ele>10.0</ele><time>2026-04-02T16:47:24.951Z</time></trkpt><trkpt lat="45.69695" lon="12.417075"><ele>10.0</ele><time>2026-04-02T16:47:25.952Z</time></trkpt><trkpt lat="45.696875" lon="12.4168533"><ele>10.0</ele><time>2026-04-02T16:47:26.952Z</time></trkpt><trkpt lat="45.6968033" lon="12.4166317"><ele>10.0</ele><time>2026-04-02T16:47:27.952Z</time></trkpt><trkpt lat="45.6967283" lon="12.41641"><ele>10.0</ele><time>2026-04-02T16:47:28.952Z</time></trkpt><trkpt lat="45.6966483" lon="12.4161933"><ele>10.0</ele><time>2026-04-02T16:47:29.952Z</time></trkpt><trkpt lat="45.69657" lon="12.4159717"><ele>10.0</ele><time>2026-04-02T16:47:30.952Z</time></trkpt><trkpt lat="45.69643" lon="12.4155417"><ele>10.0</ele><time>2026-04-02T16:47:32.952Z</time></trkpt><trkpt lat="45.6963567" lon="12.4153267"><ele>10.0</ele><time>2026-04-02T16:47:33.952Z</time></trkpt><trkpt lat="45.6962833" lon="12.41511"><ele>10.0</ele><time>2026-04-02T16:47:34.952Z</time></trkpt><trkpt lat="45.696215" lon="12.4148983"><ele>10.0</ele><time>2026-04-02T16:47:35.952Z</time></trkpt><trkpt lat="45.6961467" lon="12.4146867"><ele>10.0</ele><time>2026-04-02T16:47:36.951Z</time></trkpt><trkpt lat="45.696055" lon="12.4144567"><ele>10.0</ele><time>2026-04-02T16:47:37.952Z</time></trkpt><trkpt lat="45.6959667" lon="12.4142233"><ele>10.0</ele><time>2026-04-02T16:47:38.952Z</time></trkpt><trkpt lat="45.6958883" lon="12.41399"><ele>10.0</ele><time>2026-04-02T16:47:39.952Z</time></trkpt><trkpt lat="45.6958033" lon="12.4137733"><ele>10.0</ele><time>2026-04-02T16:47:40.952Z</time></trkpt><trkpt lat="45.6957267" lon="12.4135483"><ele>9.666666666666668</ele><time>2026-04-02T16:47:41.952Z</time></trkpt><trkpt lat="45.6956483" lon="12.4133183"><ele>9.333333333333334</ele><time>2026-04-02T16:47:42.952Z</time></trkpt><trkpt lat="45.695575" lon="12.4130883"><ele>9.0</ele><time>2026-04-02T16:47:43.952Z</time></trkpt><trkpt lat="45.6955067" lon="12.412875"><ele>9.0</ele><time>2026-04-02T16:47:44.951Z</time></trkpt><trkpt lat="45.695435" lon="12.41268"><ele>9.0</ele><time>2026-04-02T16:47:45.952Z</time></trkpt><trkpt lat="45.6953683" lon="12.4124533"><ele>9.0</ele><time>2026-04-02T16:47:46.952Z</time></trkpt><trkpt lat="45.6952833" lon="12.4122467"><ele>9.0</ele><time>2026-04-02T16:47:47.952Z</time></trkpt><trkpt lat="45.6952033" lon="12.4120233"><ele>9.0</ele><time>2026-04-02T16:47:48.952Z</time></trkpt><trkpt lat="45.6951183" lon="12.4117983"><ele>9.0</ele><time>2026-04-02T16:47:49.952Z</time></trkpt><trkpt lat="45.6950383" lon="12.4115783"><ele>9.0</ele><time>2026-04-02T16:47:50.952Z</time></trkpt><trkpt lat="45.6949567" lon="12.411345"><ele>9.0</ele><time>2026-04-02T16:47:51.951Z</time></trkpt><trkpt lat="45.6947967" lon="12.410885"><ele>9.0</ele><time>2026-04-02T16:47:53.952Z</time></trkpt><trkpt lat="45.6947167" lon="12.4106617"><ele>9.0</ele><time>2026-04-02T16:47:54.952Z</time></trkpt><trkpt lat="45.69464" lon="12.410445"><ele>9.0</ele><time>2026-04-02T16:47:55.952Z</time></trkpt><trkpt lat="45.6945683" lon="12.4102217"><ele>9.0</ele><time>2026-04-02T16:47:56.952Z</time></trkpt><trkpt lat="45.6944967" lon="12.409995"><ele>9.0</ele><time>2026-04-02T16:47:57.952Z</time></trkpt><trkpt lat="45.6944183" lon="12.4097617"><ele>9.0</ele><time>2026-04-02T16:47:58.952Z</time></trkpt><trkpt lat="45.6943367" lon="12.40953"><ele>9.0</ele><time>2026-04-02T16:47:59.952Z</time></trkpt><trkpt lat="45.6942467" lon="12.40929"><ele>9.0</ele><time>2026-04-02T16:48:00.952Z</time></trkpt><trkpt lat="45.6941667" lon="12.4090517"><ele>9.0</ele><time>2026-04-02T16:48:01.951Z</time></trkpt><trkpt lat="45.69409" lon="12.408815"><ele>9.0</ele><time>2026-04-02T16:48:02.952Z</time></trkpt><trkpt lat="45.6940067" lon="12.4085817"><ele>9.0</ele><time>2026-04-02T16:48:03.952Z</time></trkpt><trkpt lat="45.6939233" lon="12.4083433"><ele>9.0</ele><time>2026-04-02T16:48:04.952Z</time></trkpt><trkpt lat="45.693845" lon="12.4081067"><ele>8.333333333333334</ele><time>2026-04-02T16:48:05.951Z</time></trkpt><trkpt lat="45.6937733" lon="12.407875"><ele>7.666666666666667</ele><time>2026-04-02T16:48:06.952Z</time></trkpt><trkpt lat="45.6937" lon="12.4076483"><ele>7.0</ele><time>2026-04-02T16:48:07.952Z</time></trkpt><trkpt lat="45.6936283" lon="12.4074283"><ele>7.666666666666667</ele><time>2026-04-02T16:48:08.951Z</time></trkpt><trkpt lat="45.69356" lon="12.40721"><ele>8.333333333333334</ele><time>2026-04-02T16:48:09.952Z</time></trkpt><trkpt lat="45.6934933" lon="12.407"><ele>9.0</ele><time>2026-04-02T16:48:10.951Z</time></trkpt><trkpt lat="45.6934217" lon="12.406785"><ele>9.0</ele><time>2026-04-02T16:48:11.952Z</time></trkpt><trkpt lat="45.6933433" lon="12.4065767"><ele>9.0</ele><time>2026-04-02T16:48:12.952Z</time></trkpt><trkpt lat="45.693205" lon="12.4061517"><ele>8.666666666666666</ele><time>2026-04-02T16:48:14.952Z</time></trkpt><trkpt lat="45.6931167" lon="12.4058983"><ele>8.333333333333332</ele><time>2026-04-02T16:48:15.951Z</time></trkpt><trkpt lat="45.6930367" lon="12.4056783"><ele>8.0</ele><time>2026-04-02T16:48:16.952Z</time></trkpt><trkpt lat="45.6929533" lon="12.4054533"><ele>8.0</ele><time>2026-04-02T16:48:17.951Z</time></trkpt><trkpt lat="45.6928567" lon="12.40521"><ele>8.0</ele><time>2026-04-02T16:48:18.952Z</time></trkpt><trkpt lat="45.692765" lon="12.4049617"><ele>8.0</ele><time>2026-04-02T16:48:19.952Z</time></trkpt><trkpt lat="45.6927033" lon="12.4047417"><ele>8.0</ele><time>2026-04-02T16:48:20.952Z</time></trkpt><trkpt lat="45.6926317" lon="12.4045167"><ele>8.0</ele><time>2026-04-02T16:48:21.952Z</time></trkpt><trkpt lat="45.6925633" lon="12.4042683"><ele>8.0</ele><time>2026-04-02T16:48:22.952Z</time></trkpt><trkpt lat="45.6924933" lon="12.4040283"><ele>8.666666666666666</ele><time>2026-04-02T16:48:23.952Z</time></trkpt><trkpt lat="45.6924167" lon="12.4038033"><ele>9.333333333333334</ele><time>2026-04-02T16:48:24.952Z</time></trkpt><trkpt lat="45.69234" lon="12.40358"><ele>10.0</ele><time>2026-04-02T16:48:25.952Z</time></trkpt><trkpt lat="45.6922683" lon="12.4033517"><ele>10.0</ele><time>2026-04-02T16:48:26.952Z</time></trkpt><trkpt lat="45.69219" lon="12.4031183"><ele>10.0</ele><time>2026-04-02T16:48:27.952Z</time></trkpt><trkpt lat="45.6921283" lon="12.4029267"><ele>10.0</ele><time>2026-04-02T16:48:28.952Z</time></trkpt><trkpt lat="45.6920517" lon="12.4027017"><ele>10.0</ele><time>2026-04-02T16:48:29.952Z</time></trkpt><trkpt lat="45.6919883" lon="12.402485"><ele>10.0</ele><time>2026-04-02T16:48:30.952Z</time></trkpt><trkpt lat="45.691915" lon="12.4022483"><ele>10.0</ele><time>2026-04-02T16:48:31.952Z</time></trkpt><trkpt lat="45.6918383" lon="12.4020167"><ele>10.0</ele><time>2026-04-02T16:48:32.952Z</time></trkpt><trkpt lat="45.6917533" lon="12.4017967"><ele>10.0</ele><time>2026-04-02T16:48:33.952Z</time></trkpt><trkpt lat="45.6916117" lon="12.401365"><ele>10.0</ele><time>2026-04-02T16:48:35.952Z</time></trkpt><trkpt lat="45.6915383" lon="12.4011367"><ele>10.0</ele><time>2026-04-02T16:48:36.952Z</time></trkpt><trkpt lat="45.69145" lon="12.4009167"><ele>10.0</ele><time>2026-04-02T16:48:37.952Z</time></trkpt><trkpt lat="45.6913567" lon="12.4006867"><ele>10.666666666666668</ele><time>2026-04-02T16:48:38.952Z</time></trkpt><trkpt lat="45.6912817" lon="12.4004617"><ele>11.333333333333334</ele><time>2026-04-02T16:48:39.952Z</time></trkpt><trkpt lat="45.6912033" lon="12.400235"><ele>12.0</ele><time>2026-04-02T16:48:40.952Z</time></trkpt><trkpt lat="45.6911233" lon="12.40001"><ele>11.0</ele><time>2026-04-02T16:48:41.952Z</time></trkpt><trkpt lat="45.69104" lon="12.3997867"><ele>10.0</ele><time>2026-04-02T16:48:42.952Z</time></trkpt><trkpt lat="45.6909633" lon="12.399565"><ele>9.0</ele><time>2026-04-02T16:48:43.952Z</time></trkpt><trkpt lat="45.6908967" lon="12.39935"><ele>9.0</ele><time>2026-04-02T16:48:44.952Z</time></trkpt><trkpt lat="45.6908283" lon="12.3991383"><ele>9.0</ele><time>2026-04-02T16:48:45.951Z</time></trkpt><trkpt lat="45.69076" lon="12.3989267"><ele>9.0</ele><time>2026-04-02T16:48:46.952Z</time></trkpt><trkpt lat="45.6906817" lon="12.3986917"><ele>8.666666666666666</ele><time>2026-04-02T16:48:47.952Z</time></trkpt><trkpt lat="45.6906133" lon="12.3984633"><ele>8.333333333333332</ele><time>2026-04-02T16:48:48.952Z</time></trkpt><trkpt lat="45.6905367" lon="12.3982283"><ele>8.0</ele><time>2026-04-02T16:48:49.951Z</time></trkpt><trkpt lat="45.6904667" lon="12.3980083"><ele>8.0</ele><time>2026-04-02T16:48:50.952Z</time></trkpt><trkpt lat="45.690405" lon="12.3977883"><ele>8.0</ele><time>2026-04-02T16:48:51.952Z</time></trkpt><trkpt lat="45.6903383" lon="12.3975667"><ele>8.0</ele><time>2026-04-02T16:48:52.951Z</time></trkpt><trkpt lat="45.6902683" lon="12.3973417"><ele>8.0</ele><time>2026-04-02T16:48:53.952Z</time></trkpt><trkpt lat="45.69019" lon="12.3971167"><ele>8.0</ele><time>2026-04-02T16:48:54.952Z</time></trkpt><trkpt lat="45.6900433" lon="12.3966733"><ele>8.0</ele><time>2026-04-02T16:48:56.951Z</time></trkpt><trkpt lat="45.68997" lon="12.3964517"><ele>8.0</ele><time>2026-04-02T16:48:57.952Z</time></trkpt><trkpt lat="45.6898983" lon="12.39623"><ele>8.0</ele><time>2026-04-02T16:48:58.952Z</time></trkpt><trkpt lat="45.6898283" lon="12.396005"><ele>8.333333333333332</ele><time>2026-04-02T16:48:59.951Z</time></trkpt><trkpt lat="45.6897533" lon="12.3957817"><ele>8.666666666666666</ele><time>2026-04-02T16:49:00.952Z</time></trkpt><trkpt lat="45.689675" lon="12.3955517"><ele>9.0</ele><time>2026-04-02T16:49:01.952Z</time></trkpt><trkpt lat="45.6895933" lon="12.3953283"><ele>9.0</ele><time>2026-04-02T16:49:02.952Z</time></trkpt><trkpt lat="45.689525" lon="12.3950883"><ele>9.0</ele><time>2026-04-02T16:49:03.952Z</time></trkpt><trkpt lat="45.6894517" lon="12.394865"><ele>9.0</ele><time>2026-04-02T16:49:04.952Z</time></trkpt><trkpt lat="45.68938" lon="12.39464"><ele>9.0</ele><time>2026-04-02T16:49:05.952Z</time></trkpt><trkpt lat="45.68931" lon="12.394415"><ele>9.0</ele><time>2026-04-02T16:49:06.952Z</time></trkpt><trkpt lat="45.68925" lon="12.39418"><ele>9.0</ele><time>2026-04-02T16:49:07.952Z</time></trkpt><trkpt lat="45.689195" lon="12.3939567"><ele>9.0</ele><time>2026-04-02T16:49:08.952Z</time></trkpt><trkpt lat="45.6891383" lon="12.3937433"><ele>9.0</ele><time>2026-04-02T16:49:09.951Z</time></trkpt><trkpt lat="45.6890717" lon="12.3935317"><ele>9.0</ele><time>2026-04-02T16:49:10.951Z</time></trkpt><trkpt lat="45.6889983" lon="12.3933117"><ele>9.0</ele><time>2026-04-02T16:49:11.952Z</time></trkpt><trkpt lat="45.6889283" lon="12.3930967"><ele>9.0</ele><time>2026-04-02T16:49:12.952Z</time></trkpt><trkpt lat="45.688855" lon="12.39289"><ele>9.0</ele><time>2026-04-02T16:49:13.951Z</time></trkpt><trkpt lat="45.6887817" lon="12.3926767"><ele>8.5</ele><time>2026-04-02T16:49:14.952Z</time></trkpt><trkpt lat="45.688715" lon="12.3924633"><ele>8.0</ele><time>2026-04-02T16:49:15.952Z</time></trkpt><trkpt lat="45.68858" lon="12.3920333"><ele>8.0</ele><time>2026-04-02T16:49:17.952Z</time></trkpt><trkpt lat="45.6885167" lon="12.39181"><ele>8.0</ele><time>2026-04-02T16:49:18.952Z</time></trkpt><trkpt lat="45.6884667" lon="12.3916033"><ele>8.0</ele><time>2026-04-02T16:49:19.952Z</time></trkpt><trkpt lat="45.688405" lon="12.3913967"><ele>8.666666666666666</ele><time>2026-04-02T16:49:20.951Z</time></trkpt><trkpt lat="45.68834" lon="12.39118"><ele>9.333333333333334</ele><time>2026-04-02T16:49:21.952Z</time></trkpt><trkpt lat="45.6882817" lon="12.3909583"><ele>10.0</ele><time>2026-04-02T16:49:22.952Z</time></trkpt><trkpt lat="45.68822" lon="12.3907467"><ele>10.0</ele><time>2026-04-02T16:49:23.952Z</time></trkpt><trkpt lat="45.6881467" lon="12.3905267"><ele>10.0</ele><time>2026-04-02T16:49:24.951Z</time></trkpt><trkpt lat="45.68807" lon="12.39031"><ele>10.0</ele><time>2026-04-02T16:49:25.951Z</time></trkpt><trkpt lat="45.6880067" lon="12.3900967"><ele>9.75</ele><time>2026-04-02T16:49:26.951Z</time></trkpt><trkpt lat="45.6879467" lon="12.3898867"><ele>9.5</ele><time>2026-04-02T16:49:27.951Z</time></trkpt><trkpt lat="45.6878817" lon="12.3896917"><ele>9.25</ele><time>2026-04-02T16:49:28.95Z</time></trkpt><trkpt lat="45.6878317" lon="12.3895183"><ele>9.0</ele><time>2026-04-02T16:49:29.951Z</time></trkpt><trkpt lat="45.6877483" lon="12.3893217"><ele>9.0</ele><time>2026-04-02T16:49:30.95Z</time></trkpt><trkpt lat="45.6876917" lon="12.3891383"><ele>9.0</ele><time>2026-04-02T16:49:31.951Z</time></trkpt><trkpt lat="45.6876383" lon="12.38895"><ele>9.0</ele><time>2026-04-02T16:49:32.951Z</time></trkpt><trkpt lat="45.6875883" lon="12.3887833"><ele>9.0</ele><time>2026-04-02T16:49:33.951Z</time></trkpt><trkpt lat="45.6875383" lon="12.3886267"><ele>9.333333333333334</ele><time>2026-04-02T16:49:34.951Z</time></trkpt><trkpt lat="45.687485" lon="12.3884667"><ele>9.666666666666668</ele><time>2026-04-02T16:49:35.951Z</time></trkpt><trkpt lat="45.6874233" lon="12.38829"><ele>10.0</ele><time>2026-04-02T16:49:36.951Z</time></trkpt><trkpt lat="45.68732" lon="12.3879533"><ele>10.5</ele><time>2026-04-02T16:49:38.951Z</time></trkpt><trkpt lat="45.6872683" lon="12.387785"><ele>11.0</ele><time>2026-04-02T16:49:39.95Z</time></trkpt><trkpt lat="45.6872233" lon="12.3876283"><ele>11.5</ele><time>2026-04-02T16:49:40.951Z</time></trkpt><trkpt lat="45.6871817" lon="12.3874633"><ele>12.0</ele><time>2026-04-02T16:49:41.951Z</time></trkpt><trkpt lat="45.6871367" lon="12.3873017"><ele>11.75</ele><time>2026-04-02T16:49:42.951Z</time></trkpt><trkpt lat="45.6870817" lon="12.3871367"><ele>11.5</ele><time>2026-04-02T16:49:43.951Z</time></trkpt><trkpt lat="45.687025" lon="12.3869567"><ele>11.25</ele><time>2026-04-02T16:49:44.951Z</time></trkpt><trkpt lat="45.6870283" lon="12.3868367"><ele>11.0</ele><time>2026-04-02T16:49:45.95Z</time></trkpt><trkpt lat="45.6870067" lon="12.3866733"><ele>11.0</ele><time>2026-04-02T16:49:46.951Z</time></trkpt><trkpt lat="45.68696" lon="12.3864883"><ele>11.0</ele><time>2026-04-02T16:49:47.951Z</time></trkpt><trkpt lat="45.6869033" lon="12.3863033"><ele>11.0</ele><time>2026-04-02T16:49:48.951Z</time></trkpt><trkpt lat="45.6868433" lon="12.3861183"><ele>11.0</ele><time>2026-04-02T16:49:49.951Z</time></trkpt><trkpt lat="45.68679" lon="12.3859417"><ele>11.25</ele><time>2026-04-02T16:49:50.951Z</time></trkpt><trkpt lat="45.6867383" lon="12.3857733"><ele>11.5</ele><time>2026-04-02T16:49:51.951Z</time></trkpt><trkpt lat="45.68669" lon="12.3856267"><ele>11.75</ele><time>2026-04-02T16:49:52.951Z</time></trkpt><trkpt lat="45.6866317" lon="12.3854483"><ele>12.0</ele><time>2026-04-02T16:49:53.951Z</time></trkpt><trkpt lat="45.6865733" lon="12.3852933"><ele>11.5</ele><time>2026-04-02T16:49:54.951Z</time></trkpt><trkpt lat="45.68653" lon="12.3851383"><ele>11.0</ele><time>2026-04-02T16:49:55.95Z</time></trkpt><trkpt lat="45.6864817" lon="12.384975"><ele>10.5</ele><time>2026-04-02T16:49:56.95Z</time></trkpt><trkpt lat="45.6864367" lon="12.3848117"><ele>10.0</ele><time>2026-04-02T16:49:57.951Z</time></trkpt><trkpt lat="45.68632" lon="12.3844683"><ele>10.0</ele><time>2026-04-02T16:49:59.95Z</time></trkpt><trkpt lat="45.6863033" lon="12.384335"><ele>10.0</ele><time>2026-04-02T16:50:00.95Z</time></trkpt><trkpt lat="45.686295" lon="12.3842067"><ele>10.0</ele><time>2026-04-02T16:50:01.95Z</time></trkpt><trkpt lat="45.6862733" lon="12.38407"><ele>10.0</ele><time>2026-04-02T16:50:02.951Z</time></trkpt><trkpt lat="45.6862333" lon="12.38391"><ele>10.0</ele><time>2026-04-02T16:50:03.95Z</time></trkpt><trkpt lat="45.6861967" lon="12.3837533"><ele>10.25</ele><time>2026-04-02T16:50:04.95Z</time></trkpt><trkpt lat="45.6861583" lon="12.38359"><ele>10.5</ele><time>2026-04-02T16:50:05.951Z</time></trkpt><trkpt lat="45.6861167" lon="12.3834233"><ele>10.75</ele><time>2026-04-02T16:50:06.951Z</time></trkpt><trkpt lat="45.686055" lon="12.3832417"><ele>11.0</ele><time>2026-04-02T16:50:07.951Z</time></trkpt><trkpt lat="45.6860183" lon="12.383075"><ele>11.200000000000001</ele><time>2026-04-02T16:50:08.95Z</time></trkpt><trkpt lat="45.6859833" lon="12.3829133"><ele>11.4</ele><time>2026-04-02T16:50:09.951Z</time></trkpt><trkpt lat="45.6859683" lon="12.382775"><ele>11.6</ele><time>2026-04-02T16:50:10.95Z</time></trkpt><trkpt lat="45.68594" lon="12.382625"><ele>11.8</ele><time>2026-04-02T16:50:11.951Z</time></trkpt><trkpt lat="45.6858933" lon="12.3824667"><ele>12.0</ele><time>2026-04-02T16:50:12.951Z</time></trkpt><trkpt lat="45.685845" lon="12.38231"><ele>12.0</ele><time>2026-04-02T16:50:13.951Z</time></trkpt><trkpt lat="45.6857883" lon="12.3821617"><ele>12.0</ele><time>2026-04-02T16:50:14.951Z</time></trkpt><trkpt lat="45.685755" lon="12.3820067"><ele>12.0</ele><time>2026-04-02T16:50:15.95Z</time></trkpt><trkpt lat="45.685725" lon="12.3818583"><ele>12.0</ele><time>2026-04-02T16:50:16.951Z</time></trkpt><trkpt lat="45.68569" lon="12.381705"><ele>12.0</ele><time>2026-04-02T16:50:17.951Z</time></trkpt><trkpt lat="45.6856617" lon="12.3815717"><ele>12.0</ele><time>2026-04-02T16:50:18.951Z</time></trkpt><trkpt lat="45.685635" lon="12.381325"><ele>12.0</ele><time>2026-04-02T16:50:20.951Z</time></trkpt><trkpt lat="45.6856183" lon="12.3812"><ele>12.0</ele><time>2026-04-02T16:50:21.951Z</time></trkpt><trkpt lat="45.6856017" lon="12.3810867"><ele>12.0</ele><time>2026-04-02T16:50:22.951Z</time></trkpt><trkpt lat="45.6855717" lon="12.3809633"><ele>12.0</ele><time>2026-04-02T16:50:23.951Z</time></trkpt><trkpt lat="45.6855433" lon="12.3808617"><ele>12.0</ele><time>2026-04-02T16:50:24.951Z</time></trkpt><trkpt lat="45.6855183" lon="12.38076"><ele>12.0</ele><time>2026-04-02T16:50:25.951Z</time></trkpt><trkpt lat="45.6854967" lon="12.3806467"><ele>12.0</ele><time>2026-04-02T16:50:26.95Z</time></trkpt><trkpt lat="45.6854767" lon="12.380525"><ele>12.0</ele><time>2026-04-02T16:50:27.951Z</time></trkpt><trkpt lat="45.6854467" lon="12.380375"><ele>12.0</ele><time>2026-04-02T16:50:28.95Z</time></trkpt><trkpt lat="45.6854133" lon="12.3801933"><ele>12.0</ele><time>2026-04-02T16:50:29.951Z</time></trkpt><trkpt lat="45.6853867" lon="12.380015"><ele>12.0</ele><time>2026-04-02T16:50:30.951Z</time></trkpt><trkpt lat="45.68533" lon="12.3797933"><ele>12.0</ele><time>2026-04-02T16:50:31.951Z</time></trkpt><trkpt lat="45.6852717" lon="12.3795717"><ele>12.0</ele><time>2026-04-02T16:50:32.951Z</time></trkpt><trkpt lat="45.6852133" lon="12.3793483"><ele>12.0</ele><time>2026-04-02T16:50:33.951Z</time></trkpt><trkpt lat="45.6851217" lon="12.379105"><ele>12.0</ele><time>2026-04-02T16:50:34.951Z</time></trkpt><trkpt lat="45.6850567" lon="12.3788867"><ele>12.0</ele><time>2026-04-02T16:50:35.951Z</time></trkpt><trkpt lat="45.6849933" lon="12.3786767"><ele>12.0</ele><time>2026-04-02T16:50:36.951Z</time></trkpt><trkpt lat="45.6849233" lon="12.378465"><ele>12.0</ele><time>2026-04-02T16:50:37.951Z</time></trkpt><trkpt lat="45.6848667" lon="12.3782467"><ele>12.5</ele><time>2026-04-02T16:50:38.951Z</time></trkpt><trkpt lat="45.684825" lon="12.3779917"><ele>13.0</ele><time>2026-04-02T16:50:39.95Z</time></trkpt><trkpt lat="45.6847133" lon="12.3774833"><ele>13.0</ele><time>2026-04-02T16:50:41.951Z</time></trkpt><trkpt lat="45.6846567" lon="12.3772617"><ele>13.0</ele><time>2026-04-02T16:50:42.951Z</time></trkpt><trkpt lat="45.6846067" lon="12.37704"><ele>13.0</ele><time>2026-04-02T16:50:43.951Z</time></trkpt><trkpt lat="45.6845533" lon="12.3768267"><ele>13.0</ele><time>2026-04-02T16:50:44.951Z</time></trkpt><trkpt lat="45.68449" lon="12.376625"><ele>13.0</ele><time>2026-04-02T16:50:45.951Z</time></trkpt><trkpt lat="45.6844317" lon="12.3764317"><ele>13.0</ele><time>2026-04-02T16:50:46.95Z</time></trkpt><trkpt lat="45.6843733" lon="12.3762417"><ele>13.0</ele><time>2026-04-02T16:50:47.951Z</time></trkpt><trkpt lat="45.68433" lon="12.37605"><ele>12.5</ele><time>2026-04-02T16:50:48.951Z</time></trkpt><trkpt lat="45.684285" lon="12.3758533"><ele>12.0</ele><time>2026-04-02T16:50:49.951Z</time></trkpt><trkpt lat="45.68424" lon="12.3756483"><ele>11.5</ele><time>2026-04-02T16:50:50.951Z</time></trkpt><trkpt lat="45.6842083" lon="12.3754383"><ele>11.0</ele><time>2026-04-02T16:50:51.951Z</time></trkpt><trkpt lat="45.6841817" lon="12.3752183"><ele>10.666666666666666</ele><time>2026-04-02T16:50:52.951Z</time></trkpt><trkpt lat="45.68415" lon="12.3749717"><ele>10.333333333333334</ele><time>2026-04-02T16:50:53.951Z</time></trkpt><trkpt lat="45.6841117" lon="12.37474"><ele>10.0</ele><time>2026-04-02T16:50:54.951Z</time></trkpt><trkpt lat="45.684075" lon="12.3745083"><ele>10.0</ele><time>2026-04-02T16:50:55.951Z</time></trkpt><trkpt lat="45.684045" lon="12.3742767"><ele>10.0</ele><time>2026-04-02T16:50:56.951Z</time></trkpt><trkpt lat="45.68403" lon="12.374045"><ele>10.0</ele><time>2026-04-02T16:50:57.951Z</time></trkpt><trkpt lat="45.6840033" lon="12.3738017"><ele>10.333333333333334</ele><time>2026-04-02T16:50:58.951Z</time></trkpt><trkpt lat="45.6839717" lon="12.373545"><ele>10.666666666666666</ele><time>2026-04-02T16:50:59.951Z</time></trkpt><trkpt lat="45.6839367" lon="12.3732867"><ele>11.0</ele><time>2026-04-02T16:51:00.951Z</time></trkpt><trkpt lat="45.6838733" lon="12.3728033"><ele>10.333333333333332</ele><time>2026-04-02T16:51:02.951Z</time></trkpt><trkpt lat="45.6838383" lon="12.3725617"><ele>9.666666666666666</ele><time>2026-04-02T16:51:03.951Z</time></trkpt><trkpt lat="45.6838067" lon="12.3723283"><ele>9.0</ele><time>2026-04-02T16:51:04.95Z</time></trkpt><trkpt lat="45.683815" lon="12.37215"><ele>9.0</ele><time>2026-04-02T16:51:05.951Z</time></trkpt><trkpt lat="45.683805" lon="12.3719367"><ele>9.0</ele><time>2026-04-02T16:51:06.951Z</time></trkpt><trkpt lat="45.6837833" lon="12.3717033"><ele>9.0</ele><time>2026-04-02T16:51:07.951Z</time></trkpt><trkpt lat="45.68375" lon="12.3714617"><ele>9.666666666666666</ele><time>2026-04-02T16:51:08.951Z</time></trkpt><trkpt lat="45.6837217" lon="12.3712183"><ele>10.333333333333332</ele><time>2026-04-02T16:51:09.951Z</time></trkpt><trkpt lat="45.6836867" lon="12.3709667"><ele>11.0</ele><time>2026-04-02T16:51:10.951Z</time></trkpt><trkpt lat="45.6836533" lon="12.3707117"><ele>10.666666666666666</ele><time>2026-04-02T16:51:11.951Z</time></trkpt><trkpt lat="45.6836167" lon="12.3704567"><ele>10.333333333333334</ele><time>2026-04-02T16:51:12.951Z</time></trkpt><trkpt lat="45.68358" lon="12.3702033"><ele>10.0</ele><time>2026-04-02T16:51:13.951Z</time></trkpt><trkpt lat="45.68354" lon="12.3699533"><ele>10.0</ele><time>2026-04-02T16:51:14.951Z</time></trkpt><trkpt lat="45.683505" lon="12.3696933"><ele>10.0</ele><time>2026-04-02T16:51:15.951Z</time></trkpt><trkpt lat="45.683475" lon="12.3694417"><ele>10.0</ele><time>2026-04-02T16:51:16.951Z</time></trkpt><trkpt lat="45.683445" lon="12.3692017"><ele>10.0</ele><time>2026-04-02T16:51:17.951Z</time></trkpt><trkpt lat="45.6834133" lon="12.3689633"><ele>10.0</ele><time>2026-04-02T16:51:18.951Z</time></trkpt><trkpt lat="45.683385" lon="12.3687317"><ele>10.0</ele><time>2026-04-02T16:51:19.95Z</time></trkpt><trkpt lat="45.68335" lon="12.3684967"><ele>10.0</ele><time>2026-04-02T16:51:20.951Z</time></trkpt><trkpt lat="45.6833167" lon="12.3682583"><ele>10.0</ele><time>2026-04-02T16:51:21.951Z</time></trkpt><trkpt lat="45.6832417" lon="12.36777"><ele>9.666666666666668</ele><time>2026-04-02T16:51:23.951Z</time></trkpt><trkpt lat="45.6832033" lon="12.3675217"><ele>9.333333333333334</ele><time>2026-04-02T16:51:24.951Z</time></trkpt><trkpt lat="45.6831767" lon="12.3672767"><ele>9.0</ele><time>2026-04-02T16:51:25.95Z</time></trkpt><trkpt lat="45.6831467" lon="12.3670267"><ele>9.0</ele><time>2026-04-02T16:51:26.951Z</time></trkpt><trkpt lat="45.6831183" lon="12.36679"><ele>9.0</ele><time>2026-04-02T16:51:27.951Z</time></trkpt><trkpt lat="45.6830883" lon="12.3665617"><ele>9.0</ele><time>2026-04-02T16:51:28.951Z</time></trkpt><trkpt lat="45.6830533" lon="12.3663217"><ele>9.0</ele><time>2026-04-02T16:51:29.951Z</time></trkpt><trkpt lat="45.68302" lon="12.36608"><ele>9.0</ele><time>2026-04-02T16:51:30.951Z</time></trkpt><trkpt lat="45.6829883" lon="12.3658367"><ele>9.0</ele><time>2026-04-02T16:51:31.95Z</time></trkpt><trkpt lat="45.6829583" lon="12.365605"><ele>8.666666666666666</ele><time>2026-04-02T16:51:32.951Z</time></trkpt><trkpt lat="45.6829267" lon="12.3653717"><ele>8.333333333333332</ele><time>2026-04-02T16:51:33.951Z</time></trkpt><trkpt lat="45.682905" lon="12.3651367"><ele>8.0</ele><time>2026-04-02T16:51:34.951Z</time></trkpt><trkpt lat="45.6828933" lon="12.36492"><ele>8.666666666666666</ele><time>2026-04-02T16:51:35.951Z</time></trkpt><trkpt lat="45.682865" lon="12.3646767"><ele>9.333333333333334</ele><time>2026-04-02T16:51:36.95Z</time></trkpt><trkpt lat="45.68284" lon="12.3644217"><ele>10.0</ele><time>2026-04-02T16:51:37.951Z</time></trkpt><trkpt lat="45.6828267" lon="12.3641867"><ele>10.0</ele><time>2026-04-02T16:51:38.95Z</time></trkpt><trkpt lat="45.6828" lon="12.3639667"><ele>10.0</ele><time>2026-04-02T16:51:39.951Z</time></trkpt><trkpt lat="45.6827717" lon="12.363755"><ele>10.0</ele><time>2026-04-02T16:51:40.951Z</time></trkpt><trkpt lat="45.6827333" lon="12.36354"><ele>10.0</ele><time>2026-04-02T16:51:41.95Z</time></trkpt><trkpt lat="45.6826967" lon="12.3633167"><ele>10.0</ele><time>2026-04-02T16:51:42.951Z</time></trkpt><trkpt lat="45.6826033" lon="12.3628933"><ele>10.25</ele><time>2026-04-02T16:51:44.951Z</time></trkpt><trkpt lat="45.6825733" lon="12.362705"><ele>10.5</ele><time>2026-04-02T16:51:45.951Z</time></trkpt><trkpt lat="45.6825567" lon="12.3625367"><ele>10.75</ele><time>2026-04-02T16:51:46.951Z</time></trkpt><trkpt lat="45.6825383" lon="12.362375"><ele>11.0</ele><time>2026-04-02T16:51:47.95Z</time></trkpt><trkpt lat="45.682525" lon="12.3622217"><ele>11.4</ele><time>2026-04-02T16:51:48.951Z</time></trkpt><trkpt lat="45.6825133" lon="12.362075"><ele>11.8</ele><time>2026-04-02T16:51:49.95Z</time></trkpt><trkpt lat="45.682495" lon="12.361925"><ele>12.200000000000001</ele><time>2026-04-02T16:51:50.951Z</time></trkpt><trkpt lat="45.6824767" lon="12.3617883"><ele>12.600000000000001</ele><time>2026-04-02T16:51:51.95Z</time></trkpt><trkpt lat="45.6825133" lon="12.361705"><ele>13.0</ele><time>2026-04-02T16:51:52.951Z</time></trkpt><trkpt lat="45.6825" lon="12.36158"><ele>13.0</ele><time>2026-04-02T16:51:53.95Z</time></trkpt><trkpt lat="45.6824817" lon="12.3614417"><ele>13.0</ele><time>2026-04-02T16:51:54.951Z</time></trkpt><trkpt lat="45.68246" lon="12.3612933"><ele>13.0</ele><time>2026-04-02T16:51:55.95Z</time></trkpt><trkpt lat="45.6824283" lon="12.3611267"><ele>13.0</ele><time>2026-04-02T16:51:56.951Z</time></trkpt><trkpt lat="45.6824017" lon="12.3609483"><ele>12.75</ele><time>2026-04-02T16:51:57.951Z</time></trkpt><trkpt lat="45.6823783" lon="12.3607667"><ele>12.5</ele><time>2026-04-02T16:51:58.951Z</time></trkpt><trkpt lat="45.6823583" lon="12.3605733"><ele>12.25</ele><time>2026-04-02T16:51:59.951Z</time></trkpt><trkpt lat="45.6823383" lon="12.3603717"><ele>12.0</ele><time>2026-04-02T16:52:00.951Z</time></trkpt><trkpt lat="45.682305" lon="12.3601533"><ele>12.0</ele><time>2026-04-02T16:52:01.951Z</time></trkpt><trkpt lat="45.6822733" lon="12.3599467"><ele>12.0</ele><time>2026-04-02T16:52:02.951Z</time></trkpt><trkpt lat="45.682255" lon="12.359725"><ele>12.0</ele><time>2026-04-02T16:52:03.95Z</time></trkpt><trkpt lat="45.6822167" lon="12.3592883"><ele>12.25</ele><time>2026-04-02T16:52:05.95Z</time></trkpt><trkpt lat="45.6821883" lon="12.35909"><ele>12.5</ele><time>2026-04-02T16:52:06.95Z</time></trkpt><trkpt lat="45.6821633" lon="12.3589133"><ele>12.75</ele><time>2026-04-02T16:52:07.951Z</time></trkpt><trkpt lat="45.68215" lon="12.3587417"><ele>13.0</ele><time>2026-04-02T16:52:08.951Z</time></trkpt><trkpt lat="45.6821233" lon="12.3585617"><ele>13.0</ele><time>2026-04-02T16:52:09.951Z</time></trkpt><trkpt lat="45.6820833" lon="12.35838"><ele>13.0</ele><time>2026-04-02T16:52:10.951Z</time></trkpt><trkpt lat="45.68205" lon="12.3582"><ele>13.0</ele><time>2026-04-02T16:52:11.95Z</time></trkpt><trkpt lat="45.6820183" lon="12.3580283"><ele>13.0</ele><time>2026-04-02T16:52:12.951Z</time></trkpt><trkpt lat="45.6819917" lon="12.3578567"><ele>12.75</ele><time>2026-04-02T16:52:13.951Z</time></trkpt><trkpt lat="45.6820183" lon="12.3577383"><ele>12.5</ele><time>2026-04-02T16:52:14.951Z</time></trkpt><trkpt lat="45.6819883" lon="12.35756"><ele>12.25</ele><time>2026-04-02T16:52:15.951Z</time></trkpt><trkpt lat="45.6819617" lon="12.35739"><ele>12.0</ele><time>2026-04-02T16:52:16.951Z</time></trkpt><trkpt lat="45.6819433" lon="12.3572183"><ele>12.0</ele><time>2026-04-02T16:52:17.951Z</time></trkpt><trkpt lat="45.68194" lon="12.3570467"><ele>12.0</ele><time>2026-04-02T16:52:18.951Z</time></trkpt><trkpt lat="45.6819317" lon="12.3568717"><ele>12.0</ele><time>2026-04-02T16:52:19.951Z</time></trkpt><trkpt lat="45.6819133" lon="12.3566767"><ele>12.0</ele><time>2026-04-02T16:52:20.951Z</time></trkpt><trkpt lat="45.6818917" lon="12.3564983"><ele>12.0</ele><time>2026-04-02T16:52:21.951Z</time></trkpt><trkpt lat="45.6818617" lon="12.35631"><ele>12.0</ele><time>2026-04-02T16:52:22.95Z</time></trkpt><trkpt lat="45.6818367" lon="12.356105"><ele>12.0</ele><time>2026-04-02T16:52:23.951Z</time></trkpt><trkpt lat="45.6817933" lon="12.3559117"><ele>12.0</ele><time>2026-04-02T16:52:24.951Z</time></trkpt><trkpt lat="45.6817083" lon="12.35553"><ele>12.0</ele><time>2026-04-02T16:52:26.951Z</time></trkpt><trkpt lat="45.68168" lon="12.3553233"><ele>12.0</ele><time>2026-04-02T16:52:27.951Z</time></trkpt><trkpt lat="45.68166" lon="12.355105"><ele>12.0</ele><time>2026-04-02T16:52:28.951Z</time></trkpt><trkpt lat="45.6816417" lon="12.3548983"><ele>12.0</ele><time>2026-04-02T16:52:29.951Z</time></trkpt><trkpt lat="45.6816" lon="12.354645"><ele>12.0</ele><time>2026-04-02T16:52:30.95Z</time></trkpt><trkpt lat="45.6815617" lon="12.3543867"><ele>12.0</ele><time>2026-04-02T16:52:31.951Z</time></trkpt><trkpt lat="45.681525" lon="12.3541017"><ele>12.0</ele><time>2026-04-02T16:52:32.95Z</time></trkpt><trkpt lat="45.681495" lon="12.3538167"><ele>12.0</ele><time>2026-04-02T16:52:33.951Z</time></trkpt><trkpt lat="45.6814633" lon="12.3535367"><ele>12.0</ele><time>2026-04-02T16:52:34.951Z</time></trkpt><trkpt lat="45.6813867" lon="12.3532167"><ele>12.0</ele><time>2026-04-02T16:52:35.951Z</time></trkpt><trkpt lat="45.6813333" lon="12.3529533"><ele>11.666666666666666</ele><time>2026-04-02T16:52:36.951Z</time></trkpt><trkpt lat="45.6812933" lon="12.3527133"><ele>11.333333333333332</ele><time>2026-04-02T16:52:37.95Z</time></trkpt><trkpt lat="45.681255" lon="12.35248"><ele>11.0</ele><time>2026-04-02T16:52:38.95Z</time></trkpt><trkpt lat="45.68122" lon="12.3522617"><ele>11.0</ele><time>2026-04-02T16:52:39.951Z</time></trkpt><trkpt lat="45.6811983" lon="12.3520517"><ele>11.0</ele><time>2026-04-02T16:52:40.951Z</time></trkpt><trkpt lat="45.6812067" lon="12.3518667"><ele>11.0</ele><time>2026-04-02T16:52:41.95Z</time></trkpt><trkpt lat="45.6811983" lon="12.3516617"><ele>11.0</ele><time>2026-04-02T16:52:42.951Z</time></trkpt><trkpt lat="45.68119" lon="12.3514567"><ele>11.0</ele><time>2026-04-02T16:52:43.951Z</time></trkpt><trkpt lat="45.6811633" lon="12.3512317"><ele>11.0</ele><time>2026-04-02T16:52:44.951Z</time></trkpt><trkpt lat="45.681125" lon="12.3510117"><ele>11.0</ele><time>2026-04-02T16:52:45.951Z</time></trkpt><trkpt lat="45.6810667" lon="12.3506067"><ele>11.5</ele><time>2026-04-02T16:52:47.951Z</time></trkpt><trkpt lat="45.681035" lon="12.350405"><ele>12.0</ele><time>2026-04-02T16:52:48.951Z</time></trkpt><trkpt lat="45.681005" lon="12.3502067"><ele>12.5</ele><time>2026-04-02T16:52:49.95Z</time></trkpt><trkpt lat="45.6809783" lon="12.3500117"><ele>13.0</ele><time>2026-04-02T16:52:50.95Z</time></trkpt><trkpt lat="45.6809817" lon="12.349835"><ele>12.75</ele><time>2026-04-02T16:52:51.951Z</time></trkpt><trkpt lat="45.6809567" lon="12.3496517"><ele>12.5</ele><time>2026-04-02T16:52:52.951Z</time></trkpt><trkpt lat="45.6809317" lon="12.349465"><ele>12.25</ele><time>2026-04-02T16:52:53.951Z</time></trkpt><trkpt lat="45.6809083" lon="12.3492783"><ele>12.0</ele><time>2026-04-02T16:52:54.951Z</time></trkpt><trkpt lat="45.6808817" lon="12.3490817"><ele>12.0</ele><time>2026-04-02T16:52:55.951Z</time></trkpt><trkpt lat="45.6808533" lon="12.3488917"><ele>12.0</ele><time>2026-04-02T16:52:56.951Z</time></trkpt><trkpt lat="45.6808267" lon="12.3487067"><ele>12.0</ele><time>2026-04-02T16:52:57.951Z</time></trkpt><trkpt lat="45.6808017" lon="12.3485183"><ele>12.0</ele><time>2026-04-02T16:52:58.951Z</time></trkpt><trkpt lat="45.6807817" lon="12.3483183"><ele>11.666666666666666</ele><time>2026-04-02T16:52:59.951Z</time></trkpt><trkpt lat="45.68075" lon="12.3481067"><ele>11.333333333333332</ele><time>2026-04-02T16:53:00.951Z</time></trkpt><trkpt lat="45.68072" lon="12.3478717"><ele>11.0</ele><time>2026-04-02T16:53:01.95Z</time></trkpt><trkpt lat="45.6806817" lon="12.3476117"><ele>10.666666666666666</ele><time>2026-04-02T16:53:02.951Z</time></trkpt><trkpt lat="45.6806467" lon="12.3473533"><ele>10.333333333333334</ele><time>2026-04-02T16:53:03.951Z</time></trkpt><trkpt lat="45.6806183" lon="12.3471183"><ele>10.0</ele><time>2026-04-02T16:53:04.951Z</time></trkpt><trkpt lat="45.680595" lon="12.3469033"><ele>10.0</ele><time>2026-04-02T16:53:05.951Z</time></trkpt><trkpt lat="45.6805767" lon="12.3467067"><ele>10.0</ele><time>2026-04-02T16:53:06.951Z</time></trkpt><trkpt lat="45.6805317" lon="12.3463267"><ele>10.0</ele><time>2026-04-02T16:53:08.951Z</time></trkpt><trkpt lat="45.680515" lon="12.3461367"><ele>10.25</ele><time>2026-04-02T16:53:09.951Z</time></trkpt><trkpt lat="45.680495" lon="12.3459617"><ele>10.5</ele><time>2026-04-02T16:53:10.951Z</time></trkpt><trkpt lat="45.6804817" lon="12.3457967"><ele>10.75</ele><time>2026-04-02T16:53:11.951Z</time></trkpt><trkpt lat="45.6804667" lon="12.345615"><ele>11.0</ele><time>2026-04-02T16:53:12.951Z</time></trkpt><trkpt lat="45.6804667" lon="12.34545"><ele>11.0</ele><time>2026-04-02T16:53:13.95Z</time></trkpt><trkpt lat="45.6804367" lon="12.3452583"><ele>11.0</ele><time>2026-04-02T16:53:14.951Z</time></trkpt><trkpt lat="45.6804083" lon="12.34506"><ele>11.0</ele><time>2026-04-02T16:53:15.95Z</time></trkpt><trkpt lat="45.6803733" lon="12.344845"><ele>11.0</ele><time>2026-04-02T16:53:16.95Z</time></trkpt><trkpt lat="45.680335" lon="12.34461"><ele>11.333333333333332</ele><time>2026-04-02T16:53:17.95Z</time></trkpt><trkpt lat="45.6803017" lon="12.3443567"><ele>11.666666666666666</ele><time>2026-04-02T16:53:18.95Z</time></trkpt><trkpt lat="45.6802783" lon="12.3440883"><ele>12.0</ele><time>2026-04-02T16:53:19.95Z</time></trkpt><trkpt lat="45.68025" lon="12.3438233"><ele>12.0</ele><time>2026-04-02T16:53:20.95Z</time></trkpt><trkpt lat="45.68019" lon="12.3435717"><ele>12.0</ele><time>2026-04-02T16:53:21.949Z</time></trkpt><trkpt lat="45.680115" lon="12.34333"><ele>12.0</ele><time>2026-04-02T16:53:22.95Z</time></trkpt><trkpt lat="45.68003" lon="12.34311"><ele>12.333333333333332</ele><time>2026-04-02T16:53:23.95Z</time></trkpt><trkpt lat="45.6799383" lon="12.342925"><ele>12.666666666666666</ele><time>2026-04-02T16:53:24.95Z</time></trkpt><trkpt lat="45.6797933" lon="12.3428133"><ele>13.0</ele><time>2026-04-02T16:53:25.95Z</time></trkpt><trkpt lat="45.6796867" lon="12.34266"><ele>13.0</ele><time>2026-04-02T16:53:26.95Z</time></trkpt><trkpt lat="45.6795867" lon="12.3425183"><ele>13.0</ele><time>2026-04-02T16:53:27.95Z</time></trkpt><trkpt lat="45.6794" lon="12.3422317"><ele>13.0</ele><time>2026-04-02T16:53:29.95Z</time></trkpt><trkpt lat="45.679335" lon="12.3421067"><ele>12.75</ele><time>2026-04-02T16:53:30.95Z</time></trkpt><trkpt lat="45.67925" lon="12.3419767"><ele>12.5</ele><time>2026-04-02T16:53:31.95Z</time></trkpt><trkpt lat="45.6791783" lon="12.3418433"><ele>12.25</ele><time>2026-04-02T16:53:32.95Z</time></trkpt><trkpt lat="45.6790967" lon="12.3417133"><ele>12.0</ele><time>2026-04-02T16:53:33.95Z</time></trkpt><trkpt lat="45.6790233" lon="12.34159"><ele>12.0</ele><time>2026-04-02T16:53:34.95Z</time></trkpt><trkpt lat="45.6789483" lon="12.34146"><ele>12.0</ele><time>2026-04-02T16:53:35.95Z</time></trkpt><trkpt lat="45.67887" lon="12.34132"><ele>12.0</ele><time>2026-04-02T16:53:36.95Z</time></trkpt><trkpt lat="45.6787817" lon="12.3411683"><ele>12.0</ele><time>2026-04-02T16:53:37.95Z</time></trkpt><trkpt lat="45.6786917" lon="12.3410167"><ele>11.75</ele><time>2026-04-02T16:53:38.95Z</time></trkpt><trkpt lat="45.6785967" lon="12.340865"><ele>11.5</ele><time>2026-04-02T16:53:39.95Z</time></trkpt><trkpt lat="45.67851" lon="12.3407167"><ele>11.25</ele><time>2026-04-02T16:53:40.95Z</time></trkpt><trkpt lat="45.67842" lon="12.3405567"><ele>11.0</ele><time>2026-04-02T16:53:41.95Z</time></trkpt><trkpt lat="45.6783233" lon="12.3403883"><ele>11.5</ele><time>2026-04-02T16:53:42.95Z</time></trkpt><trkpt lat="45.67822" lon="12.3402233"><ele>12.0</ele><time>2026-04-02T16:53:43.949Z</time></trkpt><trkpt lat="45.6781183" lon="12.3400717"><ele>12.5</ele><time>2026-04-02T16:53:44.95Z</time></trkpt><trkpt lat="45.6780167" lon="12.3399217"><ele>13.0</ele><time>2026-04-02T16:53:45.95Z</time></trkpt><trkpt lat="45.6779133" lon="12.3397817"><ele>13.666666666666666</ele><time>2026-04-02T16:53:46.95Z</time></trkpt><trkpt lat="45.6778217" lon="12.3396467"><ele>14.333333333333332</ele><time>2026-04-02T16:53:47.95Z</time></trkpt><trkpt lat="45.67773" lon="12.3395133"><ele>15.0</ele><time>2026-04-02T16:53:48.949Z</time></trkpt><trkpt lat="45.67755" lon="12.33923"><ele>14.0</ele><time>2026-04-02T16:53:50.95Z</time></trkpt><trkpt lat="45.6774133" lon="12.3390383"><ele>13.0</ele><time>2026-04-02T16:53:51.95Z</time></trkpt><trkpt lat="45.6773183" lon="12.3388983"><ele>12.0</ele><time>2026-04-02T16:53:52.95Z</time></trkpt><trkpt lat="45.6772317" lon="12.33877"><ele>12.0</ele><time>2026-04-02T16:53:53.95Z</time></trkpt><trkpt lat="45.6771633" lon="12.3386633"><ele>12.0</ele><time>2026-04-02T16:53:54.95Z</time></trkpt><trkpt lat="45.6770983" lon="12.3385583"><ele>12.0</ele><time>2026-04-02T16:53:55.95Z</time></trkpt><trkpt lat="45.6770367" lon="12.338455"><ele>12.0</ele><time>2026-04-02T16:53:56.95Z</time></trkpt><trkpt lat="45.67698" lon="12.3383533"><ele>12.0</ele><time>2026-04-02T16:53:57.95Z</time></trkpt><trkpt lat="45.6769217" lon="12.3382533"><ele>12.0</ele><time>2026-04-02T16:53:58.95Z</time></trkpt><trkpt lat="45.676865" lon="12.338145"><ele>12.0</ele><time>2026-04-02T16:53:59.95Z</time></trkpt><trkpt lat="45.6768083" lon="12.338045"><ele>12.0</ele><time>2026-04-02T16:54:00.949Z</time></trkpt><trkpt lat="45.6767567" lon="12.33795"><ele>12.0</ele><time>2026-04-02T16:54:01.95Z</time></trkpt><trkpt lat="45.6767067" lon="12.3378683"><ele>12.0</ele><time>2026-04-02T16:54:02.95Z</time></trkpt><trkpt lat="45.67666" lon="12.3377933"><ele>12.0</ele><time>2026-04-02T16:54:03.95Z</time></trkpt><trkpt lat="45.6766133" lon="12.3377233"><ele>12.0</ele><time>2026-04-02T16:54:04.95Z</time></trkpt><trkpt lat="45.6765283" lon="12.3376067"><ele>12.0</ele><time>2026-04-02T16:54:06.95Z</time></trkpt><trkpt lat="45.6764733" lon="12.3375367"><ele>12.0</ele><time>2026-04-02T16:54:07.95Z</time></trkpt><trkpt lat="45.676425" lon="12.33747"><ele>12.0</ele><time>2026-04-02T16:54:08.95Z</time></trkpt><trkpt lat="45.676365" lon="12.337385"><ele>12.0</ele><time>2026-04-02T16:54:09.949Z</time></trkpt><trkpt lat="45.6762633" lon="12.33718"><ele>12.0</ele><time>2026-04-02T16:54:11.95Z</time></trkpt><trkpt lat="45.6762" lon="12.3370733"><ele>12.0</ele><time>2026-04-02T16:54:12.95Z</time></trkpt><trkpt lat="45.6761117" lon="12.3369383"><ele>12.0</ele><time>2026-04-02T16:54:13.95Z</time></trkpt><trkpt lat="45.67602" lon="12.3368083"><ele>12.0</ele><time>2026-04-02T16:54:14.95Z</time></trkpt><trkpt lat="45.67593" lon="12.3366667"><ele>12.0</ele><time>2026-04-02T16:54:15.95Z</time></trkpt><trkpt lat="45.6758433" lon="12.3365367"><ele>12.0</ele><time>2026-04-02T16:54:16.95Z</time></trkpt><trkpt lat="45.675755" lon="12.3364067"><ele>12.0</ele><time>2026-04-02T16:54:17.95Z</time></trkpt><trkpt lat="45.6756717" lon="12.3362833"><ele>12.0</ele><time>2026-04-02T16:54:18.949Z</time></trkpt><trkpt lat="45.6755967" lon="12.33616"><ele>12.0</ele><time>2026-04-02T16:54:19.949Z</time></trkpt><trkpt lat="45.6755183" lon="12.3360283"><ele>12.0</ele><time>2026-04-02T16:54:20.95Z</time></trkpt><trkpt lat="45.6754367" lon="12.335895"><ele>12.0</ele><time>2026-04-02T16:54:21.95Z</time></trkpt><trkpt lat="45.6753533" lon="12.335755"><ele>12.0</ele><time>2026-04-02T16:54:22.95Z</time></trkpt><trkpt lat="45.6752617" lon="12.3356083"><ele>12.0</ele><time>2026-04-02T16:54:23.95Z</time></trkpt><trkpt lat="45.6751667" lon="12.3354517"><ele>12.0</ele><time>2026-04-02T16:54:24.95Z</time></trkpt><trkpt lat="45.6750733" lon="12.3352967"><ele>12.0</ele><time>2026-04-02T16:54:25.95Z</time></trkpt><trkpt lat="45.6749817" lon="12.335145"><ele>12.0</ele><time>2026-04-02T16:54:26.95Z</time></trkpt><trkpt lat="45.6748967" lon="12.3349967"><ele>12.0</ele><time>2026-04-02T16:54:27.95Z</time></trkpt><trkpt lat="45.6748167" lon="12.33486"><ele>12.0</ele><time>2026-04-02T16:54:28.95Z</time></trkpt><trkpt lat="45.67473" lon="12.3347117"><ele>12.0</ele><time>2026-04-02T16:54:29.95Z</time></trkpt><trkpt lat="45.674655" lon="12.33458"><ele>12.0</ele><time>2026-04-02T16:54:30.95Z</time></trkpt><trkpt lat="45.6744867" lon="12.33431"><ele>12.0</ele><time>2026-04-02T16:54:32.949Z</time></trkpt><trkpt lat="45.6744117" lon="12.3341867"><ele>12.0</ele><time>2026-04-02T16:54:33.95Z</time></trkpt><trkpt lat="45.6743467" lon="12.3340683"><ele>12.0</ele><time>2026-04-02T16:54:34.949Z</time></trkpt><trkpt lat="45.6742867" lon="12.33396"><ele>12.0</ele><time>2026-04-02T16:54:35.95Z</time></trkpt><trkpt lat="45.67422" lon="12.3338483"><ele>12.0</ele><time>2026-04-02T16:54:36.95Z</time></trkpt><trkpt lat="45.6741533" lon="12.3337333"><ele>11.8</ele><time>2026-04-02T16:54:37.949Z</time></trkpt><trkpt lat="45.6740833" lon="12.33362"><ele>11.6</ele><time>2026-04-02T16:54:38.949Z</time></trkpt><trkpt lat="45.674015" lon="12.3335067"><ele>11.4</ele><time>2026-04-02T16:54:39.95Z</time></trkpt><trkpt lat="45.67395" lon="12.3334033"><ele>11.200000000000001</ele><time>2026-04-02T16:54:40.949Z</time></trkpt><trkpt lat="45.67389" lon="12.3333033"><ele>11.0</ele><time>2026-04-02T16:54:41.95Z</time></trkpt><trkpt lat="45.6738267" lon="12.333205"><ele>11.0</ele><time>2026-04-02T16:54:42.949Z</time></trkpt><trkpt lat="45.6737617" lon="12.3331067"><ele>11.0</ele><time>2026-04-02T16:54:43.949Z</time></trkpt><trkpt lat="45.6736933" lon="12.333"><ele>11.0</ele><time>2026-04-02T16:54:44.95Z</time></trkpt><trkpt lat="45.67362" lon="12.33289"><ele>11.0</ele><time>2026-04-02T16:54:45.95Z</time></trkpt><trkpt lat="45.6735483" lon="12.3327833"><ele>11.0</ele><time>2026-04-02T16:54:46.949Z</time></trkpt><trkpt lat="45.6734867" lon="12.332685"><ele>11.0</ele><time>2026-04-02T16:54:47.95Z</time></trkpt><trkpt lat="45.6734367" lon="12.332595"><ele>11.0</ele><time>2026-04-02T16:54:48.95Z</time></trkpt><trkpt lat="45.6733933" lon="12.3325133"><ele>11.0</ele><time>2026-04-02T16:54:49.95Z</time></trkpt><trkpt lat="45.6733667" lon="12.3324267"><ele>11.0</ele><time>2026-04-02T16:54:50.95Z</time></trkpt><trkpt lat="45.6733333" lon="12.332245"><ele>11.0</ele><time>2026-04-02T16:54:52.95Z</time></trkpt><trkpt lat="45.6733117" lon="12.33206"><ele>11.0</ele><time>2026-04-02T16:54:54.949Z</time></trkpt><trkpt lat="45.673285" lon="12.33197"><ele>11.0</ele><time>2026-04-02T16:54:55.95Z</time></trkpt><trkpt lat="45.6732433" lon="12.3318867"><ele>11.0</ele><time>2026-04-02T16:54:56.95Z</time></trkpt><trkpt lat="45.673185" lon="12.3318117"><ele>11.0</ele><time>2026-04-02T16:54:57.95Z</time></trkpt><trkpt lat="45.673115" lon="12.33174"><ele>11.0</ele><time>2026-04-02T16:54:58.95Z</time></trkpt><trkpt lat="45.6730583" lon="12.331695"><ele>11.0</ele><time>2026-04-02T16:54:59.95Z</time></trkpt><trkpt lat="45.6730033" lon="12.33163"><ele>11.0</ele><time>2026-04-02T16:55:00.95Z</time></trkpt><trkpt lat="45.6729617" lon="12.3315333"><ele>11.0</ele><time>2026-04-02T16:55:01.95Z</time></trkpt><trkpt lat="45.672915" lon="12.3314183"><ele>11.0</ele><time>2026-04-02T16:55:02.95Z</time></trkpt><trkpt lat="45.6728633" lon="12.3312817"><ele>11.0</ele><time>2026-04-02T16:55:03.949Z</time></trkpt><trkpt lat="45.6728117" lon="12.3311417"><ele>11.0</ele><time>2026-04-02T16:55:04.95Z</time></trkpt><trkpt lat="45.6727633" lon="12.3309883"><ele>11.0</ele><time>2026-04-02T16:55:05.949Z</time></trkpt><trkpt lat="45.6727183" lon="12.3308317"><ele>11.0</ele><time>2026-04-02T16:55:06.95Z</time></trkpt><trkpt lat="45.6726783" lon="12.3306683"><ele>11.0</ele><time>2026-04-02T16:55:07.95Z</time></trkpt><trkpt lat="45.6726517" lon="12.3305283"><ele>11.0</ele><time>2026-04-02T16:55:08.95Z</time></trkpt><trkpt lat="45.6726133" lon="12.3303567"><ele>11.0</ele><time>2026-04-02T16:55:09.95Z</time></trkpt><trkpt lat="45.672585" lon="12.3301883"><ele>11.0</ele><time>2026-04-02T16:55:10.95Z</time></trkpt><trkpt lat="45.6725533" lon="12.33002"><ele>11.0</ele><time>2026-04-02T16:55:11.95Z</time></trkpt><trkpt lat="45.6725167" lon="12.3298433"><ele>11.0</ele><time>2026-04-02T16:55:12.95Z</time></trkpt><trkpt lat="45.67248" lon="12.3296617"><ele>11.0</ele><time>2026-04-02T16:55:13.95Z</time></trkpt><trkpt lat="45.6724133" lon="12.32931"><ele>11.0</ele><time>2026-04-02T16:55:15.95Z</time></trkpt><trkpt lat="45.6723833" lon="12.3291383"><ele>11.0</ele><time>2026-04-02T16:55:16.95Z</time></trkpt><trkpt lat="45.67235" lon="12.3289633"><ele>11.0</ele><time>2026-04-02T16:55:17.95Z</time></trkpt><trkpt lat="45.6722983" lon="12.3288017"><ele>11.0</ele><time>2026-04-02T16:55:18.95Z</time></trkpt><trkpt lat="45.6722583" lon="12.3286433"><ele>11.200000000000001</ele><time>2026-04-02T16:55:19.949Z</time></trkpt><trkpt lat="45.6722233" lon="12.328485"><ele>11.4</ele><time>2026-04-02T16:55:20.95Z</time></trkpt><trkpt lat="45.6721833" lon="12.328335"><ele>11.6</ele><time>2026-04-02T16:55:21.95Z</time></trkpt><trkpt lat="45.6721383" lon="12.3281867"><ele>11.8</ele><time>2026-04-02T16:55:22.95Z</time></trkpt><trkpt lat="45.6720933" lon="12.3280467"><ele>12.0</ele><time>2026-04-02T16:55:23.949Z</time></trkpt><trkpt lat="45.6720717" lon="12.3279583"><ele>12.0</ele><time>2026-04-02T16:55:24.95Z</time></trkpt><trkpt lat="45.6720217" lon="12.3278517"><ele>12.0</ele><time>2026-04-02T16:55:25.95Z</time></trkpt><trkpt lat="45.67195" lon="12.32772"><ele>12.0</ele><time>2026-04-02T16:55:26.95Z</time></trkpt><trkpt lat="45.6718783" lon="12.3276033"><ele>12.0</ele><time>2026-04-02T16:55:27.949Z</time></trkpt><trkpt lat="45.6718217" lon="12.3274933"><ele>12.0</ele><time>2026-04-02T16:55:28.95Z</time></trkpt><trkpt lat="45.6717717" lon="12.3273733"><ele>12.0</ele><time>2026-04-02T16:55:29.95Z</time></trkpt><trkpt lat="45.67173" lon="12.327265"><ele>12.0</ele><time>2026-04-02T16:55:30.95Z</time></trkpt><trkpt lat="45.67168" lon="12.3271667"><ele>12.0</ele><time>2026-04-02T16:55:31.95Z</time></trkpt><trkpt lat="45.6716333" lon="12.3270533"><ele>12.0</ele><time>2026-04-02T16:55:32.949Z</time></trkpt><trkpt lat="45.671585" lon="12.3269317"><ele>12.0</ele><time>2026-04-02T16:55:33.95Z</time></trkpt><trkpt lat="45.6715183" lon="12.3267983"><ele>12.0</ele><time>2026-04-02T16:55:34.95Z</time></trkpt><trkpt lat="45.6713817" lon="12.3265317"><ele>12.0</ele><time>2026-04-02T16:55:36.95Z</time></trkpt><trkpt lat="45.6713" lon="12.3263767"><ele>12.0</ele><time>2026-04-02T16:55:37.95Z</time></trkpt><trkpt lat="45.671215" lon="12.3262183"><ele>12.0</ele><time>2026-04-02T16:55:38.95Z</time></trkpt><trkpt lat="45.6711417" lon="12.3260733"><ele>12.0</ele><time>2026-04-02T16:55:39.95Z</time></trkpt><trkpt lat="45.67104" lon="12.3259133"><ele>12.0</ele><time>2026-04-02T16:55:40.95Z</time></trkpt><trkpt lat="45.670945" lon="12.3257717"><ele>12.0</ele><time>2026-04-02T16:55:41.949Z</time></trkpt><trkpt lat="45.6708483" lon="12.32564"><ele>11.333333333333334</ele><time>2026-04-02T16:55:42.95Z</time></trkpt><trkpt lat="45.670745" lon="12.325475"><ele>10.666666666666668</ele><time>2026-04-02T16:55:43.949Z</time></trkpt><trkpt lat="45.6706367" lon="12.3253117"><ele>10.0</ele><time>2026-04-02T16:55:44.95Z</time></trkpt><trkpt lat="45.670525" lon="12.3251417"><ele>10.0</ele><time>2026-04-02T16:55:45.949Z</time></trkpt><trkpt lat="45.6704017" lon="12.3249733"><ele>10.0</ele><time>2026-04-02T16:55:46.95Z</time></trkpt><trkpt lat="45.6702867" lon="12.32481"><ele>10.0</ele><time>2026-04-02T16:55:47.949Z</time></trkpt><trkpt lat="45.6701667" lon="12.32464"><ele>10.666666666666668</ele><time>2026-04-02T16:55:48.95Z</time></trkpt><trkpt lat="45.6700317" lon="12.3244617"><ele>11.333333333333334</ele><time>2026-04-02T16:55:49.95Z</time></trkpt><trkpt lat="45.66991" lon="12.3242917"><ele>12.0</ele><time>2026-04-02T16:55:50.95Z</time></trkpt><trkpt lat="45.6697817" lon="12.3241283"><ele>12.0</ele><time>2026-04-02T16:55:51.95Z</time></trkpt><trkpt lat="45.6696483" lon="12.3239483"><ele>12.0</ele><time>2026-04-02T16:55:52.95Z</time></trkpt><trkpt lat="45.6695267" lon="12.3237433"><ele>12.0</ele><time>2026-04-02T16:55:53.95Z</time></trkpt><trkpt lat="45.66942" lon="12.3235317"><ele>10.5</ele><time>2026-04-02T16:55:54.95Z</time></trkpt><trkpt lat="45.6693433" lon="12.3233217"><ele>9.0</ele><time>2026-04-02T16:55:55.95Z</time></trkpt><trkpt lat="45.6691633" lon="12.322965"><ele>9.0</ele><time>2026-04-02T16:55:57.95Z</time></trkpt><trkpt lat="45.6690567" lon="12.322805"><ele>9.0</ele><time>2026-04-02T16:55:58.95Z</time></trkpt><trkpt lat="45.6689433" lon="12.322695"><ele>9.0</ele><time>2026-04-02T16:55:59.95Z</time></trkpt><trkpt lat="45.6688217" lon="12.3226367"><ele>9.0</ele><time>2026-04-02T16:56:00.95Z</time></trkpt><trkpt lat="45.6687083" lon="12.322615"><ele>9.25</ele><time>2026-04-02T16:56:01.95Z</time></trkpt><trkpt lat="45.6686017" lon="12.3226183"><ele>9.5</ele><time>2026-04-02T16:56:02.949Z</time></trkpt><trkpt lat="45.668485" lon="12.322645"><ele>9.75</ele><time>2026-04-02T16:56:03.95Z</time></trkpt><trkpt lat="45.6683833" lon="12.3229283"><ele>10.0</ele><time>2026-04-02T16:56:04.95Z</time></trkpt><trkpt lat="45.6682767" lon="12.32312"><ele>9.333333333333334</ele><time>2026-04-02T16:56:05.95Z</time></trkpt><trkpt lat="45.6681933" lon="12.323345"><ele>8.666666666666666</ele><time>2026-04-02T16:56:06.95Z</time></trkpt><trkpt lat="45.6681433" lon="12.323595"><ele>8.0</ele><time>2026-04-02T16:56:07.95Z</time></trkpt><trkpt lat="45.6681117" lon="12.3238717"><ele>7.333333333333333</ele><time>2026-04-02T16:56:08.95Z</time></trkpt><trkpt lat="45.66808" lon="12.3241117"><ele>6.666666666666666</ele><time>2026-04-02T16:56:09.95Z</time></trkpt><trkpt lat="45.66818" lon="12.3244417"><ele>6.0</ele><time>2026-04-02T16:56:10.95Z</time></trkpt><trkpt lat="45.66825" lon="12.324715"><ele>6.666666666666666</ele><time>2026-04-02T16:56:11.95Z</time></trkpt><trkpt lat="45.668365" lon="12.3250283"><ele>7.333333333333333</ele><time>2026-04-02T16:56:12.95Z</time></trkpt><trkpt lat="45.668385" lon="12.32523"><ele>8.0</ele><time>2026-04-02T16:56:13.95Z</time></trkpt><trkpt lat="45.66841" lon="12.3254717"><ele>8.0</ele><time>2026-04-02T16:56:14.95Z</time></trkpt><trkpt lat="45.6684267" lon="12.3257017"><ele>8.0</ele><time>2026-04-02T16:56:15.95Z</time></trkpt><trkpt lat="45.6684283" lon="12.3259467"><ele>8.0</ele><time>2026-04-02T16:56:16.95Z</time></trkpt><trkpt lat="45.66836" lon="12.3264033"><ele>8.333333333333332</ele><time>2026-04-02T16:56:18.95Z</time></trkpt><trkpt lat="45.6681917" lon="12.326505"><ele>8.666666666666666</ele><time>2026-04-02T16:56:19.95Z</time></trkpt><trkpt lat="45.6680983" lon="12.3266933"><ele>9.0</ele><time>2026-04-02T16:56:20.949Z</time></trkpt><trkpt lat="45.6678917" lon="12.3268567"><ele>9.333333333333334</ele><time>2026-04-02T16:56:21.95Z</time></trkpt><trkpt lat="45.667745" lon="12.327015"><ele>9.666666666666668</ele><time>2026-04-02T16:56:22.95Z</time></trkpt><trkpt lat="45.66757" lon="12.3271533"><ele>10.0</ele><time>2026-04-02T16:56:23.95Z</time></trkpt><trkpt lat="45.6673533" lon="12.3272883"><ele>10.0</ele><time>2026-04-02T16:56:24.95Z</time></trkpt><trkpt lat="45.667135" lon="12.3274167"><ele>10.0</ele><time>2026-04-02T16:56:25.95Z</time></trkpt><trkpt lat="45.6669317" lon="12.32753"><ele>11.333333333333334</ele><time>2026-04-02T16:56:26.95Z</time></trkpt><trkpt lat="45.6667467" lon="12.3276333"><ele>12.666666666666668</ele><time>2026-04-02T16:56:27.95Z</time></trkpt><trkpt lat="45.666575" lon="12.32772"><ele>14.0</ele><time>2026-04-02T16:56:28.95Z</time></trkpt><trkpt lat="45.6664083" lon="12.3277967"><ele>14.0</ele><time>2026-04-02T16:56:29.949Z</time></trkpt><trkpt lat="45.6661983" lon="12.32785"><ele>14.0</ele><time>2026-04-02T16:56:30.95Z</time></trkpt><trkpt lat="45.6659883" lon="12.32789"><ele>14.0</ele><time>2026-04-02T16:56:31.95Z</time></trkpt><trkpt lat="45.66579" lon="12.3279233"><ele>12.5</ele><time>2026-04-02T16:56:32.95Z</time></trkpt><trkpt lat="45.6655683" lon="12.3279"><ele>11.0</ele><time>2026-04-02T16:56:33.95Z</time></trkpt><trkpt lat="45.6653167" lon="12.3278233"><ele>8.0</ele><time>2026-04-02T16:56:34.95Z</time></trkpt><trkpt lat="45.665005" lon="12.3277383"><ele>5.0</ele><time>2026-04-02T16:56:35.95Z</time></trkpt><trkpt lat="45.6648017" lon="12.3277283"><ele>5.0</ele><time>2026-04-02T16:56:36.95Z</time></trkpt><trkpt lat="45.6645983" lon="12.3277533"><ele>5.0</ele><time>2026-04-02T16:56:37.949Z</time></trkpt><trkpt lat="45.6641933" lon="12.3278483"><ele>5.666666666666667</ele><time>2026-04-02T16:56:39.95Z</time></trkpt><trkpt lat="45.664005" lon="12.3279267"><ele>6.333333333333334</ele><time>2026-04-02T16:56:40.95Z</time></trkpt><trkpt lat="45.66382" lon="12.3280233"><ele>7.0</ele><time>2026-04-02T16:56:41.949Z</time></trkpt><trkpt lat="45.6636417" lon="12.3281117"><ele>7.666666666666667</ele><time>2026-04-02T16:56:42.95Z</time></trkpt><trkpt lat="45.663455" lon="12.3281967"><ele>8.333333333333334</ele><time>2026-04-02T16:56:43.95Z</time></trkpt><trkpt lat="45.6632783" lon="12.3282933"><ele>9.0</ele><time>2026-04-02T16:56:44.95Z</time></trkpt><trkpt lat="45.6631017" lon="12.3283867"><ele>9.0</ele><time>2026-04-02T16:56:45.95Z</time></trkpt><trkpt lat="45.6629483" lon="12.3284933"><ele>9.0</ele><time>2026-04-02T16:56:46.95Z</time></trkpt><trkpt lat="45.6627833" lon="12.32861"><ele>9.0</ele><time>2026-04-02T16:56:47.95Z</time></trkpt><trkpt lat="45.6626217" lon="12.3287467"><ele>8.666666666666666</ele><time>2026-04-02T16:56:48.95Z</time></trkpt><trkpt lat="45.6624667" lon="12.3288967"><ele>8.333333333333332</ele><time>2026-04-02T16:56:49.95Z</time></trkpt><trkpt lat="45.6623083" lon="12.32905"><ele>8.0</ele><time>2026-04-02T16:56:50.95Z</time></trkpt><trkpt lat="45.6621733" lon="12.329215"><ele>8.0</ele><time>2026-04-02T16:56:51.95Z</time></trkpt><trkpt lat="45.6620433" lon="12.32936"><ele>8.0</ele><time>2026-04-02T16:56:52.95Z</time></trkpt><trkpt lat="45.6619317" lon="12.3295167"><ele>8.0</ele><time>2026-04-02T16:56:53.95Z</time></trkpt><trkpt lat="45.661825" lon="12.3296783"><ele>8.0</ele><time>2026-04-02T16:56:54.949Z</time></trkpt><trkpt lat="45.6617117" lon="12.32983"><ele>8.0</ele><time>2026-04-02T16:56:55.949Z</time></trkpt><trkpt lat="45.66159" lon="12.3299833"><ele>8.0</ele><time>2026-04-02T16:56:56.949Z</time></trkpt><trkpt lat="45.6614617" lon="12.3301467"><ele>8.0</ele><time>2026-04-02T16:56:57.95Z</time></trkpt><trkpt lat="45.6613467" lon="12.33029"><ele>8.0</ele><time>2026-04-02T16:56:58.95Z</time></trkpt><trkpt lat="45.6610967" lon="12.3305333"><ele>8.75</ele><time>2026-04-02T16:57:00.95Z</time></trkpt><trkpt lat="45.6609883" lon="12.330615"><ele>9.5</ele><time>2026-04-02T16:57:01.95Z</time></trkpt><trkpt lat="45.6608817" lon="12.33069"><ele>10.25</ele><time>2026-04-02T16:57:02.95Z</time></trkpt><trkpt lat="45.6607867" lon="12.3307717"><ele>11.0</ele><time>2026-04-02T16:57:03.95Z</time></trkpt><trkpt lat="45.6606967" lon="12.33083"><ele>11.0</ele><time>2026-04-02T16:57:04.95Z</time></trkpt><trkpt lat="45.6606" lon="12.330875"><ele>11.0</ele><time>2026-04-02T16:57:05.949Z</time></trkpt><trkpt lat="45.66051" lon="12.330905"><ele>11.0</ele><time>2026-04-02T16:57:06.95Z</time></trkpt><trkpt lat="45.6604283" lon="12.3309333"><ele>11.0</ele><time>2026-04-02T16:57:07.95Z</time></trkpt><trkpt lat="45.6603533" lon="12.33097"><ele>11.0</ele><time>2026-04-02T16:57:08.95Z</time></trkpt><trkpt lat="45.6602517" lon="12.3310583"><ele>9.0</ele><time>2026-04-02T16:57:10.95Z</time></trkpt><trkpt lat="45.660225" lon="12.3311633"><ele>9.0</ele><time>2026-04-02T16:57:13.949Z</time></trkpt><trkpt lat="45.6602867" lon="12.3312433"><ele>11.0</ele><time>2026-04-02T16:57:14.949Z</time></trkpt><trkpt lat="45.6603267" lon="12.33132"><ele>11.0</ele><time>2026-04-02T16:57:15.949Z</time></trkpt><trkpt lat="45.6603367" lon="12.3314367"><ele>11.0</ele><time>2026-04-02T16:57:17.949Z</time></trkpt><trkpt lat="45.6604017" lon="12.3315183"><ele>11.0</ele><time>2026-04-02T16:57:19.948Z</time></trkpt></trkseg></trk></gpx>